<?xml version="1.0" encoding="UTF-8" standalone="no" ?>
<gpx xmlns="http://www.topografix.com/GPX/1/1" xmlns:xsi="http://www.w3.org/2001/XMLSchema-instance" xsi:schemaLocation="http://www.topografix.com/GPX/1/1 http://www.topografix.com/GPX/1/1/gpx.xsd" version="1.1" creator="VisuGPX - https://www.visugpx.com">
  <metadata>
    <name>Via-rhôna de Lyon à Sète</name>
    <desc><![CDATA[Via Rhona de Lyon à Sète en 7 jours soit un total de 594 km]]></desc>
  </metadata>
  <trk>
    <name><![CDATA[2019-05-31 09:19:32]]></name>
    <trkseg>
      <trkpt lat="43.51227" lon="4.14506">
        <ele>2</ele>
        <time>2019-05-31T07:19:38.000Z</time>
      </trkpt>
      <trkpt lat="43.51218" lon="4.1451">
        <ele>2.79</ele>
        <time>2019-05-31T07:20:19.000Z</time>
      </trkpt>
      <trkpt lat="43.51214" lon="4.14528">
        <ele>3.98</ele>
        <time>2019-05-31T07:20:24.000Z</time>
      </trkpt>
      <trkpt lat="43.5121" lon="4.14548">
        <ele>2.81</ele>
        <time>2019-05-31T07:20:29.000Z</time>
      </trkpt>
      <trkpt lat="43.51202" lon="4.14565">
        <ele>1.81</ele>
        <time>2019-05-31T07:20:34.000Z</time>
      </trkpt>
      <trkpt lat="43.51197" lon="4.14579">
        <ele>1.79</ele>
        <time>2019-05-31T07:20:39.000Z</time>
      </trkpt>
      <trkpt lat="43.51192" lon="4.14592">
        <ele>3.06</ele>
        <time>2019-05-31T07:21:33.000Z</time>
      </trkpt>
      <trkpt lat="43.51188" lon="4.14608">
        <ele>2.56</ele>
        <time>2019-05-31T07:21:38.000Z</time>
      </trkpt>
      <trkpt lat="43.51185" lon="4.14626">
        <ele>0.11</ele>
        <time>2019-05-31T07:21:43.000Z</time>
      </trkpt>
      <trkpt lat="43.51187" lon="4.14645">
        <ele>2</ele>
        <time>2019-05-31T07:21:48.000Z</time>
      </trkpt>
      <trkpt lat="43.51199" lon="4.14666">
        <ele>0.79</ele>
        <time>2019-05-31T07:21:53.000Z</time>
      </trkpt>
      <trkpt lat="43.51213" lon="4.14688">
        <ele>1.79</ele>
        <time>2019-05-31T07:21:58.000Z</time>
      </trkpt>
      <trkpt lat="43.51229" lon="4.14707">
        <ele>1.79</ele>
        <time>2019-05-31T07:22:03.000Z</time>
      </trkpt>
      <trkpt lat="43.51245" lon="4.14731">
        <ele>0.06</ele>
        <time>2019-05-31T07:22:08.000Z</time>
      </trkpt>
      <trkpt lat="43.51262" lon="4.14755">
        <ele>2</ele>
        <time>2019-05-31T07:22:13.000Z</time>
      </trkpt>
      <trkpt lat="43.51281" lon="4.14776">
        <ele>2</ele>
        <time>2019-05-31T07:22:18.000Z</time>
      </trkpt>
      <trkpt lat="43.513" lon="4.14794">
        <ele>3</ele>
        <time>2019-05-31T07:22:23.000Z</time>
      </trkpt>
      <trkpt lat="43.5132" lon="4.14813">
        <ele>0.79</ele>
        <time>2019-05-31T07:22:28.000Z</time>
      </trkpt>
      <trkpt lat="43.51339" lon="4.14831">
        <ele>0.79</ele>
        <time>2019-05-31T07:22:33.000Z</time>
      </trkpt>
      <trkpt lat="43.51358" lon="4.1485">
        <ele>0.79</ele>
        <time>2019-05-31T07:22:38.000Z</time>
      </trkpt>
      <trkpt lat="43.51377" lon="4.1487">
        <ele>3</ele>
        <time>2019-05-31T07:22:43.000Z</time>
      </trkpt>
      <trkpt lat="43.51398" lon="4.14889">
        <ele>3</ele>
        <time>2019-05-31T07:22:48.000Z</time>
      </trkpt>
      <trkpt lat="43.51416" lon="4.14908">
        <ele>3</ele>
        <time>2019-05-31T07:22:53.000Z</time>
      </trkpt>
      <trkpt lat="43.51434" lon="4.14928">
        <ele>0.79</ele>
        <time>2019-05-31T07:22:58.000Z</time>
      </trkpt>
      <trkpt lat="43.51455" lon="4.14946">
        <ele>1.79</ele>
        <time>2019-05-31T07:23:03.000Z</time>
      </trkpt>
      <trkpt lat="43.51473" lon="4.14964">
        <ele>1.79</ele>
        <time>2019-05-31T07:23:08.000Z</time>
      </trkpt>
      <trkpt lat="43.51496" lon="4.1498">
        <ele>3.72</ele>
        <time>2019-05-31T07:23:13.000Z</time>
      </trkpt>
      <trkpt lat="43.51516" lon="4.14996">
        <ele>5.74</ele>
        <time>2019-05-31T07:23:18.000Z</time>
      </trkpt>
      <trkpt lat="43.5154" lon="4.15008">
        <ele>4.8</ele>
        <time>2019-05-31T07:23:23.000Z</time>
      </trkpt>
      <trkpt lat="43.51562" lon="4.15016">
        <ele>3.8</ele>
        <time>2019-05-31T07:23:28.000Z</time>
      </trkpt>
      <trkpt lat="43.51582" lon="4.1502">
        <ele>4.79</ele>
        <time>2019-05-31T07:23:33.000Z</time>
      </trkpt>
      <trkpt lat="43.51604" lon="4.15024">
        <ele>3.06</ele>
        <time>2019-05-31T07:23:38.000Z</time>
      </trkpt>
      <trkpt lat="43.51625" lon="4.15027">
        <ele>3.73</ele>
        <time>2019-05-31T07:23:43.000Z</time>
      </trkpt>
      <trkpt lat="43.51645" lon="4.15032">
        <ele>4.03</ele>
        <time>2019-05-31T07:23:48.000Z</time>
      </trkpt>
      <trkpt lat="43.51666" lon="4.15036">
        <ele>4.79</ele>
        <time>2019-05-31T07:23:53.000Z</time>
      </trkpt>
      <trkpt lat="43.5168" lon="4.15025">
        <ele>3.8</ele>
        <time>2019-05-31T07:23:58.000Z</time>
      </trkpt>
      <trkpt lat="43.51689" lon="4.15013">
        <ele>3.79</ele>
        <time>2019-05-31T07:24:03.000Z</time>
      </trkpt>
      <trkpt lat="43.51703" lon="4.15007">
        <ele>5.54</ele>
        <time>2019-05-31T07:24:08.000Z</time>
      </trkpt>
      <trkpt lat="43.51717" lon="4.15015">
        <ele>5.79</ele>
        <time>2019-05-31T07:24:13.000Z</time>
      </trkpt>
      <trkpt lat="43.51723" lon="4.15026">
        <ele>4.81</ele>
        <time>2019-05-31T07:24:18.000Z</time>
      </trkpt>
      <trkpt lat="43.51734" lon="4.15034">
        <ele>4.79</ele>
        <time>2019-05-31T07:24:23.000Z</time>
      </trkpt>
      <trkpt lat="43.51756" lon="4.15033">
        <ele>2.86</ele>
        <time>2019-05-31T07:24:28.000Z</time>
      </trkpt>
      <trkpt lat="43.51778" lon="4.15032">
        <ele>2.84</ele>
        <time>2019-05-31T07:24:33.000Z</time>
      </trkpt>
      <trkpt lat="43.51804" lon="4.15028">
        <ele>2.04</ele>
        <time>2019-05-31T07:24:38.000Z</time>
      </trkpt>
      <trkpt lat="43.5183" lon="4.15021">
        <ele>1.85</ele>
        <time>2019-05-31T07:24:43.000Z</time>
      </trkpt>
      <trkpt lat="43.51856" lon="4.1501">
        <ele>1.98</ele>
        <time>2019-05-31T07:24:48.000Z</time>
      </trkpt>
      <trkpt lat="43.51883" lon="4.15002">
        <ele>1.79</ele>
        <time>2019-05-31T07:24:53.000Z</time>
      </trkpt>
      <trkpt lat="43.5191" lon="4.14992">
        <ele>1.79</ele>
        <time>2019-05-31T07:24:58.000Z</time>
      </trkpt>
      <trkpt lat="43.51937" lon="4.14986">
        <ele>1.74</ele>
        <time>2019-05-31T07:25:03.000Z</time>
      </trkpt>
      <trkpt lat="43.51964" lon="4.14982">
        <ele>0.79</ele>
        <time>2019-05-31T07:25:08.000Z</time>
      </trkpt>
      <trkpt lat="43.51992" lon="4.1498">
        <ele>0.56</ele>
        <time>2019-05-31T07:25:13.000Z</time>
      </trkpt>
      <trkpt lat="43.52019" lon="4.14978">
        <ele>0.04</ele>
        <time>2019-05-31T07:25:18.000Z</time>
      </trkpt>
      <trkpt lat="43.52046" lon="4.14977">
        <ele>3</ele>
        <time>2019-05-31T07:25:23.000Z</time>
      </trkpt>
      <trkpt lat="43.52072" lon="4.14975">
        <ele>2</ele>
        <time>2019-05-31T07:25:28.000Z</time>
      </trkpt>
      <trkpt lat="43.52099" lon="4.14973">
        <ele>0.77</ele>
        <time>2019-05-31T07:25:33.000Z</time>
      </trkpt>
      <trkpt lat="43.52126" lon="4.14971">
        <ele>0.79</ele>
        <time>2019-05-31T07:25:38.000Z</time>
      </trkpt>
      <trkpt lat="43.5215" lon="4.14969">
        <ele>0.85</ele>
        <time>2019-05-31T07:25:43.000Z</time>
      </trkpt>
      <trkpt lat="43.52174" lon="4.14966">
        <ele>0.04</ele>
        <time>2019-05-31T07:25:48.000Z</time>
      </trkpt>
      <trkpt lat="43.52196" lon="4.14962">
        <ele>2</ele>
        <time>2019-05-31T07:25:53.000Z</time>
      </trkpt>
      <trkpt lat="43.52217" lon="4.14955">
        <ele>0.73</ele>
        <time>2019-05-31T07:25:58.000Z</time>
      </trkpt>
      <trkpt lat="43.52238" lon="4.14951">
        <ele>1</ele>
        <time>2019-05-31T07:26:03.000Z</time>
      </trkpt>
      <trkpt lat="43.5226" lon="4.1494">
        <ele>1</ele>
        <time>2019-05-31T07:26:08.000Z</time>
      </trkpt>
      <trkpt lat="43.5228" lon="4.14929">
        <ele>1</ele>
        <time>2019-05-31T07:26:13.000Z</time>
      </trkpt>
      <trkpt lat="43.52301" lon="4.14918">
        <ele>1</ele>
        <time>2019-05-31T07:26:18.000Z</time>
      </trkpt>
      <trkpt lat="43.52323" lon="4.14915">
        <ele>0.54</ele>
        <time>2019-05-31T07:26:23.000Z</time>
      </trkpt>
      <trkpt lat="43.52344" lon="4.14924">
        <ele>1.54</ele>
        <time>2019-05-31T07:26:28.000Z</time>
      </trkpt>
      <trkpt lat="43.52363" lon="4.14936">
        <ele>1.6</ele>
        <time>2019-05-31T07:26:33.000Z</time>
      </trkpt>
      <trkpt lat="43.52383" lon="4.14948">
        <ele>1.73</ele>
        <time>2019-05-31T07:26:38.000Z</time>
      </trkpt>
      <trkpt lat="43.52403" lon="4.14959">
        <ele>1.79</ele>
        <time>2019-05-31T07:26:43.000Z</time>
      </trkpt>
      <trkpt lat="43.52423" lon="4.14969">
        <ele>1.79</ele>
        <time>2019-05-31T07:26:48.000Z</time>
      </trkpt>
      <trkpt lat="43.52443" lon="4.1498">
        <ele>2.73</ele>
        <time>2019-05-31T07:26:53.000Z</time>
      </trkpt>
      <trkpt lat="43.52462" lon="4.14992">
        <ele>1.79</ele>
        <time>2019-05-31T07:26:58.000Z</time>
      </trkpt>
      <trkpt lat="43.52481" lon="4.15004">
        <ele>2.79</ele>
        <time>2019-05-31T07:27:03.000Z</time>
      </trkpt>
      <trkpt lat="43.52499" lon="4.15008">
        <ele>3.78</ele>
        <time>2019-05-31T07:27:08.000Z</time>
      </trkpt>
      <trkpt lat="43.52517" lon="4.15013">
        <ele>3.79</ele>
        <time>2019-05-31T07:27:13.000Z</time>
      </trkpt>
      <trkpt lat="43.52532" lon="4.15033">
        <ele>3.79</ele>
        <time>2019-05-31T07:27:18.000Z</time>
      </trkpt>
      <trkpt lat="43.52549" lon="4.15038">
        <ele>3.79</ele>
        <time>2019-05-31T07:27:23.000Z</time>
      </trkpt>
      <trkpt lat="43.5257" lon="4.15028">
        <ele>2.79</ele>
        <time>2019-05-31T07:27:28.000Z</time>
      </trkpt>
      <trkpt lat="43.52587" lon="4.15009">
        <ele>2.79</ele>
        <time>2019-05-31T07:27:33.000Z</time>
      </trkpt>
      <trkpt lat="43.52592" lon="4.14979">
        <ele>2.79</ele>
        <time>2019-05-31T07:27:38.000Z</time>
      </trkpt>
      <trkpt lat="43.52586" lon="4.14955">
        <ele>2.79</ele>
        <time>2019-05-31T07:27:43.000Z</time>
      </trkpt>
      <trkpt lat="43.52591" lon="4.1494">
        <ele>3.72</ele>
        <time>2019-05-31T07:27:48.000Z</time>
      </trkpt>
      <trkpt lat="43.52601" lon="4.14929">
        <ele>3.6</ele>
        <time>2019-05-31T07:27:53.000Z</time>
      </trkpt>
      <trkpt lat="43.52613" lon="4.14918">
        <ele>2.79</ele>
        <time>2019-05-31T07:27:58.000Z</time>
      </trkpt>
      <trkpt lat="43.52632" lon="4.14924">
        <ele>4.66</ele>
        <time>2019-05-31T07:28:03.000Z</time>
      </trkpt>
      <trkpt lat="43.52654" lon="4.14929">
        <ele>2.79</ele>
        <time>2019-05-31T07:28:08.000Z</time>
      </trkpt>
      <trkpt lat="43.52679" lon="4.14932">
        <ele>1.79</ele>
        <time>2019-05-31T07:28:13.000Z</time>
      </trkpt>
      <trkpt lat="43.527" lon="4.14934">
        <ele>1.72</ele>
        <time>2019-05-31T07:28:18.000Z</time>
      </trkpt>
      <trkpt lat="43.52714" lon="4.14934">
        <ele>2.77</ele>
        <time>2019-05-31T07:28:23.000Z</time>
      </trkpt>
      <trkpt lat="43.52727" lon="4.14943">
        <ele>1.8</ele>
        <time>2019-05-31T07:28:28.000Z</time>
      </trkpt>
      <trkpt lat="43.52749" lon="4.14945">
        <ele>3.72</ele>
        <time>2019-05-31T07:28:33.000Z</time>
      </trkpt>
      <trkpt lat="43.52772" lon="4.14944">
        <ele>4.54</ele>
        <time>2019-05-31T07:28:38.000Z</time>
      </trkpt>
      <trkpt lat="43.52794" lon="4.14945">
        <ele>4.79</ele>
        <time>2019-05-31T07:28:43.000Z</time>
      </trkpt>
      <trkpt lat="43.52815" lon="4.14948">
        <ele>4.59</ele>
        <time>2019-05-31T07:28:48.000Z</time>
      </trkpt>
      <trkpt lat="43.52837" lon="4.14945">
        <ele>4.54</ele>
        <time>2019-05-31T07:28:53.000Z</time>
      </trkpt>
      <trkpt lat="43.52854" lon="4.14943">
        <ele>4.78</ele>
        <time>2019-05-31T07:28:58.000Z</time>
      </trkpt>
      <trkpt lat="43.52874" lon="4.14942">
        <ele>3.8</ele>
        <time>2019-05-31T07:29:03.000Z</time>
      </trkpt>
      <trkpt lat="43.52897" lon="4.14936">
        <ele>4.78</ele>
        <time>2019-05-31T07:29:08.000Z</time>
      </trkpt>
      <trkpt lat="43.5291" lon="4.14905">
        <ele>3.8</ele>
        <time>2019-05-31T07:29:13.000Z</time>
      </trkpt>
      <trkpt lat="43.52923" lon="4.14875">
        <ele>2.8</ele>
        <time>2019-05-31T07:29:18.000Z</time>
      </trkpt>
      <trkpt lat="43.52937" lon="4.14845">
        <ele>2.78</ele>
        <time>2019-05-31T07:29:23.000Z</time>
      </trkpt>
      <trkpt lat="43.52952" lon="4.14815">
        <ele>5.71</ele>
        <time>2019-05-31T07:29:28.000Z</time>
      </trkpt>
      <trkpt lat="43.52964" lon="4.14787">
        <ele>5.02</ele>
        <time>2019-05-31T07:29:33.000Z</time>
      </trkpt>
      <trkpt lat="43.52979" lon="4.14754">
        <ele>4.03</ele>
        <time>2019-05-31T07:29:38.000Z</time>
      </trkpt>
      <trkpt lat="43.52994" lon="4.14719">
        <ele>2.85</ele>
        <time>2019-05-31T07:29:43.000Z</time>
      </trkpt>
      <trkpt lat="43.53009" lon="4.14687">
        <ele>2.08</ele>
        <time>2019-05-31T07:29:48.000Z</time>
      </trkpt>
      <trkpt lat="43.53023" lon="4.14657">
        <ele>1.79</ele>
        <time>2019-05-31T07:29:53.000Z</time>
      </trkpt>
      <trkpt lat="43.53036" lon="4.14626">
        <ele>2.72</ele>
        <time>2019-05-31T07:29:58.000Z</time>
      </trkpt>
      <trkpt lat="43.53048" lon="4.14594">
        <ele>2.8</ele>
        <time>2019-05-31T07:30:03.000Z</time>
      </trkpt>
      <trkpt lat="43.53063" lon="4.1456">
        <ele>1.85</ele>
        <time>2019-05-31T07:30:08.000Z</time>
      </trkpt>
      <trkpt lat="43.53078" lon="4.14525">
        <ele>1.8</ele>
        <time>2019-05-31T07:30:13.000Z</time>
      </trkpt>
      <trkpt lat="43.53093" lon="4.14492">
        <ele>0.8</ele>
        <time>2019-05-31T07:30:18.000Z</time>
      </trkpt>
      <trkpt lat="43.53107" lon="4.14459">
        <ele>3.7</ele>
        <time>2019-05-31T07:30:23.000Z</time>
      </trkpt>
      <trkpt lat="43.5312" lon="4.14425">
        <ele>5.53</ele>
        <time>2019-05-31T07:30:28.000Z</time>
      </trkpt>
      <trkpt lat="43.53134" lon="4.14397">
        <ele>4.84</ele>
        <time>2019-05-31T07:30:33.000Z</time>
      </trkpt>
      <trkpt lat="43.53149" lon="4.14362">
        <ele>4.78</ele>
        <time>2019-05-31T07:30:38.000Z</time>
      </trkpt>
      <trkpt lat="43.53166" lon="4.14329">
        <ele>3.79</ele>
        <time>2019-05-31T07:30:43.000Z</time>
      </trkpt>
      <trkpt lat="43.53181" lon="4.14293">
        <ele>3.78</ele>
        <time>2019-05-31T07:30:48.000Z</time>
      </trkpt>
      <trkpt lat="43.53197" lon="4.14258">
        <ele>2.79</ele>
        <time>2019-05-31T07:30:53.000Z</time>
      </trkpt>
      <trkpt lat="43.53212" lon="4.14222">
        <ele>2.84</ele>
        <time>2019-05-31T07:30:58.000Z</time>
      </trkpt>
      <trkpt lat="43.53226" lon="4.14188">
        <ele>4.76</ele>
        <time>2019-05-31T07:31:03.000Z</time>
      </trkpt>
      <trkpt lat="43.53241" lon="4.1416">
        <ele>2.8</ele>
        <time>2019-05-31T07:31:08.000Z</time>
      </trkpt>
      <trkpt lat="43.53253" lon="4.1413">
        <ele>3.78</ele>
        <time>2019-05-31T07:31:13.000Z</time>
      </trkpt>
      <trkpt lat="43.53264" lon="4.14108">
        <ele>3.03</ele>
        <time>2019-05-31T07:31:18.000Z</time>
      </trkpt>
      <trkpt lat="43.53275" lon="4.1408">
        <ele>3.78</ele>
        <time>2019-05-31T07:31:23.000Z</time>
      </trkpt>
      <trkpt lat="43.53286" lon="4.14052">
        <ele>3.73</ele>
        <time>2019-05-31T07:31:28.000Z</time>
      </trkpt>
      <trkpt lat="43.53298" lon="4.14023">
        <ele>3.77</ele>
        <time>2019-05-31T07:31:33.000Z</time>
      </trkpt>
      <trkpt lat="43.53312" lon="4.13993">
        <ele>4.72</ele>
        <time>2019-05-31T07:31:38.000Z</time>
      </trkpt>
      <trkpt lat="43.53324" lon="4.13966">
        <ele>4.78</ele>
        <time>2019-05-31T07:31:43.000Z</time>
      </trkpt>
      <trkpt lat="43.5334" lon="4.13936">
        <ele>3.84</ele>
        <time>2019-05-31T07:31:48.000Z</time>
      </trkpt>
      <trkpt lat="43.53354" lon="4.13905">
        <ele>2.05</ele>
        <time>2019-05-31T07:31:53.000Z</time>
      </trkpt>
      <trkpt lat="43.53363" lon="4.13876">
        <ele>2.83</ele>
        <time>2019-05-31T07:31:58.000Z</time>
      </trkpt>
      <trkpt lat="43.53371" lon="4.13864">
        <ele>5.46</ele>
        <time>2019-05-31T07:32:03.000Z</time>
      </trkpt>
      <trkpt lat="43.53382" lon="4.1385">
        <ele>5.02</ele>
        <time>2019-05-31T07:32:08.000Z</time>
      </trkpt>
      <trkpt lat="43.53396" lon="4.13833">
        <ele>4.82</ele>
        <time>2019-05-31T07:32:13.000Z</time>
      </trkpt>
      <trkpt lat="43.534" lon="4.1381">
        <ele>2.8</ele>
        <time>2019-05-31T07:32:18.000Z</time>
      </trkpt>
      <trkpt lat="43.53394" lon="4.138">
        <ele>5.51</ele>
        <time>2019-05-31T07:32:23.000Z</time>
      </trkpt>
      <trkpt lat="43.53387" lon="4.1379">
        <ele>3.78</ele>
        <time>2019-05-31T07:34:22.000Z</time>
      </trkpt>
      <trkpt lat="43.5338" lon="4.13783">
        <ele>4.78</ele>
        <time>2019-05-31T07:34:28.000Z</time>
      </trkpt>
      <trkpt lat="43.53372" lon="4.13773">
        <ele>4.78</ele>
        <time>2019-05-31T07:34:33.000Z</time>
      </trkpt>
      <trkpt lat="43.5337" lon="4.13756">
        <ele>6.72</ele>
        <time>2019-05-31T07:34:38.000Z</time>
      </trkpt>
      <trkpt lat="43.53375" lon="4.13738">
        <ele>6.78</ele>
        <time>2019-05-31T07:34:43.000Z</time>
      </trkpt>
      <trkpt lat="43.53388" lon="4.13724">
        <ele>7.02</ele>
        <time>2019-05-31T07:34:48.000Z</time>
      </trkpt>
      <trkpt lat="43.53401" lon="4.13712">
        <ele>6.78</ele>
        <time>2019-05-31T07:34:53.000Z</time>
      </trkpt>
      <trkpt lat="43.53413" lon="4.13693">
        <ele>5.8</ele>
        <time>2019-05-31T07:34:58.000Z</time>
      </trkpt>
      <trkpt lat="43.53427" lon="4.1368">
        <ele>5.79</ele>
        <time>2019-05-31T07:35:03.000Z</time>
      </trkpt>
      <trkpt lat="43.53442" lon="4.13665">
        <ele>5.78</ele>
        <time>2019-05-31T07:35:08.000Z</time>
      </trkpt>
      <trkpt lat="43.53457" lon="4.13652">
        <ele>4.84</ele>
        <time>2019-05-31T07:35:13.000Z</time>
      </trkpt>
      <trkpt lat="43.5347" lon="4.13634">
        <ele>4.79</ele>
        <time>2019-05-31T07:35:18.000Z</time>
      </trkpt>
      <trkpt lat="43.53484" lon="4.13621">
        <ele>5.76</ele>
        <time>2019-05-31T07:35:23.000Z</time>
      </trkpt>
      <trkpt lat="43.53499" lon="4.13609">
        <ele>3.84</ele>
        <time>2019-05-31T07:35:28.000Z</time>
      </trkpt>
      <trkpt lat="43.53513" lon="4.13592">
        <ele>3.78</ele>
        <time>2019-05-31T07:35:33.000Z</time>
      </trkpt>
      <trkpt lat="43.53527" lon="4.13575">
        <ele>4.53</ele>
        <time>2019-05-31T07:35:38.000Z</time>
      </trkpt>
      <trkpt lat="43.5354" lon="4.13561">
        <ele>5.76</ele>
        <time>2019-05-31T07:35:43.000Z</time>
      </trkpt>
      <trkpt lat="43.53544" lon="4.13535">
        <ele>5.97</ele>
        <time>2019-05-31T07:35:48.000Z</time>
      </trkpt>
      <trkpt lat="43.53543" lon="4.13507">
        <ele>6.78</ele>
        <time>2019-05-31T07:35:53.000Z</time>
      </trkpt>
      <trkpt lat="43.53542" lon="4.13477">
        <ele>7.53</ele>
        <time>2019-05-31T07:35:58.000Z</time>
      </trkpt>
      <trkpt lat="43.53544" lon="4.13448">
        <ele>7.03</ele>
        <time>2019-05-31T07:36:03.000Z</time>
      </trkpt>
      <trkpt lat="43.53555" lon="4.13426">
        <ele>5.78</ele>
        <time>2019-05-31T07:36:08.000Z</time>
      </trkpt>
      <trkpt lat="43.5357" lon="4.13423">
        <ele>4.54</ele>
        <time>2019-05-31T07:36:13.000Z</time>
      </trkpt>
      <trkpt lat="43.53575" lon="4.13433">
        <ele>5.77</ele>
        <time>2019-05-31T07:36:18.000Z</time>
      </trkpt>
      <trkpt lat="43.53581" lon="4.13452">
        <ele>6.76</ele>
        <time>2019-05-31T07:36:23.000Z</time>
      </trkpt>
      <trkpt lat="43.5359" lon="4.13471">
        <ele>7.77</ele>
        <time>2019-05-31T07:36:28.000Z</time>
      </trkpt>
      <trkpt lat="43.53598" lon="4.13489">
        <ele>7.78</ele>
        <time>2019-05-31T07:36:33.000Z</time>
      </trkpt>
      <trkpt lat="43.53606" lon="4.13507">
        <ele>7.78</ele>
        <time>2019-05-31T07:36:38.000Z</time>
      </trkpt>
      <trkpt lat="43.53612" lon="4.13525">
        <ele>7.78</ele>
        <time>2019-05-31T07:36:43.000Z</time>
      </trkpt>
      <trkpt lat="43.53619" lon="4.13536">
        <ele>8.78</ele>
        <time>2019-05-31T07:36:48.000Z</time>
      </trkpt>
      <trkpt lat="43.53623" lon="4.1355">
        <ele>10.78</ele>
        <time>2019-05-31T07:36:54.000Z</time>
      </trkpt>
      <trkpt lat="43.53631" lon="4.13556">
        <ele>12.02</ele>
        <time>2019-05-31T07:37:05.000Z</time>
      </trkpt>
      <trkpt lat="43.53635" lon="4.13569">
        <ele>8.96</ele>
        <time>2019-05-31T07:37:11.000Z</time>
      </trkpt>
      <trkpt lat="43.53638" lon="4.13584">
        <ele>8.59</ele>
        <time>2019-05-31T07:37:16.000Z</time>
      </trkpt>
      <trkpt lat="43.53645" lon="4.13594">
        <ele>12.51</ele>
        <time>2019-05-31T07:37:23.000Z</time>
      </trkpt>
      <trkpt lat="43.53651" lon="4.13607">
        <ele>11.78</ele>
        <time>2019-05-31T07:37:28.000Z</time>
      </trkpt>
      <trkpt lat="43.53659" lon="4.13617">
        <ele>12.72</ele>
        <time>2019-05-31T07:37:33.000Z</time>
      </trkpt>
      <trkpt lat="43.53665" lon="4.13626">
        <ele>11.78</ele>
        <time>2019-05-31T07:37:40.000Z</time>
      </trkpt>
      <trkpt lat="43.53674" lon="4.13632">
        <ele>13.7</ele>
        <time>2019-05-31T07:37:46.000Z</time>
      </trkpt>
      <trkpt lat="43.53678" lon="4.13649">
        <ele>13.77</ele>
        <time>2019-05-31T07:37:51.000Z</time>
      </trkpt>
      <trkpt lat="43.53686" lon="4.13663">
        <ele>14.53</ele>
        <time>2019-05-31T07:37:56.000Z</time>
      </trkpt>
      <trkpt lat="43.53693" lon="4.13676">
        <ele>12.85</ele>
        <time>2019-05-31T07:38:01.000Z</time>
      </trkpt>
      <trkpt lat="43.53695" lon="4.13694">
        <ele>11.03</ele>
        <time>2019-05-31T07:38:06.000Z</time>
      </trkpt>
      <trkpt lat="43.53704" lon="4.13707">
        <ele>10.71</ele>
        <time>2019-05-31T07:38:11.000Z</time>
      </trkpt>
      <trkpt lat="43.53709" lon="4.13718">
        <ele>12.53</ele>
        <time>2019-05-31T07:38:17.000Z</time>
      </trkpt>
      <trkpt lat="43.53716" lon="4.13729">
        <ele>14.77</ele>
        <time>2019-05-31T07:38:25.000Z</time>
      </trkpt>
      <trkpt lat="43.53721" lon="4.1374">
        <ele>13.04</ele>
        <time>2019-05-31T07:38:31.000Z</time>
      </trkpt>
      <trkpt lat="43.53726" lon="4.13754">
        <ele>12.84</ele>
        <time>2019-05-31T07:38:36.000Z</time>
      </trkpt>
      <trkpt lat="43.53735" lon="4.13764">
        <ele>11.59</ele>
        <time>2019-05-31T07:38:45.000Z</time>
      </trkpt>
      <trkpt lat="43.53749" lon="4.1375">
        <ele>13.75</ele>
        <time>2019-05-31T07:38:50.000Z</time>
      </trkpt>
      <trkpt lat="43.53762" lon="4.13736">
        <ele>12.53</ele>
        <time>2019-05-31T07:38:55.000Z</time>
      </trkpt>
      <trkpt lat="43.53771" lon="4.13726">
        <ele>9.86</ele>
        <time>2019-05-31T07:39:00.000Z</time>
      </trkpt>
      <trkpt lat="43.53768" lon="4.13705">
        <ele>6.84</ele>
        <time>2019-05-31T07:39:05.000Z</time>
      </trkpt>
      <trkpt lat="43.53758" lon="4.13685">
        <ele>3.81</ele>
        <time>2019-05-31T07:39:10.000Z</time>
      </trkpt>
      <trkpt lat="43.53748" lon="4.13667">
        <ele>4.76</ele>
        <time>2019-05-31T07:39:15.000Z</time>
      </trkpt>
      <trkpt lat="43.53739" lon="4.1365">
        <ele>3.03</ele>
        <time>2019-05-31T07:39:20.000Z</time>
      </trkpt>
      <trkpt lat="43.53733" lon="4.13632">
        <ele>2.77</ele>
        <time>2019-05-31T07:39:25.000Z</time>
      </trkpt>
      <trkpt lat="43.53727" lon="4.13613">
        <ele>1.09</ele>
        <time>2019-05-31T07:39:30.000Z</time>
      </trkpt>
      <trkpt lat="43.5372" lon="4.13595">
        <ele>5</ele>
        <time>2019-05-31T07:39:35.000Z</time>
      </trkpt>
      <trkpt lat="43.5371" lon="4.13579">
        <ele>5</ele>
        <time>2019-05-31T07:39:40.000Z</time>
      </trkpt>
      <trkpt lat="43.53703" lon="4.13561">
        <ele>0.77</ele>
        <time>2019-05-31T07:39:45.000Z</time>
      </trkpt>
      <trkpt lat="43.53693" lon="4.1354">
        <ele>5</ele>
        <time>2019-05-31T07:39:50.000Z</time>
      </trkpt>
      <trkpt lat="43.53683" lon="4.13525">
        <ele>0.53</ele>
        <time>2019-05-31T07:39:55.000Z</time>
      </trkpt>
      <trkpt lat="43.53677" lon="4.13516">
        <ele>5</ele>
        <time>2019-05-31T07:40:02.000Z</time>
      </trkpt>
      <trkpt lat="43.53669" lon="4.13506">
        <ele>0.73</ele>
        <time>2019-05-31T07:40:08.000Z</time>
      </trkpt>
      <trkpt lat="43.53662" lon="4.1349">
        <ele>1.72</ele>
        <time>2019-05-31T07:40:13.000Z</time>
      </trkpt>
      <trkpt lat="43.53652" lon="4.13473">
        <ele>2.02</ele>
        <time>2019-05-31T07:40:18.000Z</time>
      </trkpt>
      <trkpt lat="43.53644" lon="4.13463">
        <ele>2.78</ele>
        <time>2019-05-31T07:40:24.000Z</time>
      </trkpt>
      <trkpt lat="43.53647" lon="4.13475">
        <ele>7.71</ele>
        <time>2019-05-31T07:40:35.000Z</time>
      </trkpt>
      <trkpt lat="43.53657" lon="4.13494">
        <ele>5.79</ele>
        <time>2019-05-31T07:40:40.000Z</time>
      </trkpt>
      <trkpt lat="43.53667" lon="4.13511">
        <ele>6.96</ele>
        <time>2019-05-31T07:40:45.000Z</time>
      </trkpt>
      <trkpt lat="43.53678" lon="4.13531">
        <ele>7.59</ele>
        <time>2019-05-31T07:40:50.000Z</time>
      </trkpt>
      <trkpt lat="43.53687" lon="4.13546">
        <ele>7.78</ele>
        <time>2019-05-31T07:40:55.000Z</time>
      </trkpt>
      <trkpt lat="43.53692" lon="4.13558">
        <ele>8.53</ele>
        <time>2019-05-31T07:41:02.000Z</time>
      </trkpt>
      <trkpt lat="43.53697" lon="4.13569">
        <ele>10.71</ele>
        <time>2019-05-31T07:41:10.000Z</time>
      </trkpt>
      <trkpt lat="43.53703" lon="4.13585">
        <ele>10.76</ele>
        <time>2019-05-31T07:41:15.000Z</time>
      </trkpt>
      <trkpt lat="43.53713" lon="4.13582">
        <ele>12.96</ele>
        <time>2019-05-31T07:41:21.000Z</time>
      </trkpt>
      <trkpt lat="43.53718" lon="4.13572">
        <ele>10.8</ele>
        <time>2019-05-31T07:41:26.000Z</time>
      </trkpt>
      <trkpt lat="43.53731" lon="4.13559">
        <ele>9.04</ele>
        <time>2019-05-31T07:41:31.000Z</time>
      </trkpt>
      <trkpt lat="43.53744" lon="4.13548">
        <ele>8.77</ele>
        <time>2019-05-31T07:41:36.000Z</time>
      </trkpt>
      <trkpt lat="43.53755" lon="4.13557">
        <ele>8.03</ele>
        <time>2019-05-31T07:41:41.000Z</time>
      </trkpt>
      <trkpt lat="43.53764" lon="4.13576">
        <ele>9.46</ele>
        <time>2019-05-31T07:41:46.000Z</time>
      </trkpt>
      <trkpt lat="43.53773" lon="4.13596">
        <ele>10.53</ele>
        <time>2019-05-31T07:41:51.000Z</time>
      </trkpt>
      <trkpt lat="43.53781" lon="4.1361">
        <ele>9.84</ele>
        <time>2019-05-31T07:41:56.000Z</time>
      </trkpt>
      <trkpt lat="43.53787" lon="4.13627">
        <ele>9.84</ele>
        <time>2019-05-31T07:42:01.000Z</time>
      </trkpt>
      <trkpt lat="43.53797" lon="4.13649">
        <ele>10.02</ele>
        <time>2019-05-31T07:42:06.000Z</time>
      </trkpt>
      <trkpt lat="43.53808" lon="4.13671">
        <ele>8.97</ele>
        <time>2019-05-31T07:42:11.000Z</time>
      </trkpt>
      <trkpt lat="43.53816" lon="4.13686">
        <ele>8.59</ele>
        <time>2019-05-31T07:42:16.000Z</time>
      </trkpt>
      <trkpt lat="43.53824" lon="4.13697">
        <ele>9.84</ele>
        <time>2019-05-31T07:42:24.000Z</time>
      </trkpt>
      <trkpt lat="43.5384" lon="4.13726">
        <ele>8.8</ele>
        <time>2019-05-31T07:42:29.000Z</time>
      </trkpt>
      <trkpt lat="43.53848" lon="4.13743">
        <ele>8.53</ele>
        <time>2019-05-31T07:42:34.000Z</time>
      </trkpt>
      <trkpt lat="43.53853" lon="4.13754">
        <ele>9.53</ele>
        <time>2019-05-31T07:42:40.000Z</time>
      </trkpt>
      <trkpt lat="43.53865" lon="4.13755">
        <ele>6.59</ele>
        <time>2019-05-31T07:42:45.000Z</time>
      </trkpt>
      <trkpt lat="43.5388" lon="4.13741">
        <ele>5.78</ele>
        <time>2019-05-31T07:42:50.000Z</time>
      </trkpt>
      <trkpt lat="43.53896" lon="4.13728">
        <ele>5.78</ele>
        <time>2019-05-31T07:42:55.000Z</time>
      </trkpt>
      <trkpt lat="43.53909" lon="4.13715">
        <ele>5.84</ele>
        <time>2019-05-31T07:43:00.000Z</time>
      </trkpt>
      <trkpt lat="43.53921" lon="4.13708">
        <ele>5.84</ele>
        <time>2019-05-31T07:43:05.000Z</time>
      </trkpt>
      <trkpt lat="43.53921" lon="4.13693">
        <ele>1.78</ele>
        <time>2019-05-31T07:43:22.000Z</time>
      </trkpt>
      <trkpt lat="43.53914" lon="4.13667">
        <ele>1.53</ele>
        <time>2019-05-31T07:43:27.000Z</time>
      </trkpt>
      <trkpt lat="43.53909" lon="4.13646">
        <ele>1.78</ele>
        <time>2019-05-31T07:43:32.000Z</time>
      </trkpt>
      <trkpt lat="43.53904" lon="4.13634">
        <ele>3.71</ele>
        <time>2019-05-31T07:43:37.000Z</time>
      </trkpt>
      <trkpt lat="43.53899" lon="4.13608">
        <ele>5.94</ele>
        <time>2019-05-31T07:43:42.000Z</time>
      </trkpt>
      <trkpt lat="43.53891" lon="4.13582">
        <ele>7.77</ele>
        <time>2019-05-31T07:43:47.000Z</time>
      </trkpt>
      <trkpt lat="43.53883" lon="4.13556">
        <ele>7.82</ele>
        <time>2019-05-31T07:43:52.000Z</time>
      </trkpt>
      <trkpt lat="43.53876" lon="4.13529">
        <ele>7.96</ele>
        <time>2019-05-31T07:43:57.000Z</time>
      </trkpt>
      <trkpt lat="43.5387" lon="4.13504">
        <ele>7.79</ele>
        <time>2019-05-31T07:44:02.000Z</time>
      </trkpt>
      <trkpt lat="43.53867" lon="4.13484">
        <ele>6.84</ele>
        <time>2019-05-31T07:44:07.000Z</time>
      </trkpt>
      <trkpt lat="43.5388" lon="4.13473">
        <ele>7.76</ele>
        <time>2019-05-31T07:44:12.000Z</time>
      </trkpt>
      <trkpt lat="43.53902" lon="4.13466">
        <ele>6.84</ele>
        <time>2019-05-31T07:44:17.000Z</time>
      </trkpt>
      <trkpt lat="43.5392" lon="4.13457">
        <ele>5.77</ele>
        <time>2019-05-31T07:44:22.000Z</time>
      </trkpt>
      <trkpt lat="43.53938" lon="4.13449">
        <ele>5.78</ele>
        <time>2019-05-31T07:44:27.000Z</time>
      </trkpt>
      <trkpt lat="43.53956" lon="4.13439">
        <ele>5.03</ele>
        <time>2019-05-31T07:44:32.000Z</time>
      </trkpt>
      <trkpt lat="43.53976" lon="4.13428">
        <ele>4.77</ele>
        <time>2019-05-31T07:44:37.000Z</time>
      </trkpt>
      <trkpt lat="43.53997" lon="4.13422">
        <ele>4.78</ele>
        <time>2019-05-31T07:44:42.000Z</time>
      </trkpt>
      <trkpt lat="43.54014" lon="4.13413">
        <ele>8.4</ele>
        <time>2019-05-31T07:44:47.000Z</time>
      </trkpt>
      <trkpt lat="43.54032" lon="4.13394">
        <ele>9.71</ele>
        <time>2019-05-31T07:44:52.000Z</time>
      </trkpt>
      <trkpt lat="43.54049" lon="4.13379">
        <ele>8.84</ele>
        <time>2019-05-31T07:44:57.000Z</time>
      </trkpt>
      <trkpt lat="43.54067" lon="4.13363">
        <ele>8.77</ele>
        <time>2019-05-31T07:45:02.000Z</time>
      </trkpt>
      <trkpt lat="43.54086" lon="4.13359">
        <ele>7.78</ele>
        <time>2019-05-31T07:45:07.000Z</time>
      </trkpt>
      <trkpt lat="43.54102" lon="4.13379">
        <ele>6.84</ele>
        <time>2019-05-31T07:45:12.000Z</time>
      </trkpt>
      <trkpt lat="43.54122" lon="4.13368">
        <ele>6.77</ele>
        <time>2019-05-31T07:45:17.000Z</time>
      </trkpt>
      <trkpt lat="43.54114" lon="4.13334">
        <ele>5.83</ele>
        <time>2019-05-31T07:45:22.000Z</time>
      </trkpt>
      <trkpt lat="43.54094" lon="4.13328">
        <ele>5.77</ele>
        <time>2019-05-31T07:45:27.000Z</time>
      </trkpt>
      <trkpt lat="43.5409" lon="4.13312">
        <ele>5.77</ele>
        <time>2019-05-31T07:45:32.000Z</time>
      </trkpt>
      <trkpt lat="43.54097" lon="4.13296">
        <ele>5.02</ele>
        <time>2019-05-31T07:45:37.000Z</time>
      </trkpt>
      <trkpt lat="43.54107" lon="4.13282">
        <ele>5.57</ele>
        <time>2019-05-31T07:45:42.000Z</time>
      </trkpt>
      <trkpt lat="43.54121" lon="4.13261">
        <ele>5.82</ele>
        <time>2019-05-31T07:45:47.000Z</time>
      </trkpt>
      <trkpt lat="43.54134" lon="4.13236">
        <ele>5.79</ele>
        <time>2019-05-31T07:45:52.000Z</time>
      </trkpt>
      <trkpt lat="43.5415" lon="4.13214">
        <ele>5.77</ele>
        <time>2019-05-31T07:45:57.000Z</time>
      </trkpt>
      <trkpt lat="43.54165" lon="4.13193">
        <ele>4.59</ele>
        <time>2019-05-31T07:46:02.000Z</time>
      </trkpt>
      <trkpt lat="43.5418" lon="4.13172">
        <ele>4.73</ele>
        <time>2019-05-31T07:46:07.000Z</time>
      </trkpt>
      <trkpt lat="43.54194" lon="4.13149">
        <ele>4.76</ele>
        <time>2019-05-31T07:46:12.000Z</time>
      </trkpt>
      <trkpt lat="43.5421" lon="4.13129">
        <ele>5.52</ele>
        <time>2019-05-31T07:46:17.000Z</time>
      </trkpt>
      <trkpt lat="43.54227" lon="4.1311">
        <ele>5.77</ele>
        <time>2019-05-31T07:46:22.000Z</time>
      </trkpt>
      <trkpt lat="43.54244" lon="4.13088">
        <ele>4.78</ele>
        <time>2019-05-31T07:46:27.000Z</time>
      </trkpt>
      <trkpt lat="43.5426" lon="4.13066">
        <ele>4.77</ele>
        <time>2019-05-31T07:46:32.000Z</time>
      </trkpt>
      <trkpt lat="43.54277" lon="4.13046">
        <ele>4.02</ele>
        <time>2019-05-31T07:46:37.000Z</time>
      </trkpt>
      <trkpt lat="43.54293" lon="4.13025">
        <ele>4.52</ele>
        <time>2019-05-31T07:46:42.000Z</time>
      </trkpt>
      <trkpt lat="43.54308" lon="4.13005">
        <ele>5.76</ele>
        <time>2019-05-31T07:46:47.000Z</time>
      </trkpt>
      <trkpt lat="43.54324" lon="4.12985">
        <ele>5.77</ele>
        <time>2019-05-31T07:46:52.000Z</time>
      </trkpt>
      <trkpt lat="43.5434" lon="4.12963">
        <ele>5.77</ele>
        <time>2019-05-31T07:46:57.000Z</time>
      </trkpt>
      <trkpt lat="43.54354" lon="4.1294">
        <ele>5.77</ele>
        <time>2019-05-31T07:47:02.000Z</time>
      </trkpt>
      <trkpt lat="43.54369" lon="4.12915">
        <ele>5.77</ele>
        <time>2019-05-31T07:47:07.000Z</time>
      </trkpt>
      <trkpt lat="43.54383" lon="4.12892">
        <ele>5.77</ele>
        <time>2019-05-31T07:47:12.000Z</time>
      </trkpt>
      <trkpt lat="43.54399" lon="4.1287">
        <ele>6.52</ele>
        <time>2019-05-31T07:47:17.000Z</time>
      </trkpt>
      <trkpt lat="43.54412" lon="4.12845">
        <ele>5.77</ele>
        <time>2019-05-31T07:47:22.000Z</time>
      </trkpt>
      <trkpt lat="43.54427" lon="4.12822">
        <ele>5.54</ele>
        <time>2019-05-31T07:47:27.000Z</time>
      </trkpt>
      <trkpt lat="43.54441" lon="4.12799">
        <ele>4.02</ele>
        <time>2019-05-31T07:47:32.000Z</time>
      </trkpt>
      <trkpt lat="43.54457" lon="4.12776">
        <ele>3.77</ele>
        <time>2019-05-31T07:47:37.000Z</time>
      </trkpt>
      <trkpt lat="43.54472" lon="4.12752">
        <ele>3.77</ele>
        <time>2019-05-31T07:47:42.000Z</time>
      </trkpt>
      <trkpt lat="43.54487" lon="4.12729">
        <ele>4.71</ele>
        <time>2019-05-31T07:47:47.000Z</time>
      </trkpt>
      <trkpt lat="43.545" lon="4.12706">
        <ele>3.82</ele>
        <time>2019-05-31T07:47:52.000Z</time>
      </trkpt>
      <trkpt lat="43.54513" lon="4.12686">
        <ele>4.76</ele>
        <time>2019-05-31T07:47:57.000Z</time>
      </trkpt>
      <trkpt lat="43.54528" lon="4.12664">
        <ele>3.77</ele>
        <time>2019-05-31T07:48:02.000Z</time>
      </trkpt>
      <trkpt lat="43.54541" lon="4.12639">
        <ele>3.77</ele>
        <time>2019-05-31T07:48:07.000Z</time>
      </trkpt>
      <trkpt lat="43.54556" lon="4.12618">
        <ele>2.83</ele>
        <time>2019-05-31T07:48:12.000Z</time>
      </trkpt>
      <trkpt lat="43.5457" lon="4.12592">
        <ele>2.72</ele>
        <time>2019-05-31T07:48:17.000Z</time>
      </trkpt>
      <trkpt lat="43.54584" lon="4.12568">
        <ele>2.77</ele>
        <time>2019-05-31T07:48:22.000Z</time>
      </trkpt>
      <trkpt lat="43.54597" lon="4.12544">
        <ele>3.52</ele>
        <time>2019-05-31T07:48:27.000Z</time>
      </trkpt>
      <trkpt lat="43.5461" lon="4.12521">
        <ele>2.83</ele>
        <time>2019-05-31T07:48:32.000Z</time>
      </trkpt>
      <trkpt lat="43.54621" lon="4.12496">
        <ele>1.77</ele>
        <time>2019-05-31T07:48:37.000Z</time>
      </trkpt>
      <trkpt lat="43.54636" lon="4.12474">
        <ele>2.53</ele>
        <time>2019-05-31T07:48:42.000Z</time>
      </trkpt>
      <trkpt lat="43.54648" lon="4.1245">
        <ele>2.76</ele>
        <time>2019-05-31T07:48:47.000Z</time>
      </trkpt>
      <trkpt lat="43.54655" lon="4.12441">
        <ele>3.52</ele>
        <time>2019-05-31T07:48:52.000Z</time>
      </trkpt>
      <trkpt lat="43.5466" lon="4.12429">
        <ele>3.77</ele>
        <time>2019-05-31T07:49:02.000Z</time>
      </trkpt>
      <trkpt lat="43.5467" lon="4.12416">
        <ele>3.77</ele>
        <time>2019-05-31T07:49:07.000Z</time>
      </trkpt>
      <trkpt lat="43.54681" lon="4.12404">
        <ele>3.77</ele>
        <time>2019-05-31T07:49:12.000Z</time>
      </trkpt>
      <trkpt lat="43.54689" lon="4.12393">
        <ele>3.52</ele>
        <time>2019-05-31T07:49:17.000Z</time>
      </trkpt>
      <trkpt lat="43.54701" lon="4.12381">
        <ele>3.77</ele>
        <time>2019-05-31T07:49:22.000Z</time>
      </trkpt>
      <trkpt lat="43.54716" lon="4.12366">
        <ele>4.02</ele>
        <time>2019-05-31T07:49:27.000Z</time>
      </trkpt>
      <trkpt lat="43.54731" lon="4.1235">
        <ele>1.85</ele>
        <time>2019-05-31T07:49:32.000Z</time>
      </trkpt>
      <trkpt lat="43.54745" lon="4.12338">
        <ele>2.52</ele>
        <time>2019-05-31T07:49:37.000Z</time>
      </trkpt>
      <trkpt lat="43.54763" lon="4.12326">
        <ele>4.46</ele>
        <time>2019-05-31T07:49:42.000Z</time>
      </trkpt>
      <trkpt lat="43.54785" lon="4.12314">
        <ele>3.71</ele>
        <time>2019-05-31T07:49:47.000Z</time>
      </trkpt>
      <trkpt lat="43.54807" lon="4.12304">
        <ele>5.7</ele>
        <time>2019-05-31T07:49:52.000Z</time>
      </trkpt>
      <trkpt lat="43.54829" lon="4.12292">
        <ele>6.94</ele>
        <time>2019-05-31T07:49:57.000Z</time>
      </trkpt>
      <trkpt lat="43.5485" lon="4.1228">
        <ele>7.76</ele>
        <time>2019-05-31T07:50:02.000Z</time>
      </trkpt>
      <trkpt lat="43.54872" lon="4.12267">
        <ele>8.77</ele>
        <time>2019-05-31T07:50:07.000Z</time>
      </trkpt>
      <trkpt lat="43.54891" lon="4.12255">
        <ele>8.71</ele>
        <time>2019-05-31T07:50:12.000Z</time>
      </trkpt>
      <trkpt lat="43.54911" lon="4.1224">
        <ele>8.58</ele>
        <time>2019-05-31T07:50:17.000Z</time>
      </trkpt>
      <trkpt lat="43.5493" lon="4.1222">
        <ele>7.77</ele>
        <time>2019-05-31T07:50:22.000Z</time>
      </trkpt>
      <trkpt lat="43.54948" lon="4.12201">
        <ele>5.83</ele>
        <time>2019-05-31T07:50:27.000Z</time>
      </trkpt>
      <trkpt lat="43.54965" lon="4.1218">
        <ele>4.02</ele>
        <time>2019-05-31T07:50:32.000Z</time>
      </trkpt>
      <trkpt lat="43.54979" lon="4.1216">
        <ele>5.7</ele>
        <time>2019-05-31T07:50:37.000Z</time>
      </trkpt>
      <trkpt lat="43.54991" lon="4.1214">
        <ele>5.78</ele>
        <time>2019-05-31T07:50:42.000Z</time>
      </trkpt>
      <trkpt lat="43.55001" lon="4.12118">
        <ele>3.83</ele>
        <time>2019-05-31T07:50:47.000Z</time>
      </trkpt>
      <trkpt lat="43.55013" lon="4.12095">
        <ele>6.68</ele>
        <time>2019-05-31T07:50:52.000Z</time>
      </trkpt>
      <trkpt lat="43.55023" lon="4.12072">
        <ele>4.83</ele>
        <time>2019-05-31T07:50:57.000Z</time>
      </trkpt>
      <trkpt lat="43.55033" lon="4.12053">
        <ele>5.46</ele>
        <time>2019-05-31T07:51:02.000Z</time>
      </trkpt>
      <trkpt lat="43.55039" lon="4.1203">
        <ele>4.83</ele>
        <time>2019-05-31T07:51:07.000Z</time>
      </trkpt>
      <trkpt lat="43.55046" lon="4.12005">
        <ele>4.75</ele>
        <time>2019-05-31T07:51:12.000Z</time>
      </trkpt>
      <trkpt lat="43.55053" lon="4.11972">
        <ele>4.52</ele>
        <time>2019-05-31T07:51:17.000Z</time>
      </trkpt>
      <trkpt lat="43.55064" lon="4.11939">
        <ele>3.77</ele>
        <time>2019-05-31T07:51:22.000Z</time>
      </trkpt>
      <trkpt lat="43.55075" lon="4.11907">
        <ele>4.81</ele>
        <time>2019-05-31T07:51:27.000Z</time>
      </trkpt>
      <trkpt lat="43.55085" lon="4.11874">
        <ele>4.78</ele>
        <time>2019-05-31T07:51:32.000Z</time>
      </trkpt>
      <trkpt lat="43.55092" lon="4.1184">
        <ele>4</ele>
        <time>2019-05-31T07:51:37.000Z</time>
      </trkpt>
      <trkpt lat="43.55087" lon="4.11808">
        <ele>3.77</ele>
        <time>2019-05-31T07:51:42.000Z</time>
      </trkpt>
      <trkpt lat="43.55079" lon="4.11782">
        <ele>4.51</ele>
        <time>2019-05-31T07:51:47.000Z</time>
      </trkpt>
      <trkpt lat="43.55091" lon="4.11766">
        <ele>4.76</ele>
        <time>2019-05-31T07:51:52.000Z</time>
      </trkpt>
      <trkpt lat="43.5511" lon="4.11755">
        <ele>5.95</ele>
        <time>2019-05-31T07:51:57.000Z</time>
      </trkpt>
      <trkpt lat="43.55127" lon="4.11733">
        <ele>4.77</ele>
        <time>2019-05-31T07:52:02.000Z</time>
      </trkpt>
      <trkpt lat="43.55136" lon="4.11703">
        <ele>3.97</ele>
        <time>2019-05-31T07:52:07.000Z</time>
      </trkpt>
      <trkpt lat="43.55149" lon="4.11677">
        <ele>2.78</ele>
        <time>2019-05-31T07:52:12.000Z</time>
      </trkpt>
      <trkpt lat="43.5516" lon="4.11645">
        <ele>3.94</ele>
        <time>2019-05-31T07:52:17.000Z</time>
      </trkpt>
      <trkpt lat="43.55169" lon="4.11613">
        <ele>4.59</ele>
        <time>2019-05-31T07:52:22.000Z</time>
      </trkpt>
      <trkpt lat="43.55177" lon="4.1158">
        <ele>7.45</ele>
        <time>2019-05-31T07:52:27.000Z</time>
      </trkpt>
      <trkpt lat="43.55187" lon="4.1155">
        <ele>7.51</ele>
        <time>2019-05-31T07:52:32.000Z</time>
      </trkpt>
      <trkpt lat="43.55195" lon="4.11518">
        <ele>5.6</ele>
        <time>2019-05-31T07:52:37.000Z</time>
      </trkpt>
      <trkpt lat="43.55205" lon="4.11486">
        <ele>4.76</ele>
        <time>2019-05-31T07:52:42.000Z</time>
      </trkpt>
      <trkpt lat="43.55215" lon="4.11455">
        <ele>4.76</ele>
        <time>2019-05-31T07:52:47.000Z</time>
      </trkpt>
      <trkpt lat="43.55225" lon="4.11425">
        <ele>4.76</ele>
        <time>2019-05-31T07:52:52.000Z</time>
      </trkpt>
      <trkpt lat="43.55241" lon="4.11399">
        <ele>4.01</ele>
        <time>2019-05-31T07:52:57.000Z</time>
      </trkpt>
      <trkpt lat="43.55252" lon="4.1137">
        <ele>3.01</ele>
        <time>2019-05-31T07:53:02.000Z</time>
      </trkpt>
      <trkpt lat="43.55262" lon="4.11338">
        <ele>2.78</ele>
        <time>2019-05-31T07:53:07.000Z</time>
      </trkpt>
      <trkpt lat="43.55273" lon="4.11309">
        <ele>4.51</ele>
        <time>2019-05-31T07:53:12.000Z</time>
      </trkpt>
      <trkpt lat="43.55281" lon="4.11282">
        <ele>3.76</ele>
        <time>2019-05-31T07:53:17.000Z</time>
      </trkpt>
      <trkpt lat="43.5529" lon="4.11256">
        <ele>3.76</ele>
        <time>2019-05-31T07:53:22.000Z</time>
      </trkpt>
      <trkpt lat="43.55299" lon="4.11225">
        <ele>3.72</ele>
        <time>2019-05-31T07:53:27.000Z</time>
      </trkpt>
      <trkpt lat="43.5531" lon="4.11199">
        <ele>3.76</ele>
        <time>2019-05-31T07:53:32.000Z</time>
      </trkpt>
      <trkpt lat="43.55318" lon="4.11169">
        <ele>3.76</ele>
        <time>2019-05-31T07:53:37.000Z</time>
      </trkpt>
      <trkpt lat="43.55328" lon="4.11139">
        <ele>3.76</ele>
        <time>2019-05-31T07:53:42.000Z</time>
      </trkpt>
      <trkpt lat="43.55339" lon="4.1111">
        <ele>4</ele>
        <time>2019-05-31T07:53:47.000Z</time>
      </trkpt>
      <trkpt lat="43.55351" lon="4.11077">
        <ele>4.7</ele>
        <time>2019-05-31T07:53:52.000Z</time>
      </trkpt>
      <trkpt lat="43.55363" lon="4.11046">
        <ele>4.76</ele>
        <time>2019-05-31T07:53:57.000Z</time>
      </trkpt>
      <trkpt lat="43.55376" lon="4.11018">
        <ele>4.95</ele>
        <time>2019-05-31T07:54:02.000Z</time>
      </trkpt>
      <trkpt lat="43.55389" lon="4.1099">
        <ele>3.06</ele>
        <time>2019-05-31T07:54:07.000Z</time>
      </trkpt>
      <trkpt lat="43.55402" lon="4.10961">
        <ele>2.76</ele>
        <time>2019-05-31T07:54:12.000Z</time>
      </trkpt>
      <trkpt lat="43.55413" lon="4.10931">
        <ele>3.75</ele>
        <time>2019-05-31T07:54:17.000Z</time>
      </trkpt>
      <trkpt lat="43.55425" lon="4.10904">
        <ele>2.59</ele>
        <time>2019-05-31T07:54:22.000Z</time>
      </trkpt>
      <trkpt lat="43.55435" lon="4.10886">
        <ele>2.76</ele>
        <time>2019-05-31T07:54:27.000Z</time>
      </trkpt>
      <trkpt lat="43.55444" lon="4.10883">
        <ele>4.49</ele>
        <time>2019-05-31T07:54:32.000Z</time>
      </trkpt>
      <trkpt lat="43.55457" lon="4.10895">
        <ele>5.7</ele>
        <time>2019-05-31T07:54:37.000Z</time>
      </trkpt>
      <trkpt lat="43.55477" lon="4.10888">
        <ele>4.96</ele>
        <time>2019-05-31T07:54:42.000Z</time>
      </trkpt>
      <trkpt lat="43.55492" lon="4.10866">
        <ele>4.76</ele>
        <time>2019-05-31T07:54:47.000Z</time>
      </trkpt>
      <trkpt lat="43.55491" lon="4.10835">
        <ele>4.81</ele>
        <time>2019-05-31T07:54:52.000Z</time>
      </trkpt>
      <trkpt lat="43.55487" lon="4.10804">
        <ele>4.76</ele>
        <time>2019-05-31T07:54:57.000Z</time>
      </trkpt>
      <trkpt lat="43.55492" lon="4.10771">
        <ele>3.81</ele>
        <time>2019-05-31T07:55:02.000Z</time>
      </trkpt>
      <trkpt lat="43.55497" lon="4.10737">
        <ele>3.76</ele>
        <time>2019-05-31T07:55:07.000Z</time>
      </trkpt>
      <trkpt lat="43.55502" lon="4.10699">
        <ele>2.76</ele>
        <time>2019-05-31T07:55:12.000Z</time>
      </trkpt>
      <trkpt lat="43.55512" lon="4.10664">
        <ele>1.76</ele>
        <time>2019-05-31T07:55:17.000Z</time>
      </trkpt>
      <trkpt lat="43.55518" lon="4.1063">
        <ele>0.02</ele>
        <time>2019-05-31T07:55:22.000Z</time>
      </trkpt>
      <trkpt lat="43.55525" lon="4.10596">
        <ele>0.02</ele>
        <time>2019-05-31T07:55:27.000Z</time>
      </trkpt>
      <trkpt lat="43.55533" lon="4.10561">
        <ele>3</ele>
        <time>2019-05-31T07:55:32.000Z</time>
      </trkpt>
      <trkpt lat="43.55541" lon="4.10525">
        <ele>3</ele>
        <time>2019-05-31T07:55:37.000Z</time>
      </trkpt>
      <trkpt lat="43.55546" lon="4.10489">
        <ele>3</ele>
        <time>2019-05-31T07:55:42.000Z</time>
      </trkpt>
      <trkpt lat="43.55555" lon="4.10453">
        <ele>3</ele>
        <time>2019-05-31T07:55:47.000Z</time>
      </trkpt>
      <trkpt lat="43.5556" lon="4.10415">
        <ele>3</ele>
        <time>2019-05-31T07:55:52.000Z</time>
      </trkpt>
      <trkpt lat="43.55569" lon="4.10381">
        <ele>0.51</ele>
        <time>2019-05-31T07:55:57.000Z</time>
      </trkpt>
      <trkpt lat="43.55575" lon="4.10346">
        <ele>0.51</ele>
        <time>2019-05-31T07:56:02.000Z</time>
      </trkpt>
      <trkpt lat="43.55582" lon="4.10314">
        <ele>1.74</ele>
        <time>2019-05-31T07:56:07.000Z</time>
      </trkpt>
      <trkpt lat="43.5559" lon="4.10284">
        <ele>2.75</ele>
        <time>2019-05-31T07:56:12.000Z</time>
      </trkpt>
      <trkpt lat="43.55599" lon="4.10257">
        <ele>4.5</ele>
        <time>2019-05-31T07:56:17.000Z</time>
      </trkpt>
      <trkpt lat="43.55608" lon="4.10228">
        <ele>5.76</ele>
        <time>2019-05-31T07:56:22.000Z</time>
      </trkpt>
      <trkpt lat="43.55615" lon="4.10202">
        <ele>5.82</ele>
        <time>2019-05-31T07:56:27.000Z</time>
      </trkpt>
      <trkpt lat="43.55623" lon="4.10175">
        <ele>6.7</ele>
        <time>2019-05-31T07:56:32.000Z</time>
      </trkpt>
      <trkpt lat="43.55632" lon="4.10149">
        <ele>6.76</ele>
        <time>2019-05-31T07:56:37.000Z</time>
      </trkpt>
      <trkpt lat="43.5564" lon="4.10121">
        <ele>6.01</ele>
        <time>2019-05-31T07:56:42.000Z</time>
      </trkpt>
      <trkpt lat="43.55649" lon="4.1009">
        <ele>5.01</ele>
        <time>2019-05-31T07:56:47.000Z</time>
      </trkpt>
      <trkpt lat="43.5566" lon="4.10059">
        <ele>4.76</ele>
        <time>2019-05-31T07:56:52.000Z</time>
      </trkpt>
      <trkpt lat="43.55668" lon="4.10036">
        <ele>4.7</ele>
        <time>2019-05-31T07:56:57.000Z</time>
      </trkpt>
      <trkpt lat="43.5568" lon="4.10028">
        <ele>4.76</ele>
        <time>2019-05-31T07:57:02.000Z</time>
      </trkpt>
      <trkpt lat="43.55696" lon="4.10009">
        <ele>3.82</ele>
        <time>2019-05-31T07:57:07.000Z</time>
      </trkpt>
      <trkpt lat="43.55704" lon="4.09998">
        <ele>4.7</ele>
        <time>2019-05-31T07:57:12.000Z</time>
      </trkpt>
      <trkpt lat="43.55708" lon="4.09985">
        <ele>6.76</ele>
        <time>2019-05-31T07:57:54.000Z</time>
      </trkpt>
      <trkpt lat="43.55719" lon="4.09968">
        <ele>6.01</ele>
        <time>2019-05-31T07:57:59.000Z</time>
      </trkpt>
      <trkpt lat="43.55739" lon="4.09953">
        <ele>6.74</ele>
        <time>2019-05-31T07:58:04.000Z</time>
      </trkpt>
      <trkpt lat="43.55761" lon="4.09934">
        <ele>6.75</ele>
        <time>2019-05-31T07:58:09.000Z</time>
      </trkpt>
      <trkpt lat="43.55783" lon="4.09918">
        <ele>5.77</ele>
        <time>2019-05-31T07:58:14.000Z</time>
      </trkpt>
      <trkpt lat="43.55805" lon="4.099">
        <ele>4.01</ele>
        <time>2019-05-31T07:58:19.000Z</time>
      </trkpt>
      <trkpt lat="43.55828" lon="4.09882">
        <ele>5</ele>
        <time>2019-05-31T07:58:24.000Z</time>
      </trkpt>
      <trkpt lat="43.55854" lon="4.09863">
        <ele>5.75</ele>
        <time>2019-05-31T07:58:29.000Z</time>
      </trkpt>
      <trkpt lat="43.55879" lon="4.09845">
        <ele>5.74</ele>
        <time>2019-05-31T07:58:34.000Z</time>
      </trkpt>
      <trkpt lat="43.55904" lon="4.09826">
        <ele>5.52</ele>
        <time>2019-05-31T07:58:39.000Z</time>
      </trkpt>
      <trkpt lat="43.55928" lon="4.0981">
        <ele>5.75</ele>
        <time>2019-05-31T07:58:44.000Z</time>
      </trkpt>
      <trkpt lat="43.55952" lon="4.0979">
        <ele>5.81</ele>
        <time>2019-05-31T07:58:49.000Z</time>
      </trkpt>
      <trkpt lat="43.55976" lon="4.09772">
        <ele>5.75</ele>
        <time>2019-05-31T07:58:54.000Z</time>
      </trkpt>
      <trkpt lat="43.56" lon="4.09751">
        <ele>4.77</ele>
        <time>2019-05-31T07:58:59.000Z</time>
      </trkpt>
      <trkpt lat="43.56023" lon="4.09732">
        <ele>4.74</ele>
        <time>2019-05-31T07:59:04.000Z</time>
      </trkpt>
      <trkpt lat="43.56048" lon="4.09714">
        <ele>4.5</ele>
        <time>2019-05-31T07:59:09.000Z</time>
      </trkpt>
      <trkpt lat="43.56073" lon="4.09695">
        <ele>3.8</ele>
        <time>2019-05-31T07:59:14.000Z</time>
      </trkpt>
      <trkpt lat="43.56098" lon="4.09677">
        <ele>3.81</ele>
        <time>2019-05-31T07:59:19.000Z</time>
      </trkpt>
      <trkpt lat="43.56123" lon="4.09657">
        <ele>4.75</ele>
        <time>2019-05-31T07:59:24.000Z</time>
      </trkpt>
      <trkpt lat="43.56149" lon="4.09639">
        <ele>4.75</ele>
        <time>2019-05-31T07:59:29.000Z</time>
      </trkpt>
      <trkpt lat="43.56174" lon="4.09618">
        <ele>4.75</ele>
        <time>2019-05-31T07:59:34.000Z</time>
      </trkpt>
      <trkpt lat="43.56199" lon="4.09598">
        <ele>4.51</ele>
        <time>2019-05-31T07:59:39.000Z</time>
      </trkpt>
      <trkpt lat="43.56224" lon="4.09578">
        <ele>4.56</ele>
        <time>2019-05-31T07:59:44.000Z</time>
      </trkpt>
      <trkpt lat="43.56247" lon="4.09557">
        <ele>4.74</ele>
        <time>2019-05-31T07:59:49.000Z</time>
      </trkpt>
      <trkpt lat="43.56267" lon="4.09535">
        <ele>4</ele>
        <time>2019-05-31T07:59:54.000Z</time>
      </trkpt>
      <trkpt lat="43.56287" lon="4.09513">
        <ele>3.99</ele>
        <time>2019-05-31T07:59:59.000Z</time>
      </trkpt>
      <trkpt lat="43.56303" lon="4.09481">
        <ele>2.02</ele>
        <time>2019-05-31T08:00:04.000Z</time>
      </trkpt>
      <trkpt lat="43.56316" lon="4.09449">
        <ele>1.75</ele>
        <time>2019-05-31T08:00:09.000Z</time>
      </trkpt>
      <trkpt lat="43.5632" lon="4.09414">
        <ele>2.64</ele>
        <time>2019-05-31T08:00:14.000Z</time>
      </trkpt>
      <trkpt lat="43.56324" lon="4.0937">
        <ele>3.73</ele>
        <time>2019-05-31T08:00:19.000Z</time>
      </trkpt>
      <trkpt lat="43.56328" lon="4.0933">
        <ele>2.94</ele>
        <time>2019-05-31T08:00:24.000Z</time>
      </trkpt>
      <trkpt lat="43.56332" lon="4.09291">
        <ele>3.5</ele>
        <time>2019-05-31T08:00:29.000Z</time>
      </trkpt>
      <trkpt lat="43.56334" lon="4.09255">
        <ele>4.98</ele>
        <time>2019-05-31T08:00:34.000Z</time>
      </trkpt>
      <trkpt lat="43.56339" lon="4.09226">
        <ele>5.73</ele>
        <time>2019-05-31T08:00:39.000Z</time>
      </trkpt>
      <trkpt lat="43.56348" lon="4.0922">
        <ele>4.75</ele>
        <time>2019-05-31T08:00:46.000Z</time>
      </trkpt>
      <trkpt lat="43.56356" lon="4.09234">
        <ele>5.94</ele>
        <time>2019-05-31T08:00:51.000Z</time>
      </trkpt>
      <trkpt lat="43.5635" lon="4.09221">
        <ele>4.75</ele>
        <time>2019-05-31T08:00:58.000Z</time>
      </trkpt>
      <trkpt lat="43.5634" lon="4.0922">
        <ele>3.75</ele>
        <time>2019-05-31T08:01:34.000Z</time>
      </trkpt>
      <trkpt lat="43.56331" lon="4.09218">
        <ele>4.93</ele>
        <time>2019-05-31T08:01:39.000Z</time>
      </trkpt>
      <trkpt lat="43.56313" lon="4.09215">
        <ele>2.77</ele>
        <time>2019-05-31T08:01:44.000Z</time>
      </trkpt>
      <trkpt lat="43.563" lon="4.09214">
        <ele>3.75</ele>
        <time>2019-05-31T08:01:49.000Z</time>
      </trkpt>
      <trkpt lat="43.5629" lon="4.09227">
        <ele>4.51</ele>
        <time>2019-05-31T08:01:54.000Z</time>
      </trkpt>
      <trkpt lat="43.56273" lon="4.09236">
        <ele>3.81</ele>
        <time>2019-05-31T08:01:59.000Z</time>
      </trkpt>
      <trkpt lat="43.56258" lon="4.09232">
        <ele>3</ele>
        <time>2019-05-31T08:02:04.000Z</time>
      </trkpt>
      <trkpt lat="43.56254" lon="4.09205">
        <ele>0.83</ele>
        <time>2019-05-31T08:02:09.000Z</time>
      </trkpt>
      <trkpt lat="43.56249" lon="4.09181">
        <ele>1</ele>
        <time>2019-05-31T08:02:14.000Z</time>
      </trkpt>
      <trkpt lat="43.56241" lon="4.09155">
        <ele>2.51</ele>
        <time>2019-05-31T08:02:19.000Z</time>
      </trkpt>
      <trkpt lat="43.56231" lon="4.09129">
        <ele>2.74</ele>
        <time>2019-05-31T08:02:24.000Z</time>
      </trkpt>
      <trkpt lat="43.56222" lon="4.09102">
        <ele>3.74</ele>
        <time>2019-05-31T08:02:29.000Z</time>
      </trkpt>
      <trkpt lat="43.56218" lon="4.09072">
        <ele>3</ele>
        <time>2019-05-31T08:02:34.000Z</time>
      </trkpt>
      <trkpt lat="43.56204" lon="4.09053">
        <ele>5.68</ele>
        <time>2019-05-31T08:02:39.000Z</time>
      </trkpt>
      <trkpt lat="43.56185" lon="4.09047">
        <ele>5.43</ele>
        <time>2019-05-31T08:02:44.000Z</time>
      </trkpt>
      <trkpt lat="43.56176" lon="4.0903">
        <ele>5.75</ele>
        <time>2019-05-31T08:02:49.000Z</time>
      </trkpt>
      <trkpt lat="43.56169" lon="4.09007">
        <ele>6</ele>
        <time>2019-05-31T08:02:54.000Z</time>
      </trkpt>
      <trkpt lat="43.56161" lon="4.08985">
        <ele>5.02</ele>
        <time>2019-05-31T08:02:59.000Z</time>
      </trkpt>
      <trkpt lat="43.56169" lon="4.08964">
        <ele>6.49</ele>
        <time>2019-05-31T08:03:04.000Z</time>
      </trkpt>
      <trkpt lat="43.56179" lon="4.08941">
        <ele>7.98</ele>
        <time>2019-05-31T08:03:09.000Z</time>
      </trkpt>
      <trkpt lat="43.56171" lon="4.08914">
        <ele>5.83</ele>
        <time>2019-05-31T08:03:14.000Z</time>
      </trkpt>
      <trkpt lat="43.56156" lon="4.08887">
        <ele>5.5</ele>
        <time>2019-05-31T08:03:19.000Z</time>
      </trkpt>
      <trkpt lat="43.56145" lon="4.08861">
        <ele>6.5</ele>
        <time>2019-05-31T08:03:24.000Z</time>
      </trkpt>
      <trkpt lat="43.56136" lon="4.08835">
        <ele>6.95</ele>
        <time>2019-05-31T08:03:29.000Z</time>
      </trkpt>
      <trkpt lat="43.56125" lon="4.08812">
        <ele>5.77</ele>
        <time>2019-05-31T08:03:34.000Z</time>
      </trkpt>
      <trkpt lat="43.56117" lon="4.08795">
        <ele>6.69</ele>
        <time>2019-05-31T08:03:39.000Z</time>
      </trkpt>
      <trkpt lat="43.56107" lon="4.08799">
        <ele>8.73</ele>
        <time>2019-05-31T08:03:44.000Z</time>
      </trkpt>
      <trkpt lat="43.56099" lon="4.08807">
        <ele>8.5</ele>
        <time>2019-05-31T08:03:49.000Z</time>
      </trkpt>
      <trkpt lat="43.56093" lon="4.08796">
        <ele>7</ele>
        <time>2019-05-31T08:03:55.000Z</time>
      </trkpt>
      <trkpt lat="43.56099" lon="4.08785">
        <ele>6.69</ele>
        <time>2019-05-31T08:04:00.000Z</time>
      </trkpt>
      <trkpt lat="43.56113" lon="4.08775">
        <ele>7</ele>
        <time>2019-05-31T08:04:05.000Z</time>
      </trkpt>
      <trkpt lat="43.56118" lon="4.08759">
        <ele>6.94</ele>
        <time>2019-05-31T08:04:10.000Z</time>
      </trkpt>
      <trkpt lat="43.56115" lon="4.08741">
        <ele>4.02</ele>
        <time>2019-05-31T08:04:15.000Z</time>
      </trkpt>
      <trkpt lat="43.56124" lon="4.0872">
        <ele>3.5</ele>
        <time>2019-05-31T08:04:20.000Z</time>
      </trkpt>
      <trkpt lat="43.5612" lon="4.08697">
        <ele>2.25</ele>
        <time>2019-05-31T08:04:25.000Z</time>
      </trkpt>
      <trkpt lat="43.56111" lon="4.08676">
        <ele>1.71</ele>
        <time>2019-05-31T08:04:30.000Z</time>
      </trkpt>
      <trkpt lat="43.56104" lon="4.08656">
        <ele>3.69</ele>
        <time>2019-05-31T08:04:35.000Z</time>
      </trkpt>
      <trkpt lat="43.56108" lon="4.08636">
        <ele>4.75</ele>
        <time>2019-05-31T08:04:40.000Z</time>
      </trkpt>
      <trkpt lat="43.56117" lon="4.08616">
        <ele>4.76</ele>
        <time>2019-05-31T08:04:45.000Z</time>
      </trkpt>
      <trkpt lat="43.56133" lon="4.08605">
        <ele>3</ele>
        <time>2019-05-31T08:04:50.000Z</time>
      </trkpt>
      <trkpt lat="43.56148" lon="4.08596">
        <ele>1.77</ele>
        <time>2019-05-31T08:04:55.000Z</time>
      </trkpt>
      <trkpt lat="43.56166" lon="4.08583">
        <ele>4.93</ele>
        <time>2019-05-31T08:05:00.000Z</time>
      </trkpt>
      <trkpt lat="43.56181" lon="4.08573">
        <ele>3.06</ele>
        <time>2019-05-31T08:05:05.000Z</time>
      </trkpt>
      <trkpt lat="43.56197" lon="4.0856">
        <ele>3.75</ele>
        <time>2019-05-31T08:05:10.000Z</time>
      </trkpt>
      <trkpt lat="43.56214" lon="4.08547">
        <ele>5.69</ele>
        <time>2019-05-31T08:05:15.000Z</time>
      </trkpt>
      <trkpt lat="43.56226" lon="4.08536">
        <ele>5.75</ele>
        <time>2019-05-31T08:05:20.000Z</time>
      </trkpt>
      <trkpt lat="43.56236" lon="4.0853">
        <ele>4.75</ele>
        <time>2019-05-31T08:05:25.000Z</time>
      </trkpt>
      <trkpt lat="43.56233" lon="4.08517">
        <ele>7.02</ele>
        <time>2019-05-31T08:05:54.000Z</time>
      </trkpt>
      <trkpt lat="43.56228" lon="4.08497">
        <ele>4.77</ele>
        <time>2019-05-31T08:05:59.000Z</time>
      </trkpt>
      <trkpt lat="43.56222" lon="4.08477">
        <ele>4.75</ele>
        <time>2019-05-31T08:06:04.000Z</time>
      </trkpt>
      <trkpt lat="43.56214" lon="4.08459">
        <ele>2.83</ele>
        <time>2019-05-31T08:06:09.000Z</time>
      </trkpt>
      <trkpt lat="43.56207" lon="4.08438">
        <ele>2.75</ele>
        <time>2019-05-31T08:06:14.000Z</time>
      </trkpt>
      <trkpt lat="43.56202" lon="4.08418">
        <ele>4.73</ele>
        <time>2019-05-31T08:06:19.000Z</time>
      </trkpt>
      <trkpt lat="43.56193" lon="4.08405">
        <ele>5.92</ele>
        <time>2019-05-31T08:06:24.000Z</time>
      </trkpt>
      <trkpt lat="43.56187" lon="4.08383">
        <ele>5.94</ele>
        <time>2019-05-31T08:06:29.000Z</time>
      </trkpt>
      <trkpt lat="43.56176" lon="4.0836">
        <ele>4.01</ele>
        <time>2019-05-31T08:06:34.000Z</time>
      </trkpt>
      <trkpt lat="43.56165" lon="4.08335">
        <ele>2.8</ele>
        <time>2019-05-31T08:06:39.000Z</time>
      </trkpt>
      <trkpt lat="43.56154" lon="4.08311">
        <ele>1.75</ele>
        <time>2019-05-31T08:06:44.000Z</time>
      </trkpt>
      <trkpt lat="43.56144" lon="4.08285">
        <ele>0.05</ele>
        <time>2019-05-31T08:06:49.000Z</time>
      </trkpt>
      <trkpt lat="43.56136" lon="4.08261">
        <ele>0.75</ele>
        <time>2019-05-31T08:06:54.000Z</time>
      </trkpt>
      <trkpt lat="43.56129" lon="4.08235">
        <ele>1.93</ele>
        <time>2019-05-31T08:06:59.000Z</time>
      </trkpt>
      <trkpt lat="43.56118" lon="4.0821">
        <ele>3.44</ele>
        <time>2019-05-31T08:07:04.000Z</time>
      </trkpt>
      <trkpt lat="43.56112" lon="4.08191">
        <ele>4.74</ele>
        <time>2019-05-31T08:07:09.000Z</time>
      </trkpt>
      <trkpt lat="43.56105" lon="4.08183">
        <ele>3.69</ele>
        <time>2019-05-31T08:07:42.000Z</time>
      </trkpt>
      <trkpt lat="43.561" lon="4.08167">
        <ele>7.48</ele>
        <time>2019-05-31T08:07:47.000Z</time>
      </trkpt>
      <trkpt lat="43.56093" lon="4.08154">
        <ele>7.56</ele>
        <time>2019-05-31T08:07:52.000Z</time>
      </trkpt>
      <trkpt lat="43.56083" lon="4.08156">
        <ele>4.75</ele>
        <time>2019-05-31T08:08:36.000Z</time>
      </trkpt>
      <trkpt lat="43.56069" lon="4.08167">
        <ele>4.94</ele>
        <time>2019-05-31T08:08:41.000Z</time>
      </trkpt>
      <trkpt lat="43.56058" lon="4.08167">
        <ele>7.48</ele>
        <time>2019-05-31T08:08:46.000Z</time>
      </trkpt>
      <trkpt lat="43.56052" lon="4.08149">
        <ele>7.8</ele>
        <time>2019-05-31T08:08:51.000Z</time>
      </trkpt>
      <trkpt lat="43.56047" lon="4.08129">
        <ele>7</ele>
        <time>2019-05-31T08:08:56.000Z</time>
      </trkpt>
      <trkpt lat="43.56039" lon="4.0811">
        <ele>7.69</ele>
        <time>2019-05-31T08:09:01.000Z</time>
      </trkpt>
      <trkpt lat="43.56032" lon="4.08091">
        <ele>10.48</ele>
        <time>2019-05-31T08:09:06.000Z</time>
      </trkpt>
      <trkpt lat="43.56025" lon="4.08075">
        <ele>9.58</ele>
        <time>2019-05-31T08:09:11.000Z</time>
      </trkpt>
      <trkpt lat="43.56017" lon="4.08056">
        <ele>8.75</ele>
        <time>2019-05-31T08:09:16.000Z</time>
      </trkpt>
      <trkpt lat="43.5601" lon="4.08037">
        <ele>8.69</ele>
        <time>2019-05-31T08:09:21.000Z</time>
      </trkpt>
      <trkpt lat="43.56005" lon="4.08019">
        <ele>7.75</ele>
        <time>2019-05-31T08:09:26.000Z</time>
      </trkpt>
      <trkpt lat="43.55995" lon="4.08">
        <ele>6.94</ele>
        <time>2019-05-31T08:09:31.000Z</time>
      </trkpt>
      <trkpt lat="43.55987" lon="4.07979">
        <ele>7.73</ele>
        <time>2019-05-31T08:09:36.000Z</time>
      </trkpt>
      <trkpt lat="43.55978" lon="4.07957">
        <ele>6.81</ele>
        <time>2019-05-31T08:09:41.000Z</time>
      </trkpt>
      <trkpt lat="43.5597" lon="4.07936">
        <ele>6.75</ele>
        <time>2019-05-31T08:09:46.000Z</time>
      </trkpt>
      <trkpt lat="43.55965" lon="4.07919">
        <ele>6.75</ele>
        <time>2019-05-31T08:09:51.000Z</time>
      </trkpt>
      <trkpt lat="43.55961" lon="4.07906">
        <ele>6.75</ele>
        <time>2019-05-31T08:09:58.000Z</time>
      </trkpt>
      <trkpt lat="43.55951" lon="4.07904">
        <ele>7.8</ele>
        <time>2019-05-31T08:10:04.000Z</time>
      </trkpt>
      <trkpt lat="43.55939" lon="4.07913">
        <ele>6.75</ele>
        <time>2019-05-31T08:10:09.000Z</time>
      </trkpt>
      <trkpt lat="43.5593" lon="4.07917">
        <ele>6.76</ele>
        <time>2019-05-31T08:10:14.000Z</time>
      </trkpt>
      <trkpt lat="43.55923" lon="4.07909">
        <ele>7.69</ele>
        <time>2019-05-31T08:10:19.000Z</time>
      </trkpt>
      <trkpt lat="43.55916" lon="4.07897">
        <ele>10.48</ele>
        <time>2019-05-31T08:10:24.000Z</time>
      </trkpt>
      <trkpt lat="43.55908" lon="4.07882">
        <ele>9.81</ele>
        <time>2019-05-31T08:10:29.000Z</time>
      </trkpt>
      <trkpt lat="43.55901" lon="4.07868">
        <ele>8</ele>
        <time>2019-05-31T08:10:34.000Z</time>
      </trkpt>
      <trkpt lat="43.55893" lon="4.07854">
        <ele>7.69</ele>
        <time>2019-05-31T08:10:39.000Z</time>
      </trkpt>
      <trkpt lat="43.55888" lon="4.07838">
        <ele>6</ele>
        <time>2019-05-31T08:10:44.000Z</time>
      </trkpt>
      <trkpt lat="43.55884" lon="4.07824">
        <ele>5</ele>
        <time>2019-05-31T08:10:49.000Z</time>
      </trkpt>
      <trkpt lat="43.55888" lon="4.07812">
        <ele>4.8</ele>
        <time>2019-05-31T08:10:54.000Z</time>
      </trkpt>
      <trkpt lat="43.55896" lon="4.07805">
        <ele>5.75</ele>
        <time>2019-05-31T08:10:59.000Z</time>
      </trkpt>
      <trkpt lat="43.55905" lon="4.078">
        <ele>5.8</ele>
        <time>2019-05-31T08:11:04.000Z</time>
      </trkpt>
      <trkpt lat="43.55913" lon="4.07794">
        <ele>5</ele>
        <time>2019-05-31T08:11:11.000Z</time>
      </trkpt>
      <trkpt lat="43.55918" lon="4.07806">
        <ele>9.55</ele>
        <time>2019-05-31T08:16:39.000Z</time>
      </trkpt>
      <trkpt lat="43.55925" lon="4.07815">
        <ele>11.67</ele>
        <time>2019-05-31T08:16:48.000Z</time>
      </trkpt>
      <trkpt lat="43.55925" lon="4.07801">
        <ele>13.73</ele>
        <time>2019-05-31T08:17:40.000Z</time>
      </trkpt>
      <trkpt lat="43.55919" lon="4.0779">
        <ele>13.81</ele>
        <time>2019-05-31T08:17:48.000Z</time>
      </trkpt>
      <trkpt lat="43.55929" lon="4.07798">
        <ele>10.83</ele>
        <time>2019-05-31T08:17:55.000Z</time>
      </trkpt>
      <trkpt lat="43.55934" lon="4.07815">
        <ele>10.75</ele>
        <time>2019-05-31T08:18:00.000Z</time>
      </trkpt>
      <trkpt lat="43.55939" lon="4.07828">
        <ele>8.67</ele>
        <time>2019-05-31T08:18:05.000Z</time>
      </trkpt>
      <trkpt lat="43.55947" lon="4.07837">
        <ele>8.73</ele>
        <time>2019-05-31T08:18:42.000Z</time>
      </trkpt>
      <trkpt lat="43.55971" lon="4.07818">
        <ele>8.75</ele>
        <time>2019-05-31T08:18:47.000Z</time>
      </trkpt>
      <trkpt lat="43.5599" lon="4.07803">
        <ele>8.75</ele>
        <time>2019-05-31T08:18:52.000Z</time>
      </trkpt>
      <trkpt lat="43.5601" lon="4.07788">
        <ele>8.75</ele>
        <time>2019-05-31T08:18:57.000Z</time>
      </trkpt>
      <trkpt lat="43.56028" lon="4.07773">
        <ele>8.76</ele>
        <time>2019-05-31T08:19:02.000Z</time>
      </trkpt>
      <trkpt lat="43.56048" lon="4.07758">
        <ele>7.74</ele>
        <time>2019-05-31T08:19:07.000Z</time>
      </trkpt>
      <trkpt lat="43.56064" lon="4.0775">
        <ele>7</ele>
        <time>2019-05-31T08:19:12.000Z</time>
      </trkpt>
      <trkpt lat="43.56072" lon="4.07741">
        <ele>4</ele>
        <time>2019-05-31T08:19:33.000Z</time>
      </trkpt>
      <trkpt lat="43.56088" lon="4.07729">
        <ele>1.73</ele>
        <time>2019-05-31T08:19:38.000Z</time>
      </trkpt>
      <trkpt lat="43.56103" lon="4.07717">
        <ele>1.75</ele>
        <time>2019-05-31T08:19:43.000Z</time>
      </trkpt>
      <trkpt lat="43.56112" lon="4.07714">
        <ele>7.75</ele>
        <time>2019-05-31T08:20:07.000Z</time>
      </trkpt>
      <trkpt lat="43.56129" lon="4.07714">
        <ele>7.94</ele>
        <time>2019-05-31T08:20:12.000Z</time>
      </trkpt>
      <trkpt lat="43.56145" lon="4.07715">
        <ele>6.81</ele>
        <time>2019-05-31T08:20:17.000Z</time>
      </trkpt>
      <trkpt lat="43.56145" lon="4.07695">
        <ele>5.81</ele>
        <time>2019-05-31T08:20:22.000Z</time>
      </trkpt>
      <trkpt lat="43.56141" lon="4.0767">
        <ele>4.76</ele>
        <time>2019-05-31T08:20:27.000Z</time>
      </trkpt>
      <trkpt lat="43.56142" lon="4.07646">
        <ele>3.75</ele>
        <time>2019-05-31T08:20:32.000Z</time>
      </trkpt>
      <trkpt lat="43.56142" lon="4.07621">
        <ele>2.75</ele>
        <time>2019-05-31T08:20:37.000Z</time>
      </trkpt>
      <trkpt lat="43.56142" lon="4.07606">
        <ele>4.48</ele>
        <time>2019-05-31T08:20:43.000Z</time>
      </trkpt>
      <trkpt lat="43.56143" lon="4.07584">
        <ele>4.79</ele>
        <time>2019-05-31T08:20:48.000Z</time>
      </trkpt>
      <trkpt lat="43.56146" lon="4.07558">
        <ele>3.81</ele>
        <time>2019-05-31T08:20:53.000Z</time>
      </trkpt>
      <trkpt lat="43.56146" lon="4.0753">
        <ele>3.81</ele>
        <time>2019-05-31T08:20:58.000Z</time>
      </trkpt>
      <trkpt lat="43.56147" lon="4.07503">
        <ele>3</ele>
        <time>2019-05-31T08:21:03.000Z</time>
      </trkpt>
      <trkpt lat="43.5615" lon="4.07475">
        <ele>3.5</ele>
        <time>2019-05-31T08:21:08.000Z</time>
      </trkpt>
      <trkpt lat="43.56152" lon="4.0745">
        <ele>2.75</ele>
        <time>2019-05-31T08:21:13.000Z</time>
      </trkpt>
      <trkpt lat="43.56151" lon="4.07428">
        <ele>4.43</ele>
        <time>2019-05-31T08:21:18.000Z</time>
      </trkpt>
      <trkpt lat="43.56149" lon="4.07407">
        <ele>5.75</ele>
        <time>2019-05-31T08:21:23.000Z</time>
      </trkpt>
      <trkpt lat="43.56154" lon="4.07385">
        <ele>4.7</ele>
        <time>2019-05-31T08:21:28.000Z</time>
      </trkpt>
      <trkpt lat="43.56153" lon="4.0736">
        <ele>5</ele>
        <time>2019-05-31T08:21:33.000Z</time>
      </trkpt>
      <trkpt lat="43.56157" lon="4.07339">
        <ele>3.81</ele>
        <time>2019-05-31T08:21:38.000Z</time>
      </trkpt>
      <trkpt lat="43.5616" lon="4.07323">
        <ele>2.75</ele>
        <time>2019-05-31T08:21:43.000Z</time>
      </trkpt>
      <trkpt lat="43.56159" lon="4.0731">
        <ele>2.79</ele>
        <time>2019-05-31T08:21:53.000Z</time>
      </trkpt>
      <trkpt lat="43.56163" lon="4.07297">
        <ele>2.45</ele>
        <time>2019-05-31T08:22:03.000Z</time>
      </trkpt>
      <trkpt lat="43.56163" lon="4.07284">
        <ele>1.25</ele>
        <time>2019-05-31T08:22:09.000Z</time>
      </trkpt>
      <trkpt lat="43.56165" lon="4.0727">
        <ele>1.79</ele>
        <time>2019-05-31T08:22:20.000Z</time>
      </trkpt>
      <trkpt lat="43.56167" lon="4.07258">
        <ele>0.75</ele>
        <time>2019-05-31T08:22:27.000Z</time>
      </trkpt>
      <trkpt lat="43.56168" lon="4.07244">
        <ele>2.75</ele>
        <time>2019-05-31T08:22:33.000Z</time>
      </trkpt>
      <trkpt lat="43.56169" lon="4.07232">
        <ele>3.75</ele>
        <time>2019-05-31T08:22:46.000Z</time>
      </trkpt>
      <trkpt lat="43.56169" lon="4.07217">
        <ele>4.75</ele>
        <time>2019-05-31T08:22:51.000Z</time>
      </trkpt>
      <trkpt lat="43.5617" lon="4.07204">
        <ele>5.74</ele>
        <time>2019-05-31T08:22:56.000Z</time>
      </trkpt>
      <trkpt lat="43.56173" lon="4.07192">
        <ele>1.81</ele>
        <time>2019-05-31T08:23:04.000Z</time>
      </trkpt>
      <trkpt lat="43.56175" lon="4.07178">
        <ele>1.52</ele>
        <time>2019-05-31T08:23:10.000Z</time>
      </trkpt>
      <trkpt lat="43.5617" lon="4.07167">
        <ele>3.68</ele>
        <time>2019-05-31T08:23:15.000Z</time>
      </trkpt>
      <trkpt lat="43.56173" lon="4.07152">
        <ele>4.5</ele>
        <time>2019-05-31T08:23:20.000Z</time>
      </trkpt>
      <trkpt lat="43.56181" lon="4.07132">
        <ele>2.82</ele>
        <time>2019-05-31T08:23:25.000Z</time>
      </trkpt>
      <trkpt lat="43.56175" lon="4.07115">
        <ele>3.76</ele>
        <time>2019-05-31T08:23:30.000Z</time>
      </trkpt>
      <trkpt lat="43.56166" lon="4.07113">
        <ele>5.73</ele>
        <time>2019-05-31T08:23:47.000Z</time>
      </trkpt>
      <trkpt lat="43.56157" lon="4.07109">
        <ele>6.74</ele>
        <time>2019-05-31T08:23:53.000Z</time>
      </trkpt>
      <trkpt lat="43.56148" lon="4.07107">
        <ele>7.73</ele>
        <time>2019-05-31T08:24:00.000Z</time>
      </trkpt>
      <trkpt lat="43.56138" lon="4.07107">
        <ele>4.07</ele>
        <time>2019-05-31T08:24:06.000Z</time>
      </trkpt>
      <trkpt lat="43.56127" lon="4.07116">
        <ele>3.75</ele>
        <time>2019-05-31T08:24:11.000Z</time>
      </trkpt>
      <trkpt lat="43.56119" lon="4.07108">
        <ele>4.76</ele>
        <time>2019-05-31T08:24:16.000Z</time>
      </trkpt>
      <trkpt lat="43.56127" lon="4.07087">
        <ele>5.43</ele>
        <time>2019-05-31T08:24:21.000Z</time>
      </trkpt>
      <trkpt lat="43.56129" lon="4.07066">
        <ele>3.77</ele>
        <time>2019-05-31T08:24:26.000Z</time>
      </trkpt>
      <trkpt lat="43.56121" lon="4.07053">
        <ele>3.75</ele>
        <time>2019-05-31T08:24:31.000Z</time>
      </trkpt>
      <trkpt lat="43.56103" lon="4.0706">
        <ele>2.76</ele>
        <time>2019-05-31T08:24:36.000Z</time>
      </trkpt>
      <trkpt lat="43.56085" lon="4.07071">
        <ele>3.92</ele>
        <time>2019-05-31T08:24:41.000Z</time>
      </trkpt>
      <trkpt lat="43.56065" lon="4.07081">
        <ele>5.48</ele>
        <time>2019-05-31T08:24:46.000Z</time>
      </trkpt>
      <trkpt lat="43.56046" lon="4.0708">
        <ele>8.23</ele>
        <time>2019-05-31T08:24:51.000Z</time>
      </trkpt>
      <trkpt lat="43.56027" lon="4.07071">
        <ele>4.83</ele>
        <time>2019-05-31T08:24:56.000Z</time>
      </trkpt>
      <trkpt lat="43.56007" lon="4.07068">
        <ele>4.99</ele>
        <time>2019-05-31T08:25:01.000Z</time>
      </trkpt>
      <trkpt lat="43.55989" lon="4.07058">
        <ele>6.68</ele>
        <time>2019-05-31T08:25:06.000Z</time>
      </trkpt>
      <trkpt lat="43.55973" lon="4.07047">
        <ele>7.69</ele>
        <time>2019-05-31T08:25:11.000Z</time>
      </trkpt>
      <trkpt lat="43.55956" lon="4.07039">
        <ele>9.45</ele>
        <time>2019-05-31T08:25:16.000Z</time>
      </trkpt>
      <trkpt lat="43.55941" lon="4.07033">
        <ele>10.75</ele>
        <time>2019-05-31T08:25:21.000Z</time>
      </trkpt>
      <trkpt lat="43.55928" lon="4.07029">
        <ele>10.76</ele>
        <time>2019-05-31T08:25:26.000Z</time>
      </trkpt>
      <trkpt lat="43.55916" lon="4.07021">
        <ele>12.92</ele>
        <time>2019-05-31T08:25:31.000Z</time>
      </trkpt>
      <trkpt lat="43.55907" lon="4.07016">
        <ele>12.76</ele>
        <time>2019-05-31T08:25:36.000Z</time>
      </trkpt>
      <trkpt lat="43.55894" lon="4.07009">
        <ele>12.76</ele>
        <time>2019-05-31T08:25:41.000Z</time>
      </trkpt>
      <trkpt lat="43.55883" lon="4.07004">
        <ele>11.56</ele>
        <time>2019-05-31T08:25:46.000Z</time>
      </trkpt>
      <trkpt lat="43.55874" lon="4.07">
        <ele>12.75</ele>
        <time>2019-05-31T08:25:57.000Z</time>
      </trkpt>
      <trkpt lat="43.55863" lon="4.06997">
        <ele>12</ele>
        <time>2019-05-31T08:26:02.000Z</time>
      </trkpt>
      <trkpt lat="43.55853" lon="4.06991">
        <ele>9.83</ele>
        <time>2019-05-31T08:26:07.000Z</time>
      </trkpt>
      <trkpt lat="43.55843" lon="4.06986">
        <ele>8.8</ele>
        <time>2019-05-31T08:26:12.000Z</time>
      </trkpt>
      <trkpt lat="43.55832" lon="4.06981">
        <ele>10.92</ele>
        <time>2019-05-31T08:26:17.000Z</time>
      </trkpt>
      <trkpt lat="43.55823" lon="4.0697">
        <ele>10.75</ele>
        <time>2019-05-31T08:26:22.000Z</time>
      </trkpt>
      <trkpt lat="43.55819" lon="4.06957">
        <ele>10.81</ele>
        <time>2019-05-31T08:26:27.000Z</time>
      </trkpt>
      <trkpt lat="43.55821" lon="4.06932">
        <ele>7.83</ele>
        <time>2019-05-31T08:26:32.000Z</time>
      </trkpt>
      <trkpt lat="43.55823" lon="4.06905">
        <ele>6.81</ele>
        <time>2019-05-31T08:26:37.000Z</time>
      </trkpt>
      <trkpt lat="43.55824" lon="4.0688">
        <ele>5.75</ele>
        <time>2019-05-31T08:26:42.000Z</time>
      </trkpt>
      <trkpt lat="43.55823" lon="4.06857">
        <ele>5.79</ele>
        <time>2019-05-31T08:26:47.000Z</time>
      </trkpt>
      <trkpt lat="43.55821" lon="4.06835">
        <ele>6.92</ele>
        <time>2019-05-31T08:26:52.000Z</time>
      </trkpt>
      <trkpt lat="43.55825" lon="4.06811">
        <ele>6</ele>
        <time>2019-05-31T08:26:57.000Z</time>
      </trkpt>
      <trkpt lat="43.55826" lon="4.06786">
        <ele>6.73</ele>
        <time>2019-05-31T08:27:02.000Z</time>
      </trkpt>
      <trkpt lat="43.55825" lon="4.06761">
        <ele>5.75</ele>
        <time>2019-05-31T08:27:07.000Z</time>
      </trkpt>
      <trkpt lat="43.55825" lon="4.06736">
        <ele>5.74</ele>
        <time>2019-05-31T08:27:12.000Z</time>
      </trkpt>
      <trkpt lat="43.55824" lon="4.06709">
        <ele>5.56</ele>
        <time>2019-05-31T08:27:17.000Z</time>
      </trkpt>
      <trkpt lat="43.55823" lon="4.06681">
        <ele>5</ele>
        <time>2019-05-31T08:27:22.000Z</time>
      </trkpt>
      <trkpt lat="43.55827" lon="4.06653">
        <ele>3.76</ele>
        <time>2019-05-31T08:27:27.000Z</time>
      </trkpt>
      <trkpt lat="43.55831" lon="4.06627">
        <ele>3.75</ele>
        <time>2019-05-31T08:27:32.000Z</time>
      </trkpt>
      <trkpt lat="43.55831" lon="4.06599">
        <ele>3.75</ele>
        <time>2019-05-31T08:27:37.000Z</time>
      </trkpt>
      <trkpt lat="43.55832" lon="4.06567">
        <ele>3.75</ele>
        <time>2019-05-31T08:27:42.000Z</time>
      </trkpt>
      <trkpt lat="43.5583" lon="4.06536">
        <ele>3.81</ele>
        <time>2019-05-31T08:27:47.000Z</time>
      </trkpt>
      <trkpt lat="43.55832" lon="4.0651">
        <ele>3</ele>
        <time>2019-05-31T08:27:52.000Z</time>
      </trkpt>
      <trkpt lat="43.55835" lon="4.06479">
        <ele>3.5</ele>
        <time>2019-05-31T08:27:57.000Z</time>
      </trkpt>
      <trkpt lat="43.55837" lon="4.06445">
        <ele>3.75</ele>
        <time>2019-05-31T08:28:02.000Z</time>
      </trkpt>
      <trkpt lat="43.55838" lon="4.06414">
        <ele>4.74</ele>
        <time>2019-05-31T08:28:07.000Z</time>
      </trkpt>
      <trkpt lat="43.55838" lon="4.06382">
        <ele>4.76</ele>
        <time>2019-05-31T08:28:12.000Z</time>
      </trkpt>
      <trkpt lat="43.55839" lon="4.06353">
        <ele>4.51</ele>
        <time>2019-05-31T08:28:17.000Z</time>
      </trkpt>
      <trkpt lat="43.55834" lon="4.06329">
        <ele>4.69</ele>
        <time>2019-05-31T08:28:22.000Z</time>
      </trkpt>
      <trkpt lat="43.55832" lon="4.06299">
        <ele>4.75</ele>
        <time>2019-05-31T08:28:27.000Z</time>
      </trkpt>
      <trkpt lat="43.55837" lon="4.06268">
        <ele>4</ele>
        <time>2019-05-31T08:28:32.000Z</time>
      </trkpt>
      <trkpt lat="43.55839" lon="4.06234">
        <ele>4.68</ele>
        <time>2019-05-31T08:28:37.000Z</time>
      </trkpt>
      <trkpt lat="43.55843" lon="4.06196">
        <ele>4.75</ele>
        <time>2019-05-31T08:28:42.000Z</time>
      </trkpt>
      <trkpt lat="43.55847" lon="4.0616">
        <ele>4.93</ele>
        <time>2019-05-31T08:28:47.000Z</time>
      </trkpt>
      <trkpt lat="43.55846" lon="4.06124">
        <ele>5.55</ele>
        <time>2019-05-31T08:28:52.000Z</time>
      </trkpt>
      <trkpt lat="43.55842" lon="4.06103">
        <ele>4</ele>
        <time>2019-05-31T08:28:57.000Z</time>
      </trkpt>
      <trkpt lat="43.5584" lon="4.06083">
        <ele>4.68</ele>
        <time>2019-05-31T08:29:02.000Z</time>
      </trkpt>
      <trkpt lat="43.5584" lon="4.06062">
        <ele>4</ele>
        <time>2019-05-31T08:29:07.000Z</time>
      </trkpt>
      <trkpt lat="43.55845" lon="4.06034">
        <ele>3.75</ele>
        <time>2019-05-31T08:29:12.000Z</time>
      </trkpt>
      <trkpt lat="43.55847" lon="4.06001">
        <ele>3.75</ele>
        <time>2019-05-31T08:29:17.000Z</time>
      </trkpt>
      <trkpt lat="43.55848" lon="4.05968">
        <ele>3.75</ele>
        <time>2019-05-31T08:29:22.000Z</time>
      </trkpt>
      <trkpt lat="43.55846" lon="4.05933">
        <ele>3.76</ele>
        <time>2019-05-31T08:29:27.000Z</time>
      </trkpt>
      <trkpt lat="43.55845" lon="4.05899">
        <ele>4.5</ele>
        <time>2019-05-31T08:29:32.000Z</time>
      </trkpt>
      <trkpt lat="43.55841" lon="4.05867">
        <ele>3.81</ele>
        <time>2019-05-31T08:29:37.000Z</time>
      </trkpt>
      <trkpt lat="43.55839" lon="4.05837">
        <ele>3.76</ele>
        <time>2019-05-31T08:29:42.000Z</time>
      </trkpt>
      <trkpt lat="43.55838" lon="4.05807">
        <ele>3.75</ele>
        <time>2019-05-31T08:29:47.000Z</time>
      </trkpt>
      <trkpt lat="43.55835" lon="4.05775">
        <ele>4.69</ele>
        <time>2019-05-31T08:29:52.000Z</time>
      </trkpt>
      <trkpt lat="43.55835" lon="4.0574">
        <ele>4.56</ele>
        <time>2019-05-31T08:29:57.000Z</time>
      </trkpt>
      <trkpt lat="43.55835" lon="4.05705">
        <ele>3.75</ele>
        <time>2019-05-31T08:30:02.000Z</time>
      </trkpt>
      <trkpt lat="43.55834" lon="4.05668">
        <ele>2.62</ele>
        <time>2019-05-31T08:30:07.000Z</time>
      </trkpt>
      <trkpt lat="43.55835" lon="4.05631">
        <ele>2.74</ele>
        <time>2019-05-31T08:30:12.000Z</time>
      </trkpt>
      <trkpt lat="43.55835" lon="4.05591">
        <ele>3.74</ele>
        <time>2019-05-31T08:30:17.000Z</time>
      </trkpt>
      <trkpt lat="43.55834" lon="4.05555">
        <ele>3.94</ele>
        <time>2019-05-31T08:30:22.000Z</time>
      </trkpt>
      <trkpt lat="43.55834" lon="4.05518">
        <ele>4.74</ele>
        <time>2019-05-31T08:30:27.000Z</time>
      </trkpt>
      <trkpt lat="43.55833" lon="4.0548">
        <ele>5.74</ele>
        <time>2019-05-31T08:30:32.000Z</time>
      </trkpt>
      <trkpt lat="43.55831" lon="4.05444">
        <ele>5.76</ele>
        <time>2019-05-31T08:30:37.000Z</time>
      </trkpt>
      <trkpt lat="43.55829" lon="4.05411">
        <ele>4.99</ele>
        <time>2019-05-31T08:30:42.000Z</time>
      </trkpt>
      <trkpt lat="43.55829" lon="4.05377">
        <ele>4.74</ele>
        <time>2019-05-31T08:30:47.000Z</time>
      </trkpt>
      <trkpt lat="43.55829" lon="4.05342">
        <ele>4.74</ele>
        <time>2019-05-31T08:30:52.000Z</time>
      </trkpt>
      <trkpt lat="43.55828" lon="4.05306">
        <ele>4.74</ele>
        <time>2019-05-31T08:30:57.000Z</time>
      </trkpt>
      <trkpt lat="43.55827" lon="4.05269">
        <ele>4.74</ele>
        <time>2019-05-31T08:31:02.000Z</time>
      </trkpt>
      <trkpt lat="43.55825" lon="4.05231">
        <ele>4.74</ele>
        <time>2019-05-31T08:31:07.000Z</time>
      </trkpt>
      <trkpt lat="43.55823" lon="4.05193">
        <ele>3.76</ele>
        <time>2019-05-31T08:31:12.000Z</time>
      </trkpt>
      <trkpt lat="43.55821" lon="4.05159">
        <ele>4.74</ele>
        <time>2019-05-31T08:31:17.000Z</time>
      </trkpt>
      <trkpt lat="43.5582" lon="4.05137">
        <ele>4.99</ele>
        <time>2019-05-31T08:31:22.000Z</time>
      </trkpt>
      <trkpt lat="43.55819" lon="4.05123">
        <ele>3.75</ele>
        <time>2019-05-31T08:31:45.000Z</time>
      </trkpt>
      <trkpt lat="43.55819" lon="4.05104">
        <ele>4.74</ele>
        <time>2019-05-31T08:31:50.000Z</time>
      </trkpt>
      <trkpt lat="43.55816" lon="4.05085">
        <ele>5.74</ele>
        <time>2019-05-31T08:31:55.000Z</time>
      </trkpt>
      <trkpt lat="43.55815" lon="4.05054">
        <ele>6.49</ele>
        <time>2019-05-31T08:32:00.000Z</time>
      </trkpt>
      <trkpt lat="43.55813" lon="4.0502">
        <ele>5.74</ele>
        <time>2019-05-31T08:32:05.000Z</time>
      </trkpt>
      <trkpt lat="43.5581" lon="4.04984">
        <ele>4.99</ele>
        <time>2019-05-31T08:32:10.000Z</time>
      </trkpt>
      <trkpt lat="43.55808" lon="4.04947">
        <ele>4.74</ele>
        <time>2019-05-31T08:32:15.000Z</time>
      </trkpt>
      <trkpt lat="43.55804" lon="4.04908">
        <ele>4.74</ele>
        <time>2019-05-31T08:32:20.000Z</time>
      </trkpt>
      <trkpt lat="43.558" lon="4.04871">
        <ele>6.01</ele>
        <time>2019-05-31T08:32:25.000Z</time>
      </trkpt>
      <trkpt lat="43.55796" lon="4.04833">
        <ele>4.75</ele>
        <time>2019-05-31T08:32:30.000Z</time>
      </trkpt>
      <trkpt lat="43.55793" lon="4.04794">
        <ele>3.74</ele>
        <time>2019-05-31T08:32:35.000Z</time>
      </trkpt>
      <trkpt lat="43.55788" lon="4.04755">
        <ele>3.75</ele>
        <time>2019-05-31T08:32:40.000Z</time>
      </trkpt>
      <trkpt lat="43.55785" lon="4.04717">
        <ele>3.74</ele>
        <time>2019-05-31T08:32:45.000Z</time>
      </trkpt>
      <trkpt lat="43.55782" lon="4.0468">
        <ele>3.79</ele>
        <time>2019-05-31T08:32:50.000Z</time>
      </trkpt>
      <trkpt lat="43.55779" lon="4.04644">
        <ele>4.68</ele>
        <time>2019-05-31T08:32:55.000Z</time>
      </trkpt>
      <trkpt lat="43.55776" lon="4.04609">
        <ele>4.74</ele>
        <time>2019-05-31T08:33:00.000Z</time>
      </trkpt>
      <trkpt lat="43.55773" lon="4.04571">
        <ele>4.74</ele>
        <time>2019-05-31T08:33:05.000Z</time>
      </trkpt>
      <trkpt lat="43.55769" lon="4.04532">
        <ele>3.75</ele>
        <time>2019-05-31T08:33:10.000Z</time>
      </trkpt>
      <trkpt lat="43.55765" lon="4.04494">
        <ele>3.74</ele>
        <time>2019-05-31T08:33:15.000Z</time>
      </trkpt>
      <trkpt lat="43.55764" lon="4.04456">
        <ele>4.74</ele>
        <time>2019-05-31T08:33:20.000Z</time>
      </trkpt>
      <trkpt lat="43.5576" lon="4.04417">
        <ele>4.74</ele>
        <time>2019-05-31T08:33:25.000Z</time>
      </trkpt>
      <trkpt lat="43.55756" lon="4.04377">
        <ele>4.74</ele>
        <time>2019-05-31T08:33:30.000Z</time>
      </trkpt>
      <trkpt lat="43.55753" lon="4.0434">
        <ele>4.75</ele>
        <time>2019-05-31T08:33:35.000Z</time>
      </trkpt>
      <trkpt lat="43.55751" lon="4.04301">
        <ele>4.69</ele>
        <time>2019-05-31T08:33:40.000Z</time>
      </trkpt>
      <trkpt lat="43.55747" lon="4.04262">
        <ele>4.49</ele>
        <time>2019-05-31T08:33:45.000Z</time>
      </trkpt>
      <trkpt lat="43.55746" lon="4.04224">
        <ele>4.74</ele>
        <time>2019-05-31T08:33:50.000Z</time>
      </trkpt>
      <trkpt lat="43.55743" lon="4.04186">
        <ele>4.74</ele>
        <time>2019-05-31T08:33:55.000Z</time>
      </trkpt>
      <trkpt lat="43.5574" lon="4.04148">
        <ele>3.8</ele>
        <time>2019-05-31T08:34:00.000Z</time>
      </trkpt>
      <trkpt lat="43.55737" lon="4.04112">
        <ele>2.8</ele>
        <time>2019-05-31T08:34:05.000Z</time>
      </trkpt>
      <trkpt lat="43.55737" lon="4.04076">
        <ele>3.74</ele>
        <time>2019-05-31T08:34:10.000Z</time>
      </trkpt>
      <trkpt lat="43.55735" lon="4.0404">
        <ele>4.68</ele>
        <time>2019-05-31T08:34:15.000Z</time>
      </trkpt>
      <trkpt lat="43.55732" lon="4.04004">
        <ele>4.51</ele>
        <time>2019-05-31T08:34:20.000Z</time>
      </trkpt>
      <trkpt lat="43.5573" lon="4.03966">
        <ele>3.75</ele>
        <time>2019-05-31T08:34:25.000Z</time>
      </trkpt>
      <trkpt lat="43.55728" lon="4.03928">
        <ele>3.93</ele>
        <time>2019-05-31T08:34:30.000Z</time>
      </trkpt>
      <trkpt lat="43.55726" lon="4.0389">
        <ele>3.93</ele>
        <time>2019-05-31T08:34:35.000Z</time>
      </trkpt>
      <trkpt lat="43.55724" lon="4.03858">
        <ele>3.7</ele>
        <time>2019-05-31T08:34:40.000Z</time>
      </trkpt>
      <trkpt lat="43.5572" lon="4.03823">
        <ele>4.68</ele>
        <time>2019-05-31T08:34:45.000Z</time>
      </trkpt>
      <trkpt lat="43.55718" lon="4.03789">
        <ele>5.54</ele>
        <time>2019-05-31T08:34:50.000Z</time>
      </trkpt>
      <trkpt lat="43.55717" lon="4.03756">
        <ele>5.69</ele>
        <time>2019-05-31T08:34:55.000Z</time>
      </trkpt>
      <trkpt lat="43.55715" lon="4.0372">
        <ele>6.43</ele>
        <time>2019-05-31T08:35:00.000Z</time>
      </trkpt>
      <trkpt lat="43.55711" lon="4.03686">
        <ele>6.74</ele>
        <time>2019-05-31T08:35:05.000Z</time>
      </trkpt>
      <trkpt lat="43.55708" lon="4.03652">
        <ele>4.76</ele>
        <time>2019-05-31T08:35:10.000Z</time>
      </trkpt>
      <trkpt lat="43.55705" lon="4.03619">
        <ele>3.8</ele>
        <time>2019-05-31T08:35:15.000Z</time>
      </trkpt>
      <trkpt lat="43.55703" lon="4.03585">
        <ele>2.99</ele>
        <time>2019-05-31T08:35:20.000Z</time>
      </trkpt>
      <trkpt lat="43.557" lon="4.0355">
        <ele>3.49</ele>
        <time>2019-05-31T08:35:25.000Z</time>
      </trkpt>
      <trkpt lat="43.55698" lon="4.03515">
        <ele>3.74</ele>
        <time>2019-05-31T08:35:30.000Z</time>
      </trkpt>
      <trkpt lat="43.55695" lon="4.03484">
        <ele>2.76</ele>
        <time>2019-05-31T08:35:35.000Z</time>
      </trkpt>
      <trkpt lat="43.55692" lon="4.0345">
        <ele>2.94</ele>
        <time>2019-05-31T08:35:40.000Z</time>
      </trkpt>
      <trkpt lat="43.5569" lon="4.0342">
        <ele>2.74</ele>
        <time>2019-05-31T08:35:45.000Z</time>
      </trkpt>
      <trkpt lat="43.55688" lon="4.03391">
        <ele>2.79</ele>
        <time>2019-05-31T08:35:50.000Z</time>
      </trkpt>
      <trkpt lat="43.55681" lon="4.03369">
        <ele>2.68</ele>
        <time>2019-05-31T08:35:55.000Z</time>
      </trkpt>
      <trkpt lat="43.55669" lon="4.03366">
        <ele>2.74</ele>
        <time>2019-05-31T08:36:00.000Z</time>
      </trkpt>
      <trkpt lat="43.55659" lon="4.03365">
        <ele>3.49</ele>
        <time>2019-05-31T08:36:05.000Z</time>
      </trkpt>
      <trkpt lat="43.55648" lon="4.03366">
        <ele>3.51</ele>
        <time>2019-05-31T08:36:10.000Z</time>
      </trkpt>
      <trkpt lat="43.55657" lon="4.03366">
        <ele>4.74</ele>
        <time>2019-05-31T08:37:38.000Z</time>
      </trkpt>
      <trkpt lat="43.55666" lon="4.03365">
        <ele>4.74</ele>
        <time>2019-05-31T08:37:46.000Z</time>
      </trkpt>
      <trkpt lat="43.55675" lon="4.03366">
        <ele>3.74</ele>
        <time>2019-05-31T08:37:58.000Z</time>
      </trkpt>
      <trkpt lat="43.55687" lon="4.03369">
        <ele>3.74</ele>
        <time>2019-05-31T08:38:03.000Z</time>
      </trkpt>
      <trkpt lat="43.55689" lon="4.03391">
        <ele>3.74</ele>
        <time>2019-05-31T08:38:08.000Z</time>
      </trkpt>
      <trkpt lat="43.55697" lon="4.03405">
        <ele>4.68</ele>
        <time>2019-05-31T08:38:13.000Z</time>
      </trkpt>
      <trkpt lat="43.55708" lon="4.03406">
        <ele>5.68</ele>
        <time>2019-05-31T08:38:18.000Z</time>
      </trkpt>
      <trkpt lat="43.55717" lon="4.03397">
        <ele>2.74</ele>
        <time>2019-05-31T08:41:28.000Z</time>
      </trkpt>
      <trkpt lat="43.55735" lon="4.03393">
        <ele>2.69</ele>
        <time>2019-05-31T08:41:33.000Z</time>
      </trkpt>
      <trkpt lat="43.55755" lon="4.03378">
        <ele>1.74</ele>
        <time>2019-05-31T08:41:38.000Z</time>
      </trkpt>
      <trkpt lat="43.55773" lon="4.03359">
        <ele>1.74</ele>
        <time>2019-05-31T08:41:43.000Z</time>
      </trkpt>
      <trkpt lat="43.55791" lon="4.03341">
        <ele>1.74</ele>
        <time>2019-05-31T08:41:48.000Z</time>
      </trkpt>
      <trkpt lat="43.5581" lon="4.03321">
        <ele>0.76</ele>
        <time>2019-05-31T08:41:53.000Z</time>
      </trkpt>
      <trkpt lat="43.55826" lon="4.03301">
        <ele>0.93</ele>
        <time>2019-05-31T08:41:58.000Z</time>
      </trkpt>
      <trkpt lat="43.55833" lon="4.03276">
        <ele>1.49</ele>
        <time>2019-05-31T08:42:03.000Z</time>
      </trkpt>
      <trkpt lat="43.55833" lon="4.03247">
        <ele>1.74</ele>
        <time>2019-05-31T08:42:08.000Z</time>
      </trkpt>
      <trkpt lat="43.55839" lon="4.03217">
        <ele>1.74</ele>
        <time>2019-05-31T08:42:13.000Z</time>
      </trkpt>
      <trkpt lat="43.55839" lon="4.03189">
        <ele>2.54</ele>
        <time>2019-05-31T08:42:18.000Z</time>
      </trkpt>
      <trkpt lat="43.5584" lon="4.03159">
        <ele>3.68</ele>
        <time>2019-05-31T08:42:23.000Z</time>
      </trkpt>
      <trkpt lat="43.55845" lon="4.03127">
        <ele>1.99</ele>
        <time>2019-05-31T08:42:28.000Z</time>
      </trkpt>
      <trkpt lat="43.55848" lon="4.03092">
        <ele>3.68</ele>
        <time>2019-05-31T08:42:33.000Z</time>
      </trkpt>
      <trkpt lat="43.5585" lon="4.03054">
        <ele>3.74</ele>
        <time>2019-05-31T08:42:38.000Z</time>
      </trkpt>
      <trkpt lat="43.55849" lon="4.03015">
        <ele>3.69</ele>
        <time>2019-05-31T08:42:43.000Z</time>
      </trkpt>
      <trkpt lat="43.55848" lon="4.02978">
        <ele>2.74</ele>
        <time>2019-05-31T08:42:48.000Z</time>
      </trkpt>
      <trkpt lat="43.55843" lon="4.02944">
        <ele>3.74</ele>
        <time>2019-05-31T08:42:53.000Z</time>
      </trkpt>
      <trkpt lat="43.55832" lon="4.02913">
        <ele>3.99</ele>
        <time>2019-05-31T08:42:58.000Z</time>
      </trkpt>
      <trkpt lat="43.55825" lon="4.02881">
        <ele>2</ele>
        <time>2019-05-31T08:43:03.000Z</time>
      </trkpt>
      <trkpt lat="43.55821" lon="4.02846">
        <ele>4.72</ele>
        <time>2019-05-31T08:43:08.000Z</time>
      </trkpt>
      <trkpt lat="43.55816" lon="4.0281">
        <ele>3.74</ele>
        <time>2019-05-31T08:43:13.000Z</time>
      </trkpt>
      <trkpt lat="43.55811" lon="4.02774">
        <ele>5.43</ele>
        <time>2019-05-31T08:43:18.000Z</time>
      </trkpt>
      <trkpt lat="43.558" lon="4.02737">
        <ele>5.67</ele>
        <time>2019-05-31T08:43:23.000Z</time>
      </trkpt>
      <trkpt lat="43.5579" lon="4.02703">
        <ele>5.49</ele>
        <time>2019-05-31T08:43:28.000Z</time>
      </trkpt>
      <trkpt lat="43.5579" lon="4.02665">
        <ele>5.73</ele>
        <time>2019-05-31T08:43:33.000Z</time>
      </trkpt>
      <trkpt lat="43.55798" lon="4.02627">
        <ele>4.8</ele>
        <time>2019-05-31T08:43:38.000Z</time>
      </trkpt>
      <trkpt lat="43.55804" lon="4.02586">
        <ele>4.74</ele>
        <time>2019-05-31T08:43:43.000Z</time>
      </trkpt>
      <trkpt lat="43.558" lon="4.02546">
        <ele>3.8</ele>
        <time>2019-05-31T08:43:48.000Z</time>
      </trkpt>
      <trkpt lat="43.55787" lon="4.02509">
        <ele>2.8</ele>
        <time>2019-05-31T08:43:53.000Z</time>
      </trkpt>
      <trkpt lat="43.55774" lon="4.02473">
        <ele>1.69</ele>
        <time>2019-05-31T08:43:58.000Z</time>
      </trkpt>
      <trkpt lat="43.5577" lon="4.02437">
        <ele>1.68</ele>
        <time>2019-05-31T08:44:03.000Z</time>
      </trkpt>
      <trkpt lat="43.55767" lon="4.024">
        <ele>1.74</ele>
        <time>2019-05-31T08:44:08.000Z</time>
      </trkpt>
      <trkpt lat="43.55762" lon="4.02363">
        <ele>2.74</ele>
        <time>2019-05-31T08:44:13.000Z</time>
      </trkpt>
      <trkpt lat="43.55746" lon="4.0233">
        <ele>2.97</ele>
        <time>2019-05-31T08:44:18.000Z</time>
      </trkpt>
      <trkpt lat="43.55733" lon="4.02295">
        <ele>2.93</ele>
        <time>2019-05-31T08:44:23.000Z</time>
      </trkpt>
      <trkpt lat="43.5572" lon="4.0226">
        <ele>1.8</ele>
        <time>2019-05-31T08:44:28.000Z</time>
      </trkpt>
      <trkpt lat="43.55712" lon="4.02224">
        <ele>1.74</ele>
        <time>2019-05-31T08:44:33.000Z</time>
      </trkpt>
      <trkpt lat="43.55708" lon="4.02188">
        <ele>1.74</ele>
        <time>2019-05-31T08:44:38.000Z</time>
      </trkpt>
      <trkpt lat="43.55703" lon="4.0215">
        <ele>2.73</ele>
        <time>2019-05-31T08:44:43.000Z</time>
      </trkpt>
      <trkpt lat="43.55701" lon="4.02108">
        <ele>2.93</ele>
        <time>2019-05-31T08:44:48.000Z</time>
      </trkpt>
      <trkpt lat="43.55701" lon="4.02067">
        <ele>3.73</ele>
        <time>2019-05-31T08:44:53.000Z</time>
      </trkpt>
      <trkpt lat="43.55696" lon="4.02032">
        <ele>2.74</ele>
        <time>2019-05-31T08:44:58.000Z</time>
      </trkpt>
      <trkpt lat="43.55688" lon="4.01995">
        <ele>2.93</ele>
        <time>2019-05-31T08:45:03.000Z</time>
      </trkpt>
      <trkpt lat="43.55681" lon="4.01956">
        <ele>4.48</ele>
        <time>2019-05-31T08:45:08.000Z</time>
      </trkpt>
      <trkpt lat="43.55672" lon="4.01919">
        <ele>2.99</ele>
        <time>2019-05-31T08:45:13.000Z</time>
      </trkpt>
      <trkpt lat="43.55662" lon="4.0188">
        <ele>2.49</ele>
        <time>2019-05-31T08:45:18.000Z</time>
      </trkpt>
      <trkpt lat="43.55656" lon="4.01839">
        <ele>2.74</ele>
        <time>2019-05-31T08:45:23.000Z</time>
      </trkpt>
      <trkpt lat="43.55652" lon="4.01798">
        <ele>3.73</ele>
        <time>2019-05-31T08:45:28.000Z</time>
      </trkpt>
      <trkpt lat="43.5565" lon="4.01756">
        <ele>3.74</ele>
        <time>2019-05-31T08:45:33.000Z</time>
      </trkpt>
      <trkpt lat="43.5565" lon="4.01715">
        <ele>3.74</ele>
        <time>2019-05-31T08:45:38.000Z</time>
      </trkpt>
      <trkpt lat="43.55641" lon="4.01675">
        <ele>3.98</ele>
        <time>2019-05-31T08:45:43.000Z</time>
      </trkpt>
      <trkpt lat="43.55626" lon="4.01641">
        <ele>3.74</ele>
        <time>2019-05-31T08:45:48.000Z</time>
      </trkpt>
      <trkpt lat="43.55614" lon="4.01606">
        <ele>3.55</ele>
        <time>2019-05-31T08:45:53.000Z</time>
      </trkpt>
      <trkpt lat="43.55612" lon="4.01567">
        <ele>2.75</ele>
        <time>2019-05-31T08:45:58.000Z</time>
      </trkpt>
      <trkpt lat="43.55611" lon="4.01527">
        <ele>2.74</ele>
        <time>2019-05-31T08:46:03.000Z</time>
      </trkpt>
      <trkpt lat="43.55601" lon="4.01488">
        <ele>2.73</ele>
        <time>2019-05-31T08:46:08.000Z</time>
      </trkpt>
      <trkpt lat="43.55585" lon="4.01455">
        <ele>1.98</ele>
        <time>2019-05-31T08:46:13.000Z</time>
      </trkpt>
      <trkpt lat="43.5557" lon="4.0142">
        <ele>2.74</ele>
        <time>2019-05-31T08:46:18.000Z</time>
      </trkpt>
      <trkpt lat="43.55556" lon="4.01383">
        <ele>3.74</ele>
        <time>2019-05-31T08:46:23.000Z</time>
      </trkpt>
      <trkpt lat="43.55542" lon="4.01346">
        <ele>1.75</ele>
        <time>2019-05-31T08:46:28.000Z</time>
      </trkpt>
      <trkpt lat="43.55529" lon="4.01308">
        <ele>0.75</ele>
        <time>2019-05-31T08:46:33.000Z</time>
      </trkpt>
      <trkpt lat="43.55526" lon="4.01267">
        <ele>1.73</ele>
        <time>2019-05-31T08:46:38.000Z</time>
      </trkpt>
      <trkpt lat="43.55522" lon="4.01225">
        <ele>1.8</ele>
        <time>2019-05-31T08:46:43.000Z</time>
      </trkpt>
      <trkpt lat="43.55512" lon="4.01187">
        <ele>1.74</ele>
        <time>2019-05-31T08:46:48.000Z</time>
      </trkpt>
      <trkpt lat="43.55504" lon="4.0116">
        <ele>1.74</ele>
        <time>2019-05-31T08:46:53.000Z</time>
      </trkpt>
      <trkpt lat="43.55499" lon="4.01141">
        <ele>2.53</ele>
        <time>2019-05-31T08:46:58.000Z</time>
      </trkpt>
      <trkpt lat="43.55492" lon="4.01112">
        <ele>2.55</ele>
        <time>2019-05-31T08:47:03.000Z</time>
      </trkpt>
      <trkpt lat="43.55482" lon="4.01081">
        <ele>2.74</ele>
        <time>2019-05-31T08:47:08.000Z</time>
      </trkpt>
      <trkpt lat="43.55467" lon="4.0105">
        <ele>3.74</ele>
        <time>2019-05-31T08:47:13.000Z</time>
      </trkpt>
      <trkpt lat="43.55455" lon="4.01016">
        <ele>3.55</ele>
        <time>2019-05-31T08:47:18.000Z</time>
      </trkpt>
      <trkpt lat="43.55443" lon="4.0098">
        <ele>3.74</ele>
        <time>2019-05-31T08:47:23.000Z</time>
      </trkpt>
      <trkpt lat="43.55429" lon="4.00947">
        <ele>3.74</ele>
        <time>2019-05-31T08:47:28.000Z</time>
      </trkpt>
      <trkpt lat="43.55403" lon="4.00936">
        <ele>3.74</ele>
        <time>2019-05-31T08:47:33.000Z</time>
      </trkpt>
      <trkpt lat="43.55375" lon="4.00947">
        <ele>4.72</ele>
        <time>2019-05-31T08:47:38.000Z</time>
      </trkpt>
      <trkpt lat="43.55354" lon="4.00965">
        <ele>4.49</ele>
        <time>2019-05-31T08:47:43.000Z</time>
      </trkpt>
      <trkpt lat="43.55334" lon="4.00966">
        <ele>4.68</ele>
        <time>2019-05-31T08:47:48.000Z</time>
      </trkpt>
      <trkpt lat="43.55323" lon="4.00964">
        <ele>5.68</ele>
        <time>2019-05-31T08:47:53.000Z</time>
      </trkpt>
      <trkpt lat="43.55323" lon="4.00951">
        <ele>6.49</ele>
        <time>2019-05-31T08:49:17.000Z</time>
      </trkpt>
      <trkpt lat="43.55315" lon="4.00926">
        <ele>6.74</ele>
        <time>2019-05-31T08:49:22.000Z</time>
      </trkpt>
      <trkpt lat="43.55308" lon="4.00903">
        <ele>6.54</ele>
        <time>2019-05-31T08:49:27.000Z</time>
      </trkpt>
      <trkpt lat="43.55304" lon="4.00876">
        <ele>5.74</ele>
        <time>2019-05-31T08:49:32.000Z</time>
      </trkpt>
      <trkpt lat="43.55297" lon="4.00847">
        <ele>5.74</ele>
        <time>2019-05-31T08:49:37.000Z</time>
      </trkpt>
      <trkpt lat="43.55288" lon="4.00816">
        <ele>6.68</ele>
        <time>2019-05-31T08:49:42.000Z</time>
      </trkpt>
      <trkpt lat="43.5528" lon="4.00785">
        <ele>6.74</ele>
        <time>2019-05-31T08:49:47.000Z</time>
      </trkpt>
      <trkpt lat="43.55273" lon="4.00755">
        <ele>6.74</ele>
        <time>2019-05-31T08:49:52.000Z</time>
      </trkpt>
      <trkpt lat="43.55266" lon="4.00728">
        <ele>5.74</ele>
        <time>2019-05-31T08:49:57.000Z</time>
      </trkpt>
      <trkpt lat="43.5526" lon="4.00702">
        <ele>6.74</ele>
        <time>2019-05-31T08:50:02.000Z</time>
      </trkpt>
      <trkpt lat="43.55255" lon="4.00678">
        <ele>5.93</ele>
        <time>2019-05-31T08:50:07.000Z</time>
      </trkpt>
      <trkpt lat="43.55249" lon="4.00661">
        <ele>5.74</ele>
        <time>2019-05-31T08:50:12.000Z</time>
      </trkpt>
      <trkpt lat="43.55244" lon="4.00638">
        <ele>6.49</ele>
        <time>2019-05-31T08:50:17.000Z</time>
      </trkpt>
      <trkpt lat="43.55236" lon="4.00611">
        <ele>6.49</ele>
        <time>2019-05-31T08:50:22.000Z</time>
      </trkpt>
      <trkpt lat="43.55227" lon="4.00582">
        <ele>6.74</ele>
        <time>2019-05-31T08:50:27.000Z</time>
      </trkpt>
      <trkpt lat="43.5522" lon="4.00549">
        <ele>6.68</ele>
        <time>2019-05-31T08:50:32.000Z</time>
      </trkpt>
      <trkpt lat="43.55211" lon="4.00515">
        <ele>7.49</ele>
        <time>2019-05-31T08:50:37.000Z</time>
      </trkpt>
      <trkpt lat="43.55202" lon="4.00481">
        <ele>6.99</ele>
        <time>2019-05-31T08:50:42.000Z</time>
      </trkpt>
      <trkpt lat="43.55192" lon="4.00448">
        <ele>6.74</ele>
        <time>2019-05-31T08:50:47.000Z</time>
      </trkpt>
      <trkpt lat="43.55182" lon="4.00412">
        <ele>5.74</ele>
        <time>2019-05-31T08:50:52.000Z</time>
      </trkpt>
      <trkpt lat="43.55173" lon="4.00377">
        <ele>6.74</ele>
        <time>2019-05-31T08:50:57.000Z</time>
      </trkpt>
      <trkpt lat="43.55164" lon="4.00342">
        <ele>6.74</ele>
        <time>2019-05-31T08:51:02.000Z</time>
      </trkpt>
      <trkpt lat="43.55155" lon="4.00306">
        <ele>6.74</ele>
        <time>2019-05-31T08:51:07.000Z</time>
      </trkpt>
      <trkpt lat="43.55145" lon="4.00271">
        <ele>6.72</ele>
        <time>2019-05-31T08:51:12.000Z</time>
      </trkpt>
      <trkpt lat="43.55136" lon="4.00235">
        <ele>6.74</ele>
        <time>2019-05-31T08:51:17.000Z</time>
      </trkpt>
      <trkpt lat="43.55124" lon="4.00199">
        <ele>6.74</ele>
        <time>2019-05-31T08:51:22.000Z</time>
      </trkpt>
      <trkpt lat="43.55115" lon="4.00164">
        <ele>6.74</ele>
        <time>2019-05-31T08:51:27.000Z</time>
      </trkpt>
      <trkpt lat="43.55106" lon="4.00131">
        <ele>7.48</ele>
        <time>2019-05-31T08:51:32.000Z</time>
      </trkpt>
      <trkpt lat="43.55099" lon="4.00101">
        <ele>8.54</ele>
        <time>2019-05-31T08:51:37.000Z</time>
      </trkpt>
      <trkpt lat="43.55092" lon="4.00072">
        <ele>8.75</ele>
        <time>2019-05-31T08:51:42.000Z</time>
      </trkpt>
      <trkpt lat="43.55084" lon="4.0004">
        <ele>8.74</ele>
        <time>2019-05-31T08:51:47.000Z</time>
      </trkpt>
      <trkpt lat="43.55076" lon="4.00008">
        <ele>7.93</ele>
        <time>2019-05-31T08:51:52.000Z</time>
      </trkpt>
      <trkpt lat="43.55064" lon="3.99974">
        <ele>8.98</ele>
        <time>2019-05-31T08:51:57.000Z</time>
      </trkpt>
      <trkpt lat="43.55056" lon="3.99939">
        <ele>7</ele>
        <time>2019-05-31T08:52:02.000Z</time>
      </trkpt>
      <trkpt lat="43.55047" lon="3.99905">
        <ele>7.74</ele>
        <time>2019-05-31T08:52:07.000Z</time>
      </trkpt>
      <trkpt lat="43.55038" lon="3.99873">
        <ele>7.74</ele>
        <time>2019-05-31T08:52:12.000Z</time>
      </trkpt>
      <trkpt lat="43.55033" lon="3.99855">
        <ele>6.77</ele>
        <time>2019-05-31T08:52:17.000Z</time>
      </trkpt>
      <trkpt lat="43.55028" lon="3.99839">
        <ele>6.74</ele>
        <time>2019-05-31T08:52:22.000Z</time>
      </trkpt>
      <trkpt lat="43.55021" lon="3.99815">
        <ele>5.99</ele>
        <time>2019-05-31T08:52:27.000Z</time>
      </trkpt>
      <trkpt lat="43.55013" lon="3.99786">
        <ele>5.79</ele>
        <time>2019-05-31T08:52:32.000Z</time>
      </trkpt>
      <trkpt lat="43.55005" lon="3.99755">
        <ele>5.5</ele>
        <time>2019-05-31T08:52:37.000Z</time>
      </trkpt>
      <trkpt lat="43.54996" lon="3.99722">
        <ele>6.44</ele>
        <time>2019-05-31T08:52:42.000Z</time>
      </trkpt>
      <trkpt lat="43.54987" lon="3.99688">
        <ele>7.69</ele>
        <time>2019-05-31T08:52:47.000Z</time>
      </trkpt>
      <trkpt lat="43.54979" lon="3.99655">
        <ele>6.75</ele>
        <time>2019-05-31T08:52:52.000Z</time>
      </trkpt>
      <trkpt lat="43.54969" lon="3.99622">
        <ele>7.5</ele>
        <time>2019-05-31T08:52:57.000Z</time>
      </trkpt>
      <trkpt lat="43.54961" lon="3.99596">
        <ele>7.74</ele>
        <time>2019-05-31T08:53:02.000Z</time>
      </trkpt>
      <trkpt lat="43.54958" lon="3.99583">
        <ele>9.67</ele>
        <time>2019-05-31T08:53:08.000Z</time>
      </trkpt>
      <trkpt lat="43.54955" lon="3.99569">
        <ele>8.8</ele>
        <time>2019-05-31T08:53:13.000Z</time>
      </trkpt>
      <trkpt lat="43.54957" lon="3.99543">
        <ele>8.74</ele>
        <time>2019-05-31T08:53:18.000Z</time>
      </trkpt>
      <trkpt lat="43.54946" lon="3.99514">
        <ele>8.55</ele>
        <time>2019-05-31T08:53:23.000Z</time>
      </trkpt>
      <trkpt lat="43.54936" lon="3.99479">
        <ele>7.74</ele>
        <time>2019-05-31T08:53:28.000Z</time>
      </trkpt>
      <trkpt lat="43.54929" lon="3.99454">
        <ele>6.99</ele>
        <time>2019-05-31T08:53:33.000Z</time>
      </trkpt>
      <trkpt lat="43.54924" lon="3.99441">
        <ele>6.74</ele>
        <time>2019-05-31T08:53:38.000Z</time>
      </trkpt>
      <trkpt lat="43.54916" lon="3.99414">
        <ele>6.68</ele>
        <time>2019-05-31T08:53:43.000Z</time>
      </trkpt>
      <trkpt lat="43.54908" lon="3.99382">
        <ele>6.49</ele>
        <time>2019-05-31T08:53:48.000Z</time>
      </trkpt>
      <trkpt lat="43.54901" lon="3.99348">
        <ele>6.69</ele>
        <time>2019-05-31T08:53:53.000Z</time>
      </trkpt>
      <trkpt lat="43.54892" lon="3.99313">
        <ele>5.99</ele>
        <time>2019-05-31T08:53:58.000Z</time>
      </trkpt>
      <trkpt lat="43.54882" lon="3.99278">
        <ele>4.8</ele>
        <time>2019-05-31T08:54:03.000Z</time>
      </trkpt>
      <trkpt lat="43.54873" lon="3.99246">
        <ele>4.73</ele>
        <time>2019-05-31T08:54:08.000Z</time>
      </trkpt>
      <trkpt lat="43.54862" lon="3.99209">
        <ele>4.74</ele>
        <time>2019-05-31T08:54:13.000Z</time>
      </trkpt>
      <trkpt lat="43.54853" lon="3.99176">
        <ele>5.74</ele>
        <time>2019-05-31T08:54:18.000Z</time>
      </trkpt>
      <trkpt lat="43.54849" lon="3.99149">
        <ele>5.74</ele>
        <time>2019-05-31T08:54:23.000Z</time>
      </trkpt>
      <trkpt lat="43.5484" lon="3.99119">
        <ele>6.55</ele>
        <time>2019-05-31T08:54:28.000Z</time>
      </trkpt>
      <trkpt lat="43.54831" lon="3.99086">
        <ele>6.74</ele>
        <time>2019-05-31T08:54:33.000Z</time>
      </trkpt>
      <trkpt lat="43.5482" lon="3.99057">
        <ele>6.49</ele>
        <time>2019-05-31T08:54:38.000Z</time>
      </trkpt>
      <trkpt lat="43.54812" lon="3.99026">
        <ele>6.78</ele>
        <time>2019-05-31T08:54:43.000Z</time>
      </trkpt>
      <trkpt lat="43.54804" lon="3.98994">
        <ele>7.67</ele>
        <time>2019-05-31T08:54:48.000Z</time>
      </trkpt>
      <trkpt lat="43.54796" lon="3.9896">
        <ele>6.74</ele>
        <time>2019-05-31T08:54:53.000Z</time>
      </trkpt>
      <trkpt lat="43.54786" lon="3.98925">
        <ele>5.8</ele>
        <time>2019-05-31T08:54:58.000Z</time>
      </trkpt>
      <trkpt lat="43.54777" lon="3.98893">
        <ele>6.68</ele>
        <time>2019-05-31T08:55:03.000Z</time>
      </trkpt>
      <trkpt lat="43.54768" lon="3.98868">
        <ele>5.74</ele>
        <time>2019-05-31T08:55:08.000Z</time>
      </trkpt>
      <trkpt lat="43.54759" lon="3.98839">
        <ele>5.75</ele>
        <time>2019-05-31T08:55:13.000Z</time>
      </trkpt>
      <trkpt lat="43.54751" lon="3.98807">
        <ele>5.74</ele>
        <time>2019-05-31T08:55:18.000Z</time>
      </trkpt>
      <trkpt lat="43.54744" lon="3.98773">
        <ele>6.49</ele>
        <time>2019-05-31T08:55:23.000Z</time>
      </trkpt>
      <trkpt lat="43.54735" lon="3.9874">
        <ele>6.55</ele>
        <time>2019-05-31T08:55:28.000Z</time>
      </trkpt>
      <trkpt lat="43.54727" lon="3.98707">
        <ele>6.74</ele>
        <time>2019-05-31T08:55:33.000Z</time>
      </trkpt>
      <trkpt lat="43.54713" lon="3.98676">
        <ele>6.79</ele>
        <time>2019-05-31T08:55:38.000Z</time>
      </trkpt>
      <trkpt lat="43.54702" lon="3.98644">
        <ele>6.74</ele>
        <time>2019-05-31T08:55:43.000Z</time>
      </trkpt>
      <trkpt lat="43.54691" lon="3.98611">
        <ele>6.92</ele>
        <time>2019-05-31T08:55:48.000Z</time>
      </trkpt>
      <trkpt lat="43.54686" lon="3.98584">
        <ele>7.49</ele>
        <time>2019-05-31T08:55:53.000Z</time>
      </trkpt>
      <trkpt lat="43.54674" lon="3.98554">
        <ele>8.73</ele>
        <time>2019-05-31T08:55:58.000Z</time>
      </trkpt>
      <trkpt lat="43.54662" lon="3.98524">
        <ele>7.8</ele>
        <time>2019-05-31T08:56:03.000Z</time>
      </trkpt>
      <trkpt lat="43.54652" lon="3.98492">
        <ele>7.74</ele>
        <time>2019-05-31T08:56:08.000Z</time>
      </trkpt>
      <trkpt lat="43.54641" lon="3.98459">
        <ele>6.8</ele>
        <time>2019-05-31T08:56:13.000Z</time>
      </trkpt>
      <trkpt lat="43.54629" lon="3.98427">
        <ele>4.8</ele>
        <time>2019-05-31T08:56:18.000Z</time>
      </trkpt>
      <trkpt lat="43.54621" lon="3.98397">
        <ele>5.93</ele>
        <time>2019-05-31T08:56:23.000Z</time>
      </trkpt>
      <trkpt lat="43.5461" lon="3.98369">
        <ele>6.49</ele>
        <time>2019-05-31T08:56:28.000Z</time>
      </trkpt>
      <trkpt lat="43.54598" lon="3.98338">
        <ele>6.73</ele>
        <time>2019-05-31T08:56:33.000Z</time>
      </trkpt>
      <trkpt lat="43.54589" lon="3.98303">
        <ele>5.74</ele>
        <time>2019-05-31T08:56:38.000Z</time>
      </trkpt>
      <trkpt lat="43.54575" lon="3.98268">
        <ele>5.78</ele>
        <time>2019-05-31T08:56:43.000Z</time>
      </trkpt>
      <trkpt lat="43.54564" lon="3.98234">
        <ele>4.94</ele>
        <time>2019-05-31T08:56:48.000Z</time>
      </trkpt>
      <trkpt lat="43.54552" lon="3.98203">
        <ele>3.75</ele>
        <time>2019-05-31T08:56:53.000Z</time>
      </trkpt>
      <trkpt lat="43.54543" lon="3.98173">
        <ele>5.73</ele>
        <time>2019-05-31T08:56:58.000Z</time>
      </trkpt>
      <trkpt lat="43.54535" lon="3.98146">
        <ele>6.49</ele>
        <time>2019-05-31T08:57:03.000Z</time>
      </trkpt>
      <trkpt lat="43.54526" lon="3.98118">
        <ele>6.73</ele>
        <time>2019-05-31T08:57:08.000Z</time>
      </trkpt>
      <trkpt lat="43.54514" lon="3.98087">
        <ele>7.73</ele>
        <time>2019-05-31T08:57:13.000Z</time>
      </trkpt>
      <trkpt lat="43.54506" lon="3.98056">
        <ele>8.48</ele>
        <time>2019-05-31T08:57:18.000Z</time>
      </trkpt>
      <trkpt lat="43.54494" lon="3.98025">
        <ele>8.98</ele>
        <time>2019-05-31T08:57:23.000Z</time>
      </trkpt>
      <trkpt lat="43.54484" lon="3.97992">
        <ele>9.69</ele>
        <time>2019-05-31T08:57:28.000Z</time>
      </trkpt>
      <trkpt lat="43.54471" lon="3.97957">
        <ele>8.8</ele>
        <time>2019-05-31T08:57:33.000Z</time>
      </trkpt>
      <trkpt lat="43.5446" lon="3.97925">
        <ele>6.8</ele>
        <time>2019-05-31T08:57:38.000Z</time>
      </trkpt>
      <trkpt lat="43.54451" lon="3.97893">
        <ele>5.98</ele>
        <time>2019-05-31T08:57:43.000Z</time>
      </trkpt>
      <trkpt lat="43.54438" lon="3.9786">
        <ele>5.8</ele>
        <time>2019-05-31T08:57:48.000Z</time>
      </trkpt>
      <trkpt lat="43.54428" lon="3.97827">
        <ele>5.73</ele>
        <time>2019-05-31T08:57:53.000Z</time>
      </trkpt>
      <trkpt lat="43.54418" lon="3.97795">
        <ele>7.48</ele>
        <time>2019-05-31T08:57:58.000Z</time>
      </trkpt>
      <trkpt lat="43.54407" lon="3.97766">
        <ele>6.92</ele>
        <time>2019-05-31T08:58:03.000Z</time>
      </trkpt>
      <trkpt lat="43.54398" lon="3.97742">
        <ele>6.8</ele>
        <time>2019-05-31T08:58:08.000Z</time>
      </trkpt>
      <trkpt lat="43.54389" lon="3.97713">
        <ele>5.55</ele>
        <time>2019-05-31T08:58:13.000Z</time>
      </trkpt>
      <trkpt lat="43.54381" lon="3.97684">
        <ele>5.68</ele>
        <time>2019-05-31T08:58:18.000Z</time>
      </trkpt>
      <trkpt lat="43.54374" lon="3.97665">
        <ele>7.48</ele>
        <time>2019-05-31T08:58:23.000Z</time>
      </trkpt>
      <trkpt lat="43.54368" lon="3.97645">
        <ele>6.73</ele>
        <time>2019-05-31T08:58:28.000Z</time>
      </trkpt>
      <trkpt lat="43.5436" lon="3.97621">
        <ele>5.75</ele>
        <time>2019-05-31T08:58:33.000Z</time>
      </trkpt>
      <trkpt lat="43.54351" lon="3.97595">
        <ele>5.73</ele>
        <time>2019-05-31T08:58:38.000Z</time>
      </trkpt>
      <trkpt lat="43.54343" lon="3.97567">
        <ele>5.73</ele>
        <time>2019-05-31T08:58:43.000Z</time>
      </trkpt>
      <trkpt lat="43.54334" lon="3.9754">
        <ele>6.73</ele>
        <time>2019-05-31T08:58:48.000Z</time>
      </trkpt>
      <trkpt lat="43.54324" lon="3.97515">
        <ele>7.72</ele>
        <time>2019-05-31T08:58:53.000Z</time>
      </trkpt>
      <trkpt lat="43.54318" lon="3.97493">
        <ele>7.67</ele>
        <time>2019-05-31T08:58:58.000Z</time>
      </trkpt>
      <trkpt lat="43.54317" lon="3.97478">
        <ele>6</ele>
        <time>2019-05-31T08:59:05.000Z</time>
      </trkpt>
      <trkpt lat="43.5432" lon="3.97491">
        <ele>4.73</ele>
        <time>2019-05-31T09:00:13.000Z</time>
      </trkpt>
      <trkpt lat="43.54311" lon="3.97488">
        <ele>3.75</ele>
        <time>2019-05-31T09:30:00.000Z</time>
      </trkpt>
      <trkpt lat="43.54323" lon="3.97473">
        <ele>5.47</ele>
        <time>2019-05-31T09:30:05.000Z</time>
      </trkpt>
      <trkpt lat="43.5434" lon="3.9746">
        <ele>7.47</ele>
        <time>2019-05-31T09:30:10.000Z</time>
      </trkpt>
      <trkpt lat="43.54358" lon="3.97447">
        <ele>8.92</ele>
        <time>2019-05-31T09:30:15.000Z</time>
      </trkpt>
      <trkpt lat="43.54377" lon="3.97436">
        <ele>10.67</ele>
        <time>2019-05-31T09:30:20.000Z</time>
      </trkpt>
      <trkpt lat="43.54401" lon="3.97428">
        <ele>10.74</ele>
        <time>2019-05-31T09:30:25.000Z</time>
      </trkpt>
      <trkpt lat="43.54422" lon="3.97441">
        <ele>9.98</ele>
        <time>2019-05-31T09:30:30.000Z</time>
      </trkpt>
      <trkpt lat="43.54436" lon="3.97459">
        <ele>7.5</ele>
        <time>2019-05-31T09:30:35.000Z</time>
      </trkpt>
      <trkpt lat="43.54437" lon="3.97474">
        <ele>7.74</ele>
        <time>2019-05-31T09:30:50.000Z</time>
      </trkpt>
      <trkpt lat="43.54441" lon="3.97493">
        <ele>6.5</ele>
        <time>2019-05-31T09:30:55.000Z</time>
      </trkpt>
      <trkpt lat="43.54448" lon="3.97521">
        <ele>4.99</ele>
        <time>2019-05-31T09:31:00.000Z</time>
      </trkpt>
      <trkpt lat="43.54457" lon="3.97551">
        <ele>4.73</ele>
        <time>2019-05-31T09:31:05.000Z</time>
      </trkpt>
      <trkpt lat="43.54468" lon="3.97581">
        <ele>6.72</ele>
        <time>2019-05-31T09:31:10.000Z</time>
      </trkpt>
      <trkpt lat="43.54479" lon="3.976">
        <ele>8.65</ele>
        <time>2019-05-31T09:31:15.000Z</time>
      </trkpt>
      <trkpt lat="43.54483" lon="3.97628">
        <ele>8.54</ele>
        <time>2019-05-31T09:31:20.000Z</time>
      </trkpt>
      <trkpt lat="43.54491" lon="3.97657">
        <ele>7.92</ele>
        <time>2019-05-31T09:31:25.000Z</time>
      </trkpt>
      <trkpt lat="43.54505" lon="3.97688">
        <ele>6.8</ele>
        <time>2019-05-31T09:31:30.000Z</time>
      </trkpt>
      <trkpt lat="43.54516" lon="3.97722">
        <ele>7.67</ele>
        <time>2019-05-31T09:31:35.000Z</time>
      </trkpt>
      <trkpt lat="43.54529" lon="3.97756">
        <ele>6.74</ele>
        <time>2019-05-31T09:31:40.000Z</time>
      </trkpt>
      <trkpt lat="43.5454" lon="3.9779">
        <ele>4.75</ele>
        <time>2019-05-31T09:31:45.000Z</time>
      </trkpt>
      <trkpt lat="43.54553" lon="3.97822">
        <ele>5.73</ele>
        <time>2019-05-31T09:31:50.000Z</time>
      </trkpt>
      <trkpt lat="43.54576" lon="3.97842">
        <ele>8.67</ele>
        <time>2019-05-31T09:31:55.000Z</time>
      </trkpt>
      <trkpt lat="43.54602" lon="3.97857">
        <ele>11.65</ele>
        <time>2019-05-31T09:32:00.000Z</time>
      </trkpt>
      <trkpt lat="43.54628" lon="3.9787">
        <ele>12.73</ele>
        <time>2019-05-31T09:32:05.000Z</time>
      </trkpt>
      <trkpt lat="43.54648" lon="3.97879">
        <ele>11.98</ele>
        <time>2019-05-31T09:32:10.000Z</time>
      </trkpt>
      <trkpt lat="43.54665" lon="3.97887">
        <ele>9.81</ele>
        <time>2019-05-31T09:32:15.000Z</time>
      </trkpt>
      <trkpt lat="43.54686" lon="3.97899">
        <ele>8.79</ele>
        <time>2019-05-31T09:32:20.000Z</time>
      </trkpt>
      <trkpt lat="43.54709" lon="3.97912">
        <ele>10.72</ele>
        <time>2019-05-31T09:32:25.000Z</time>
      </trkpt>
      <trkpt lat="43.54734" lon="3.97926">
        <ele>8.75</ele>
        <time>2019-05-31T09:32:30.000Z</time>
      </trkpt>
      <trkpt lat="43.54763" lon="3.97938">
        <ele>8.72</ele>
        <time>2019-05-31T09:32:35.000Z</time>
      </trkpt>
      <trkpt lat="43.54788" lon="3.97947">
        <ele>8.79</ele>
        <time>2019-05-31T09:32:40.000Z</time>
      </trkpt>
      <trkpt lat="43.5481" lon="3.97958">
        <ele>9.73</ele>
        <time>2019-05-31T09:32:45.000Z</time>
      </trkpt>
      <trkpt lat="43.54822" lon="3.97962">
        <ele>7.98</ele>
        <time>2019-05-31T09:32:50.000Z</time>
      </trkpt>
      <trkpt lat="43.54831" lon="3.97938">
        <ele>6.98</ele>
        <time>2019-05-31T09:32:55.000Z</time>
      </trkpt>
      <trkpt lat="43.54837" lon="3.97908">
        <ele>5.98</ele>
        <time>2019-05-31T09:33:00.000Z</time>
      </trkpt>
      <trkpt lat="43.54844" lon="3.97874">
        <ele>4.84</ele>
        <time>2019-05-31T09:33:05.000Z</time>
      </trkpt>
      <trkpt lat="43.54854" lon="3.9784">
        <ele>5.92</ele>
        <time>2019-05-31T09:33:10.000Z</time>
      </trkpt>
      <trkpt lat="43.54863" lon="3.97807">
        <ele>5.78</ele>
        <time>2019-05-31T09:33:15.000Z</time>
      </trkpt>
      <trkpt lat="43.54865" lon="3.97773">
        <ele>4.73</ele>
        <time>2019-05-31T09:33:20.000Z</time>
      </trkpt>
      <trkpt lat="43.54865" lon="3.97735">
        <ele>5.73</ele>
        <time>2019-05-31T09:33:25.000Z</time>
      </trkpt>
      <trkpt lat="43.54862" lon="3.97697">
        <ele>5.73</ele>
        <time>2019-05-31T09:33:30.000Z</time>
      </trkpt>
      <trkpt lat="43.54856" lon="3.9766">
        <ele>7.47</ele>
        <time>2019-05-31T09:33:35.000Z</time>
      </trkpt>
      <trkpt lat="43.54844" lon="3.97625">
        <ele>8.84</ele>
        <time>2019-05-31T09:33:40.000Z</time>
      </trkpt>
      <trkpt lat="43.54831" lon="3.97589">
        <ele>5.98</ele>
        <time>2019-05-31T09:33:45.000Z</time>
      </trkpt>
      <trkpt lat="43.54818" lon="3.97553">
        <ele>5.73</ele>
        <time>2019-05-31T09:33:50.000Z</time>
      </trkpt>
      <trkpt lat="43.54806" lon="3.97516">
        <ele>7.71</ele>
        <time>2019-05-31T09:33:55.000Z</time>
      </trkpt>
      <trkpt lat="43.54793" lon="3.97478">
        <ele>7.73</ele>
        <time>2019-05-31T09:34:00.000Z</time>
      </trkpt>
      <trkpt lat="43.54785" lon="3.97456">
        <ele>10.4</ele>
        <time>2019-05-31T09:34:05.000Z</time>
      </trkpt>
      <trkpt lat="43.54778" lon="3.97444">
        <ele>12.75</ele>
        <time>2019-05-31T09:34:12.000Z</time>
      </trkpt>
      <trkpt lat="43.54772" lon="3.97417">
        <ele>11.73</ele>
        <time>2019-05-31T09:34:17.000Z</time>
      </trkpt>
      <trkpt lat="43.54762" lon="3.97385">
        <ele>10.79</ele>
        <time>2019-05-31T09:34:22.000Z</time>
      </trkpt>
      <trkpt lat="43.54752" lon="3.97354">
        <ele>8.74</ele>
        <time>2019-05-31T09:34:27.000Z</time>
      </trkpt>
      <trkpt lat="43.54742" lon="3.97321">
        <ele>7.98</ele>
        <time>2019-05-31T09:34:32.000Z</time>
      </trkpt>
      <trkpt lat="43.54732" lon="3.9729">
        <ele>6.74</ele>
        <time>2019-05-31T09:34:37.000Z</time>
      </trkpt>
      <trkpt lat="43.54721" lon="3.9726">
        <ele>7.48</ele>
        <time>2019-05-31T09:34:42.000Z</time>
      </trkpt>
      <trkpt lat="43.54707" lon="3.97232">
        <ele>6.98</ele>
        <time>2019-05-31T09:34:47.000Z</time>
      </trkpt>
      <trkpt lat="43.54682" lon="3.97219">
        <ele>7.54</ele>
        <time>2019-05-31T09:34:52.000Z</time>
      </trkpt>
      <trkpt lat="43.54657" lon="3.97208">
        <ele>7.96</ele>
        <time>2019-05-31T09:34:57.000Z</time>
      </trkpt>
      <trkpt lat="43.54645" lon="3.97186">
        <ele>8.74</ele>
        <time>2019-05-31T09:35:02.000Z</time>
      </trkpt>
      <trkpt lat="43.54665" lon="3.9716">
        <ele>6.78</ele>
        <time>2019-05-31T09:35:07.000Z</time>
      </trkpt>
      <trkpt lat="43.5469" lon="3.97144">
        <ele>4.92</ele>
        <time>2019-05-31T09:35:12.000Z</time>
      </trkpt>
      <trkpt lat="43.54713" lon="3.97144">
        <ele>6.27</ele>
        <time>2019-05-31T09:35:17.000Z</time>
      </trkpt>
      <trkpt lat="43.54735" lon="3.97131">
        <ele>7.72</ele>
        <time>2019-05-31T09:35:22.000Z</time>
      </trkpt>
      <trkpt lat="43.54753" lon="3.97115">
        <ele>8.66</ele>
        <time>2019-05-31T09:35:27.000Z</time>
      </trkpt>
      <trkpt lat="43.54758" lon="3.97093">
        <ele>7.5</ele>
        <time>2019-05-31T09:35:32.000Z</time>
      </trkpt>
      <trkpt lat="43.54752" lon="3.97077">
        <ele>7.73</ele>
        <time>2019-05-31T09:35:37.000Z</time>
      </trkpt>
      <trkpt lat="43.54745" lon="3.97063">
        <ele>7.68</ele>
        <time>2019-05-31T09:35:42.000Z</time>
      </trkpt>
      <trkpt lat="43.54738" lon="3.97046">
        <ele>6.79</ele>
        <time>2019-05-31T09:35:47.000Z</time>
      </trkpt>
      <trkpt lat="43.54731" lon="3.97037">
        <ele>4.98</ele>
        <time>2019-05-31T09:35:53.000Z</time>
      </trkpt>
      <trkpt lat="43.54721" lon="3.97035">
        <ele>2.48</ele>
        <time>2019-05-31T09:36:15.000Z</time>
      </trkpt>
      <trkpt lat="43.54706" lon="3.97054">
        <ele>1.73</ele>
        <time>2019-05-31T09:36:20.000Z</time>
      </trkpt>
      <trkpt lat="43.54687" lon="3.97076">
        <ele>1.73</ele>
        <time>2019-05-31T09:36:25.000Z</time>
      </trkpt>
      <trkpt lat="43.5467" lon="3.97097">
        <ele>2.85</ele>
        <time>2019-05-31T09:36:30.000Z</time>
      </trkpt>
      <trkpt lat="43.54651" lon="3.97118">
        <ele>2.71</ele>
        <time>2019-05-31T09:36:35.000Z</time>
      </trkpt>
      <trkpt lat="43.5463" lon="3.9714">
        <ele>0.98</ele>
        <time>2019-05-31T09:36:40.000Z</time>
      </trkpt>
      <trkpt lat="43.5461" lon="3.97156">
        <ele>2.42</ele>
        <time>2019-05-31T09:36:45.000Z</time>
      </trkpt>
      <trkpt lat="43.54587" lon="3.97147">
        <ele>2.78</ele>
        <time>2019-05-31T09:36:50.000Z</time>
      </trkpt>
      <trkpt lat="43.54576" lon="3.9713">
        <ele>4.96</ele>
        <time>2019-05-31T09:36:55.000Z</time>
      </trkpt>
      <trkpt lat="43.54565" lon="3.97113">
        <ele>5.48</ele>
        <time>2019-05-31T09:37:00.000Z</time>
      </trkpt>
      <trkpt lat="43.54548" lon="3.97097">
        <ele>4.73</ele>
        <time>2019-05-31T09:37:05.000Z</time>
      </trkpt>
      <trkpt lat="43.54538" lon="3.9708">
        <ele>3.79</ele>
        <time>2019-05-31T09:37:10.000Z</time>
      </trkpt>
      <trkpt lat="43.54526" lon="3.97054">
        <ele>1.98</ele>
        <time>2019-05-31T09:37:15.000Z</time>
      </trkpt>
      <trkpt lat="43.54507" lon="3.97029">
        <ele>2.78</ele>
        <time>2019-05-31T09:37:20.000Z</time>
      </trkpt>
      <trkpt lat="43.54489" lon="3.97001">
        <ele>2.73</ele>
        <time>2019-05-31T09:37:25.000Z</time>
      </trkpt>
      <trkpt lat="43.54471" lon="3.96969">
        <ele>1.04</ele>
        <time>2019-05-31T09:37:30.000Z</time>
      </trkpt>
      <trkpt lat="43.54455" lon="3.96936">
        <ele>1.92</ele>
        <time>2019-05-31T09:37:35.000Z</time>
      </trkpt>
      <trkpt lat="43.54438" lon="3.96901">
        <ele>1.98</ele>
        <time>2019-05-31T09:37:40.000Z</time>
      </trkpt>
      <trkpt lat="43.54415" lon="3.96876">
        <ele>2.73</ele>
        <time>2019-05-31T09:37:45.000Z</time>
      </trkpt>
      <trkpt lat="43.54392" lon="3.96868">
        <ele>3.43</ele>
        <time>2019-05-31T09:37:50.000Z</time>
      </trkpt>
      <trkpt lat="43.54389" lon="3.96856">
        <ele>2.79</ele>
        <time>2019-05-31T09:38:00.000Z</time>
      </trkpt>
      <trkpt lat="43.54387" lon="3.96835">
        <ele>3.49</ele>
        <time>2019-05-31T09:38:05.000Z</time>
      </trkpt>
      <trkpt lat="43.544" lon="3.96807">
        <ele>3.74</ele>
        <time>2019-05-31T09:38:10.000Z</time>
      </trkpt>
      <trkpt lat="43.54397" lon="3.96771">
        <ele>2.73</ele>
        <time>2019-05-31T09:38:15.000Z</time>
      </trkpt>
      <trkpt lat="43.54387" lon="3.96731">
        <ele>2.73</ele>
        <time>2019-05-31T09:38:20.000Z</time>
      </trkpt>
      <trkpt lat="43.54377" lon="3.96691">
        <ele>1.73</ele>
        <time>2019-05-31T09:38:25.000Z</time>
      </trkpt>
      <trkpt lat="43.54362" lon="3.96656">
        <ele>1.73</ele>
        <time>2019-05-31T09:38:30.000Z</time>
      </trkpt>
      <trkpt lat="43.54347" lon="3.96627">
        <ele>0.73</ele>
        <time>2019-05-31T09:38:35.000Z</time>
      </trkpt>
      <trkpt lat="43.54346" lon="3.9659">
        <ele>0.73</ele>
        <time>2019-05-31T09:38:40.000Z</time>
      </trkpt>
      <trkpt lat="43.54339" lon="3.96553">
        <ele>0.73</ele>
        <time>2019-05-31T09:38:45.000Z</time>
      </trkpt>
      <trkpt lat="43.54328" lon="3.96514">
        <ele>0.73</ele>
        <time>2019-05-31T09:38:50.000Z</time>
      </trkpt>
      <trkpt lat="43.54315" lon="3.96474">
        <ele>0.97</ele>
        <time>2019-05-31T09:38:55.000Z</time>
      </trkpt>
      <trkpt lat="43.54304" lon="3.96432">
        <ele>1.72</ele>
        <time>2019-05-31T09:39:00.000Z</time>
      </trkpt>
      <trkpt lat="43.5429" lon="3.9639">
        <ele>1.73</ele>
        <time>2019-05-31T09:39:05.000Z</time>
      </trkpt>
      <trkpt lat="43.54277" lon="3.96347">
        <ele>2.9</ele>
        <time>2019-05-31T09:39:10.000Z</time>
      </trkpt>
      <trkpt lat="43.54263" lon="3.96304">
        <ele>2.73</ele>
        <time>2019-05-31T09:39:15.000Z</time>
      </trkpt>
      <trkpt lat="43.54249" lon="3.96262">
        <ele>2.72</ele>
        <time>2019-05-31T09:39:20.000Z</time>
      </trkpt>
      <trkpt lat="43.54234" lon="3.9622">
        <ele>2.73</ele>
        <time>2019-05-31T09:39:25.000Z</time>
      </trkpt>
      <trkpt lat="43.5422" lon="3.96178">
        <ele>2.73</ele>
        <time>2019-05-31T09:39:30.000Z</time>
      </trkpt>
      <trkpt lat="43.54206" lon="3.96137">
        <ele>3.71</ele>
        <time>2019-05-31T09:39:35.000Z</time>
      </trkpt>
      <trkpt lat="43.54192" lon="3.96096">
        <ele>2.74</ele>
        <time>2019-05-31T09:39:40.000Z</time>
      </trkpt>
      <trkpt lat="43.54177" lon="3.96055">
        <ele>2.73</ele>
        <time>2019-05-31T09:39:45.000Z</time>
      </trkpt>
      <trkpt lat="43.54162" lon="3.96014">
        <ele>3.72</ele>
        <time>2019-05-31T09:39:50.000Z</time>
      </trkpt>
      <trkpt lat="43.54146" lon="3.95973">
        <ele>3.73</ele>
        <time>2019-05-31T09:39:55.000Z</time>
      </trkpt>
      <trkpt lat="43.54129" lon="3.95932">
        <ele>3.97</ele>
        <time>2019-05-31T09:40:00.000Z</time>
      </trkpt>
      <trkpt lat="43.54113" lon="3.95889">
        <ele>3.73</ele>
        <time>2019-05-31T09:40:05.000Z</time>
      </trkpt>
      <trkpt lat="43.54096" lon="3.95848">
        <ele>0.79</ele>
        <time>2019-05-31T09:40:10.000Z</time>
      </trkpt>
      <trkpt lat="43.54079" lon="3.95804">
        <ele>1.72</ele>
        <time>2019-05-31T09:40:15.000Z</time>
      </trkpt>
      <trkpt lat="43.54061" lon="3.9576">
        <ele>1.73</ele>
        <time>2019-05-31T09:40:20.000Z</time>
      </trkpt>
      <trkpt lat="43.54044" lon="3.95717">
        <ele>3.9</ele>
        <time>2019-05-31T09:40:25.000Z</time>
      </trkpt>
      <trkpt lat="43.54026" lon="3.95675">
        <ele>4.48</ele>
        <time>2019-05-31T09:40:30.000Z</time>
      </trkpt>
      <trkpt lat="43.5401" lon="3.95632">
        <ele>2.98</ele>
        <time>2019-05-31T09:40:35.000Z</time>
      </trkpt>
      <trkpt lat="43.53992" lon="3.95589">
        <ele>3.72</ele>
        <time>2019-05-31T09:40:40.000Z</time>
      </trkpt>
      <trkpt lat="43.53974" lon="3.95547">
        <ele>3.73</ele>
        <time>2019-05-31T09:40:45.000Z</time>
      </trkpt>
      <trkpt lat="43.53958" lon="3.95508">
        <ele>2.73</ele>
        <time>2019-05-31T09:40:50.000Z</time>
      </trkpt>
      <trkpt lat="43.5394" lon="3.95467">
        <ele>2.73</ele>
        <time>2019-05-31T09:40:55.000Z</time>
      </trkpt>
      <trkpt lat="43.53924" lon="3.95428">
        <ele>1.74</ele>
        <time>2019-05-31T09:41:00.000Z</time>
      </trkpt>
      <trkpt lat="43.53908" lon="3.95389">
        <ele>1.91</ele>
        <time>2019-05-31T09:41:05.000Z</time>
      </trkpt>
      <trkpt lat="43.5389" lon="3.95347">
        <ele>2.68</ele>
        <time>2019-05-31T09:41:10.000Z</time>
      </trkpt>
      <trkpt lat="43.53873" lon="3.95306">
        <ele>1.74</ele>
        <time>2019-05-31T09:41:15.000Z</time>
      </trkpt>
      <trkpt lat="43.53857" lon="3.95265">
        <ele>1.9</ele>
        <time>2019-05-31T09:41:20.000Z</time>
      </trkpt>
      <trkpt lat="43.5384" lon="3.95224">
        <ele>1.54</ele>
        <time>2019-05-31T09:41:25.000Z</time>
      </trkpt>
      <trkpt lat="43.53824" lon="3.95183">
        <ele>1.73</ele>
        <time>2019-05-31T09:41:30.000Z</time>
      </trkpt>
      <trkpt lat="43.53808" lon="3.95141">
        <ele>1</ele>
        <time>2019-05-31T09:41:35.000Z</time>
      </trkpt>
      <trkpt lat="43.53793" lon="3.95103">
        <ele>1.72</ele>
        <time>2019-05-31T09:41:40.000Z</time>
      </trkpt>
      <trkpt lat="43.53776" lon="3.95053">
        <ele>1.73</ele>
        <time>2019-05-31T09:41:46.000Z</time>
      </trkpt>
      <trkpt lat="43.53761" lon="3.95013">
        <ele>2.54</ele>
        <time>2019-05-31T09:41:51.000Z</time>
      </trkpt>
      <trkpt lat="43.53742" lon="3.94974">
        <ele>2.48</ele>
        <time>2019-05-31T09:41:56.000Z</time>
      </trkpt>
      <trkpt lat="43.53725" lon="3.94937">
        <ele>3.66</ele>
        <time>2019-05-31T09:42:01.000Z</time>
      </trkpt>
      <trkpt lat="43.53709" lon="3.94898">
        <ele>2.74</ele>
        <time>2019-05-31T09:42:06.000Z</time>
      </trkpt>
      <trkpt lat="43.53693" lon="3.94858">
        <ele>3.66</ele>
        <time>2019-05-31T09:42:11.000Z</time>
      </trkpt>
      <trkpt lat="43.53677" lon="3.94818">
        <ele>4.73</ele>
        <time>2019-05-31T09:42:16.000Z</time>
      </trkpt>
      <trkpt lat="43.53661" lon="3.94778">
        <ele>4.73</ele>
        <time>2019-05-31T09:42:21.000Z</time>
      </trkpt>
      <trkpt lat="43.53644" lon="3.94736">
        <ele>4.73</ele>
        <time>2019-05-31T09:42:26.000Z</time>
      </trkpt>
      <trkpt lat="43.53627" lon="3.94694">
        <ele>4.73</ele>
        <time>2019-05-31T09:42:31.000Z</time>
      </trkpt>
      <trkpt lat="43.53609" lon="3.94651">
        <ele>4.73</ele>
        <time>2019-05-31T09:42:36.000Z</time>
      </trkpt>
      <trkpt lat="43.53591" lon="3.94607">
        <ele>3.74</ele>
        <time>2019-05-31T09:42:41.000Z</time>
      </trkpt>
      <trkpt lat="43.53573" lon="3.94563">
        <ele>2.74</ele>
        <time>2019-05-31T09:42:46.000Z</time>
      </trkpt>
      <trkpt lat="43.53556" lon="3.94521">
        <ele>2.73</ele>
        <time>2019-05-31T09:42:51.000Z</time>
      </trkpt>
      <trkpt lat="43.5354" lon="3.94479">
        <ele>2.73</ele>
        <time>2019-05-31T09:42:56.000Z</time>
      </trkpt>
      <trkpt lat="43.53526" lon="3.94436">
        <ele>3.73</ele>
        <time>2019-05-31T09:43:01.000Z</time>
      </trkpt>
      <trkpt lat="43.53513" lon="3.94392">
        <ele>2.79</ele>
        <time>2019-05-31T09:43:06.000Z</time>
      </trkpt>
      <trkpt lat="43.53501" lon="3.94347">
        <ele>2.49</ele>
        <time>2019-05-31T09:43:11.000Z</time>
      </trkpt>
      <trkpt lat="43.53491" lon="3.94302">
        <ele>1.91</ele>
        <time>2019-05-31T09:43:16.000Z</time>
      </trkpt>
      <trkpt lat="43.53481" lon="3.94257">
        <ele>1.98</ele>
        <time>2019-05-31T09:43:21.000Z</time>
      </trkpt>
      <trkpt lat="43.53475" lon="3.94211">
        <ele>2.52</ele>
        <time>2019-05-31T09:43:26.000Z</time>
      </trkpt>
      <trkpt lat="43.5347" lon="3.94165">
        <ele>2.66</ele>
        <time>2019-05-31T09:43:31.000Z</time>
      </trkpt>
      <trkpt lat="43.53467" lon="3.9412">
        <ele>1.98</ele>
        <time>2019-05-31T09:43:36.000Z</time>
      </trkpt>
      <trkpt lat="43.53465" lon="3.94075">
        <ele>2.67</ele>
        <time>2019-05-31T09:43:41.000Z</time>
      </trkpt>
      <trkpt lat="43.53463" lon="3.94031">
        <ele>3.48</ele>
        <time>2019-05-31T09:43:46.000Z</time>
      </trkpt>
      <trkpt lat="43.53463" lon="3.93986">
        <ele>2.73</ele>
        <time>2019-05-31T09:43:51.000Z</time>
      </trkpt>
      <trkpt lat="43.53464" lon="3.9394">
        <ele>1.74</ele>
        <time>2019-05-31T09:43:56.000Z</time>
      </trkpt>
      <trkpt lat="43.53467" lon="3.93899">
        <ele>2.66</ele>
        <time>2019-05-31T09:44:01.000Z</time>
      </trkpt>
      <trkpt lat="43.5346" lon="3.93868">
        <ele>1.97</ele>
        <time>2019-05-31T09:44:06.000Z</time>
      </trkpt>
      <trkpt lat="43.53449" lon="3.93855">
        <ele>2.72</ele>
        <time>2019-05-31T09:44:11.000Z</time>
      </trkpt>
      <trkpt lat="43.53442" lon="3.93846">
        <ele>3.46</ele>
        <time>2019-05-31T09:44:23.000Z</time>
      </trkpt>
      <trkpt lat="43.53442" lon="3.93829">
        <ele>3.77</ele>
        <time>2019-05-31T09:44:28.000Z</time>
      </trkpt>
      <trkpt lat="43.53427" lon="3.93819">
        <ele>4.47</ele>
        <time>2019-05-31T09:44:33.000Z</time>
      </trkpt>
      <trkpt lat="43.5342" lon="3.93797">
        <ele>3.73</ele>
        <time>2019-05-31T09:44:38.000Z</time>
      </trkpt>
      <trkpt lat="43.53414" lon="3.93775">
        <ele>4.66</ele>
        <time>2019-05-31T09:44:43.000Z</time>
      </trkpt>
      <trkpt lat="43.53408" lon="3.93752">
        <ele>4.48</ele>
        <time>2019-05-31T09:44:48.000Z</time>
      </trkpt>
      <trkpt lat="43.534" lon="3.93726">
        <ele>4.72</ele>
        <time>2019-05-31T09:44:53.000Z</time>
      </trkpt>
      <trkpt lat="43.53392" lon="3.937">
        <ele>4.97</ele>
        <time>2019-05-31T09:44:58.000Z</time>
      </trkpt>
      <trkpt lat="43.53385" lon="3.9367">
        <ele>4.97</ele>
        <time>2019-05-31T09:45:03.000Z</time>
      </trkpt>
      <trkpt lat="43.53377" lon="3.93642">
        <ele>5.71</ele>
        <time>2019-05-31T09:45:08.000Z</time>
      </trkpt>
      <trkpt lat="43.53363" lon="3.93618">
        <ele>4.74</ele>
        <time>2019-05-31T09:45:13.000Z</time>
      </trkpt>
      <trkpt lat="43.53346" lon="3.93605">
        <ele>4.72</ele>
        <time>2019-05-31T09:45:18.000Z</time>
      </trkpt>
      <trkpt lat="43.53325" lon="3.93609">
        <ele>3.74</ele>
        <time>2019-05-31T09:45:23.000Z</time>
      </trkpt>
      <trkpt lat="43.5331" lon="3.93622">
        <ele>4.71</ele>
        <time>2019-05-31T09:45:28.000Z</time>
      </trkpt>
      <trkpt lat="43.53301" lon="3.93644">
        <ele>4.79</ele>
        <time>2019-05-31T09:45:33.000Z</time>
      </trkpt>
      <trkpt lat="43.53283" lon="3.93633">
        <ele>4.73</ele>
        <time>2019-05-31T09:45:38.000Z</time>
      </trkpt>
      <trkpt lat="43.53278" lon="3.93603">
        <ele>3.74</ele>
        <time>2019-05-31T09:45:43.000Z</time>
      </trkpt>
      <trkpt lat="43.53265" lon="3.93579">
        <ele>3.73</ele>
        <time>2019-05-31T09:45:48.000Z</time>
      </trkpt>
      <trkpt lat="43.53263" lon="3.93551">
        <ele>3.73</ele>
        <time>2019-05-31T09:45:53.000Z</time>
      </trkpt>
      <trkpt lat="43.53255" lon="3.93524">
        <ele>4.72</ele>
        <time>2019-05-31T09:45:58.000Z</time>
      </trkpt>
      <trkpt lat="43.53258" lon="3.93491">
        <ele>3.73</ele>
        <time>2019-05-31T09:46:03.000Z</time>
      </trkpt>
      <trkpt lat="43.53266" lon="3.93465">
        <ele>3.72</ele>
        <time>2019-05-31T09:46:08.000Z</time>
      </trkpt>
      <trkpt lat="43.53262" lon="3.93438">
        <ele>3.72</ele>
        <time>2019-05-31T09:46:13.000Z</time>
      </trkpt>
      <trkpt lat="43.53242" lon="3.93416">
        <ele>3.72</ele>
        <time>2019-05-31T09:46:18.000Z</time>
      </trkpt>
      <trkpt lat="43.53222" lon="3.93394">
        <ele>4.49</ele>
        <time>2019-05-31T09:46:23.000Z</time>
      </trkpt>
      <trkpt lat="43.53201" lon="3.93373">
        <ele>4.72</ele>
        <time>2019-05-31T09:46:28.000Z</time>
      </trkpt>
      <trkpt lat="43.53179" lon="3.93353">
        <ele>5.72</ele>
        <time>2019-05-31T09:46:33.000Z</time>
      </trkpt>
      <trkpt lat="43.53157" lon="3.93332">
        <ele>3.79</ele>
        <time>2019-05-31T09:46:38.000Z</time>
      </trkpt>
      <trkpt lat="43.53136" lon="3.9331">
        <ele>5.47</ele>
        <time>2019-05-31T09:46:43.000Z</time>
      </trkpt>
      <trkpt lat="43.53114" lon="3.93289">
        <ele>6.46</ele>
        <time>2019-05-31T09:46:48.000Z</time>
      </trkpt>
      <trkpt lat="43.53091" lon="3.93268">
        <ele>5.79</ele>
        <time>2019-05-31T09:46:53.000Z</time>
      </trkpt>
      <trkpt lat="43.5307" lon="3.93247">
        <ele>6.71</ele>
        <time>2019-05-31T09:46:58.000Z</time>
      </trkpt>
      <trkpt lat="43.5305" lon="3.93227">
        <ele>6.54</ele>
        <time>2019-05-31T09:47:03.000Z</time>
      </trkpt>
      <trkpt lat="43.53028" lon="3.93209">
        <ele>4.79</ele>
        <time>2019-05-31T09:47:08.000Z</time>
      </trkpt>
      <trkpt lat="43.53005" lon="3.93205">
        <ele>5.73</ele>
        <time>2019-05-31T09:47:13.000Z</time>
      </trkpt>
      <trkpt lat="43.52993" lon="3.93206">
        <ele>5.73</ele>
        <time>2019-05-31T09:47:18.000Z</time>
      </trkpt>
      <trkpt lat="43.52983" lon="3.93209">
        <ele>4.97</ele>
        <time>2019-05-31T09:47:33.000Z</time>
      </trkpt>
      <trkpt lat="43.52979" lon="3.93185">
        <ele>5.52</ele>
        <time>2019-05-31T09:47:38.000Z</time>
      </trkpt>
      <trkpt lat="43.5298" lon="3.93153">
        <ele>4.73</ele>
        <time>2019-05-31T09:47:43.000Z</time>
      </trkpt>
      <trkpt lat="43.52979" lon="3.93119">
        <ele>3.73</ele>
        <time>2019-05-31T09:47:48.000Z</time>
      </trkpt>
      <trkpt lat="43.52976" lon="3.93086">
        <ele>4.73</ele>
        <time>2019-05-31T09:47:53.000Z</time>
      </trkpt>
      <trkpt lat="43.52976" lon="3.9305">
        <ele>4.77</ele>
        <time>2019-05-31T09:47:58.000Z</time>
      </trkpt>
      <trkpt lat="43.52987" lon="3.93027">
        <ele>4.48</ele>
        <time>2019-05-31T09:48:03.000Z</time>
      </trkpt>
      <trkpt lat="43.53001" lon="3.93004">
        <ele>4.77</ele>
        <time>2019-05-31T09:48:08.000Z</time>
      </trkpt>
      <trkpt lat="43.53017" lon="3.92978">
        <ele>3.8</ele>
        <time>2019-05-31T09:48:13.000Z</time>
      </trkpt>
      <trkpt lat="43.53033" lon="3.92952">
        <ele>2.73</ele>
        <time>2019-05-31T09:48:18.000Z</time>
      </trkpt>
      <trkpt lat="43.53049" lon="3.92925">
        <ele>3.54</ele>
        <time>2019-05-31T09:48:23.000Z</time>
      </trkpt>
      <trkpt lat="43.53065" lon="3.92898">
        <ele>4.47</ele>
        <time>2019-05-31T09:48:28.000Z</time>
      </trkpt>
      <trkpt lat="43.53082" lon="3.9287">
        <ele>4.72</ele>
        <time>2019-05-31T09:48:33.000Z</time>
      </trkpt>
      <trkpt lat="43.53099" lon="3.92841">
        <ele>4.72</ele>
        <time>2019-05-31T09:48:38.000Z</time>
      </trkpt>
      <trkpt lat="43.53117" lon="3.92812">
        <ele>4.72</ele>
        <time>2019-05-31T09:48:43.000Z</time>
      </trkpt>
      <trkpt lat="43.53137" lon="3.92781">
        <ele>4.72</ele>
        <time>2019-05-31T09:48:48.000Z</time>
      </trkpt>
      <trkpt lat="43.53156" lon="3.9275">
        <ele>4.72</ele>
        <time>2019-05-31T09:48:53.000Z</time>
      </trkpt>
      <trkpt lat="43.53175" lon="3.92719">
        <ele>4.73</ele>
        <time>2019-05-31T09:48:58.000Z</time>
      </trkpt>
      <trkpt lat="43.53194" lon="3.92688">
        <ele>4.72</ele>
        <time>2019-05-31T09:49:03.000Z</time>
      </trkpt>
      <trkpt lat="43.5321" lon="3.92661">
        <ele>6.66</ele>
        <time>2019-05-31T09:49:08.000Z</time>
      </trkpt>
      <trkpt lat="43.53215" lon="3.9265">
        <ele>5.78</ele>
        <time>2019-05-31T09:49:13.000Z</time>
      </trkpt>
      <trkpt lat="43.53209" lon="3.92639">
        <ele>4.71</ele>
        <time>2019-05-31T09:49:21.000Z</time>
      </trkpt>
      <trkpt lat="43.53206" lon="3.92622">
        <ele>3.74</ele>
        <time>2019-05-31T09:49:26.000Z</time>
      </trkpt>
      <trkpt lat="43.53199" lon="3.92602">
        <ele>2.78</ele>
        <time>2019-05-31T09:49:31.000Z</time>
      </trkpt>
      <trkpt lat="43.53195" lon="3.92572">
        <ele>2.03</ele>
        <time>2019-05-31T09:49:36.000Z</time>
      </trkpt>
      <trkpt lat="43.53184" lon="3.92545">
        <ele>1.72</ele>
        <time>2019-05-31T09:49:41.000Z</time>
      </trkpt>
      <trkpt lat="43.53163" lon="3.92528">
        <ele>1.72</ele>
        <time>2019-05-31T09:49:46.000Z</time>
      </trkpt>
      <trkpt lat="43.53165" lon="3.925">
        <ele>1.97</ele>
        <time>2019-05-31T09:49:51.000Z</time>
      </trkpt>
      <trkpt lat="43.53153" lon="3.92469">
        <ele>3.66</ele>
        <time>2019-05-31T09:49:56.000Z</time>
      </trkpt>
      <trkpt lat="43.53146" lon="3.92438">
        <ele>3.72</ele>
        <time>2019-05-31T09:50:01.000Z</time>
      </trkpt>
      <trkpt lat="43.53159" lon="3.92404">
        <ele>2.72</ele>
        <time>2019-05-31T09:50:06.000Z</time>
      </trkpt>
      <trkpt lat="43.53176" lon="3.92373">
        <ele>2.47</ele>
        <time>2019-05-31T09:50:11.000Z</time>
      </trkpt>
      <trkpt lat="43.53191" lon="3.9234">
        <ele>2.72</ele>
        <time>2019-05-31T09:50:16.000Z</time>
      </trkpt>
      <trkpt lat="43.53207" lon="3.92308">
        <ele>3.47</ele>
        <time>2019-05-31T09:50:21.000Z</time>
      </trkpt>
      <trkpt lat="43.53224" lon="3.92277">
        <ele>1.78</ele>
        <time>2019-05-31T09:50:26.000Z</time>
      </trkpt>
      <trkpt lat="43.5324" lon="3.92247">
        <ele>1.72</ele>
        <time>2019-05-31T09:50:31.000Z</time>
      </trkpt>
      <trkpt lat="43.53257" lon="3.92217">
        <ele>1.72</ele>
        <time>2019-05-31T09:50:36.000Z</time>
      </trkpt>
      <trkpt lat="43.53274" lon="3.92186">
        <ele>1.72</ele>
        <time>2019-05-31T09:50:41.000Z</time>
      </trkpt>
      <trkpt lat="43.53291" lon="3.92157">
        <ele>2.7</ele>
        <time>2019-05-31T09:50:46.000Z</time>
      </trkpt>
      <trkpt lat="43.53306" lon="3.92128">
        <ele>2.7</ele>
        <time>2019-05-31T09:50:51.000Z</time>
      </trkpt>
      <trkpt lat="43.53322" lon="3.921">
        <ele>3.72</ele>
        <time>2019-05-31T09:50:56.000Z</time>
      </trkpt>
      <trkpt lat="43.53336" lon="3.92073">
        <ele>3.72</ele>
        <time>2019-05-31T09:51:01.000Z</time>
      </trkpt>
      <trkpt lat="43.5335" lon="3.92047">
        <ele>2.78</ele>
        <time>2019-05-31T09:51:06.000Z</time>
      </trkpt>
      <trkpt lat="43.53364" lon="3.92023">
        <ele>3.47</ele>
        <time>2019-05-31T09:51:11.000Z</time>
      </trkpt>
      <trkpt lat="43.53379" lon="3.92">
        <ele>4.65</ele>
        <time>2019-05-31T09:51:16.000Z</time>
      </trkpt>
      <trkpt lat="43.53393" lon="3.91977">
        <ele>4.72</ele>
        <time>2019-05-31T09:51:21.000Z</time>
      </trkpt>
      <trkpt lat="43.53407" lon="3.91956">
        <ele>4.72</ele>
        <time>2019-05-31T09:51:26.000Z</time>
      </trkpt>
      <trkpt lat="43.53421" lon="3.91933">
        <ele>4.72</ele>
        <time>2019-05-31T09:51:31.000Z</time>
      </trkpt>
      <trkpt lat="43.53433" lon="3.91912">
        <ele>3.78</ele>
        <time>2019-05-31T09:51:36.000Z</time>
      </trkpt>
      <trkpt lat="43.53445" lon="3.9189">
        <ele>5.45</ele>
        <time>2019-05-31T09:51:41.000Z</time>
      </trkpt>
      <trkpt lat="43.5345" lon="3.91877">
        <ele>6.65</ele>
        <time>2019-05-31T09:51:46.000Z</time>
      </trkpt>
      <trkpt lat="43.53456" lon="3.91867">
        <ele>2.76</ele>
        <time>2019-05-31T09:53:29.000Z</time>
      </trkpt>
      <trkpt lat="43.53461" lon="3.91856">
        <ele>5.65</ele>
        <time>2019-05-31T09:53:40.000Z</time>
      </trkpt>
      <trkpt lat="43.53458" lon="3.91868">
        <ele>5.71</ele>
        <time>2019-05-31T09:54:00.000Z</time>
      </trkpt>
      <trkpt lat="43.53451" lon="3.91876">
        <ele>6.48</ele>
        <time>2019-05-31T09:55:12.000Z</time>
      </trkpt>
      <trkpt lat="43.5344" lon="3.91897">
        <ele>4.97</ele>
        <time>2019-05-31T09:55:17.000Z</time>
      </trkpt>
      <trkpt lat="43.53431" lon="3.91908">
        <ele>3.78</ele>
        <time>2019-05-31T09:55:22.000Z</time>
      </trkpt>
      <trkpt lat="43.53432" lon="3.91882">
        <ele>1.98</ele>
        <time>2019-05-31T09:55:27.000Z</time>
      </trkpt>
      <trkpt lat="43.5343" lon="3.91855">
        <ele>0.72</ele>
        <time>2019-05-31T09:55:32.000Z</time>
      </trkpt>
      <trkpt lat="43.53422" lon="3.91826">
        <ele>0.66</ele>
        <time>2019-05-31T09:55:37.000Z</time>
      </trkpt>
      <trkpt lat="43.53414" lon="3.91813">
        <ele>2.7</ele>
        <time>2019-05-31T09:55:42.000Z</time>
      </trkpt>
      <trkpt lat="43.53404" lon="3.91807">
        <ele>3.71</ele>
        <time>2019-05-31T09:55:48.000Z</time>
      </trkpt>
      <trkpt lat="43.53392" lon="3.91798">
        <ele>3.76</ele>
        <time>2019-05-31T09:55:53.000Z</time>
      </trkpt>
      <trkpt lat="43.53381" lon="3.91758">
        <ele>2.72</ele>
        <time>2019-05-31T09:55:58.000Z</time>
      </trkpt>
      <trkpt lat="43.53364" lon="3.91729">
        <ele>2.76</ele>
        <time>2019-05-31T09:56:03.000Z</time>
      </trkpt>
      <trkpt lat="43.53364" lon="3.917">
        <ele>1.73</ele>
        <time>2019-05-31T09:56:08.000Z</time>
      </trkpt>
      <trkpt lat="43.5336" lon="3.91682">
        <ele>3.46</ele>
        <time>2019-05-31T09:56:13.000Z</time>
      </trkpt>
      <trkpt lat="43.53364" lon="3.91695">
        <ele>2.72</ele>
        <time>2019-05-31T09:56:25.000Z</time>
      </trkpt>
      <trkpt lat="43.53366" lon="3.91717">
        <ele>2.76</ele>
        <time>2019-05-31T09:56:30.000Z</time>
      </trkpt>
      <trkpt lat="43.53363" lon="3.91735">
        <ele>3.7</ele>
        <time>2019-05-31T09:56:35.000Z</time>
      </trkpt>
      <trkpt lat="43.53364" lon="3.91755">
        <ele>3.98</ele>
        <time>2019-05-31T09:56:40.000Z</time>
      </trkpt>
      <trkpt lat="43.53354" lon="3.9177">
        <ele>2.77</ele>
        <time>2019-05-31T09:56:45.000Z</time>
      </trkpt>
      <trkpt lat="43.53342" lon="3.9179">
        <ele>1.78</ele>
        <time>2019-05-31T09:56:50.000Z</time>
      </trkpt>
      <trkpt lat="43.53331" lon="3.91817">
        <ele>1.72</ele>
        <time>2019-05-31T09:56:55.000Z</time>
      </trkpt>
      <trkpt lat="43.53319" lon="3.91844">
        <ele>0.72</ele>
        <time>2019-05-31T09:57:00.000Z</time>
      </trkpt>
      <trkpt lat="43.53304" lon="3.91866">
        <ele>1.95</ele>
        <time>2019-05-31T09:57:05.000Z</time>
      </trkpt>
      <trkpt lat="43.53291" lon="3.91884">
        <ele>1.96</ele>
        <time>2019-05-31T09:57:10.000Z</time>
      </trkpt>
      <trkpt lat="43.53292" lon="3.91871">
        <ele>4.71</ele>
        <time>2019-05-31T09:57:20.000Z</time>
      </trkpt>
      <trkpt lat="43.53303" lon="3.91854">
        <ele>6.65</ele>
        <time>2019-05-31T09:57:25.000Z</time>
      </trkpt>
      <trkpt lat="43.53314" lon="3.91836">
        <ele>5.78</ele>
        <time>2019-05-31T09:57:30.000Z</time>
      </trkpt>
      <trkpt lat="43.53325" lon="3.91816">
        <ele>7.46</ele>
        <time>2019-05-31T09:57:35.000Z</time>
      </trkpt>
      <trkpt lat="43.53336" lon="3.91798">
        <ele>7.72</ele>
        <time>2019-05-31T09:57:40.000Z</time>
      </trkpt>
      <trkpt lat="43.53346" lon="3.91778">
        <ele>7.72</ele>
        <time>2019-05-31T09:57:45.000Z</time>
      </trkpt>
      <trkpt lat="43.53356" lon="3.9176">
        <ele>8.7</ele>
        <time>2019-05-31T09:57:50.000Z</time>
      </trkpt>
      <trkpt lat="43.53366" lon="3.91741">
        <ele>8.71</ele>
        <time>2019-05-31T09:57:55.000Z</time>
      </trkpt>
      <trkpt lat="43.53375" lon="3.91723">
        <ele>7.72</ele>
        <time>2019-05-31T09:58:00.000Z</time>
      </trkpt>
      <trkpt lat="43.53384" lon="3.91703">
        <ele>6.73</ele>
        <time>2019-05-31T09:58:05.000Z</time>
      </trkpt>
      <trkpt lat="43.5339" lon="3.91693">
        <ele>7.71</ele>
        <time>2019-05-31T09:58:35.000Z</time>
      </trkpt>
      <trkpt lat="43.53396" lon="3.91677">
        <ele>7.73</ele>
        <time>2019-05-31T09:58:40.000Z</time>
      </trkpt>
      <trkpt lat="43.53406" lon="3.91654">
        <ele>7.71</ele>
        <time>2019-05-31T09:58:45.000Z</time>
      </trkpt>
      <trkpt lat="43.53417" lon="3.91627">
        <ele>6.72</ele>
        <time>2019-05-31T09:58:50.000Z</time>
      </trkpt>
      <trkpt lat="43.53428" lon="3.91594">
        <ele>5.73</ele>
        <time>2019-05-31T09:58:55.000Z</time>
      </trkpt>
      <trkpt lat="43.53439" lon="3.9156">
        <ele>4.01</ele>
        <time>2019-05-31T09:59:00.000Z</time>
      </trkpt>
      <trkpt lat="43.53452" lon="3.91525">
        <ele>1.98</ele>
        <time>2019-05-31T09:59:05.000Z</time>
      </trkpt>
      <trkpt lat="43.53465" lon="3.915">
        <ele>0.97</ele>
        <time>2019-05-31T09:59:10.000Z</time>
      </trkpt>
      <trkpt lat="43.53474" lon="3.91468">
        <ele>2</ele>
        <time>2019-05-31T09:59:15.000Z</time>
      </trkpt>
      <trkpt lat="43.53483" lon="3.91438">
        <ele>1.46</ele>
        <time>2019-05-31T09:59:20.000Z</time>
      </trkpt>
      <trkpt lat="43.53498" lon="3.91425">
        <ele>1.71</ele>
        <time>2019-05-31T09:59:25.000Z</time>
      </trkpt>
      <trkpt lat="43.53509" lon="3.91417">
        <ele>1.7</ele>
        <time>2019-05-31T09:59:30.000Z</time>
      </trkpt>
      <trkpt lat="43.53513" lon="3.91386">
        <ele>0.71</ele>
        <time>2019-05-31T09:59:35.000Z</time>
      </trkpt>
      <trkpt lat="43.53514" lon="3.91348">
        <ele>0.71</ele>
        <time>2019-05-31T09:59:40.000Z</time>
      </trkpt>
      <trkpt lat="43.53514" lon="3.91309">
        <ele>1.7</ele>
        <time>2019-05-31T09:59:45.000Z</time>
      </trkpt>
      <trkpt lat="43.53511" lon="3.91269">
        <ele>1.71</ele>
        <time>2019-05-31T09:59:50.000Z</time>
      </trkpt>
      <trkpt lat="43.53509" lon="3.91225">
        <ele>1.66</ele>
        <time>2019-05-31T09:59:55.000Z</time>
      </trkpt>
      <trkpt lat="43.53504" lon="3.91184">
        <ele>1.46</ele>
        <time>2019-05-31T10:00:00.000Z</time>
      </trkpt>
      <trkpt lat="43.535" lon="3.91142">
        <ele>1.71</ele>
        <time>2019-05-31T10:00:05.000Z</time>
      </trkpt>
      <trkpt lat="43.53495" lon="3.91102">
        <ele>1.71</ele>
        <time>2019-05-31T10:00:10.000Z</time>
      </trkpt>
      <trkpt lat="43.53491" lon="3.91062">
        <ele>2.65</ele>
        <time>2019-05-31T10:00:15.000Z</time>
      </trkpt>
      <trkpt lat="43.53486" lon="3.9102">
        <ele>3.46</ele>
        <time>2019-05-31T10:00:20.000Z</time>
      </trkpt>
      <trkpt lat="43.53482" lon="3.90979">
        <ele>3.69</ele>
        <time>2019-05-31T10:00:25.000Z</time>
      </trkpt>
      <trkpt lat="43.53478" lon="3.90938">
        <ele>2.73</ele>
        <time>2019-05-31T10:00:30.000Z</time>
      </trkpt>
      <trkpt lat="43.53472" lon="3.90897">
        <ele>4.65</ele>
        <time>2019-05-31T10:00:35.000Z</time>
      </trkpt>
      <trkpt lat="43.53468" lon="3.90856">
        <ele>4.71</ele>
        <time>2019-05-31T10:00:40.000Z</time>
      </trkpt>
      <trkpt lat="43.53463" lon="3.90817">
        <ele>4.46</ele>
        <time>2019-05-31T10:00:45.000Z</time>
      </trkpt>
      <trkpt lat="43.53458" lon="3.90779">
        <ele>2.78</ele>
        <time>2019-05-31T10:00:50.000Z</time>
      </trkpt>
      <trkpt lat="43.53455" lon="3.90739">
        <ele>3.7</ele>
        <time>2019-05-31T10:00:55.000Z</time>
      </trkpt>
      <trkpt lat="43.53455" lon="3.90701">
        <ele>3.71</ele>
        <time>2019-05-31T10:01:00.000Z</time>
      </trkpt>
      <trkpt lat="43.5346" lon="3.90661">
        <ele>3.71</ele>
        <time>2019-05-31T10:01:05.000Z</time>
      </trkpt>
      <trkpt lat="43.5347" lon="3.90623">
        <ele>2.77</ele>
        <time>2019-05-31T10:01:10.000Z</time>
      </trkpt>
      <trkpt lat="43.53487" lon="3.90592">
        <ele>2.71</ele>
        <time>2019-05-31T10:01:15.000Z</time>
      </trkpt>
      <trkpt lat="43.53507" lon="3.90563">
        <ele>3.7</ele>
        <time>2019-05-31T10:01:20.000Z</time>
      </trkpt>
      <trkpt lat="43.53529" lon="3.90535">
        <ele>4.64</ele>
        <time>2019-05-31T10:01:25.000Z</time>
      </trkpt>
      <trkpt lat="43.53547" lon="3.90505">
        <ele>4.69</ele>
        <time>2019-05-31T10:01:30.000Z</time>
      </trkpt>
      <trkpt lat="43.53567" lon="3.90475">
        <ele>4.71</ele>
        <time>2019-05-31T10:01:35.000Z</time>
      </trkpt>
      <trkpt lat="43.53585" lon="3.90445">
        <ele>4.56</ele>
        <time>2019-05-31T10:01:40.000Z</time>
      </trkpt>
      <trkpt lat="43.53605" lon="3.90416">
        <ele>4.66</ele>
        <time>2019-05-31T10:01:45.000Z</time>
      </trkpt>
      <trkpt lat="43.53625" lon="3.90387">
        <ele>3.53</ele>
        <time>2019-05-31T10:01:50.000Z</time>
      </trkpt>
      <trkpt lat="43.53644" lon="3.90357">
        <ele>3.7</ele>
        <time>2019-05-31T10:01:55.000Z</time>
      </trkpt>
      <trkpt lat="43.53664" lon="3.90329">
        <ele>3.64</ele>
        <time>2019-05-31T10:02:00.000Z</time>
      </trkpt>
      <trkpt lat="43.53683" lon="3.90298">
        <ele>4.69</ele>
        <time>2019-05-31T10:02:05.000Z</time>
      </trkpt>
      <trkpt lat="43.53703" lon="3.90269">
        <ele>4.64</ele>
        <time>2019-05-31T10:02:10.000Z</time>
      </trkpt>
      <trkpt lat="43.53725" lon="3.90239">
        <ele>3.72</ele>
        <time>2019-05-31T10:02:15.000Z</time>
      </trkpt>
      <trkpt lat="43.53746" lon="3.90211">
        <ele>3.7</ele>
        <time>2019-05-31T10:02:20.000Z</time>
      </trkpt>
      <trkpt lat="43.53767" lon="3.90183">
        <ele>3.46</ele>
        <time>2019-05-31T10:02:25.000Z</time>
      </trkpt>
      <trkpt lat="43.53786" lon="3.90158">
        <ele>3.7</ele>
        <time>2019-05-31T10:02:30.000Z</time>
      </trkpt>
      <trkpt lat="43.53801" lon="3.90143">
        <ele>3.7</ele>
        <time>2019-05-31T10:02:35.000Z</time>
      </trkpt>
      <trkpt lat="43.53815" lon="3.9012">
        <ele>3.7</ele>
        <time>2019-05-31T10:02:40.000Z</time>
      </trkpt>
      <trkpt lat="43.5383" lon="3.90097">
        <ele>3.7</ele>
        <time>2019-05-31T10:02:45.000Z</time>
      </trkpt>
      <trkpt lat="43.53847" lon="3.90071">
        <ele>4.68</ele>
        <time>2019-05-31T10:02:50.000Z</time>
      </trkpt>
      <trkpt lat="43.53866" lon="3.90041">
        <ele>3.95</ele>
        <time>2019-05-31T10:02:55.000Z</time>
      </trkpt>
      <trkpt lat="43.53885" lon="3.9001">
        <ele>3.7</ele>
        <time>2019-05-31T10:03:00.000Z</time>
      </trkpt>
      <trkpt lat="43.53905" lon="3.8998">
        <ele>3.7</ele>
        <time>2019-05-31T10:03:05.000Z</time>
      </trkpt>
      <trkpt lat="43.53923" lon="3.89948">
        <ele>3.7</ele>
        <time>2019-05-31T10:03:10.000Z</time>
      </trkpt>
      <trkpt lat="43.53944" lon="3.89916">
        <ele>3.7</ele>
        <time>2019-05-31T10:03:15.000Z</time>
      </trkpt>
      <trkpt lat="43.53964" lon="3.89885">
        <ele>3.7</ele>
        <time>2019-05-31T10:03:20.000Z</time>
      </trkpt>
      <trkpt lat="43.53991" lon="3.8987">
        <ele>3.7</ele>
        <time>2019-05-31T10:03:25.000Z</time>
      </trkpt>
      <trkpt lat="43.54014" lon="3.8986">
        <ele>4.63</ele>
        <time>2019-05-31T10:03:30.000Z</time>
      </trkpt>
      <trkpt lat="43.54022" lon="3.89829">
        <ele>4.45</ele>
        <time>2019-05-31T10:03:35.000Z</time>
      </trkpt>
      <trkpt lat="43.54034" lon="3.89805">
        <ele>4.7</ele>
        <time>2019-05-31T10:03:40.000Z</time>
      </trkpt>
      <trkpt lat="43.54043" lon="3.89778">
        <ele>4.7</ele>
        <time>2019-05-31T10:03:45.000Z</time>
      </trkpt>
      <trkpt lat="43.5405" lon="3.89763">
        <ele>4.7</ele>
        <time>2019-05-31T10:03:50.000Z</time>
      </trkpt>
      <trkpt lat="43.54048" lon="3.89749">
        <ele>4.5</ele>
        <time>2019-05-31T10:04:19.000Z</time>
      </trkpt>
      <trkpt lat="43.54043" lon="3.89733">
        <ele>3.71</ele>
        <time>2019-05-31T10:04:24.000Z</time>
      </trkpt>
      <trkpt lat="43.54038" lon="3.89718">
        <ele>4.63</ele>
        <time>2019-05-31T10:04:31.000Z</time>
      </trkpt>
      <trkpt lat="43.54016" lon="3.89705">
        <ele>4.88</ele>
        <time>2019-05-31T10:04:36.000Z</time>
      </trkpt>
      <trkpt lat="43.53993" lon="3.89699">
        <ele>3.95</ele>
        <time>2019-05-31T10:04:41.000Z</time>
      </trkpt>
      <trkpt lat="43.53977" lon="3.89695">
        <ele>3.7</ele>
        <time>2019-05-31T10:04:46.000Z</time>
      </trkpt>
      <trkpt lat="43.53969" lon="3.89706">
        <ele>2.89</ele>
        <time>2019-05-31T10:04:55.000Z</time>
      </trkpt>
      <trkpt lat="43.53961" lon="3.89716">
        <ele>2.7</ele>
        <time>2019-05-31T10:05:00.000Z</time>
      </trkpt>
      <trkpt lat="43.53949" lon="3.89709">
        <ele>2.69</ele>
        <time>2019-05-31T10:05:05.000Z</time>
      </trkpt>
      <trkpt lat="43.53948" lon="3.8968">
        <ele>2.7</ele>
        <time>2019-05-31T10:05:10.000Z</time>
      </trkpt>
      <trkpt lat="43.5395" lon="3.89665">
        <ele>2.64</ele>
        <time>2019-05-31T10:05:39.000Z</time>
      </trkpt>
      <trkpt lat="43.53956" lon="3.8964">
        <ele>2.49</ele>
        <time>2019-05-31T10:05:44.000Z</time>
      </trkpt>
      <trkpt lat="43.53965" lon="3.89608">
        <ele>1.7</ele>
        <time>2019-05-31T10:05:49.000Z</time>
      </trkpt>
      <trkpt lat="43.53974" lon="3.89573">
        <ele>1.7</ele>
        <time>2019-05-31T10:05:54.000Z</time>
      </trkpt>
      <trkpt lat="43.53975" lon="3.89533">
        <ele>1.7</ele>
        <time>2019-05-31T10:05:59.000Z</time>
      </trkpt>
      <trkpt lat="43.53972" lon="3.89492">
        <ele>0.7</ele>
        <time>2019-05-31T10:06:04.000Z</time>
      </trkpt>
      <trkpt lat="43.53971" lon="3.89449">
        <ele>0.7</ele>
        <time>2019-05-31T10:06:09.000Z</time>
      </trkpt>
      <trkpt lat="43.53969" lon="3.89406">
        <ele>1.69</ele>
        <time>2019-05-31T10:06:14.000Z</time>
      </trkpt>
      <trkpt lat="43.53966" lon="3.89362">
        <ele>0.71</ele>
        <time>2019-05-31T10:06:19.000Z</time>
      </trkpt>
      <trkpt lat="43.53964" lon="3.89317">
        <ele>0.69</ele>
        <time>2019-05-31T10:06:24.000Z</time>
      </trkpt>
      <trkpt lat="43.53962" lon="3.89272">
        <ele>0.69</ele>
        <time>2019-05-31T10:06:29.000Z</time>
      </trkpt>
      <trkpt lat="43.5396" lon="3.89225">
        <ele>0.69</ele>
        <time>2019-05-31T10:06:34.000Z</time>
      </trkpt>
      <trkpt lat="43.53958" lon="3.89178">
        <ele>0.69</ele>
        <time>2019-05-31T10:06:39.000Z</time>
      </trkpt>
      <trkpt lat="43.53956" lon="3.8913">
        <ele>0.69</ele>
        <time>2019-05-31T10:06:44.000Z</time>
      </trkpt>
      <trkpt lat="43.53954" lon="3.89082">
        <ele>0.94</ele>
        <time>2019-05-31T10:06:49.000Z</time>
      </trkpt>
      <trkpt lat="43.53952" lon="3.89033">
        <ele>1.69</ele>
        <time>2019-05-31T10:06:54.000Z</time>
      </trkpt>
      <trkpt lat="43.53949" lon="3.88985">
        <ele>2.69</ele>
        <time>2019-05-31T10:06:59.000Z</time>
      </trkpt>
      <trkpt lat="43.53947" lon="3.88936">
        <ele>1.93</ele>
        <time>2019-05-31T10:07:04.000Z</time>
      </trkpt>
      <trkpt lat="43.53945" lon="3.8889">
        <ele>2.69</ele>
        <time>2019-05-31T10:07:09.000Z</time>
      </trkpt>
      <trkpt lat="43.53942" lon="3.88841">
        <ele>1.76</ele>
        <time>2019-05-31T10:07:14.000Z</time>
      </trkpt>
      <trkpt lat="43.53941" lon="3.88793">
        <ele>2.69</ele>
        <time>2019-05-31T10:07:19.000Z</time>
      </trkpt>
      <trkpt lat="43.53938" lon="3.88744">
        <ele>2.69</ele>
        <time>2019-05-31T10:07:24.000Z</time>
      </trkpt>
      <trkpt lat="43.53936" lon="3.88697">
        <ele>1.71</ele>
        <time>2019-05-31T10:07:29.000Z</time>
      </trkpt>
      <trkpt lat="43.53934" lon="3.8865">
        <ele>1.74</ele>
        <time>2019-05-31T10:07:34.000Z</time>
      </trkpt>
      <trkpt lat="43.53931" lon="3.88605">
        <ele>1.69</ele>
        <time>2019-05-31T10:07:39.000Z</time>
      </trkpt>
      <trkpt lat="43.5393" lon="3.8856">
        <ele>2.68</ele>
        <time>2019-05-31T10:07:44.000Z</time>
      </trkpt>
      <trkpt lat="43.53928" lon="3.88516">
        <ele>1.69</ele>
        <time>2019-05-31T10:07:49.000Z</time>
      </trkpt>
      <trkpt lat="43.53925" lon="3.88473">
        <ele>1.69</ele>
        <time>2019-05-31T10:07:54.000Z</time>
      </trkpt>
      <trkpt lat="43.53923" lon="3.88428">
        <ele>1.69</ele>
        <time>2019-05-31T10:07:59.000Z</time>
      </trkpt>
      <trkpt lat="43.53921" lon="3.88385">
        <ele>1.75</ele>
        <time>2019-05-31T10:08:04.000Z</time>
      </trkpt>
      <trkpt lat="43.53918" lon="3.88342">
        <ele>1.69</ele>
        <time>2019-05-31T10:08:09.000Z</time>
      </trkpt>
      <trkpt lat="43.53916" lon="3.883">
        <ele>1.69</ele>
        <time>2019-05-31T10:08:14.000Z</time>
      </trkpt>
      <trkpt lat="43.53914" lon="3.88258">
        <ele>1.69</ele>
        <time>2019-05-31T10:08:19.000Z</time>
      </trkpt>
      <trkpt lat="43.53912" lon="3.88219">
        <ele>2.5</ele>
        <time>2019-05-31T10:08:24.000Z</time>
      </trkpt>
      <trkpt lat="43.53911" lon="3.88182">
        <ele>2.69</ele>
        <time>2019-05-31T10:08:29.000Z</time>
      </trkpt>
      <trkpt lat="43.53909" lon="3.88146">
        <ele>2.69</ele>
        <time>2019-05-31T10:08:34.000Z</time>
      </trkpt>
      <trkpt lat="43.53907" lon="3.8811">
        <ele>3.63</ele>
        <time>2019-05-31T10:08:39.000Z</time>
      </trkpt>
      <trkpt lat="43.53903" lon="3.88071">
        <ele>4.49</ele>
        <time>2019-05-31T10:08:44.000Z</time>
      </trkpt>
      <trkpt lat="43.53897" lon="3.88029">
        <ele>2.71</ele>
        <time>2019-05-31T10:08:49.000Z</time>
      </trkpt>
      <trkpt lat="43.53893" lon="3.87984">
        <ele>1.7</ele>
        <time>2019-05-31T10:08:54.000Z</time>
      </trkpt>
      <trkpt lat="43.53893" lon="3.87941">
        <ele>0.75</ele>
        <time>2019-05-31T10:08:59.000Z</time>
      </trkpt>
      <trkpt lat="43.53891" lon="3.87907">
        <ele>2.44</ele>
        <time>2019-05-31T10:09:04.000Z</time>
      </trkpt>
      <trkpt lat="43.53889" lon="3.87879">
        <ele>2.56</ele>
        <time>2019-05-31T10:09:09.000Z</time>
      </trkpt>
      <trkpt lat="43.53888" lon="3.87846">
        <ele>3</ele>
        <time>2019-05-31T10:09:14.000Z</time>
      </trkpt>
      <trkpt lat="43.53886" lon="3.87804">
        <ele>2.69</ele>
        <time>2019-05-31T10:09:19.000Z</time>
      </trkpt>
      <trkpt lat="43.53885" lon="3.87754">
        <ele>1.88</ele>
        <time>2019-05-31T10:09:24.000Z</time>
      </trkpt>
      <trkpt lat="43.53887" lon="3.87708">
        <ele>1.69</ele>
        <time>2019-05-31T10:09:29.000Z</time>
      </trkpt>
      <trkpt lat="43.53887" lon="3.87661">
        <ele>0.75</ele>
        <time>2019-05-31T10:09:34.000Z</time>
      </trkpt>
      <trkpt lat="43.53886" lon="3.87615">
        <ele>1</ele>
        <time>2019-05-31T10:09:39.000Z</time>
      </trkpt>
      <trkpt lat="43.53884" lon="3.87569">
        <ele>1</ele>
        <time>2019-05-31T10:09:44.000Z</time>
      </trkpt>
      <trkpt lat="43.53882" lon="3.87527">
        <ele>1.44</ele>
        <time>2019-05-31T10:09:49.000Z</time>
      </trkpt>
      <trkpt lat="43.5388" lon="3.87488">
        <ele>1.69</ele>
        <time>2019-05-31T10:09:54.000Z</time>
      </trkpt>
      <trkpt lat="43.53878" lon="3.87449">
        <ele>2.62</ele>
        <time>2019-05-31T10:09:59.000Z</time>
      </trkpt>
      <trkpt lat="43.53877" lon="3.87411">
        <ele>3.67</ele>
        <time>2019-05-31T10:10:04.000Z</time>
      </trkpt>
      <trkpt lat="43.53875" lon="3.87371">
        <ele>3.68</ele>
        <time>2019-05-31T10:10:09.000Z</time>
      </trkpt>
      <trkpt lat="43.53871" lon="3.87329">
        <ele>3.69</ele>
        <time>2019-05-31T10:10:14.000Z</time>
      </trkpt>
      <trkpt lat="43.53867" lon="3.87287">
        <ele>3.68</ele>
        <time>2019-05-31T10:10:19.000Z</time>
      </trkpt>
      <trkpt lat="43.53863" lon="3.87245">
        <ele>3.69</ele>
        <time>2019-05-31T10:10:24.000Z</time>
      </trkpt>
      <trkpt lat="43.53863" lon="3.87204">
        <ele>2.7</ele>
        <time>2019-05-31T10:10:29.000Z</time>
      </trkpt>
      <trkpt lat="43.5386" lon="3.87165">
        <ele>1.75</ele>
        <time>2019-05-31T10:10:34.000Z</time>
      </trkpt>
      <trkpt lat="43.53857" lon="3.87126">
        <ele>3.67</ele>
        <time>2019-05-31T10:10:39.000Z</time>
      </trkpt>
      <trkpt lat="43.53855" lon="3.87091">
        <ele>3.68</ele>
        <time>2019-05-31T10:10:44.000Z</time>
      </trkpt>
      <trkpt lat="43.53853" lon="3.87061">
        <ele>3.68</ele>
        <time>2019-05-31T10:10:49.000Z</time>
      </trkpt>
      <trkpt lat="43.5385" lon="3.87038">
        <ele>4.43</ele>
        <time>2019-05-31T10:10:54.000Z</time>
      </trkpt>
      <trkpt lat="43.53849" lon="3.87022">
        <ele>3.69</ele>
        <time>2019-05-31T10:10:59.000Z</time>
      </trkpt>
      <trkpt lat="43.53847" lon="3.87009">
        <ele>3.68</ele>
        <time>2019-05-31T10:11:06.000Z</time>
      </trkpt>
      <trkpt lat="43.53845" lon="3.86996">
        <ele>2.43</ele>
        <time>2019-05-31T10:11:51.000Z</time>
      </trkpt>
      <trkpt lat="43.53837" lon="3.86981">
        <ele>2.68</ele>
        <time>2019-05-31T10:11:56.000Z</time>
      </trkpt>
      <trkpt lat="43.53825" lon="3.86967">
        <ele>3.68</ele>
        <time>2019-05-31T10:12:01.000Z</time>
      </trkpt>
      <trkpt lat="43.53816" lon="3.86962">
        <ele>3.5</ele>
        <time>2019-05-31T10:12:06.000Z</time>
      </trkpt>
      <trkpt lat="43.53817" lon="3.86949">
        <ele>4.67</ele>
        <time>2019-05-31T10:12:12.000Z</time>
      </trkpt>
      <trkpt lat="43.53822" lon="3.86936">
        <ele>6.62</ele>
        <time>2019-05-31T10:12:38.000Z</time>
      </trkpt>
      <trkpt lat="43.5383" lon="3.86919">
        <ele>4.75</ele>
        <time>2019-05-31T10:12:43.000Z</time>
      </trkpt>
      <trkpt lat="43.53833" lon="3.86892">
        <ele>3.93</ele>
        <time>2019-05-31T10:12:48.000Z</time>
      </trkpt>
      <trkpt lat="43.53831" lon="3.86859">
        <ele>4.64</ele>
        <time>2019-05-31T10:12:53.000Z</time>
      </trkpt>
      <trkpt lat="43.53827" lon="3.86825">
        <ele>4.67</ele>
        <time>2019-05-31T10:12:58.000Z</time>
      </trkpt>
      <trkpt lat="43.53822" lon="3.8679">
        <ele>4.68</ele>
        <time>2019-05-31T10:13:03.000Z</time>
      </trkpt>
      <trkpt lat="43.53819" lon="3.86754">
        <ele>4.93</ele>
        <time>2019-05-31T10:13:08.000Z</time>
      </trkpt>
      <trkpt lat="43.53815" lon="3.86716">
        <ele>5.62</ele>
        <time>2019-05-31T10:13:13.000Z</time>
      </trkpt>
      <trkpt lat="43.53811" lon="3.86679">
        <ele>5.62</ele>
        <time>2019-05-31T10:13:18.000Z</time>
      </trkpt>
      <trkpt lat="43.53807" lon="3.86642">
        <ele>4.69</ele>
        <time>2019-05-31T10:13:23.000Z</time>
      </trkpt>
      <trkpt lat="43.53802" lon="3.86607">
        <ele>3.68</ele>
        <time>2019-05-31T10:13:28.000Z</time>
      </trkpt>
      <trkpt lat="43.53798" lon="3.86569">
        <ele>4.68</ele>
        <time>2019-05-31T10:13:33.000Z</time>
      </trkpt>
      <trkpt lat="43.53794" lon="3.86532">
        <ele>4.7</ele>
        <time>2019-05-31T10:13:38.000Z</time>
      </trkpt>
      <trkpt lat="43.53791" lon="3.86494">
        <ele>5.68</ele>
        <time>2019-05-31T10:13:43.000Z</time>
      </trkpt>
      <trkpt lat="43.53785" lon="3.86459">
        <ele>4.74</ele>
        <time>2019-05-31T10:13:48.000Z</time>
      </trkpt>
      <trkpt lat="43.53782" lon="3.86424">
        <ele>4.68</ele>
        <time>2019-05-31T10:13:53.000Z</time>
      </trkpt>
      <trkpt lat="43.53778" lon="3.86389">
        <ele>4.68</ele>
        <time>2019-05-31T10:13:58.000Z</time>
      </trkpt>
      <trkpt lat="43.53774" lon="3.86356">
        <ele>4.87</ele>
        <time>2019-05-31T10:14:03.000Z</time>
      </trkpt>
      <trkpt lat="43.5377" lon="3.86323">
        <ele>4.68</ele>
        <time>2019-05-31T10:14:08.000Z</time>
      </trkpt>
      <trkpt lat="43.53766" lon="3.86289">
        <ele>4.68</ele>
        <time>2019-05-31T10:14:13.000Z</time>
      </trkpt>
      <trkpt lat="43.53763" lon="3.86255">
        <ele>6.43</ele>
        <time>2019-05-31T10:14:18.000Z</time>
      </trkpt>
      <trkpt lat="43.53758" lon="3.86221">
        <ele>6.68</ele>
        <time>2019-05-31T10:14:23.000Z</time>
      </trkpt>
      <trkpt lat="43.53755" lon="3.86187">
        <ele>6.68</ele>
        <time>2019-05-31T10:14:28.000Z</time>
      </trkpt>
      <trkpt lat="43.53753" lon="3.86154">
        <ele>6.68</ele>
        <time>2019-05-31T10:14:33.000Z</time>
      </trkpt>
      <trkpt lat="43.53751" lon="3.86121">
        <ele>6.68</ele>
        <time>2019-05-31T10:14:38.000Z</time>
      </trkpt>
      <trkpt lat="43.5375" lon="3.86088">
        <ele>7.68</ele>
        <time>2019-05-31T10:14:43.000Z</time>
      </trkpt>
      <trkpt lat="43.53751" lon="3.86054">
        <ele>8.67</ele>
        <time>2019-05-31T10:14:48.000Z</time>
      </trkpt>
      <trkpt lat="43.53753" lon="3.86018">
        <ele>7.7</ele>
        <time>2019-05-31T10:14:53.000Z</time>
      </trkpt>
      <trkpt lat="43.53757" lon="3.85982">
        <ele>8.68</ele>
        <time>2019-05-31T10:14:58.000Z</time>
      </trkpt>
      <trkpt lat="43.53761" lon="3.85949">
        <ele>9.43</ele>
        <time>2019-05-31T10:15:03.000Z</time>
      </trkpt>
      <trkpt lat="43.53767" lon="3.85915">
        <ele>10.62</ele>
        <time>2019-05-31T10:15:08.000Z</time>
      </trkpt>
      <trkpt lat="43.53774" lon="3.85883">
        <ele>10.68</ele>
        <time>2019-05-31T10:15:13.000Z</time>
      </trkpt>
      <trkpt lat="43.53781" lon="3.85851">
        <ele>11.68</ele>
        <time>2019-05-31T10:15:18.000Z</time>
      </trkpt>
      <trkpt lat="43.53789" lon="3.85818">
        <ele>10.69</ele>
        <time>2019-05-31T10:15:23.000Z</time>
      </trkpt>
      <trkpt lat="43.53796" lon="3.85788">
        <ele>11.43</ele>
        <time>2019-05-31T10:15:28.000Z</time>
      </trkpt>
      <trkpt lat="43.53803" lon="3.85757">
        <ele>11.63</ele>
        <time>2019-05-31T10:15:33.000Z</time>
      </trkpt>
      <trkpt lat="43.53811" lon="3.85728">
        <ele>11.68</ele>
        <time>2019-05-31T10:15:38.000Z</time>
      </trkpt>
      <trkpt lat="43.53817" lon="3.85699">
        <ele>12.67</ele>
        <time>2019-05-31T10:15:43.000Z</time>
      </trkpt>
      <trkpt lat="43.53824" lon="3.85672">
        <ele>12.69</ele>
        <time>2019-05-31T10:15:48.000Z</time>
      </trkpt>
      <trkpt lat="43.53824" lon="3.85647">
        <ele>12.68</ele>
        <time>2019-05-31T10:15:53.000Z</time>
      </trkpt>
      <trkpt lat="43.53813" lon="3.85632">
        <ele>13.66</ele>
        <time>2019-05-31T10:15:58.000Z</time>
      </trkpt>
      <trkpt lat="43.53808" lon="3.85619">
        <ele>14.43</ele>
        <time>2019-05-31T10:16:06.000Z</time>
      </trkpt>
      <trkpt lat="43.53791" lon="3.85618">
        <ele>14.68</ele>
        <time>2019-05-31T10:16:11.000Z</time>
      </trkpt>
      <trkpt lat="43.5377" lon="3.85646">
        <ele>14.49</ele>
        <time>2019-05-31T10:16:16.000Z</time>
      </trkpt>
      <trkpt lat="43.53748" lon="3.85668">
        <ele>14.44</ele>
        <time>2019-05-31T10:16:21.000Z</time>
      </trkpt>
      <trkpt lat="43.53726" lon="3.8569">
        <ele>14.68</ele>
        <time>2019-05-31T10:16:26.000Z</time>
      </trkpt>
      <trkpt lat="43.53712" lon="3.857">
        <ele>14.74</ele>
        <time>2019-05-31T10:16:31.000Z</time>
      </trkpt>
      <trkpt lat="43.53699" lon="3.8572">
        <ele>15.66</ele>
        <time>2019-05-31T10:16:36.000Z</time>
      </trkpt>
      <trkpt lat="43.53681" lon="3.85741">
        <ele>15.45</ele>
        <time>2019-05-31T10:16:41.000Z</time>
      </trkpt>
      <trkpt lat="43.53661" lon="3.85761">
        <ele>13.74</ele>
        <time>2019-05-31T10:16:46.000Z</time>
      </trkpt>
      <trkpt lat="43.53642" lon="3.85782">
        <ele>13.68</ele>
        <time>2019-05-31T10:16:51.000Z</time>
      </trkpt>
      <trkpt lat="43.53621" lon="3.85805">
        <ele>14.68</ele>
        <time>2019-05-31T10:16:56.000Z</time>
      </trkpt>
      <trkpt lat="43.53601" lon="3.85817">
        <ele>17.12</ele>
        <time>2019-05-31T10:17:01.000Z</time>
      </trkpt>
      <trkpt lat="43.53587" lon="3.85833">
        <ele>16.69</ele>
        <time>2019-05-31T10:17:06.000Z</time>
      </trkpt>
      <trkpt lat="43.53586" lon="3.85853">
        <ele>15.23</ele>
        <time>2019-05-31T10:17:11.000Z</time>
      </trkpt>
      <trkpt lat="43.53571" lon="3.85869">
        <ele>16.44</ele>
        <time>2019-05-31T10:17:16.000Z</time>
      </trkpt>
      <trkpt lat="43.53552" lon="3.8589">
        <ele>15.94</ele>
        <time>2019-05-31T10:17:21.000Z</time>
      </trkpt>
      <trkpt lat="43.53528" lon="3.85918">
        <ele>15</ele>
        <time>2019-05-31T10:17:26.000Z</time>
      </trkpt>
      <trkpt lat="43.53503" lon="3.85943">
        <ele>14.7</ele>
        <time>2019-05-31T10:17:31.000Z</time>
      </trkpt>
      <trkpt lat="43.53479" lon="3.85971">
        <ele>14.68</ele>
        <time>2019-05-31T10:17:36.000Z</time>
      </trkpt>
      <trkpt lat="43.53456" lon="3.85997">
        <ele>13.74</ele>
        <time>2019-05-31T10:17:41.000Z</time>
      </trkpt>
      <trkpt lat="43.53431" lon="3.86023">
        <ele>13.5</ele>
        <time>2019-05-31T10:17:46.000Z</time>
      </trkpt>
      <trkpt lat="43.53411" lon="3.86049">
        <ele>13.45</ele>
        <time>2019-05-31T10:17:51.000Z</time>
      </trkpt>
      <trkpt lat="43.53392" lon="3.86072">
        <ele>11.95</ele>
        <time>2019-05-31T10:17:56.000Z</time>
      </trkpt>
      <trkpt lat="43.53372" lon="3.86098">
        <ele>10.75</ele>
        <time>2019-05-31T10:18:01.000Z</time>
      </trkpt>
      <trkpt lat="43.53353" lon="3.86124">
        <ele>8.94</ele>
        <time>2019-05-31T10:18:06.000Z</time>
      </trkpt>
      <trkpt lat="43.53335" lon="3.86145">
        <ele>9.62</ele>
        <time>2019-05-31T10:18:11.000Z</time>
      </trkpt>
      <trkpt lat="43.53324" lon="3.86154">
        <ele>11.43</ele>
        <time>2019-05-31T10:18:16.000Z</time>
      </trkpt>
      <trkpt lat="43.53314" lon="3.86157">
        <ele>9.75</ele>
        <time>2019-05-31T10:18:21.000Z</time>
      </trkpt>
      <trkpt lat="43.53316" lon="3.86171">
        <ele>5.69</ele>
        <time>2019-05-31T10:22:24.000Z</time>
      </trkpt>
      <trkpt lat="43.53312" lon="3.86183">
        <ele>6.63</ele>
        <time>2019-05-31T10:22:30.000Z</time>
      </trkpt>
      <trkpt lat="43.53304" lon="3.86191">
        <ele>8.86</ele>
        <time>2019-05-31T10:22:35.000Z</time>
      </trkpt>
      <trkpt lat="43.53297" lon="3.86202">
        <ele>11.62</ele>
        <time>2019-05-31T10:22:40.000Z</time>
      </trkpt>
      <trkpt lat="43.53286" lon="3.86213">
        <ele>10.69</ele>
        <time>2019-05-31T10:22:45.000Z</time>
      </trkpt>
      <trkpt lat="43.53277" lon="3.86223">
        <ele>12.67</ele>
        <time>2019-05-31T10:22:50.000Z</time>
      </trkpt>
      <trkpt lat="43.53272" lon="3.86233">
        <ele>12.69</ele>
        <time>2019-05-31T10:22:57.000Z</time>
      </trkpt>
      <trkpt lat="43.53265" lon="3.86244">
        <ele>11.93</ele>
        <time>2019-05-31T10:23:05.000Z</time>
      </trkpt>
      <trkpt lat="43.53257" lon="3.8625">
        <ele>12.38</ele>
        <time>2019-05-31T10:23:11.000Z</time>
      </trkpt>
      <trkpt lat="43.53245" lon="3.86261">
        <ele>11.19</ele>
        <time>2019-05-31T10:23:16.000Z</time>
      </trkpt>
      <trkpt lat="43.53234" lon="3.8627">
        <ele>8.94</ele>
        <time>2019-05-31T10:23:21.000Z</time>
      </trkpt>
      <trkpt lat="43.53221" lon="3.86282">
        <ele>9.73</ele>
        <time>2019-05-31T10:23:26.000Z</time>
      </trkpt>
      <trkpt lat="43.53212" lon="3.8629">
        <ele>8.71</ele>
        <time>2019-05-31T10:23:31.000Z</time>
      </trkpt>
      <trkpt lat="43.53204" lon="3.86296">
        <ele>8.19</ele>
        <time>2019-05-31T10:23:38.000Z</time>
      </trkpt>
      <trkpt lat="43.53194" lon="3.86296">
        <ele>14.37</ele>
        <time>2019-05-31T10:23:43.000Z</time>
      </trkpt>
      <trkpt lat="43.53181" lon="3.86305">
        <ele>14.71</ele>
        <time>2019-05-31T10:23:48.000Z</time>
      </trkpt>
      <trkpt lat="43.53175" lon="3.86318">
        <ele>10.46</ele>
        <time>2019-05-31T10:23:54.000Z</time>
      </trkpt>
      <trkpt lat="43.53165" lon="3.86329">
        <ele>10.49</ele>
        <time>2019-05-31T10:23:59.000Z</time>
      </trkpt>
      <trkpt lat="43.53156" lon="3.8634">
        <ele>10.64</ele>
        <time>2019-05-31T10:24:04.000Z</time>
      </trkpt>
      <trkpt lat="43.5316" lon="3.86354">
        <ele>8.76</ele>
        <time>2019-05-31T10:24:09.000Z</time>
      </trkpt>
      <trkpt lat="43.53169" lon="3.8637">
        <ele>8.69</ele>
        <time>2019-05-31T10:24:14.000Z</time>
      </trkpt>
      <trkpt lat="43.53168" lon="3.86387">
        <ele>8.69</ele>
        <time>2019-05-31T10:24:19.000Z</time>
      </trkpt>
      <trkpt lat="43.53157" lon="3.86402">
        <ele>9.69</ele>
        <time>2019-05-31T10:24:24.000Z</time>
      </trkpt>
      <trkpt lat="43.53146" lon="3.86415">
        <ele>8.7</ele>
        <time>2019-05-31T10:24:29.000Z</time>
      </trkpt>
      <trkpt lat="43.53155" lon="3.86407">
        <ele>6.69</ele>
        <time>2019-05-31T10:24:41.000Z</time>
      </trkpt>
      <trkpt lat="43.53164" lon="3.86391">
        <ele>5.51</ele>
        <time>2019-05-31T10:24:46.000Z</time>
      </trkpt>
      <trkpt lat="43.53173" lon="3.86376">
        <ele>4.7</ele>
        <time>2019-05-31T10:24:51.000Z</time>
      </trkpt>
      <trkpt lat="43.53174" lon="3.86359">
        <ele>4.7</ele>
        <time>2019-05-31T10:24:56.000Z</time>
      </trkpt>
      <trkpt lat="43.53163" lon="3.86343">
        <ele>5.69</ele>
        <time>2019-05-31T10:25:01.000Z</time>
      </trkpt>
      <trkpt lat="43.53171" lon="3.86327">
        <ele>8.36</ele>
        <time>2019-05-31T10:25:06.000Z</time>
      </trkpt>
      <trkpt lat="43.53179" lon="3.8631">
        <ele>6.96</ele>
        <time>2019-05-31T10:25:11.000Z</time>
      </trkpt>
      <trkpt lat="43.53169" lon="3.86293">
        <ele>6.69</ele>
        <time>2019-05-31T10:25:16.000Z</time>
      </trkpt>
      <trkpt lat="43.53162" lon="3.86282">
        <ele>7.67</ele>
        <time>2019-05-31T10:25:21.000Z</time>
      </trkpt>
      <trkpt lat="43.53157" lon="3.86271">
        <ele>7.63</ele>
        <time>2019-05-31T10:25:26.000Z</time>
      </trkpt>
      <trkpt lat="43.53149" lon="3.86255">
        <ele>7.63</ele>
        <time>2019-05-31T10:25:31.000Z</time>
      </trkpt>
      <trkpt lat="43.53144" lon="3.86235">
        <ele>5.71</ele>
        <time>2019-05-31T10:25:36.000Z</time>
      </trkpt>
      <trkpt lat="43.53138" lon="3.86212">
        <ele>5.69</ele>
        <time>2019-05-31T10:25:41.000Z</time>
      </trkpt>
      <trkpt lat="43.53134" lon="3.86199">
        <ele>5.68</ele>
        <time>2019-05-31T10:25:47.000Z</time>
      </trkpt>
      <trkpt lat="43.53132" lon="3.86186">
        <ele>5.69</ele>
        <time>2019-05-31T10:25:52.000Z</time>
      </trkpt>
      <trkpt lat="43.53127" lon="3.86171">
        <ele>4.69</ele>
        <time>2019-05-31T10:25:57.000Z</time>
      </trkpt>
      <trkpt lat="43.53124" lon="3.86159">
        <ele>4.44</ele>
        <time>2019-05-31T10:26:03.000Z</time>
      </trkpt>
      <trkpt lat="43.5312" lon="3.86147">
        <ele>5.62</ele>
        <time>2019-05-31T10:26:23.000Z</time>
      </trkpt>
      <trkpt lat="43.53112" lon="3.86124">
        <ele>5.69</ele>
        <time>2019-05-31T10:26:28.000Z</time>
      </trkpt>
      <trkpt lat="43.53105" lon="3.86099">
        <ele>5.88</ele>
        <time>2019-05-31T10:26:33.000Z</time>
      </trkpt>
      <trkpt lat="43.53099" lon="3.86072">
        <ele>4.69</ele>
        <time>2019-05-31T10:26:38.000Z</time>
      </trkpt>
      <trkpt lat="43.53095" lon="3.86044">
        <ele>4.68</ele>
        <time>2019-05-31T10:26:43.000Z</time>
      </trkpt>
      <trkpt lat="43.53089" lon="3.86016">
        <ele>4.69</ele>
        <time>2019-05-31T10:26:48.000Z</time>
      </trkpt>
      <trkpt lat="43.53083" lon="3.85989">
        <ele>5.67</ele>
        <time>2019-05-31T10:26:53.000Z</time>
      </trkpt>
      <trkpt lat="43.53078" lon="3.85962">
        <ele>5.69</ele>
        <time>2019-05-31T10:26:58.000Z</time>
      </trkpt>
      <trkpt lat="43.53074" lon="3.85973">
        <ele>6.76</ele>
        <time>2019-05-31T10:27:06.000Z</time>
      </trkpt>
      <trkpt lat="43.53084" lon="3.8601">
        <ele>6.69</ele>
        <time>2019-05-31T10:27:11.000Z</time>
      </trkpt>
      <trkpt lat="43.5309" lon="3.86042">
        <ele>4.77</ele>
        <time>2019-05-31T10:27:16.000Z</time>
      </trkpt>
      <trkpt lat="43.53097" lon="3.86073">
        <ele>4.46</ele>
        <time>2019-05-31T10:27:21.000Z</time>
      </trkpt>
      <trkpt lat="43.53105" lon="3.86099">
        <ele>2.94</ele>
        <time>2019-05-31T10:27:26.000Z</time>
      </trkpt>
      <trkpt lat="43.53111" lon="3.86117">
        <ele>5.61</ele>
        <time>2019-05-31T10:27:31.000Z</time>
      </trkpt>
      <trkpt lat="43.53116" lon="3.86136">
        <ele>4.94</ele>
        <time>2019-05-31T10:27:36.000Z</time>
      </trkpt>
      <trkpt lat="43.53121" lon="3.86156">
        <ele>6.67</ele>
        <time>2019-05-31T10:27:41.000Z</time>
      </trkpt>
      <trkpt lat="43.53125" lon="3.86172">
        <ele>7.5</ele>
        <time>2019-05-31T10:27:46.000Z</time>
      </trkpt>
      <trkpt lat="43.53131" lon="3.86187">
        <ele>6.69</ele>
        <time>2019-05-31T10:27:51.000Z</time>
      </trkpt>
      <trkpt lat="43.53136" lon="3.862">
        <ele>6.44</ele>
        <time>2019-05-31T10:27:56.000Z</time>
      </trkpt>
      <trkpt lat="43.53141" lon="3.86219">
        <ele>5.52</ele>
        <time>2019-05-31T10:28:01.000Z</time>
      </trkpt>
      <trkpt lat="43.53147" lon="3.86238">
        <ele>4.69</ele>
        <time>2019-05-31T10:28:06.000Z</time>
      </trkpt>
      <trkpt lat="43.53152" lon="3.86258">
        <ele>5.69</ele>
        <time>2019-05-31T10:28:11.000Z</time>
      </trkpt>
      <trkpt lat="43.53161" lon="3.86272">
        <ele>6.69</ele>
        <time>2019-05-31T10:28:16.000Z</time>
      </trkpt>
      <trkpt lat="43.53166" lon="3.86285">
        <ele>4.69</ele>
        <time>2019-05-31T10:28:23.000Z</time>
      </trkpt>
      <trkpt lat="43.53173" lon="3.86305">
        <ele>6.57</ele>
        <time>2019-05-31T10:28:28.000Z</time>
      </trkpt>
      <trkpt lat="43.53182" lon="3.86314">
        <ele>5.69</ele>
        <time>2019-05-31T10:28:33.000Z</time>
      </trkpt>
      <trkpt lat="43.53196" lon="3.86303">
        <ele>7.63</ele>
        <time>2019-05-31T10:28:38.000Z</time>
      </trkpt>
      <trkpt lat="43.53207" lon="3.86296">
        <ele>7.7</ele>
        <time>2019-05-31T10:28:43.000Z</time>
      </trkpt>
      <trkpt lat="43.53217" lon="3.86289">
        <ele>7.69</ele>
        <time>2019-05-31T10:28:48.000Z</time>
      </trkpt>
      <trkpt lat="43.53229" lon="3.8628">
        <ele>6.69</ele>
        <time>2019-05-31T10:28:53.000Z</time>
      </trkpt>
      <trkpt lat="43.5324" lon="3.86273">
        <ele>8.62</ele>
        <time>2019-05-31T10:28:58.000Z</time>
      </trkpt>
      <trkpt lat="43.53249" lon="3.86264">
        <ele>8.66</ele>
        <time>2019-05-31T10:29:03.000Z</time>
      </trkpt>
      <trkpt lat="43.53259" lon="3.86255">
        <ele>8.45</ele>
        <time>2019-05-31T10:29:08.000Z</time>
      </trkpt>
      <trkpt lat="43.53269" lon="3.86243">
        <ele>6.69</ele>
        <time>2019-05-31T10:29:13.000Z</time>
      </trkpt>
      <trkpt lat="43.53276" lon="3.86233">
        <ele>6.92</ele>
        <time>2019-05-31T10:29:18.000Z</time>
      </trkpt>
      <trkpt lat="43.53287" lon="3.8622">
        <ele>7.67</ele>
        <time>2019-05-31T10:29:23.000Z</time>
      </trkpt>
      <trkpt lat="43.53296" lon="3.86205">
        <ele>8.44</ele>
        <time>2019-05-31T10:29:28.000Z</time>
      </trkpt>
      <trkpt lat="43.53303" lon="3.86196">
        <ele>9.81</ele>
        <time>2019-05-31T10:29:34.000Z</time>
      </trkpt>
      <trkpt lat="43.53311" lon="3.86183">
        <ele>7.62</ele>
        <time>2019-05-31T10:29:43.000Z</time>
      </trkpt>
      <trkpt lat="43.53315" lon="3.86172">
        <ele>12.69</ele>
        <time>2019-05-31T10:34:45.000Z</time>
      </trkpt>
      <trkpt lat="43.53312" lon="3.86159">
        <ele>9.98</ele>
        <time>2019-05-31T10:34:52.000Z</time>
      </trkpt>
      <trkpt lat="43.5332" lon="3.86153">
        <ele>9.69</ele>
        <time>2019-05-31T10:35:16.000Z</time>
      </trkpt>
      <trkpt lat="43.53318" lon="3.86133">
        <ele>8.93</ele>
        <time>2019-05-31T10:35:21.000Z</time>
      </trkpt>
      <trkpt lat="43.53308" lon="3.86107">
        <ele>7.69</ele>
        <time>2019-05-31T10:35:26.000Z</time>
      </trkpt>
      <trkpt lat="43.53296" lon="3.86081">
        <ele>5.01</ele>
        <time>2019-05-31T10:35:31.000Z</time>
      </trkpt>
      <trkpt lat="43.53281" lon="3.86077">
        <ele>3.69</ele>
        <time>2019-05-31T10:35:36.000Z</time>
      </trkpt>
      <trkpt lat="43.53273" lon="3.86085">
        <ele>7.94</ele>
        <time>2019-05-31T10:38:54.000Z</time>
      </trkpt>
      <trkpt lat="43.5325" lon="3.86098">
        <ele>8.45</ele>
        <time>2019-05-31T10:38:59.000Z</time>
      </trkpt>
      <trkpt lat="43.53232" lon="3.86109">
        <ele>7.88</ele>
        <time>2019-05-31T10:39:04.000Z</time>
      </trkpt>
      <trkpt lat="43.53213" lon="3.86118">
        <ele>8.38</ele>
        <time>2019-05-31T10:39:09.000Z</time>
      </trkpt>
      <trkpt lat="43.53196" lon="3.86123">
        <ele>10.63</ele>
        <time>2019-05-31T10:39:14.000Z</time>
      </trkpt>
      <trkpt lat="43.53175" lon="3.86136">
        <ele>9.75</ele>
        <time>2019-05-31T10:39:19.000Z</time>
      </trkpt>
      <trkpt lat="43.53151" lon="3.86153">
        <ele>9.7</ele>
        <time>2019-05-31T10:39:24.000Z</time>
      </trkpt>
      <trkpt lat="43.5313" lon="3.86169">
        <ele>8.98</ele>
        <time>2019-05-31T10:39:29.000Z</time>
      </trkpt>
      <trkpt lat="43.5313" lon="3.86187">
        <ele>6.67</ele>
        <time>2019-05-31T10:39:34.000Z</time>
      </trkpt>
      <trkpt lat="43.53137" lon="3.86196">
        <ele>7.81</ele>
        <time>2019-05-31T10:39:51.000Z</time>
      </trkpt>
      <trkpt lat="43.53143" lon="3.86212">
        <ele>7.69</ele>
        <time>2019-05-31T10:39:56.000Z</time>
      </trkpt>
      <trkpt lat="43.53149" lon="3.86235">
        <ele>5.94</ele>
        <time>2019-05-31T10:40:01.000Z</time>
      </trkpt>
      <trkpt lat="43.53153" lon="3.86258">
        <ele>5.69</ele>
        <time>2019-05-31T10:40:06.000Z</time>
      </trkpt>
      <trkpt lat="43.53159" lon="3.86274">
        <ele>6.44</ele>
        <time>2019-05-31T10:40:11.000Z</time>
      </trkpt>
      <trkpt lat="43.53167" lon="3.86284">
        <ele>5.64</ele>
        <time>2019-05-31T10:40:19.000Z</time>
      </trkpt>
      <trkpt lat="43.53158" lon="3.86293">
        <ele>6.69</ele>
        <time>2019-05-31T10:40:25.000Z</time>
      </trkpt>
      <trkpt lat="43.5314" lon="3.86302">
        <ele>6.88</ele>
        <time>2019-05-31T10:40:30.000Z</time>
      </trkpt>
      <trkpt lat="43.53121" lon="3.86309">
        <ele>4.63</ele>
        <time>2019-05-31T10:40:35.000Z</time>
      </trkpt>
      <trkpt lat="43.53103" lon="3.86316">
        <ele>3.74</ele>
        <time>2019-05-31T10:40:40.000Z</time>
      </trkpt>
      <trkpt lat="43.53086" lon="3.86325">
        <ele>6.86</ele>
        <time>2019-05-31T10:40:45.000Z</time>
      </trkpt>
      <trkpt lat="43.5307" lon="3.86332">
        <ele>5.93</ele>
        <time>2019-05-31T10:40:50.000Z</time>
      </trkpt>
      <trkpt lat="43.5306" lon="3.86333">
        <ele>4.63</ele>
        <time>2019-05-31T10:41:15.000Z</time>
      </trkpt>
      <trkpt lat="43.53063" lon="3.86345">
        <ele>4.69</ele>
        <time>2019-05-31T10:41:20.000Z</time>
      </trkpt>
      <trkpt lat="43.53078" lon="3.86363">
        <ele>4.69</ele>
        <time>2019-05-31T10:41:25.000Z</time>
      </trkpt>
      <trkpt lat="43.53095" lon="3.86382">
        <ele>3.75</ele>
        <time>2019-05-31T10:41:30.000Z</time>
      </trkpt>
      <trkpt lat="43.53108" lon="3.864">
        <ele>3.75</ele>
        <time>2019-05-31T10:41:35.000Z</time>
      </trkpt>
      <trkpt lat="43.53124" lon="3.86424">
        <ele>2.94</ele>
        <time>2019-05-31T10:41:40.000Z</time>
      </trkpt>
      <trkpt lat="43.53124" lon="3.86442">
        <ele>3.69</ele>
        <time>2019-05-31T10:41:45.000Z</time>
      </trkpt>
      <trkpt lat="43.53112" lon="3.86458">
        <ele>4.68</ele>
        <time>2019-05-31T10:41:50.000Z</time>
      </trkpt>
      <trkpt lat="43.53096" lon="3.86472">
        <ele>4.7</ele>
        <time>2019-05-31T10:41:55.000Z</time>
      </trkpt>
      <trkpt lat="43.53089" lon="3.86493">
        <ele>3.93</ele>
        <time>2019-05-31T10:42:00.000Z</time>
      </trkpt>
      <trkpt lat="43.53102" lon="3.86514">
        <ele>4.69</ele>
        <time>2019-05-31T10:42:05.000Z</time>
      </trkpt>
      <trkpt lat="43.53116" lon="3.86535">
        <ele>3.7</ele>
        <time>2019-05-31T10:42:10.000Z</time>
      </trkpt>
      <trkpt lat="43.53127" lon="3.86554">
        <ele>3.69</ele>
        <time>2019-05-31T10:42:15.000Z</time>
      </trkpt>
      <trkpt lat="43.53123" lon="3.8654">
        <ele>3.69</ele>
        <time>2019-05-31T10:42:24.000Z</time>
      </trkpt>
      <trkpt lat="43.53109" lon="3.86518">
        <ele>3.65</ele>
        <time>2019-05-31T10:42:29.000Z</time>
      </trkpt>
      <trkpt lat="43.53097" lon="3.86498">
        <ele>3.69</ele>
        <time>2019-05-31T10:42:34.000Z</time>
      </trkpt>
      <trkpt lat="43.53091" lon="3.86477">
        <ele>3.63</ele>
        <time>2019-05-31T10:42:39.000Z</time>
      </trkpt>
      <trkpt lat="43.53106" lon="3.86459">
        <ele>3.45</ele>
        <time>2019-05-31T10:42:44.000Z</time>
      </trkpt>
      <trkpt lat="43.53121" lon="3.86446">
        <ele>5.86</ele>
        <time>2019-05-31T10:42:49.000Z</time>
      </trkpt>
      <trkpt lat="43.53129" lon="3.86434">
        <ele>6.69</ele>
        <time>2019-05-31T10:42:54.000Z</time>
      </trkpt>
      <trkpt lat="43.53129" lon="3.8642">
        <ele>4.75</ele>
        <time>2019-05-31T10:43:02.000Z</time>
      </trkpt>
      <trkpt lat="43.53118" lon="3.86402">
        <ele>3.71</ele>
        <time>2019-05-31T10:43:07.000Z</time>
      </trkpt>
      <trkpt lat="43.53107" lon="3.86386">
        <ele>3.69</ele>
        <time>2019-05-31T10:43:12.000Z</time>
      </trkpt>
      <trkpt lat="43.53094" lon="3.86375">
        <ele>3.63</ele>
        <time>2019-05-31T10:43:17.000Z</time>
      </trkpt>
      <trkpt lat="43.53082" lon="3.86362">
        <ele>3.63</ele>
        <time>2019-05-31T10:43:22.000Z</time>
      </trkpt>
      <trkpt lat="43.5307" lon="3.86347">
        <ele>2.75</ele>
        <time>2019-05-31T10:43:27.000Z</time>
      </trkpt>
      <trkpt lat="43.5306" lon="3.86333">
        <ele>2.7</ele>
        <time>2019-05-31T10:43:32.000Z</time>
      </trkpt>
      <trkpt lat="43.53055" lon="3.86343">
        <ele>3.94</ele>
        <time>2019-05-31T10:43:55.000Z</time>
      </trkpt>
      <trkpt lat="43.53039" lon="3.86361">
        <ele>2.71</ele>
        <time>2019-05-31T10:44:00.000Z</time>
      </trkpt>
      <trkpt lat="43.53023" lon="3.86379">
        <ele>4.63</ele>
        <time>2019-05-31T10:44:05.000Z</time>
      </trkpt>
      <trkpt lat="43.53006" lon="3.86397">
        <ele>3.94</ele>
        <time>2019-05-31T10:44:10.000Z</time>
      </trkpt>
      <trkpt lat="43.52988" lon="3.86414">
        <ele>4.89</ele>
        <time>2019-05-31T10:44:15.000Z</time>
      </trkpt>
      <trkpt lat="43.52974" lon="3.86432">
        <ele>4.69</ele>
        <time>2019-05-31T10:44:20.000Z</time>
      </trkpt>
      <trkpt lat="43.52961" lon="3.8645">
        <ele>5.43</ele>
        <time>2019-05-31T10:44:25.000Z</time>
      </trkpt>
      <trkpt lat="43.52945" lon="3.86467">
        <ele>7.68</ele>
        <time>2019-05-31T10:44:30.000Z</time>
      </trkpt>
      <trkpt lat="43.52929" lon="3.86487">
        <ele>6.76</ele>
        <time>2019-05-31T10:44:35.000Z</time>
      </trkpt>
      <trkpt lat="43.52912" lon="3.86504">
        <ele>6.46</ele>
        <time>2019-05-31T10:44:40.000Z</time>
      </trkpt>
      <trkpt lat="43.52895" lon="3.86524">
        <ele>6.68</ele>
        <time>2019-05-31T10:44:45.000Z</time>
      </trkpt>
      <trkpt lat="43.52877" lon="3.86545">
        <ele>4.76</ele>
        <time>2019-05-31T10:44:50.000Z</time>
      </trkpt>
      <trkpt lat="43.52859" lon="3.86568">
        <ele>5.68</ele>
        <time>2019-05-31T10:44:55.000Z</time>
      </trkpt>
      <trkpt lat="43.5284" lon="3.86591">
        <ele>5.7</ele>
        <time>2019-05-31T10:45:00.000Z</time>
      </trkpt>
      <trkpt lat="43.52825" lon="3.86615">
        <ele>3.72</ele>
        <time>2019-05-31T10:45:05.000Z</time>
      </trkpt>
      <trkpt lat="43.52806" lon="3.8664">
        <ele>3.7</ele>
        <time>2019-05-31T10:45:10.000Z</time>
      </trkpt>
      <trkpt lat="43.52788" lon="3.86664">
        <ele>4.88</ele>
        <time>2019-05-31T10:45:15.000Z</time>
      </trkpt>
      <trkpt lat="43.52768" lon="3.86686">
        <ele>5.45</ele>
        <time>2019-05-31T10:45:20.000Z</time>
      </trkpt>
      <trkpt lat="43.52748" lon="3.86711">
        <ele>3.95</ele>
        <time>2019-05-31T10:45:25.000Z</time>
      </trkpt>
      <trkpt lat="43.52728" lon="3.86736">
        <ele>3.94</ele>
        <time>2019-05-31T10:45:30.000Z</time>
      </trkpt>
      <trkpt lat="43.52707" lon="3.86759">
        <ele>3.7</ele>
        <time>2019-05-31T10:45:35.000Z</time>
      </trkpt>
      <trkpt lat="43.52685" lon="3.86781">
        <ele>3.7</ele>
        <time>2019-05-31T10:45:40.000Z</time>
      </trkpt>
      <trkpt lat="43.52663" lon="3.86805">
        <ele>3.65</ele>
        <time>2019-05-31T10:45:45.000Z</time>
      </trkpt>
      <trkpt lat="43.52643" lon="3.86828">
        <ele>3.65</ele>
        <time>2019-05-31T10:45:50.000Z</time>
      </trkpt>
      <trkpt lat="43.52622" lon="3.86852">
        <ele>3.7</ele>
        <time>2019-05-31T10:45:55.000Z</time>
      </trkpt>
      <trkpt lat="43.52603" lon="3.86874">
        <ele>3.51</ele>
        <time>2019-05-31T10:46:00.000Z</time>
      </trkpt>
      <trkpt lat="43.52583" lon="3.86898">
        <ele>3.7</ele>
        <time>2019-05-31T10:46:05.000Z</time>
      </trkpt>
      <trkpt lat="43.52563" lon="3.86922">
        <ele>3.7</ele>
        <time>2019-05-31T10:46:10.000Z</time>
      </trkpt>
      <trkpt lat="43.52543" lon="3.86945">
        <ele>3.7</ele>
        <time>2019-05-31T10:46:15.000Z</time>
      </trkpt>
      <trkpt lat="43.52524" lon="3.86969">
        <ele>3.7</ele>
        <time>2019-05-31T10:46:20.000Z</time>
      </trkpt>
      <trkpt lat="43.52504" lon="3.86997">
        <ele>2.89</ele>
        <time>2019-05-31T10:46:25.000Z</time>
      </trkpt>
      <trkpt lat="43.52483" lon="3.87025">
        <ele>3.66</ele>
        <time>2019-05-31T10:46:30.000Z</time>
      </trkpt>
      <trkpt lat="43.52461" lon="3.87054">
        <ele>1.96</ele>
        <time>2019-05-31T10:46:35.000Z</time>
      </trkpt>
      <trkpt lat="43.5244" lon="3.87082">
        <ele>2.7</ele>
        <time>2019-05-31T10:46:40.000Z</time>
      </trkpt>
      <trkpt lat="43.5242" lon="3.87111">
        <ele>2.7</ele>
        <time>2019-05-31T10:46:45.000Z</time>
      </trkpt>
      <trkpt lat="43.52401" lon="3.87137">
        <ele>1.96</ele>
        <time>2019-05-31T10:46:50.000Z</time>
      </trkpt>
      <trkpt lat="43.52385" lon="3.87166">
        <ele>0.77</ele>
        <time>2019-05-31T10:46:55.000Z</time>
      </trkpt>
      <trkpt lat="43.52369" lon="3.87196">
        <ele>2</ele>
        <time>2019-05-31T10:47:00.000Z</time>
      </trkpt>
      <trkpt lat="43.52355" lon="3.87224">
        <ele>2</ele>
        <time>2019-05-31T10:47:05.000Z</time>
      </trkpt>
      <trkpt lat="43.52347" lon="3.87247">
        <ele>0.64</ele>
        <time>2019-05-31T10:47:10.000Z</time>
      </trkpt>
      <trkpt lat="43.52351" lon="3.87266">
        <ele>2</ele>
        <time>2019-05-31T10:47:15.000Z</time>
      </trkpt>
      <trkpt lat="43.52348" lon="3.87283">
        <ele>3.38</ele>
        <time>2019-05-31T10:48:53.000Z</time>
      </trkpt>
      <trkpt lat="43.52359" lon="3.8727">
        <ele>1.28</ele>
        <time>2019-05-31T10:48:58.000Z</time>
      </trkpt>
      <trkpt lat="43.52392" lon="3.87289">
        <ele>2</ele>
        <time>2019-05-31T10:49:05.000Z</time>
      </trkpt>
      <trkpt lat="43.52363" lon="3.87278">
        <ele>2</ele>
        <time>2019-05-31T10:49:10.000Z</time>
      </trkpt>
      <trkpt lat="43.52357" lon="3.87267">
        <ele>0.89</ele>
        <time>2019-05-31T10:50:30.000Z</time>
      </trkpt>
      <trkpt lat="43.52347" lon="3.87269">
        <ele>2</ele>
        <time>2019-05-31T11:52:36.000Z</time>
      </trkpt>
      <trkpt lat="43.52347" lon="3.87252">
        <ele>4.71</ele>
        <time>2019-05-31T11:52:58.000Z</time>
      </trkpt>
      <trkpt lat="43.52351" lon="3.87263">
        <ele>2</ele>
        <time>2019-05-31T11:53:15.000Z</time>
      </trkpt>
      <trkpt lat="43.52353" lon="3.87277">
        <ele>4.69</ele>
        <time>2019-05-31T11:58:48.000Z</time>
      </trkpt>
      <trkpt lat="43.52344" lon="3.87285">
        <ele>4.71</ele>
        <time>2019-05-31T11:58:53.000Z</time>
      </trkpt>
      <trkpt lat="43.52333" lon="3.87294">
        <ele>3.96</ele>
        <time>2019-05-31T11:58:58.000Z</time>
      </trkpt>
      <trkpt lat="43.52326" lon="3.87316">
        <ele>3.71</ele>
        <time>2019-05-31T11:59:03.000Z</time>
      </trkpt>
      <trkpt lat="43.52318" lon="3.87342">
        <ele>2.96</ele>
        <time>2019-05-31T11:59:08.000Z</time>
      </trkpt>
      <trkpt lat="43.5231" lon="3.87369">
        <ele>2.71</ele>
        <time>2019-05-31T11:59:13.000Z</time>
      </trkpt>
      <trkpt lat="43.52299" lon="3.87391">
        <ele>1.96</ele>
        <time>2019-05-31T11:59:18.000Z</time>
      </trkpt>
      <trkpt lat="43.52284" lon="3.87411">
        <ele>0.72</ele>
        <time>2019-05-31T11:59:23.000Z</time>
      </trkpt>
      <trkpt lat="43.52269" lon="3.87428">
        <ele>1</ele>
        <time>2019-05-31T11:59:28.000Z</time>
      </trkpt>
      <trkpt lat="43.52255" lon="3.87442">
        <ele>1</ele>
        <time>2019-05-31T11:59:33.000Z</time>
      </trkpt>
      <trkpt lat="43.5224" lon="3.87456">
        <ele>0.7</ele>
        <time>2019-05-31T11:59:38.000Z</time>
      </trkpt>
      <trkpt lat="43.52226" lon="3.87472">
        <ele>1.69</ele>
        <time>2019-05-31T11:59:43.000Z</time>
      </trkpt>
      <trkpt lat="43.52211" lon="3.87489">
        <ele>3.44</ele>
        <time>2019-05-31T11:59:48.000Z</time>
      </trkpt>
      <trkpt lat="43.52197" lon="3.87505">
        <ele>3.64</ele>
        <time>2019-05-31T11:59:53.000Z</time>
      </trkpt>
      <trkpt lat="43.52181" lon="3.87519">
        <ele>3.52</ele>
        <time>2019-05-31T11:59:58.000Z</time>
      </trkpt>
      <trkpt lat="43.52166" lon="3.87534">
        <ele>3.77</ele>
        <time>2019-05-31T12:00:03.000Z</time>
      </trkpt>
      <trkpt lat="43.52152" lon="3.87549">
        <ele>3.71</ele>
        <time>2019-05-31T12:00:08.000Z</time>
      </trkpt>
      <trkpt lat="43.52137" lon="3.87564">
        <ele>4.7</ele>
        <time>2019-05-31T12:00:13.000Z</time>
      </trkpt>
      <trkpt lat="43.52123" lon="3.87579">
        <ele>3.71</ele>
        <time>2019-05-31T12:00:18.000Z</time>
      </trkpt>
      <trkpt lat="43.52107" lon="3.87596">
        <ele>2.96</ele>
        <time>2019-05-31T12:00:23.000Z</time>
      </trkpt>
      <trkpt lat="43.5209" lon="3.87613">
        <ele>2.71</ele>
        <time>2019-05-31T12:00:28.000Z</time>
      </trkpt>
      <trkpt lat="43.52073" lon="3.87631">
        <ele>2.71</ele>
        <time>2019-05-31T12:00:33.000Z</time>
      </trkpt>
      <trkpt lat="43.52056" lon="3.8765">
        <ele>2.7</ele>
        <time>2019-05-31T12:00:38.000Z</time>
      </trkpt>
      <trkpt lat="43.52039" lon="3.87667">
        <ele>2.71</ele>
        <time>2019-05-31T12:00:43.000Z</time>
      </trkpt>
      <trkpt lat="43.52023" lon="3.87684">
        <ele>1.72</ele>
        <time>2019-05-31T12:00:48.000Z</time>
      </trkpt>
      <trkpt lat="43.52008" lon="3.877">
        <ele>3.4</ele>
        <time>2019-05-31T12:00:53.000Z</time>
      </trkpt>
      <trkpt lat="43.51993" lon="3.87717">
        <ele>3.71</ele>
        <time>2019-05-31T12:00:58.000Z</time>
      </trkpt>
      <trkpt lat="43.5198" lon="3.87731">
        <ele>2.71</ele>
        <time>2019-05-31T12:01:03.000Z</time>
      </trkpt>
      <trkpt lat="43.51963" lon="3.87747">
        <ele>1.95</ele>
        <time>2019-05-31T12:01:08.000Z</time>
      </trkpt>
      <trkpt lat="43.51944" lon="3.87767">
        <ele>2.66</ele>
        <time>2019-05-31T12:01:13.000Z</time>
      </trkpt>
      <trkpt lat="43.51928" lon="3.87784">
        <ele>1.72</ele>
        <time>2019-05-31T12:01:18.000Z</time>
      </trkpt>
      <trkpt lat="43.51912" lon="3.87801">
        <ele>1.71</ele>
        <time>2019-05-31T12:01:23.000Z</time>
      </trkpt>
      <trkpt lat="43.51895" lon="3.87818">
        <ele>1.72</ele>
        <time>2019-05-31T12:01:28.000Z</time>
      </trkpt>
      <trkpt lat="43.51879" lon="3.87835">
        <ele>1.72</ele>
        <time>2019-05-31T12:01:33.000Z</time>
      </trkpt>
      <trkpt lat="43.51863" lon="3.87851">
        <ele>1</ele>
        <time>2019-05-31T12:01:38.000Z</time>
      </trkpt>
      <trkpt lat="43.51846" lon="3.87869">
        <ele>0.76</ele>
        <time>2019-05-31T12:01:43.000Z</time>
      </trkpt>
      <trkpt lat="43.51831" lon="3.87885">
        <ele>0.7</ele>
        <time>2019-05-31T12:01:48.000Z</time>
      </trkpt>
      <trkpt lat="43.51816" lon="3.87901">
        <ele>0.72</ele>
        <time>2019-05-31T12:01:53.000Z</time>
      </trkpt>
      <trkpt lat="43.51801" lon="3.87918">
        <ele>1</ele>
        <time>2019-05-31T12:01:58.000Z</time>
      </trkpt>
      <trkpt lat="43.51786" lon="3.87937">
        <ele>1</ele>
        <time>2019-05-31T12:02:03.000Z</time>
      </trkpt>
      <trkpt lat="43.51773" lon="3.87957">
        <ele>1</ele>
        <time>2019-05-31T12:02:08.000Z</time>
      </trkpt>
      <trkpt lat="43.5176" lon="3.87978">
        <ele>1</ele>
        <time>2019-05-31T12:02:13.000Z</time>
      </trkpt>
      <trkpt lat="43.51748" lon="3.87997">
        <ele>1</ele>
        <time>2019-05-31T12:02:18.000Z</time>
      </trkpt>
      <trkpt lat="43.51737" lon="3.88015">
        <ele>0.7</ele>
        <time>2019-05-31T12:02:23.000Z</time>
      </trkpt>
      <trkpt lat="43.51729" lon="3.8803">
        <ele>2.45</ele>
        <time>2019-05-31T12:02:28.000Z</time>
      </trkpt>
      <trkpt lat="43.51725" lon="3.88043">
        <ele>2.49</ele>
        <time>2019-05-31T12:02:53.000Z</time>
      </trkpt>
      <trkpt lat="43.51715" lon="3.88048">
        <ele>1.72</ele>
        <time>2019-05-31T12:03:00.000Z</time>
      </trkpt>
      <trkpt lat="43.51707" lon="3.88054">
        <ele>1</ele>
        <time>2019-05-31T12:03:06.000Z</time>
      </trkpt>
      <trkpt lat="43.51698" lon="3.8806">
        <ele>1</ele>
        <time>2019-05-31T12:03:13.000Z</time>
      </trkpt>
      <trkpt lat="43.5169" lon="3.88067">
        <ele>1</ele>
        <time>2019-05-31T12:03:19.000Z</time>
      </trkpt>
      <trkpt lat="43.51682" lon="3.88076">
        <ele>1</ele>
        <time>2019-05-31T12:03:26.000Z</time>
      </trkpt>
      <trkpt lat="43.51674" lon="3.8808">
        <ele>1</ele>
        <time>2019-05-31T12:03:32.000Z</time>
      </trkpt>
      <trkpt lat="43.51665" lon="3.88074">
        <ele>3.47</ele>
        <time>2019-05-31T12:05:16.000Z</time>
      </trkpt>
      <trkpt lat="43.51662" lon="3.88059">
        <ele>3.72</ele>
        <time>2019-05-31T12:05:21.000Z</time>
      </trkpt>
      <trkpt lat="43.51656" lon="3.88043">
        <ele>4.47</ele>
        <time>2019-05-31T12:05:26.000Z</time>
      </trkpt>
      <trkpt lat="43.51647" lon="3.88027">
        <ele>4.72</ele>
        <time>2019-05-31T12:05:31.000Z</time>
      </trkpt>
      <trkpt lat="43.51638" lon="3.88012">
        <ele>3.97</ele>
        <time>2019-05-31T12:05:36.000Z</time>
      </trkpt>
      <trkpt lat="43.51634" lon="3.87999">
        <ele>6.61</ele>
        <time>2019-05-31T12:06:23.000Z</time>
      </trkpt>
      <trkpt lat="43.51626" lon="3.87985">
        <ele>5.53</ele>
        <time>2019-05-31T12:06:28.000Z</time>
      </trkpt>
      <trkpt lat="43.51619" lon="3.87971">
        <ele>4.92</ele>
        <time>2019-05-31T12:06:33.000Z</time>
      </trkpt>
      <trkpt lat="43.51608" lon="3.87957">
        <ele>2.97</ele>
        <time>2019-05-31T12:06:38.000Z</time>
      </trkpt>
      <trkpt lat="43.51598" lon="3.87941">
        <ele>2.97</ele>
        <time>2019-05-31T12:06:43.000Z</time>
      </trkpt>
      <trkpt lat="43.51587" lon="3.87924">
        <ele>2.72</ele>
        <time>2019-05-31T12:06:48.000Z</time>
      </trkpt>
      <trkpt lat="43.51573" lon="3.87904">
        <ele>1.72</ele>
        <time>2019-05-31T12:06:53.000Z</time>
      </trkpt>
      <trkpt lat="43.51558" lon="3.87885">
        <ele>1.53</ele>
        <time>2019-05-31T12:06:58.000Z</time>
      </trkpt>
      <trkpt lat="43.51548" lon="3.87865">
        <ele>2.7</ele>
        <time>2019-05-31T12:07:03.000Z</time>
      </trkpt>
      <trkpt lat="43.51537" lon="3.8785">
        <ele>2.77</ele>
        <time>2019-05-31T12:07:08.000Z</time>
      </trkpt>
      <trkpt lat="43.51524" lon="3.87834">
        <ele>2.72</ele>
        <time>2019-05-31T12:07:13.000Z</time>
      </trkpt>
      <trkpt lat="43.5151" lon="3.87815">
        <ele>2.72</ele>
        <time>2019-05-31T12:07:18.000Z</time>
      </trkpt>
      <trkpt lat="43.51495" lon="3.87796">
        <ele>2.72</ele>
        <time>2019-05-31T12:07:23.000Z</time>
      </trkpt>
      <trkpt lat="43.5148" lon="3.87777">
        <ele>1.72</ele>
        <time>2019-05-31T12:07:28.000Z</time>
      </trkpt>
      <trkpt lat="43.51464" lon="3.87757">
        <ele>2.47</ele>
        <time>2019-05-31T12:07:33.000Z</time>
      </trkpt>
      <trkpt lat="43.51449" lon="3.87736">
        <ele>1.72</ele>
        <time>2019-05-31T12:07:38.000Z</time>
      </trkpt>
      <trkpt lat="43.51434" lon="3.87715">
        <ele>2.72</ele>
        <time>2019-05-31T12:07:43.000Z</time>
      </trkpt>
      <trkpt lat="43.51419" lon="3.87694">
        <ele>3.66</ele>
        <time>2019-05-31T12:07:48.000Z</time>
      </trkpt>
      <trkpt lat="43.51403" lon="3.87675">
        <ele>2.78</ele>
        <time>2019-05-31T12:07:53.000Z</time>
      </trkpt>
      <trkpt lat="43.51387" lon="3.87655">
        <ele>2.72</ele>
        <time>2019-05-31T12:07:58.000Z</time>
      </trkpt>
      <trkpt lat="43.51372" lon="3.87637">
        <ele>2.96</ele>
        <time>2019-05-31T12:08:03.000Z</time>
      </trkpt>
      <trkpt lat="43.51357" lon="3.87618">
        <ele>1.97</ele>
        <time>2019-05-31T12:08:08.000Z</time>
      </trkpt>
      <trkpt lat="43.51342" lon="3.87599">
        <ele>1.72</ele>
        <time>2019-05-31T12:08:13.000Z</time>
      </trkpt>
      <trkpt lat="43.51327" lon="3.87578">
        <ele>1.72</ele>
        <time>2019-05-31T12:08:18.000Z</time>
      </trkpt>
      <trkpt lat="43.51313" lon="3.87558">
        <ele>1.72</ele>
        <time>2019-05-31T12:08:23.000Z</time>
      </trkpt>
      <trkpt lat="43.51298" lon="3.87537">
        <ele>0.97</ele>
        <time>2019-05-31T12:08:28.000Z</time>
      </trkpt>
      <trkpt lat="43.51284" lon="3.87521">
        <ele>0.91</ele>
        <time>2019-05-31T12:08:33.000Z</time>
      </trkpt>
      <trkpt lat="43.5127" lon="3.87502">
        <ele>2.47</ele>
        <time>2019-05-31T12:08:38.000Z</time>
      </trkpt>
      <trkpt lat="43.51255" lon="3.87485">
        <ele>2.72</ele>
        <time>2019-05-31T12:08:43.000Z</time>
      </trkpt>
      <trkpt lat="43.51241" lon="3.87466">
        <ele>2.73</ele>
        <time>2019-05-31T12:08:48.000Z</time>
      </trkpt>
      <trkpt lat="43.51227" lon="3.87447">
        <ele>2.72</ele>
        <time>2019-05-31T12:08:53.000Z</time>
      </trkpt>
      <trkpt lat="43.51212" lon="3.87426">
        <ele>1.97</ele>
        <time>2019-05-31T12:08:59.000Z</time>
      </trkpt>
      <trkpt lat="43.51199" lon="3.87408">
        <ele>1.72</ele>
        <time>2019-05-31T12:09:04.000Z</time>
      </trkpt>
      <trkpt lat="43.51186" lon="3.87391">
        <ele>2.72</ele>
        <time>2019-05-31T12:09:09.000Z</time>
      </trkpt>
      <trkpt lat="43.51172" lon="3.87373">
        <ele>1.74</ele>
        <time>2019-05-31T12:09:14.000Z</time>
      </trkpt>
      <trkpt lat="43.51157" lon="3.87357">
        <ele>1.72</ele>
        <time>2019-05-31T12:09:19.000Z</time>
      </trkpt>
      <trkpt lat="43.51144" lon="3.87337">
        <ele>1.72</ele>
        <time>2019-05-31T12:09:24.000Z</time>
      </trkpt>
      <trkpt lat="43.5113" lon="3.87317">
        <ele>1.71</ele>
        <time>2019-05-31T12:09:29.000Z</time>
      </trkpt>
      <trkpt lat="43.51116" lon="3.87298">
        <ele>2.71</ele>
        <time>2019-05-31T12:09:34.000Z</time>
      </trkpt>
      <trkpt lat="43.51102" lon="3.8728">
        <ele>3.66</ele>
        <time>2019-05-31T12:09:39.000Z</time>
      </trkpt>
      <trkpt lat="43.51086" lon="3.87262">
        <ele>2.77</ele>
        <time>2019-05-31T12:09:44.000Z</time>
      </trkpt>
      <trkpt lat="43.51071" lon="3.87243">
        <ele>1.79</ele>
        <time>2019-05-31T12:09:49.000Z</time>
      </trkpt>
      <trkpt lat="43.51056" lon="3.87223">
        <ele>2.66</ele>
        <time>2019-05-31T12:09:54.000Z</time>
      </trkpt>
      <trkpt lat="43.51041" lon="3.87205">
        <ele>2.72</ele>
        <time>2019-05-31T12:09:59.000Z</time>
      </trkpt>
      <trkpt lat="43.51026" lon="3.87186">
        <ele>1.97</ele>
        <time>2019-05-31T12:10:04.000Z</time>
      </trkpt>
      <trkpt lat="43.51012" lon="3.87166">
        <ele>2.49</ele>
        <time>2019-05-31T12:10:09.000Z</time>
      </trkpt>
      <trkpt lat="43.50997" lon="3.87145">
        <ele>2.72</ele>
        <time>2019-05-31T12:10:14.000Z</time>
      </trkpt>
      <trkpt lat="43.50981" lon="3.87125">
        <ele>3.66</ele>
        <time>2019-05-31T12:10:19.000Z</time>
      </trkpt>
      <trkpt lat="43.50966" lon="3.87104">
        <ele>1.98</ele>
        <time>2019-05-31T12:10:24.000Z</time>
      </trkpt>
      <trkpt lat="43.5095" lon="3.87084">
        <ele>1.73</ele>
        <time>2019-05-31T12:10:29.000Z</time>
      </trkpt>
      <trkpt lat="43.50934" lon="3.87064">
        <ele>2.48</ele>
        <time>2019-05-31T12:10:34.000Z</time>
      </trkpt>
      <trkpt lat="43.50918" lon="3.87044">
        <ele>2.68</ele>
        <time>2019-05-31T12:10:39.000Z</time>
      </trkpt>
      <trkpt lat="43.50902" lon="3.87023">
        <ele>2.74</ele>
        <time>2019-05-31T12:10:44.000Z</time>
      </trkpt>
      <trkpt lat="43.50888" lon="3.87003">
        <ele>1.73</ele>
        <time>2019-05-31T12:10:49.000Z</time>
      </trkpt>
      <trkpt lat="43.50875" lon="3.86981">
        <ele>2.71</ele>
        <time>2019-05-31T12:10:54.000Z</time>
      </trkpt>
      <trkpt lat="43.50865" lon="3.86967">
        <ele>3.48</ele>
        <time>2019-05-31T12:10:59.000Z</time>
      </trkpt>
      <trkpt lat="43.50858" lon="3.86959">
        <ele>4.72</ele>
        <time>2019-05-31T12:11:06.000Z</time>
      </trkpt>
      <trkpt lat="43.5085" lon="3.86951">
        <ele>4.71</ele>
        <time>2019-05-31T12:11:19.000Z</time>
      </trkpt>
      <trkpt lat="43.50836" lon="3.86927">
        <ele>3.79</ele>
        <time>2019-05-31T12:11:24.000Z</time>
      </trkpt>
      <trkpt lat="43.5082" lon="3.86905">
        <ele>4.73</ele>
        <time>2019-05-31T12:11:29.000Z</time>
      </trkpt>
      <trkpt lat="43.50802" lon="3.86884">
        <ele>4.48</ele>
        <time>2019-05-31T12:11:34.000Z</time>
      </trkpt>
      <trkpt lat="43.50786" lon="3.86862">
        <ele>3.74</ele>
        <time>2019-05-31T12:11:39.000Z</time>
      </trkpt>
      <trkpt lat="43.50769" lon="3.8684">
        <ele>2.79</ele>
        <time>2019-05-31T12:11:44.000Z</time>
      </trkpt>
      <trkpt lat="43.50753" lon="3.86819">
        <ele>3.72</ele>
        <time>2019-05-31T12:11:49.000Z</time>
      </trkpt>
      <trkpt lat="43.50736" lon="3.86798">
        <ele>2.73</ele>
        <time>2019-05-31T12:11:54.000Z</time>
      </trkpt>
      <trkpt lat="43.5072" lon="3.86778">
        <ele>1.73</ele>
        <time>2019-05-31T12:11:59.000Z</time>
      </trkpt>
      <trkpt lat="43.50706" lon="3.86757">
        <ele>0.92</ele>
        <time>2019-05-31T12:12:04.000Z</time>
      </trkpt>
      <trkpt lat="43.50691" lon="3.86738">
        <ele>1</ele>
        <time>2019-05-31T12:12:09.000Z</time>
      </trkpt>
      <trkpt lat="43.50675" lon="3.86718">
        <ele>0.71</ele>
        <time>2019-05-31T12:12:14.000Z</time>
      </trkpt>
      <trkpt lat="43.5066" lon="3.86697">
        <ele>0.71</ele>
        <time>2019-05-31T12:12:19.000Z</time>
      </trkpt>
      <trkpt lat="43.50646" lon="3.86677">
        <ele>0.73</ele>
        <time>2019-05-31T12:12:24.000Z</time>
      </trkpt>
      <trkpt lat="43.5063" lon="3.86658">
        <ele>0.73</ele>
        <time>2019-05-31T12:12:29.000Z</time>
      </trkpt>
      <trkpt lat="43.50614" lon="3.86638">
        <ele>1</ele>
        <time>2019-05-31T12:12:34.000Z</time>
      </trkpt>
      <trkpt lat="43.50598" lon="3.86618">
        <ele>1</ele>
        <time>2019-05-31T12:12:39.000Z</time>
      </trkpt>
      <trkpt lat="43.50582" lon="3.86599">
        <ele>1</ele>
        <time>2019-05-31T12:12:44.000Z</time>
      </trkpt>
      <trkpt lat="43.50567" lon="3.86579">
        <ele>1</ele>
        <time>2019-05-31T12:12:49.000Z</time>
      </trkpt>
      <trkpt lat="43.50553" lon="3.8656">
        <ele>1</ele>
        <time>2019-05-31T12:12:54.000Z</time>
      </trkpt>
      <trkpt lat="43.50539" lon="3.86541">
        <ele>1</ele>
        <time>2019-05-31T12:12:59.000Z</time>
      </trkpt>
      <trkpt lat="43.50524" lon="3.86523">
        <ele>0.48</ele>
        <time>2019-05-31T12:13:04.000Z</time>
      </trkpt>
      <trkpt lat="43.50509" lon="3.86502">
        <ele>1</ele>
        <time>2019-05-31T12:13:09.000Z</time>
      </trkpt>
      <trkpt lat="43.50495" lon="3.86484">
        <ele>0.73</ele>
        <time>2019-05-31T12:13:14.000Z</time>
      </trkpt>
      <trkpt lat="43.5048" lon="3.86465">
        <ele>1.73</ele>
        <time>2019-05-31T12:13:19.000Z</time>
      </trkpt>
      <trkpt lat="43.50465" lon="3.86445">
        <ele>1</ele>
        <time>2019-05-31T12:13:24.000Z</time>
      </trkpt>
      <trkpt lat="43.50449" lon="3.86426">
        <time>2019-05-31T12:13:29.000Z</time>
      </trkpt>
      <trkpt lat="43.50433" lon="3.86405">
        <ele>1</ele>
        <time>2019-05-31T12:13:34.000Z</time>
      </trkpt>
      <trkpt lat="43.50418" lon="3.86384">
        <ele>1</ele>
        <time>2019-05-31T12:13:39.000Z</time>
      </trkpt>
      <trkpt lat="43.50402" lon="3.86364">
        <ele>1.1</ele>
        <time>2019-05-31T12:13:44.000Z</time>
      </trkpt>
      <trkpt lat="43.50387" lon="3.86345">
        <ele>0.48</ele>
        <time>2019-05-31T12:13:49.000Z</time>
      </trkpt>
      <trkpt lat="43.50372" lon="3.86326">
        <ele>0.73</ele>
        <time>2019-05-31T12:13:54.000Z</time>
      </trkpt>
      <trkpt lat="43.50356" lon="3.86306">
        <ele>1</ele>
        <time>2019-05-31T12:13:59.000Z</time>
      </trkpt>
      <trkpt lat="43.50341" lon="3.86287">
        <ele>1</ele>
        <time>2019-05-31T12:14:04.000Z</time>
      </trkpt>
      <trkpt lat="43.50326" lon="3.86267">
        <ele>1</ele>
        <time>2019-05-31T12:14:09.000Z</time>
      </trkpt>
      <trkpt lat="43.5031" lon="3.86248">
        <ele>1</ele>
        <time>2019-05-31T12:14:14.000Z</time>
      </trkpt>
      <trkpt lat="43.50295" lon="3.86228">
        <ele>1</ele>
        <time>2019-05-31T12:14:19.000Z</time>
      </trkpt>
      <trkpt lat="43.5028" lon="3.86206">
        <ele>1</ele>
        <time>2019-05-31T12:14:24.000Z</time>
      </trkpt>
      <trkpt lat="43.50263" lon="3.86186">
        <ele>1</ele>
        <time>2019-05-31T12:14:29.000Z</time>
      </trkpt>
      <trkpt lat="43.50247" lon="3.86163">
        <ele>1</ele>
        <time>2019-05-31T12:14:34.000Z</time>
      </trkpt>
      <trkpt lat="43.50231" lon="3.86143">
        <ele>1</ele>
        <time>2019-05-31T12:14:39.000Z</time>
      </trkpt>
      <trkpt lat="43.50215" lon="3.86123">
        <ele>1</ele>
        <time>2019-05-31T12:14:44.000Z</time>
      </trkpt>
      <trkpt lat="43.502" lon="3.86103">
        <ele>1</ele>
        <time>2019-05-31T12:14:49.000Z</time>
      </trkpt>
      <trkpt lat="43.50183" lon="3.86085">
        <ele>1</ele>
        <time>2019-05-31T12:14:54.000Z</time>
      </trkpt>
      <trkpt lat="43.50167" lon="3.86064">
        <ele>1</ele>
        <time>2019-05-31T12:14:59.000Z</time>
      </trkpt>
      <trkpt lat="43.50153" lon="3.86045">
        <ele>1</ele>
        <time>2019-05-31T12:15:04.000Z</time>
      </trkpt>
      <trkpt lat="43.50139" lon="3.86026">
        <ele>1.47</ele>
        <time>2019-05-31T12:15:09.000Z</time>
      </trkpt>
      <trkpt lat="43.50124" lon="3.86007">
        <ele>1.5</ele>
        <time>2019-05-31T12:15:14.000Z</time>
      </trkpt>
      <trkpt lat="43.5011" lon="3.85987">
        <ele>0.92</ele>
        <time>2019-05-31T12:15:19.000Z</time>
      </trkpt>
      <trkpt lat="43.50096" lon="3.85967">
        <ele>0.73</ele>
        <time>2019-05-31T12:15:24.000Z</time>
      </trkpt>
      <trkpt lat="43.50081" lon="3.85949">
        <ele>1.48</ele>
        <time>2019-05-31T12:15:29.000Z</time>
      </trkpt>
      <trkpt lat="43.50067" lon="3.85931">
        <ele>1.73</ele>
        <time>2019-05-31T12:15:34.000Z</time>
      </trkpt>
      <trkpt lat="43.50052" lon="3.85912">
        <ele>1.73</ele>
        <time>2019-05-31T12:15:39.000Z</time>
      </trkpt>
      <trkpt lat="43.50038" lon="3.85895">
        <ele>2.42</ele>
        <time>2019-05-31T12:15:44.000Z</time>
      </trkpt>
      <trkpt lat="43.50027" lon="3.8588">
        <ele>3.67</ele>
        <time>2019-05-31T12:15:49.000Z</time>
      </trkpt>
      <trkpt lat="43.5002" lon="3.85872">
        <ele>3.73</ele>
        <time>2019-05-31T12:15:54.000Z</time>
      </trkpt>
      <trkpt lat="43.50014" lon="3.85861">
        <ele>2.98</ele>
        <time>2019-05-31T12:15:59.000Z</time>
      </trkpt>
      <trkpt lat="43.5" lon="3.85844">
        <ele>1.73</ele>
        <time>2019-05-31T12:16:04.000Z</time>
      </trkpt>
      <trkpt lat="43.49987" lon="3.85827">
        <ele>0.8</ele>
        <time>2019-05-31T12:16:09.000Z</time>
      </trkpt>
      <trkpt lat="43.49973" lon="3.85812">
        <ele>1.55</ele>
        <time>2019-05-31T12:16:14.000Z</time>
      </trkpt>
      <trkpt lat="43.49959" lon="3.85812">
        <ele>0.73</ele>
        <time>2019-05-31T12:16:19.000Z</time>
      </trkpt>
      <trkpt lat="43.4996" lon="3.85796">
        <ele>1</ele>
        <time>2019-05-31T12:16:38.000Z</time>
      </trkpt>
      <trkpt lat="43.49948" lon="3.8578">
        <ele>1</ele>
        <time>2019-05-31T12:16:43.000Z</time>
      </trkpt>
      <trkpt lat="43.49935" lon="3.85764">
        <ele>0.72</ele>
        <time>2019-05-31T12:16:48.000Z</time>
      </trkpt>
      <trkpt lat="43.4992" lon="3.85747">
        <ele>1.67</ele>
        <time>2019-05-31T12:16:53.000Z</time>
      </trkpt>
      <trkpt lat="43.49907" lon="3.85729">
        <ele>1.73</ele>
        <time>2019-05-31T12:16:58.000Z</time>
      </trkpt>
      <trkpt lat="43.49893" lon="3.8571">
        <ele>1.73</ele>
        <time>2019-05-31T12:17:03.000Z</time>
      </trkpt>
      <trkpt lat="43.4988" lon="3.85691">
        <ele>1.55</ele>
        <time>2019-05-31T12:17:08.000Z</time>
      </trkpt>
      <trkpt lat="43.49867" lon="3.85674">
        <ele>1.73</ele>
        <time>2019-05-31T12:17:13.000Z</time>
      </trkpt>
      <trkpt lat="43.49854" lon="3.85657">
        <ele>0.74</ele>
        <time>2019-05-31T12:17:18.000Z</time>
      </trkpt>
      <trkpt lat="43.4984" lon="3.85639">
        <ele>1</ele>
        <time>2019-05-31T12:17:23.000Z</time>
      </trkpt>
      <trkpt lat="43.49826" lon="3.85621">
        <ele>1</ele>
        <time>2019-05-31T12:17:28.000Z</time>
      </trkpt>
      <trkpt lat="43.49812" lon="3.85602">
        <ele>1</ele>
        <time>2019-05-31T12:17:33.000Z</time>
      </trkpt>
      <trkpt lat="43.49797" lon="3.85583">
        <ele>2</ele>
        <time>2019-05-31T12:17:38.000Z</time>
      </trkpt>
      <trkpt lat="43.49782" lon="3.85564">
        <ele>2</ele>
        <time>2019-05-31T12:17:43.000Z</time>
      </trkpt>
      <trkpt lat="43.49768" lon="3.85546">
        <ele>1</ele>
        <time>2019-05-31T12:17:48.000Z</time>
      </trkpt>
      <trkpt lat="43.49754" lon="3.85526">
        <ele>1</ele>
        <time>2019-05-31T12:17:53.000Z</time>
      </trkpt>
      <trkpt lat="43.4974" lon="3.85508">
        <ele>0.48</ele>
        <time>2019-05-31T12:17:58.000Z</time>
      </trkpt>
      <trkpt lat="43.49726" lon="3.85489">
        <ele>2</ele>
        <time>2019-05-31T12:18:03.000Z</time>
      </trkpt>
      <trkpt lat="43.49711" lon="3.85471">
        <ele>1</ele>
        <time>2019-05-31T12:18:08.000Z</time>
      </trkpt>
      <trkpt lat="43.49698" lon="3.85455">
        <ele>1</ele>
        <time>2019-05-31T12:18:13.000Z</time>
      </trkpt>
      <trkpt lat="43.49684" lon="3.85438">
        <ele>0.53</ele>
        <time>2019-05-31T12:18:18.000Z</time>
      </trkpt>
      <trkpt lat="43.49671" lon="3.85419">
        <ele>0.74</ele>
        <time>2019-05-31T12:18:23.000Z</time>
      </trkpt>
      <trkpt lat="43.49656" lon="3.854">
        <ele>1.49</ele>
        <time>2019-05-31T12:18:28.000Z</time>
      </trkpt>
      <trkpt lat="43.49641" lon="3.8538">
        <ele>0.99</ele>
        <time>2019-05-31T12:18:33.000Z</time>
      </trkpt>
      <trkpt lat="43.49625" lon="3.8536">
        <ele>1.73</ele>
        <time>2019-05-31T12:18:38.000Z</time>
      </trkpt>
      <trkpt lat="43.49611" lon="3.85341">
        <ele>1.74</ele>
        <time>2019-05-31T12:18:43.000Z</time>
      </trkpt>
      <trkpt lat="43.49596" lon="3.85321">
        <ele>1.78</ele>
        <time>2019-05-31T12:18:48.000Z</time>
      </trkpt>
      <trkpt lat="43.49581" lon="3.85301">
        <ele>1.74</ele>
        <time>2019-05-31T12:18:53.000Z</time>
      </trkpt>
      <trkpt lat="43.49565" lon="3.85281">
        <ele>1.74</ele>
        <time>2019-05-31T12:18:58.000Z</time>
      </trkpt>
      <trkpt lat="43.49548" lon="3.8526">
        <ele>0.99</ele>
        <time>2019-05-31T12:19:03.000Z</time>
      </trkpt>
      <trkpt lat="43.49533" lon="3.8524">
        <ele>0.92</ele>
        <time>2019-05-31T12:19:08.000Z</time>
      </trkpt>
      <trkpt lat="43.49517" lon="3.8522">
        <ele>0.74</ele>
        <time>2019-05-31T12:19:13.000Z</time>
      </trkpt>
      <trkpt lat="43.49504" lon="3.852">
        <ele>0.8</ele>
        <time>2019-05-31T12:19:18.000Z</time>
      </trkpt>
      <trkpt lat="43.4949" lon="3.85182">
        <ele>1.72</ele>
        <time>2019-05-31T12:19:23.000Z</time>
      </trkpt>
      <trkpt lat="43.49482" lon="3.85172">
        <ele>1.97</ele>
        <time>2019-05-31T12:19:28.000Z</time>
      </trkpt>
      <trkpt lat="43.49475" lon="3.85162">
        <ele>1.73</ele>
        <time>2019-05-31T12:19:50.000Z</time>
      </trkpt>
      <trkpt lat="43.49462" lon="3.85144">
        <ele>1.67</ele>
        <time>2019-05-31T12:19:55.000Z</time>
      </trkpt>
      <trkpt lat="43.49447" lon="3.85126">
        <ele>2.49</ele>
        <time>2019-05-31T12:20:00.000Z</time>
      </trkpt>
      <trkpt lat="43.49433" lon="3.85107">
        <ele>1.74</ele>
        <time>2019-05-31T12:20:05.000Z</time>
      </trkpt>
      <trkpt lat="43.49418" lon="3.8509">
        <ele>1.97</ele>
        <time>2019-05-31T12:20:10.000Z</time>
      </trkpt>
      <trkpt lat="43.49404" lon="3.85073">
        <ele>2.74</ele>
        <time>2019-05-31T12:20:15.000Z</time>
      </trkpt>
      <trkpt lat="43.4939" lon="3.85054">
        <ele>1.75</ele>
        <time>2019-05-31T12:20:20.000Z</time>
      </trkpt>
      <trkpt lat="43.49375" lon="3.85035">
        <ele>1.74</ele>
        <time>2019-05-31T12:20:25.000Z</time>
      </trkpt>
      <trkpt lat="43.4936" lon="3.85017">
        <ele>1.74</ele>
        <time>2019-05-31T12:20:30.000Z</time>
      </trkpt>
      <trkpt lat="43.49346" lon="3.84999">
        <ele>0.99</ele>
        <time>2019-05-31T12:20:35.000Z</time>
      </trkpt>
      <trkpt lat="43.49332" lon="3.84979">
        <ele>0.74</ele>
        <time>2019-05-31T12:20:40.000Z</time>
      </trkpt>
      <trkpt lat="43.49318" lon="3.8496">
        <ele>0.55</ele>
        <time>2019-05-31T12:20:45.000Z</time>
      </trkpt>
      <trkpt lat="43.49304" lon="3.84943">
        <ele>1.72</ele>
        <time>2019-05-31T12:20:50.000Z</time>
      </trkpt>
      <trkpt lat="43.49289" lon="3.84924">
        <ele>1.93</ele>
        <time>2019-05-31T12:20:55.000Z</time>
      </trkpt>
      <trkpt lat="43.49275" lon="3.84905">
        <ele>1.74</ele>
        <time>2019-05-31T12:21:00.000Z</time>
      </trkpt>
      <trkpt lat="43.4926" lon="3.84885">
        <ele>0.8</ele>
        <time>2019-05-31T12:21:05.000Z</time>
      </trkpt>
      <trkpt lat="43.49245" lon="3.84866">
        <ele>0.74</ele>
        <time>2019-05-31T12:21:10.000Z</time>
      </trkpt>
      <trkpt lat="43.49231" lon="3.84847">
        <ele>1.68</ele>
        <time>2019-05-31T12:21:15.000Z</time>
      </trkpt>
      <trkpt lat="43.49217" lon="3.84829">
        <ele>0.74</ele>
        <time>2019-05-31T12:21:20.000Z</time>
      </trkpt>
      <trkpt lat="43.49205" lon="3.84813">
        <ele>1.72</ele>
        <time>2019-05-31T12:21:25.000Z</time>
      </trkpt>
      <trkpt lat="43.49196" lon="3.84802">
        <ele>2.49</ele>
        <time>2019-05-31T12:21:30.000Z</time>
      </trkpt>
      <trkpt lat="43.49187" lon="3.84792">
        <ele>3.68</ele>
        <time>2019-05-31T12:21:35.000Z</time>
      </trkpt>
      <trkpt lat="43.49175" lon="3.8478">
        <ele>2</ele>
        <time>2019-05-31T12:21:40.000Z</time>
      </trkpt>
      <trkpt lat="43.49157" lon="3.8476">
        <ele>0.74</ele>
        <time>2019-05-31T12:21:45.000Z</time>
      </trkpt>
      <trkpt lat="43.4914" lon="3.84742">
        <ele>1</ele>
        <time>2019-05-31T12:21:50.000Z</time>
      </trkpt>
      <trkpt lat="43.49125" lon="3.84727">
        <ele>0.49</ele>
        <time>2019-05-31T12:21:55.000Z</time>
      </trkpt>
      <trkpt lat="43.4911" lon="3.84712">
        <ele>0.74</ele>
        <time>2019-05-31T12:22:00.000Z</time>
      </trkpt>
      <trkpt lat="43.49095" lon="3.84697">
        <ele>1.54</ele>
        <time>2019-05-31T12:22:05.000Z</time>
      </trkpt>
      <trkpt lat="43.4908" lon="3.84681">
        <ele>1.54</ele>
        <time>2019-05-31T12:22:10.000Z</time>
      </trkpt>
      <trkpt lat="43.49067" lon="3.84665">
        <ele>1.68</ele>
        <time>2019-05-31T12:22:15.000Z</time>
      </trkpt>
      <trkpt lat="43.49053" lon="3.84649">
        <ele>1.97</ele>
        <time>2019-05-31T12:22:20.000Z</time>
      </trkpt>
      <trkpt lat="43.49037" lon="3.84633">
        <ele>0.74</ele>
        <time>2019-05-31T12:22:25.000Z</time>
      </trkpt>
      <trkpt lat="43.49021" lon="3.84616">
        <ele>0.79</ele>
        <time>2019-05-31T12:22:30.000Z</time>
      </trkpt>
      <trkpt lat="43.49006" lon="3.846">
        <ele>0.68</ele>
        <time>2019-05-31T12:22:35.000Z</time>
      </trkpt>
      <trkpt lat="43.48993" lon="3.84584">
        <ele>1.68</ele>
        <time>2019-05-31T12:22:40.000Z</time>
      </trkpt>
      <trkpt lat="43.48979" lon="3.84569">
        <ele>1.74</ele>
        <time>2019-05-31T12:22:45.000Z</time>
      </trkpt>
      <trkpt lat="43.48964" lon="3.84555">
        <ele>1.55</ele>
        <time>2019-05-31T12:22:50.000Z</time>
      </trkpt>
      <trkpt lat="43.48949" lon="3.84539">
        <ele>0.74</ele>
        <time>2019-05-31T12:22:55.000Z</time>
      </trkpt>
      <trkpt lat="43.48936" lon="3.84522">
        <ele>2.73</ele>
        <time>2019-05-31T12:23:00.000Z</time>
      </trkpt>
      <trkpt lat="43.48922" lon="3.84506">
        <ele>2.74</ele>
        <time>2019-05-31T12:23:05.000Z</time>
      </trkpt>
      <trkpt lat="43.48907" lon="3.84491">
        <ele>1.93</ele>
        <time>2019-05-31T12:23:10.000Z</time>
      </trkpt>
      <trkpt lat="43.48893" lon="3.84476">
        <ele>0.74</ele>
        <time>2019-05-31T12:23:15.000Z</time>
      </trkpt>
      <trkpt lat="43.48879" lon="3.84462">
        <ele>0.75</ele>
        <time>2019-05-31T12:23:20.000Z</time>
      </trkpt>
      <trkpt lat="43.48866" lon="3.84446">
        <ele>1</ele>
        <time>2019-05-31T12:23:25.000Z</time>
      </trkpt>
      <trkpt lat="43.48853" lon="3.84431">
        <ele>0.49</ele>
        <time>2019-05-31T12:23:30.000Z</time>
      </trkpt>
      <trkpt lat="43.48839" lon="3.84417">
        <ele>0.74</ele>
        <time>2019-05-31T12:23:35.000Z</time>
      </trkpt>
      <trkpt lat="43.48824" lon="3.84401">
        <ele>0.54</ele>
        <time>2019-05-31T12:23:40.000Z</time>
      </trkpt>
      <trkpt lat="43.48808" lon="3.84386">
        <ele>0.93</ele>
        <time>2019-05-31T12:23:45.000Z</time>
      </trkpt>
      <trkpt lat="43.48793" lon="3.84369">
        <ele>0.74</ele>
        <time>2019-05-31T12:23:50.000Z</time>
      </trkpt>
      <trkpt lat="43.48777" lon="3.84352">
        <ele>0.74</ele>
        <time>2019-05-31T12:23:55.000Z</time>
      </trkpt>
      <trkpt lat="43.48761" lon="3.84334">
        <ele>0.79</ele>
        <time>2019-05-31T12:24:00.000Z</time>
      </trkpt>
      <trkpt lat="43.48745" lon="3.84316">
        <ele>0.93</ele>
        <time>2019-05-31T12:24:05.000Z</time>
      </trkpt>
      <trkpt lat="43.48729" lon="3.84297">
        <ele>1.74</ele>
        <time>2019-05-31T12:24:10.000Z</time>
      </trkpt>
      <trkpt lat="43.48713" lon="3.84279">
        <ele>0.76</ele>
        <time>2019-05-31T12:24:15.000Z</time>
      </trkpt>
      <trkpt lat="43.48697" lon="3.84261">
        <ele>1</ele>
        <time>2019-05-31T12:24:20.000Z</time>
      </trkpt>
      <trkpt lat="43.48681" lon="3.84244">
        <ele>0.74</ele>
        <time>2019-05-31T12:24:25.000Z</time>
      </trkpt>
      <trkpt lat="43.48665" lon="3.84226">
        <ele>0.69</ele>
        <time>2019-05-31T12:24:30.000Z</time>
      </trkpt>
      <trkpt lat="43.48648" lon="3.8421">
        <ele>1</ele>
        <time>2019-05-31T12:24:35.000Z</time>
      </trkpt>
      <trkpt lat="43.48633" lon="3.84192">
        <ele>0.55</ele>
        <time>2019-05-31T12:24:40.000Z</time>
      </trkpt>
      <trkpt lat="43.48618" lon="3.84175">
        <ele>0.74</ele>
        <time>2019-05-31T12:24:45.000Z</time>
      </trkpt>
      <trkpt lat="43.48603" lon="3.84158">
        <ele>0.74</ele>
        <time>2019-05-31T12:24:50.000Z</time>
      </trkpt>
      <trkpt lat="43.48586" lon="3.8414">
        <ele>1.49</ele>
        <time>2019-05-31T12:24:55.000Z</time>
      </trkpt>
      <trkpt lat="43.48569" lon="3.84121">
        <ele>1</ele>
        <time>2019-05-31T12:25:00.000Z</time>
      </trkpt>
      <trkpt lat="43.48554" lon="3.84102">
        <ele>0.98</ele>
        <time>2019-05-31T12:25:05.000Z</time>
      </trkpt>
      <trkpt lat="43.48538" lon="3.84084">
        <ele>1</ele>
        <time>2019-05-31T12:25:10.000Z</time>
      </trkpt>
      <trkpt lat="43.48523" lon="3.84066">
        <ele>1</ele>
        <time>2019-05-31T12:25:15.000Z</time>
      </trkpt>
      <trkpt lat="43.48508" lon="3.84049">
        <ele>1</ele>
        <time>2019-05-31T12:25:20.000Z</time>
      </trkpt>
      <trkpt lat="43.48492" lon="3.84031">
        <ele>0.68</ele>
        <time>2019-05-31T12:25:25.000Z</time>
      </trkpt>
      <trkpt lat="43.48476" lon="3.84014">
        <ele>0.74</ele>
        <time>2019-05-31T12:25:30.000Z</time>
      </trkpt>
      <trkpt lat="43.48461" lon="3.83998">
        <ele>0.56</ele>
        <time>2019-05-31T12:25:35.000Z</time>
      </trkpt>
      <trkpt lat="43.48446" lon="3.83981">
        <ele>1.68</ele>
        <time>2019-05-31T12:25:40.000Z</time>
      </trkpt>
      <trkpt lat="43.4843" lon="3.83964">
        <ele>2.74</ele>
        <time>2019-05-31T12:25:45.000Z</time>
      </trkpt>
      <trkpt lat="43.48414" lon="3.83947">
        <ele>1.75</ele>
        <time>2019-05-31T12:25:50.000Z</time>
      </trkpt>
      <trkpt lat="43.48398" lon="3.83929">
        <ele>2.69</ele>
        <time>2019-05-31T12:25:55.000Z</time>
      </trkpt>
      <trkpt lat="43.48382" lon="3.83914">
        <ele>3.49</ele>
        <time>2019-05-31T12:26:00.000Z</time>
      </trkpt>
      <trkpt lat="43.48367" lon="3.83898">
        <ele>3.74</ele>
        <time>2019-05-31T12:26:05.000Z</time>
      </trkpt>
      <trkpt lat="43.48353" lon="3.83881">
        <ele>3.75</ele>
        <time>2019-05-31T12:26:10.000Z</time>
      </trkpt>
      <trkpt lat="43.48339" lon="3.83861">
        <ele>2.75</ele>
        <time>2019-05-31T12:26:15.000Z</time>
      </trkpt>
      <trkpt lat="43.48325" lon="3.83841">
        <ele>3.74</ele>
        <time>2019-05-31T12:26:20.000Z</time>
      </trkpt>
      <trkpt lat="43.4831" lon="3.83823">
        <ele>2.76</ele>
        <time>2019-05-31T12:26:25.000Z</time>
      </trkpt>
      <trkpt lat="43.48294" lon="3.83808">
        <ele>1.99</ele>
        <time>2019-05-31T12:26:30.000Z</time>
      </trkpt>
      <trkpt lat="43.48278" lon="3.83791">
        <ele>1.74</ele>
        <time>2019-05-31T12:26:35.000Z</time>
      </trkpt>
      <trkpt lat="43.48263" lon="3.83774">
        <ele>0.75</ele>
        <time>2019-05-31T12:26:40.000Z</time>
      </trkpt>
      <trkpt lat="43.48247" lon="3.83756">
        <ele>1</ele>
        <time>2019-05-31T12:26:45.000Z</time>
      </trkpt>
      <trkpt lat="43.48232" lon="3.83739">
        <ele>1</ele>
        <time>2019-05-31T12:26:50.000Z</time>
      </trkpt>
      <trkpt lat="43.48216" lon="3.83722">
        <ele>1</ele>
        <time>2019-05-31T12:26:55.000Z</time>
      </trkpt>
      <trkpt lat="43.48201" lon="3.83706">
        <ele>1</ele>
        <time>2019-05-31T12:27:00.000Z</time>
      </trkpt>
      <trkpt lat="43.48187" lon="3.83689">
        <ele>0.74</ele>
        <time>2019-05-31T12:27:05.000Z</time>
      </trkpt>
      <trkpt lat="43.48171" lon="3.83672">
        <ele>0.75</ele>
        <time>2019-05-31T12:27:10.000Z</time>
      </trkpt>
      <trkpt lat="43.48155" lon="3.83654">
        <ele>1</ele>
        <time>2019-05-31T12:27:15.000Z</time>
      </trkpt>
      <trkpt lat="43.4814" lon="3.83637">
        <ele>1</ele>
        <time>2019-05-31T12:27:20.000Z</time>
      </trkpt>
      <trkpt lat="43.48124" lon="3.8362">
        <ele>1</ele>
        <time>2019-05-31T12:27:25.000Z</time>
      </trkpt>
      <trkpt lat="43.48108" lon="3.83603">
        <ele>1</ele>
        <time>2019-05-31T12:27:30.000Z</time>
      </trkpt>
      <trkpt lat="43.48093" lon="3.83588">
        <ele>0.73</ele>
        <time>2019-05-31T12:27:35.000Z</time>
      </trkpt>
      <trkpt lat="43.48078" lon="3.83572">
        <ele>1</ele>
        <time>2019-05-31T12:27:40.000Z</time>
      </trkpt>
      <trkpt lat="43.48063" lon="3.83555">
        <ele>1</ele>
        <time>2019-05-31T12:27:45.000Z</time>
      </trkpt>
      <trkpt lat="43.48048" lon="3.83538">
        <ele>0.68</ele>
        <time>2019-05-31T12:27:50.000Z</time>
      </trkpt>
      <trkpt lat="43.48032" lon="3.8352">
        <ele>1</ele>
        <time>2019-05-31T12:27:55.000Z</time>
      </trkpt>
      <trkpt lat="43.48018" lon="3.83504">
        <ele>1</ele>
        <time>2019-05-31T12:28:00.000Z</time>
      </trkpt>
      <trkpt lat="43.48004" lon="3.83489">
        <ele>1</ele>
        <time>2019-05-31T12:28:05.000Z</time>
      </trkpt>
      <trkpt lat="43.47991" lon="3.83472">
        <ele>1</ele>
        <time>2019-05-31T12:28:10.000Z</time>
      </trkpt>
      <trkpt lat="43.47978" lon="3.83458">
        <ele>0.68</ele>
        <time>2019-05-31T12:28:15.000Z</time>
      </trkpt>
      <trkpt lat="43.47963" lon="3.83444">
        <ele>1</ele>
        <time>2019-05-31T12:28:20.000Z</time>
      </trkpt>
      <trkpt lat="43.4795" lon="3.83426">
        <ele>0.75</ele>
        <time>2019-05-31T12:28:25.000Z</time>
      </trkpt>
      <trkpt lat="43.47936" lon="3.83412">
        <ele>1.5</ele>
        <time>2019-05-31T12:28:30.000Z</time>
      </trkpt>
      <trkpt lat="43.47922" lon="3.83397">
        <ele>1.75</ele>
        <time>2019-05-31T12:28:35.000Z</time>
      </trkpt>
      <trkpt lat="43.47909" lon="3.83381">
        <ele>1.75</ele>
        <time>2019-05-31T12:28:40.000Z</time>
      </trkpt>
      <trkpt lat="43.47895" lon="3.83366">
        <ele>2.75</ele>
        <time>2019-05-31T12:28:45.000Z</time>
      </trkpt>
      <trkpt lat="43.47879" lon="3.83354">
        <ele>2.75</ele>
        <time>2019-05-31T12:28:50.000Z</time>
      </trkpt>
      <trkpt lat="43.47864" lon="3.8334">
        <ele>1.76</ele>
        <time>2019-05-31T12:28:55.000Z</time>
      </trkpt>
      <trkpt lat="43.47851" lon="3.83324">
        <ele>1.75</ele>
        <time>2019-05-31T12:29:00.000Z</time>
      </trkpt>
      <trkpt lat="43.47838" lon="3.83305">
        <ele>1.75</ele>
        <time>2019-05-31T12:29:05.000Z</time>
      </trkpt>
      <trkpt lat="43.47823" lon="3.83289">
        <ele>1</ele>
        <time>2019-05-31T12:29:10.000Z</time>
      </trkpt>
      <trkpt lat="43.47808" lon="3.83274">
        <ele>1</ele>
        <time>2019-05-31T12:29:15.000Z</time>
      </trkpt>
      <trkpt lat="43.47793" lon="3.8326">
        <ele>1</ele>
        <time>2019-05-31T12:29:20.000Z</time>
      </trkpt>
      <trkpt lat="43.4778" lon="3.83245">
        <ele>1</ele>
        <time>2019-05-31T12:29:25.000Z</time>
      </trkpt>
      <trkpt lat="43.47767" lon="3.83227">
        <ele>1</ele>
        <time>2019-05-31T12:29:30.000Z</time>
      </trkpt>
      <trkpt lat="43.47752" lon="3.83209">
        <ele>0.51</ele>
        <time>2019-05-31T12:29:35.000Z</time>
      </trkpt>
      <trkpt lat="43.47735" lon="3.83193">
        <ele>1</ele>
        <time>2019-05-31T12:29:40.000Z</time>
      </trkpt>
      <trkpt lat="43.47719" lon="3.83175">
        <ele>1</ele>
        <time>2019-05-31T12:29:45.000Z</time>
      </trkpt>
      <trkpt lat="43.47704" lon="3.83157">
        <ele>0.56</ele>
        <time>2019-05-31T12:29:50.000Z</time>
      </trkpt>
      <trkpt lat="43.47687" lon="3.83141">
        <ele>0.5</ele>
        <time>2019-05-31T12:29:55.000Z</time>
      </trkpt>
      <trkpt lat="43.47672" lon="3.83124">
        <ele>0.75</ele>
        <time>2019-05-31T12:30:00.000Z</time>
      </trkpt>
      <trkpt lat="43.47657" lon="3.83107">
        <ele>0.8</ele>
        <time>2019-05-31T12:30:05.000Z</time>
      </trkpt>
      <trkpt lat="43.47642" lon="3.83091">
        <ele>0.94</ele>
        <time>2019-05-31T12:30:10.000Z</time>
      </trkpt>
      <trkpt lat="43.47628" lon="3.83075">
        <ele>0.75</ele>
        <time>2019-05-31T12:30:15.000Z</time>
      </trkpt>
      <trkpt lat="43.47612" lon="3.83059">
        <ele>1</ele>
        <time>2019-05-31T12:30:20.000Z</time>
      </trkpt>
      <trkpt lat="43.47597" lon="3.83043">
        <ele>1</ele>
        <time>2019-05-31T12:30:25.000Z</time>
      </trkpt>
      <trkpt lat="43.47582" lon="3.83027">
        <ele>1</ele>
        <time>2019-05-31T12:30:30.000Z</time>
      </trkpt>
      <trkpt lat="43.47566" lon="3.83009">
        <ele>1</ele>
        <time>2019-05-31T12:30:35.000Z</time>
      </trkpt>
      <trkpt lat="43.47551" lon="3.82993">
        <ele>0.69</ele>
        <time>2019-05-31T12:30:40.000Z</time>
      </trkpt>
      <trkpt lat="43.47536" lon="3.82976">
        <ele>1</ele>
        <time>2019-05-31T12:30:45.000Z</time>
      </trkpt>
      <trkpt lat="43.47521" lon="3.8296">
        <ele>0.73</ele>
        <time>2019-05-31T12:30:50.000Z</time>
      </trkpt>
      <trkpt lat="43.47505" lon="3.82945">
        <ele>0.7</ele>
        <time>2019-05-31T12:30:55.000Z</time>
      </trkpt>
      <trkpt lat="43.47491" lon="3.82929">
        <ele>0.81</ele>
        <time>2019-05-31T12:31:00.000Z</time>
      </trkpt>
      <trkpt lat="43.47478" lon="3.8291">
        <ele>1</ele>
        <time>2019-05-31T12:31:05.000Z</time>
      </trkpt>
      <trkpt lat="43.47463" lon="3.82892">
        <ele>1</ele>
        <time>2019-05-31T12:31:10.000Z</time>
      </trkpt>
      <trkpt lat="43.4745" lon="3.82877">
        <ele>0.75</ele>
        <time>2019-05-31T12:31:15.000Z</time>
      </trkpt>
      <trkpt lat="43.47434" lon="3.82863">
        <ele>0.94</ele>
        <time>2019-05-31T12:31:20.000Z</time>
      </trkpt>
      <trkpt lat="43.4742" lon="3.82849">
        <ele>0.75</ele>
        <time>2019-05-31T12:31:25.000Z</time>
      </trkpt>
      <trkpt lat="43.47407" lon="3.82834">
        <ele>0.45</ele>
        <time>2019-05-31T12:31:30.000Z</time>
      </trkpt>
      <trkpt lat="43.47395" lon="3.8282">
        <ele>1.56</ele>
        <time>2019-05-31T12:31:35.000Z</time>
      </trkpt>
      <trkpt lat="43.47382" lon="3.82807">
        <ele>1.75</ele>
        <time>2019-05-31T12:31:40.000Z</time>
      </trkpt>
      <trkpt lat="43.47368" lon="3.82791">
        <ele>2.75</ele>
        <time>2019-05-31T12:31:45.000Z</time>
      </trkpt>
      <trkpt lat="43.47351" lon="3.8277">
        <ele>2</ele>
        <time>2019-05-31T12:31:50.000Z</time>
      </trkpt>
      <trkpt lat="43.47333" lon="3.82749">
        <ele>0.77</ele>
        <time>2019-05-31T12:31:55.000Z</time>
      </trkpt>
      <trkpt lat="43.47316" lon="3.82731">
        <ele>1.74</ele>
        <time>2019-05-31T12:32:00.000Z</time>
      </trkpt>
      <trkpt lat="43.47299" lon="3.8271">
        <ele>2</ele>
        <time>2019-05-31T12:32:05.000Z</time>
      </trkpt>
      <trkpt lat="43.47279" lon="3.8269">
        <ele>0.81</ele>
        <time>2019-05-31T12:32:10.000Z</time>
      </trkpt>
      <trkpt lat="43.47262" lon="3.82669">
        <ele>1.75</ele>
        <time>2019-05-31T12:32:15.000Z</time>
      </trkpt>
      <trkpt lat="43.47243" lon="3.82649">
        <ele>2.69</ele>
        <time>2019-05-31T12:32:20.000Z</time>
      </trkpt>
      <trkpt lat="43.47223" lon="3.82629">
        <ele>2.75</ele>
        <time>2019-05-31T12:32:25.000Z</time>
      </trkpt>
      <trkpt lat="43.47205" lon="3.82608">
        <ele>2.81</ele>
        <time>2019-05-31T12:32:30.000Z</time>
      </trkpt>
      <trkpt lat="43.47186" lon="3.82587">
        <ele>1.76</ele>
        <time>2019-05-31T12:32:35.000Z</time>
      </trkpt>
      <trkpt lat="43.47167" lon="3.82567">
        <ele>1</ele>
        <time>2019-05-31T12:32:40.000Z</time>
      </trkpt>
      <trkpt lat="43.4715" lon="3.82548">
        <ele>1</ele>
        <time>2019-05-31T12:32:45.000Z</time>
      </trkpt>
      <trkpt lat="43.47131" lon="3.82527">
        <ele>1</ele>
        <time>2019-05-31T12:32:50.000Z</time>
      </trkpt>
      <trkpt lat="43.47113" lon="3.82507">
        <ele>1</ele>
        <time>2019-05-31T12:32:55.000Z</time>
      </trkpt>
      <trkpt lat="43.47094" lon="3.82487">
        <ele>1</ele>
        <time>2019-05-31T12:33:00.000Z</time>
      </trkpt>
      <trkpt lat="43.47074" lon="3.82467">
        <ele>1</ele>
        <time>2019-05-31T12:33:05.000Z</time>
      </trkpt>
      <trkpt lat="43.47056" lon="3.82446">
        <ele>1</ele>
        <time>2019-05-31T12:33:10.000Z</time>
      </trkpt>
      <trkpt lat="43.47038" lon="3.82425">
        <ele>0.5</ele>
        <time>2019-05-31T12:33:15.000Z</time>
      </trkpt>
      <trkpt lat="43.4702" lon="3.82405">
        <ele>1</ele>
        <time>2019-05-31T12:33:20.000Z</time>
      </trkpt>
      <trkpt lat="43.47003" lon="3.82385">
        <ele>1</ele>
        <time>2019-05-31T12:33:25.000Z</time>
      </trkpt>
      <trkpt lat="43.46985" lon="3.82366">
        <ele>1</ele>
        <time>2019-05-31T12:33:30.000Z</time>
      </trkpt>
      <trkpt lat="43.46968" lon="3.82346">
        <ele>1.5</ele>
        <time>2019-05-31T12:33:35.000Z</time>
      </trkpt>
      <trkpt lat="43.46951" lon="3.82328">
        <ele>2</ele>
        <time>2019-05-31T12:33:40.000Z</time>
      </trkpt>
      <trkpt lat="43.46934" lon="3.82309">
        <ele>2</ele>
        <time>2019-05-31T12:33:45.000Z</time>
      </trkpt>
      <trkpt lat="43.46916" lon="3.8229">
        <ele>1.4</ele>
        <time>2019-05-31T12:33:50.000Z</time>
      </trkpt>
      <trkpt lat="43.46897" lon="3.82271">
        <ele>1</ele>
        <time>2019-05-31T12:33:55.000Z</time>
      </trkpt>
      <trkpt lat="43.46879" lon="3.82251">
        <ele>1</ele>
        <time>2019-05-31T12:34:00.000Z</time>
      </trkpt>
      <trkpt lat="43.46861" lon="3.82233">
        <ele>2</ele>
        <time>2019-05-31T12:34:05.000Z</time>
      </trkpt>
      <trkpt lat="43.46843" lon="3.82214">
        <ele>2</ele>
        <time>2019-05-31T12:34:10.000Z</time>
      </trkpt>
      <trkpt lat="43.46826" lon="3.82197">
        <ele>2</ele>
        <time>2019-05-31T12:34:15.000Z</time>
      </trkpt>
      <trkpt lat="43.46809" lon="3.82179">
        <ele>2</ele>
        <time>2019-05-31T12:34:20.000Z</time>
      </trkpt>
      <trkpt lat="43.46792" lon="3.82161">
        <ele>2</ele>
        <time>2019-05-31T12:34:25.000Z</time>
      </trkpt>
      <trkpt lat="43.46775" lon="3.82143">
        <ele>2</ele>
        <time>2019-05-31T12:34:30.000Z</time>
      </trkpt>
      <trkpt lat="43.46757" lon="3.82126">
        <ele>2</ele>
        <time>2019-05-31T12:34:35.000Z</time>
      </trkpt>
      <trkpt lat="43.46739" lon="3.8211">
        <ele>2</ele>
        <time>2019-05-31T12:34:40.000Z</time>
      </trkpt>
      <trkpt lat="43.46722" lon="3.8209">
        <ele>2</ele>
        <time>2019-05-31T12:34:45.000Z</time>
      </trkpt>
      <trkpt lat="43.46706" lon="3.82072">
        <ele>1.3</ele>
        <time>2019-05-31T12:34:50.000Z</time>
      </trkpt>
      <trkpt lat="43.46688" lon="3.82056">
        <ele>1.2</ele>
        <time>2019-05-31T12:34:55.000Z</time>
      </trkpt>
      <trkpt lat="43.46671" lon="3.82038">
        <ele>1.3</ele>
        <time>2019-05-31T12:35:00.000Z</time>
      </trkpt>
      <trkpt lat="43.46652" lon="3.8202">
        <ele>1.4</ele>
        <time>2019-05-31T12:35:05.000Z</time>
      </trkpt>
      <trkpt lat="43.46635" lon="3.82001">
        <ele>1</ele>
        <time>2019-05-31T12:35:10.000Z</time>
      </trkpt>
      <trkpt lat="43.46617" lon="3.81985">
        <ele>1</ele>
        <time>2019-05-31T12:35:15.000Z</time>
      </trkpt>
      <trkpt lat="43.46598" lon="3.81969">
        <ele>1</ele>
        <time>2019-05-31T12:35:20.000Z</time>
      </trkpt>
      <trkpt lat="43.46582" lon="3.81951">
        <ele>1.8</ele>
        <time>2019-05-31T12:35:25.000Z</time>
      </trkpt>
      <trkpt lat="43.46566" lon="3.8193">
        <ele>1.5</ele>
        <time>2019-05-31T12:35:30.000Z</time>
      </trkpt>
      <trkpt lat="43.46549" lon="3.81912">
        <ele>1</ele>
        <time>2019-05-31T12:35:35.000Z</time>
      </trkpt>
      <trkpt lat="43.46533" lon="3.81894">
        <ele>1</ele>
        <time>2019-05-31T12:35:40.000Z</time>
      </trkpt>
      <trkpt lat="43.46516" lon="3.81878">
        <ele>2</ele>
        <time>2019-05-31T12:35:45.000Z</time>
      </trkpt>
      <trkpt lat="43.46499" lon="3.81861">
        <ele>1</ele>
        <time>2019-05-31T12:35:50.000Z</time>
      </trkpt>
      <trkpt lat="43.46482" lon="3.81844">
        <ele>1</ele>
        <time>2019-05-31T12:35:55.000Z</time>
      </trkpt>
      <trkpt lat="43.46464" lon="3.81828">
        <ele>1</ele>
        <time>2019-05-31T12:36:00.000Z</time>
      </trkpt>
      <trkpt lat="43.46444" lon="3.81817">
        <ele>1</ele>
        <time>2019-05-31T12:36:05.000Z</time>
      </trkpt>
      <trkpt lat="43.46425" lon="3.81822">
        <ele>1</ele>
        <time>2019-05-31T12:36:10.000Z</time>
      </trkpt>
      <trkpt lat="43.46409" lon="3.8184">
        <ele>1</ele>
        <time>2019-05-31T12:36:15.000Z</time>
      </trkpt>
      <trkpt lat="43.46396" lon="3.81864">
        <ele>0.74</ele>
        <time>2019-05-31T12:36:20.000Z</time>
      </trkpt>
      <trkpt lat="43.46379" lon="3.81884">
        <ele>2.74</ele>
        <time>2019-05-31T12:36:25.000Z</time>
      </trkpt>
      <trkpt lat="43.4636" lon="3.81901">
        <ele>2.01</ele>
        <time>2019-05-31T12:36:30.000Z</time>
      </trkpt>
      <trkpt lat="43.46342" lon="3.81914">
        <ele>2.76</ele>
        <time>2019-05-31T12:36:35.000Z</time>
      </trkpt>
      <trkpt lat="43.46324" lon="3.81926">
        <ele>2.81</ele>
        <time>2019-05-31T12:36:40.000Z</time>
      </trkpt>
      <trkpt lat="43.4631" lon="3.81935">
        <ele>3.01</ele>
        <time>2019-05-31T12:36:45.000Z</time>
      </trkpt>
      <trkpt lat="43.463" lon="3.81938">
        <ele>3.7</ele>
        <time>2019-05-31T12:37:00.000Z</time>
      </trkpt>
      <trkpt lat="43.46291" lon="3.81941">
        <ele>1.76</ele>
        <time>2019-05-31T12:39:36.000Z</time>
      </trkpt>
      <trkpt lat="43.46275" lon="3.81945">
        <ele>2.51</ele>
        <time>2019-05-31T12:39:41.000Z</time>
      </trkpt>
      <trkpt lat="43.46257" lon="3.81953">
        <ele>1.76</ele>
        <time>2019-05-31T12:39:46.000Z</time>
      </trkpt>
      <trkpt lat="43.46238" lon="3.81958">
        <ele>2.76</ele>
        <time>2019-05-31T12:39:51.000Z</time>
      </trkpt>
      <trkpt lat="43.46218" lon="3.81961">
        <ele>1.78</ele>
        <time>2019-05-31T12:39:56.000Z</time>
      </trkpt>
      <trkpt lat="43.46196" lon="3.81963">
        <ele>1.01</ele>
        <time>2019-05-31T12:40:01.000Z</time>
      </trkpt>
      <trkpt lat="43.46175" lon="3.81963">
        <ele>0.76</ele>
        <time>2019-05-31T12:40:06.000Z</time>
      </trkpt>
      <trkpt lat="43.46155" lon="3.81962">
        <ele>0.76</ele>
        <time>2019-05-31T12:40:11.000Z</time>
      </trkpt>
      <trkpt lat="43.46134" lon="3.81957">
        <ele>0.76</ele>
        <time>2019-05-31T12:40:16.000Z</time>
      </trkpt>
      <trkpt lat="43.46114" lon="3.81951">
        <ele>1.51</ele>
        <time>2019-05-31T12:40:21.000Z</time>
      </trkpt>
      <trkpt lat="43.46093" lon="3.81943">
        <ele>1.76</ele>
        <time>2019-05-31T12:40:26.000Z</time>
      </trkpt>
      <trkpt lat="43.46072" lon="3.81932">
        <ele>1.76</ele>
        <time>2019-05-31T12:40:31.000Z</time>
      </trkpt>
      <trkpt lat="43.46054" lon="3.81921">
        <ele>0.58</ele>
        <time>2019-05-31T12:40:36.000Z</time>
      </trkpt>
      <trkpt lat="43.46036" lon="3.81909">
        <ele>1</ele>
        <time>2019-05-31T12:40:41.000Z</time>
      </trkpt>
      <trkpt lat="43.46021" lon="3.81893">
        <ele>1</ele>
        <time>2019-05-31T12:40:46.000Z</time>
      </trkpt>
      <trkpt lat="43.46004" lon="3.81875">
        <ele>1</ele>
        <time>2019-05-31T12:40:51.000Z</time>
      </trkpt>
      <trkpt lat="43.45989" lon="3.81855">
        <ele>0.75</ele>
        <time>2019-05-31T12:40:56.000Z</time>
      </trkpt>
      <trkpt lat="43.45974" lon="3.81836">
        <ele>0.76</ele>
        <time>2019-05-31T12:41:01.000Z</time>
      </trkpt>
      <trkpt lat="43.45958" lon="3.81817">
        <ele>0.81</ele>
        <time>2019-05-31T12:41:06.000Z</time>
      </trkpt>
      <trkpt lat="43.45943" lon="3.81796">
        <ele>1</ele>
        <time>2019-05-31T12:41:11.000Z</time>
      </trkpt>
      <trkpt lat="43.45929" lon="3.81774">
        <ele>1</ele>
        <time>2019-05-31T12:41:16.000Z</time>
      </trkpt>
      <trkpt lat="43.45915" lon="3.81754">
        <ele>1</ele>
        <time>2019-05-31T12:41:21.000Z</time>
      </trkpt>
      <trkpt lat="43.45901" lon="3.81733">
        <ele>1</ele>
        <time>2019-05-31T12:41:26.000Z</time>
      </trkpt>
      <trkpt lat="43.45887" lon="3.81712">
        <ele>1</ele>
        <time>2019-05-31T12:41:31.000Z</time>
      </trkpt>
      <trkpt lat="43.45871" lon="3.8169">
        <ele>1.2</ele>
        <time>2019-05-31T12:41:36.000Z</time>
      </trkpt>
      <trkpt lat="43.45856" lon="3.81667">
        <ele>2</ele>
        <time>2019-05-31T12:41:41.000Z</time>
      </trkpt>
      <trkpt lat="43.4584" lon="3.81646">
        <ele>1.3</ele>
        <time>2019-05-31T12:41:46.000Z</time>
      </trkpt>
      <trkpt lat="43.45826" lon="3.81625">
        <ele>0.51</ele>
        <time>2019-05-31T12:41:51.000Z</time>
      </trkpt>
      <trkpt lat="43.45811" lon="3.81604">
        <ele>1</ele>
        <time>2019-05-31T12:41:56.000Z</time>
      </trkpt>
      <trkpt lat="43.45796" lon="3.81582">
        <ele>2</ele>
        <time>2019-05-31T12:42:01.000Z</time>
      </trkpt>
      <trkpt lat="43.45782" lon="3.81561">
        <ele>2</ele>
        <time>2019-05-31T12:42:06.000Z</time>
      </trkpt>
      <trkpt lat="43.45768" lon="3.81541">
        <ele>0.52</ele>
        <time>2019-05-31T12:42:11.000Z</time>
      </trkpt>
      <trkpt lat="43.45753" lon="3.81521">
        <ele>2</ele>
        <time>2019-05-31T12:42:16.000Z</time>
      </trkpt>
      <trkpt lat="43.45739" lon="3.815">
        <ele>2</ele>
        <time>2019-05-31T12:42:21.000Z</time>
      </trkpt>
      <trkpt lat="43.45725" lon="3.81477">
        <ele>2</ele>
        <time>2019-05-31T12:42:26.000Z</time>
      </trkpt>
      <trkpt lat="43.4571" lon="3.81453">
        <ele>0.75</ele>
        <time>2019-05-31T12:42:31.000Z</time>
      </trkpt>
      <trkpt lat="43.45696" lon="3.81426">
        <ele>1</ele>
        <time>2019-05-31T12:42:36.000Z</time>
      </trkpt>
      <trkpt lat="43.45682" lon="3.81399">
        <ele>0.76</ele>
        <time>2019-05-31T12:42:41.000Z</time>
      </trkpt>
      <trkpt lat="43.45668" lon="3.81374">
        <ele>1.76</ele>
        <time>2019-05-31T12:42:46.000Z</time>
      </trkpt>
      <trkpt lat="43.45656" lon="3.81349">
        <ele>0.77</ele>
        <time>2019-05-31T12:42:51.000Z</time>
      </trkpt>
      <trkpt lat="43.45643" lon="3.81322">
        <ele>0.78</ele>
        <time>2019-05-31T12:42:56.000Z</time>
      </trkpt>
      <trkpt lat="43.45629" lon="3.81295">
        <ele>0.77</ele>
        <time>2019-05-31T12:43:01.000Z</time>
      </trkpt>
      <trkpt lat="43.45614" lon="3.81267">
        <ele>1.7</ele>
        <time>2019-05-31T12:43:06.000Z</time>
      </trkpt>
      <trkpt lat="43.456" lon="3.81238">
        <ele>1.76</ele>
        <time>2019-05-31T12:43:11.000Z</time>
      </trkpt>
      <trkpt lat="43.45587" lon="3.8121">
        <ele>1.77</ele>
        <time>2019-05-31T12:43:16.000Z</time>
      </trkpt>
      <trkpt lat="43.45572" lon="3.81182">
        <ele>1.77</ele>
        <time>2019-05-31T12:43:21.000Z</time>
      </trkpt>
      <trkpt lat="43.45558" lon="3.81155">
        <ele>1.77</ele>
        <time>2019-05-31T12:43:26.000Z</time>
      </trkpt>
      <trkpt lat="43.45545" lon="3.8113">
        <ele>1.77</ele>
        <time>2019-05-31T12:43:31.000Z</time>
      </trkpt>
      <trkpt lat="43.45534" lon="3.81114">
        <ele>2.76</ele>
        <time>2019-05-31T12:43:36.000Z</time>
      </trkpt>
      <trkpt lat="43.45524" lon="3.81113">
        <ele>1.52</ele>
        <time>2019-05-31T12:43:52.000Z</time>
      </trkpt>
      <trkpt lat="43.45508" lon="3.8113">
        <ele>1.76</ele>
        <time>2019-05-31T12:43:57.000Z</time>
      </trkpt>
      <trkpt lat="43.45488" lon="3.81151">
        <ele>2.52</ele>
        <time>2019-05-31T12:44:02.000Z</time>
      </trkpt>
      <trkpt lat="43.4547" lon="3.81169">
        <ele>2.52</ele>
        <time>2019-05-31T12:44:07.000Z</time>
      </trkpt>
      <trkpt lat="43.45453" lon="3.8119">
        <ele>2.02</ele>
        <time>2019-05-31T12:44:12.000Z</time>
      </trkpt>
      <trkpt lat="43.45436" lon="3.81203">
        <ele>1.77</ele>
        <time>2019-05-31T12:44:17.000Z</time>
      </trkpt>
      <trkpt lat="43.45421" lon="3.81207">
        <ele>0.83</ele>
        <time>2019-05-31T12:44:22.000Z</time>
      </trkpt>
      <trkpt lat="43.45407" lon="3.81217">
        <ele>2.5</ele>
        <time>2019-05-31T12:44:27.000Z</time>
      </trkpt>
      <trkpt lat="43.454" lon="3.8123">
        <ele>2.77</ele>
        <time>2019-05-31T12:44:32.000Z</time>
      </trkpt>
      <trkpt lat="43.45408" lon="3.81222">
        <ele>2.02</ele>
        <time>2019-05-31T12:46:54.000Z</time>
      </trkpt>
      <trkpt lat="43.45415" lon="3.81213">
        <ele>2.75</ele>
        <time>2019-05-31T12:46:59.000Z</time>
      </trkpt>
      <trkpt lat="43.45414" lon="3.81199">
        <ele>1.83</ele>
        <time>2019-05-31T12:50:51.000Z</time>
      </trkpt>
      <trkpt lat="43.45423" lon="3.8119">
        <ele>1.77</ele>
        <time>2019-05-31T12:50:56.000Z</time>
      </trkpt>
      <trkpt lat="43.4543" lon="3.81202">
        <ele>1.02</ele>
        <time>2019-05-31T12:51:01.000Z</time>
      </trkpt>
      <trkpt lat="43.45441" lon="3.81206">
        <ele>2.71</ele>
        <time>2019-05-31T12:51:07.000Z</time>
      </trkpt>
      <trkpt lat="43.45456" lon="3.81193">
        <ele>2.53</ele>
        <time>2019-05-31T12:51:12.000Z</time>
      </trkpt>
      <trkpt lat="43.4547" lon="3.81175">
        <ele>1.02</ele>
        <time>2019-05-31T12:51:17.000Z</time>
      </trkpt>
      <trkpt lat="43.45486" lon="3.81157">
        <ele>0.77</ele>
        <time>2019-05-31T12:51:22.000Z</time>
      </trkpt>
      <trkpt lat="43.455" lon="3.8114">
        <ele>1</ele>
        <time>2019-05-31T12:51:27.000Z</time>
      </trkpt>
      <trkpt lat="43.45515" lon="3.81126">
        <ele>1.8</ele>
        <time>2019-05-31T12:51:32.000Z</time>
      </trkpt>
      <trkpt lat="43.45527" lon="3.81113">
        <ele>0.7</ele>
        <time>2019-05-31T12:51:37.000Z</time>
      </trkpt>
      <trkpt lat="43.45528" lon="3.81098">
        <ele>2</ele>
        <time>2019-05-31T12:51:52.000Z</time>
      </trkpt>
      <trkpt lat="43.45517" lon="3.81072">
        <ele>2</ele>
        <time>2019-05-31T12:51:57.000Z</time>
      </trkpt>
      <trkpt lat="43.45503" lon="3.81045">
        <ele>0.77</ele>
        <time>2019-05-31T12:52:02.000Z</time>
      </trkpt>
      <trkpt lat="43.45489" lon="3.81017">
        <ele>1</ele>
        <time>2019-05-31T12:52:07.000Z</time>
      </trkpt>
      <trkpt lat="43.45474" lon="3.80987">
        <ele>1.5</ele>
        <time>2019-05-31T12:52:12.000Z</time>
      </trkpt>
      <trkpt lat="43.45458" lon="3.80958">
        <ele>0.7</ele>
        <time>2019-05-31T12:52:17.000Z</time>
      </trkpt>
      <trkpt lat="43.45443" lon="3.80928">
        <ele>1.6</ele>
        <time>2019-05-31T12:52:22.000Z</time>
      </trkpt>
      <trkpt lat="43.45428" lon="3.80897">
        <ele>1.8</ele>
        <time>2019-05-31T12:52:27.000Z</time>
      </trkpt>
      <trkpt lat="43.45413" lon="3.80865">
        <ele>1.9</ele>
        <time>2019-05-31T12:52:32.000Z</time>
      </trkpt>
      <trkpt lat="43.45397" lon="3.80834">
        <ele>2</ele>
        <time>2019-05-31T12:52:37.000Z</time>
      </trkpt>
      <trkpt lat="43.45381" lon="3.80803">
        <ele>1</ele>
        <time>2019-05-31T12:52:42.000Z</time>
      </trkpt>
      <trkpt lat="43.45365" lon="3.80772">
        <ele>0.76</ele>
        <time>2019-05-31T12:52:47.000Z</time>
      </trkpt>
      <trkpt lat="43.4535" lon="3.8074">
        <ele>0.77</ele>
        <time>2019-05-31T12:52:52.000Z</time>
      </trkpt>
      <trkpt lat="43.45335" lon="3.80709">
        <ele>1.52</ele>
        <time>2019-05-31T12:52:57.000Z</time>
      </trkpt>
      <trkpt lat="43.45319" lon="3.80678">
        <ele>0.78</ele>
        <time>2019-05-31T12:53:02.000Z</time>
      </trkpt>
      <trkpt lat="43.45301" lon="3.80649">
        <ele>1.71</ele>
        <time>2019-05-31T12:53:07.000Z</time>
      </trkpt>
      <trkpt lat="43.45288" lon="3.80619">
        <ele>1.53</ele>
        <time>2019-05-31T12:53:12.000Z</time>
      </trkpt>
      <trkpt lat="43.45275" lon="3.8059">
        <ele>1.02</ele>
        <time>2019-05-31T12:53:17.000Z</time>
      </trkpt>
      <trkpt lat="43.45261" lon="3.80559">
        <ele>1.9</ele>
        <time>2019-05-31T12:53:22.000Z</time>
      </trkpt>
      <trkpt lat="43.45247" lon="3.80529">
        <ele>1.1</ele>
        <time>2019-05-31T12:53:27.000Z</time>
      </trkpt>
      <trkpt lat="43.45234" lon="3.80497">
        <ele>1</ele>
        <time>2019-05-31T12:53:32.000Z</time>
      </trkpt>
      <trkpt lat="43.4522" lon="3.80468">
        <ele>1</ele>
        <time>2019-05-31T12:53:37.000Z</time>
      </trkpt>
      <trkpt lat="43.45206" lon="3.80439">
        <ele>1</ele>
        <time>2019-05-31T12:53:42.000Z</time>
      </trkpt>
      <trkpt lat="43.45193" lon="3.8041">
        <ele>1</ele>
        <time>2019-05-31T12:53:47.000Z</time>
      </trkpt>
      <trkpt lat="43.45178" lon="3.80381">
        <ele>0.52</ele>
        <time>2019-05-31T12:53:52.000Z</time>
      </trkpt>
      <trkpt lat="43.45164" lon="3.80351">
        <ele>0.75</ele>
        <time>2019-05-31T12:53:57.000Z</time>
      </trkpt>
      <trkpt lat="43.45151" lon="3.80322">
        <ele>0.77</ele>
        <time>2019-05-31T12:54:02.000Z</time>
      </trkpt>
      <trkpt lat="43.45138" lon="3.80294">
        <ele>1</ele>
        <time>2019-05-31T12:54:07.000Z</time>
      </trkpt>
      <trkpt lat="43.45125" lon="3.80265">
        <ele>1</ele>
        <time>2019-05-31T12:54:12.000Z</time>
      </trkpt>
      <trkpt lat="43.45112" lon="3.80235">
        <ele>1</ele>
        <time>2019-05-31T12:54:17.000Z</time>
      </trkpt>
      <trkpt lat="43.45097" lon="3.80206">
        <ele>1</ele>
        <time>2019-05-31T12:54:22.000Z</time>
      </trkpt>
      <trkpt lat="43.45085" lon="3.80176">
        <ele>1</ele>
        <time>2019-05-31T12:54:27.000Z</time>
      </trkpt>
      <trkpt lat="43.45071" lon="3.80147">
        <ele>1</ele>
        <time>2019-05-31T12:54:32.000Z</time>
      </trkpt>
      <trkpt lat="43.45057" lon="3.80118">
        <ele>1</ele>
        <time>2019-05-31T12:54:37.000Z</time>
      </trkpt>
      <trkpt lat="43.45044" lon="3.80088">
        <ele>1</ele>
        <time>2019-05-31T12:54:42.000Z</time>
      </trkpt>
      <trkpt lat="43.45029" lon="3.80058">
        <ele>1</ele>
        <time>2019-05-31T12:54:47.000Z</time>
      </trkpt>
      <trkpt lat="43.45015" lon="3.80027">
        <ele>1</ele>
        <time>2019-05-31T12:54:52.000Z</time>
      </trkpt>
      <trkpt lat="43.45001" lon="3.79996">
        <ele>1</ele>
        <time>2019-05-31T12:54:57.000Z</time>
      </trkpt>
      <trkpt lat="43.44986" lon="3.79965">
        <ele>1</ele>
        <time>2019-05-31T12:55:02.000Z</time>
      </trkpt>
      <trkpt lat="43.44972" lon="3.79936">
        <ele>1</ele>
        <time>2019-05-31T12:55:07.000Z</time>
      </trkpt>
      <trkpt lat="43.44957" lon="3.79907">
        <ele>1</ele>
        <time>2019-05-31T12:55:12.000Z</time>
      </trkpt>
      <trkpt lat="43.44943" lon="3.79879">
        <ele>1</ele>
        <time>2019-05-31T12:55:17.000Z</time>
      </trkpt>
      <trkpt lat="43.44927" lon="3.79851">
        <ele>1</ele>
        <time>2019-05-31T12:55:22.000Z</time>
      </trkpt>
      <trkpt lat="43.44909" lon="3.79825">
        <ele>2</ele>
        <time>2019-05-31T12:55:27.000Z</time>
      </trkpt>
      <trkpt lat="43.44891" lon="3.798">
        <ele>2</ele>
        <time>2019-05-31T12:55:32.000Z</time>
      </trkpt>
      <trkpt lat="43.44872" lon="3.79776">
        <ele>0.75</ele>
        <time>2019-05-31T12:55:37.000Z</time>
      </trkpt>
      <trkpt lat="43.44852" lon="3.79754">
        <ele>0.77</ele>
        <time>2019-05-31T12:55:42.000Z</time>
      </trkpt>
      <trkpt lat="43.44832" lon="3.79734">
        <ele>0.71</ele>
        <time>2019-05-31T12:55:47.000Z</time>
      </trkpt>
      <trkpt lat="43.44812" lon="3.79716">
        <ele>0.77</ele>
        <time>2019-05-31T12:55:52.000Z</time>
      </trkpt>
      <trkpt lat="43.44791" lon="3.79698">
        <ele>0.71</ele>
        <time>2019-05-31T12:55:57.000Z</time>
      </trkpt>
      <trkpt lat="43.4477" lon="3.7968">
        <ele>1</ele>
        <time>2019-05-31T12:56:02.000Z</time>
      </trkpt>
      <trkpt lat="43.44749" lon="3.79663">
        <ele>0.77</ele>
        <time>2019-05-31T12:56:07.000Z</time>
      </trkpt>
      <trkpt lat="43.44728" lon="3.79646">
        <ele>0.77</ele>
        <time>2019-05-31T12:56:12.000Z</time>
      </trkpt>
      <trkpt lat="43.44707" lon="3.79628">
        <ele>0.72</ele>
        <time>2019-05-31T12:56:17.000Z</time>
      </trkpt>
      <trkpt lat="43.44687" lon="3.79611">
        <ele>0.77</ele>
        <time>2019-05-31T12:56:22.000Z</time>
      </trkpt>
      <trkpt lat="43.44666" lon="3.79594">
        <ele>0.78</ele>
        <time>2019-05-31T12:56:27.000Z</time>
      </trkpt>
      <trkpt lat="43.44646" lon="3.79576">
        <ele>0.77</ele>
        <time>2019-05-31T12:56:32.000Z</time>
      </trkpt>
      <trkpt lat="43.44626" lon="3.7956">
        <ele>0.77</ele>
        <time>2019-05-31T12:56:37.000Z</time>
      </trkpt>
      <trkpt lat="43.44606" lon="3.79543">
        <ele>0.71</ele>
        <time>2019-05-31T12:56:42.000Z</time>
      </trkpt>
      <trkpt lat="43.44587" lon="3.79526">
        <ele>1.77</ele>
        <time>2019-05-31T12:56:47.000Z</time>
      </trkpt>
      <trkpt lat="43.44568" lon="3.79511">
        <ele>1.79</ele>
        <time>2019-05-31T12:56:52.000Z</time>
      </trkpt>
      <trkpt lat="43.44549" lon="3.79494">
        <ele>1.79</ele>
        <time>2019-05-31T12:56:57.000Z</time>
      </trkpt>
      <trkpt lat="43.44527" lon="3.79477">
        <ele>1.02</ele>
        <time>2019-05-31T12:57:02.000Z</time>
      </trkpt>
      <trkpt lat="43.44505" lon="3.79458">
        <ele>0.77</ele>
        <time>2019-05-31T12:57:07.000Z</time>
      </trkpt>
      <trkpt lat="43.44482" lon="3.79439">
        <ele>0.77</ele>
        <time>2019-05-31T12:57:12.000Z</time>
      </trkpt>
      <trkpt lat="43.44458" lon="3.7942">
        <ele>0.72</ele>
        <time>2019-05-31T12:57:17.000Z</time>
      </trkpt>
      <trkpt lat="43.44436" lon="3.79402">
        <ele>0.02</ele>
        <time>2019-05-31T12:57:22.000Z</time>
      </trkpt>
      <trkpt lat="43.44415" lon="3.79383">
        <ele>1.76</ele>
        <time>2019-05-31T12:57:27.000Z</time>
      </trkpt>
      <trkpt lat="43.44394" lon="3.79366">
        <ele>1.77</ele>
        <time>2019-05-31T12:57:32.000Z</time>
      </trkpt>
      <trkpt lat="43.44374" lon="3.79348">
        <ele>1.77</ele>
        <time>2019-05-31T12:57:37.000Z</time>
      </trkpt>
      <trkpt lat="43.44352" lon="3.7933">
        <ele>0.78</ele>
        <time>2019-05-31T12:57:42.000Z</time>
      </trkpt>
      <trkpt lat="43.44332" lon="3.79312">
        <ele>1.77</ele>
        <time>2019-05-31T12:57:47.000Z</time>
      </trkpt>
      <trkpt lat="43.44311" lon="3.79294">
        <ele>0.98</ele>
        <time>2019-05-31T12:57:52.000Z</time>
      </trkpt>
      <trkpt lat="43.4429" lon="3.79276">
        <ele>1</ele>
        <time>2019-05-31T12:57:57.000Z</time>
      </trkpt>
      <trkpt lat="43.44269" lon="3.79255">
        <ele>1</ele>
        <time>2019-05-31T12:58:02.000Z</time>
      </trkpt>
      <trkpt lat="43.4425" lon="3.79232">
        <ele>1</ele>
        <time>2019-05-31T12:58:07.000Z</time>
      </trkpt>
      <trkpt lat="43.44232" lon="3.79209">
        <ele>0.53</ele>
        <time>2019-05-31T12:58:12.000Z</time>
      </trkpt>
      <trkpt lat="43.44212" lon="3.7919">
        <ele>0.78</ele>
        <time>2019-05-31T12:58:17.000Z</time>
      </trkpt>
      <trkpt lat="43.4419" lon="3.79178">
        <ele>0.96</ele>
        <time>2019-05-31T12:58:22.000Z</time>
      </trkpt>
      <trkpt lat="43.44169" lon="3.79175">
        <ele>1.76</ele>
        <time>2019-05-31T12:58:27.000Z</time>
      </trkpt>
      <trkpt lat="43.44152" lon="3.79186">
        <ele>1.78</ele>
        <time>2019-05-31T12:58:32.000Z</time>
      </trkpt>
      <trkpt lat="43.44138" lon="3.79201">
        <ele>1.78</ele>
        <time>2019-05-31T12:58:37.000Z</time>
      </trkpt>
      <trkpt lat="43.44129" lon="3.79204">
        <ele>1</ele>
        <time>2019-05-31T12:58:49.000Z</time>
      </trkpt>
      <trkpt lat="43.44116" lon="3.79191">
        <ele>0.78</ele>
        <time>2019-05-31T12:58:54.000Z</time>
      </trkpt>
      <trkpt lat="43.44104" lon="3.79174">
        <ele>0.78</ele>
        <time>2019-05-31T12:58:59.000Z</time>
      </trkpt>
      <trkpt lat="43.44093" lon="3.79161">
        <ele>1.77</ele>
        <time>2019-05-31T12:59:04.000Z</time>
      </trkpt>
      <trkpt lat="43.44097" lon="3.79141">
        <ele>1.77</ele>
        <time>2019-05-31T12:59:09.000Z</time>
      </trkpt>
      <trkpt lat="43.4411" lon="3.79122">
        <ele>1.78</ele>
        <time>2019-05-31T12:59:14.000Z</time>
      </trkpt>
      <trkpt lat="43.44109" lon="3.79094">
        <ele>1.78</ele>
        <time>2019-05-31T12:59:19.000Z</time>
      </trkpt>
      <trkpt lat="43.44106" lon="3.79064">
        <ele>1.73</ele>
        <time>2019-05-31T12:59:24.000Z</time>
      </trkpt>
      <trkpt lat="43.44103" lon="3.79031">
        <ele>1.53</ele>
        <time>2019-05-31T12:59:29.000Z</time>
      </trkpt>
      <trkpt lat="43.44099" lon="3.78999">
        <ele>1.78</ele>
        <time>2019-05-31T12:59:34.000Z</time>
      </trkpt>
      <trkpt lat="43.4409" lon="3.7897">
        <ele>1.76</ele>
        <time>2019-05-31T12:59:39.000Z</time>
      </trkpt>
      <trkpt lat="43.44077" lon="3.78942">
        <ele>1.03</ele>
        <time>2019-05-31T12:59:44.000Z</time>
      </trkpt>
      <trkpt lat="43.44064" lon="3.78911">
        <ele>1.78</ele>
        <time>2019-05-31T12:59:49.000Z</time>
      </trkpt>
      <trkpt lat="43.4405" lon="3.78884">
        <ele>0.84</ele>
        <time>2019-05-31T12:59:54.000Z</time>
      </trkpt>
      <trkpt lat="43.44037" lon="3.78854">
        <ele>0.78</ele>
        <time>2019-05-31T12:59:59.000Z</time>
      </trkpt>
      <trkpt lat="43.44023" lon="3.78826">
        <ele>0.78</ele>
        <time>2019-05-31T13:00:04.000Z</time>
      </trkpt>
      <trkpt lat="43.4401" lon="3.78798">
        <ele>0.78</ele>
        <time>2019-05-31T13:00:09.000Z</time>
      </trkpt>
      <trkpt lat="43.43997" lon="3.78769">
        <ele>1.78</ele>
        <time>2019-05-31T13:00:14.000Z</time>
      </trkpt>
      <trkpt lat="43.43984" lon="3.7874">
        <ele>1.78</ele>
        <time>2019-05-31T13:00:19.000Z</time>
      </trkpt>
      <trkpt lat="43.43971" lon="3.78711">
        <ele>1.78</ele>
        <time>2019-05-31T13:00:24.000Z</time>
      </trkpt>
      <trkpt lat="43.43958" lon="3.78682">
        <ele>1.53</ele>
        <time>2019-05-31T13:00:29.000Z</time>
      </trkpt>
      <trkpt lat="43.43944" lon="3.78654">
        <ele>0.78</ele>
        <time>2019-05-31T13:00:34.000Z</time>
      </trkpt>
      <trkpt lat="43.4393" lon="3.78625">
        <ele>1.54</ele>
        <time>2019-05-31T13:00:39.000Z</time>
      </trkpt>
      <trkpt lat="43.43917" lon="3.78596">
        <ele>1.78</ele>
        <time>2019-05-31T13:00:44.000Z</time>
      </trkpt>
      <trkpt lat="43.43904" lon="3.78567">
        <ele>1.78</ele>
        <time>2019-05-31T13:00:49.000Z</time>
      </trkpt>
      <trkpt lat="43.4389" lon="3.78538">
        <ele>1.78</ele>
        <time>2019-05-31T13:00:54.000Z</time>
      </trkpt>
      <trkpt lat="43.43877" lon="3.78507">
        <ele>0.83</ele>
        <time>2019-05-31T13:00:59.000Z</time>
      </trkpt>
      <trkpt lat="43.43864" lon="3.78477">
        <ele>0.78</ele>
        <time>2019-05-31T13:01:04.000Z</time>
      </trkpt>
      <trkpt lat="43.43849" lon="3.78448">
        <ele>1.53</ele>
        <time>2019-05-31T13:01:09.000Z</time>
      </trkpt>
      <trkpt lat="43.43836" lon="3.78419">
        <ele>0.78</ele>
        <time>2019-05-31T13:01:14.000Z</time>
      </trkpt>
      <trkpt lat="43.43822" lon="3.78391">
        <ele>1.53</ele>
        <time>2019-05-31T13:01:19.000Z</time>
      </trkpt>
      <trkpt lat="43.4381" lon="3.78361">
        <ele>1.01</ele>
        <time>2019-05-31T13:01:24.000Z</time>
      </trkpt>
      <trkpt lat="43.43797" lon="3.78333">
        <ele>1.54</ele>
        <time>2019-05-31T13:01:29.000Z</time>
      </trkpt>
      <trkpt lat="43.43784" lon="3.78305">
        <ele>0.98</ele>
        <time>2019-05-31T13:01:34.000Z</time>
      </trkpt>
      <trkpt lat="43.4377" lon="3.78276">
        <ele>1.76</ele>
        <time>2019-05-31T13:01:39.000Z</time>
      </trkpt>
      <trkpt lat="43.43757" lon="3.78246">
        <ele>1.79</ele>
        <time>2019-05-31T13:01:44.000Z</time>
      </trkpt>
      <trkpt lat="43.43743" lon="3.78217">
        <ele>1.59</ele>
        <time>2019-05-31T13:01:49.000Z</time>
      </trkpt>
      <trkpt lat="43.43729" lon="3.78187">
        <ele>1.03</ele>
        <time>2019-05-31T13:01:54.000Z</time>
      </trkpt>
      <trkpt lat="43.43715" lon="3.78157">
        <ele>0.78</ele>
        <time>2019-05-31T13:01:59.000Z</time>
      </trkpt>
      <trkpt lat="43.43702" lon="3.78127">
        <ele>2</ele>
        <time>2019-05-31T13:02:04.000Z</time>
      </trkpt>
      <trkpt lat="43.43688" lon="3.78097">
        <ele>0.78</ele>
        <time>2019-05-31T13:02:09.000Z</time>
      </trkpt>
      <trkpt lat="43.43673" lon="3.78067">
        <ele>0.78</ele>
        <time>2019-05-31T13:02:14.000Z</time>
      </trkpt>
      <trkpt lat="43.43659" lon="3.78037">
        <ele>0.78</ele>
        <time>2019-05-31T13:02:19.000Z</time>
      </trkpt>
      <trkpt lat="43.43645" lon="3.78007">
        <ele>0.78</ele>
        <time>2019-05-31T13:02:24.000Z</time>
      </trkpt>
      <trkpt lat="43.43632" lon="3.77977">
        <ele>1</ele>
        <time>2019-05-31T13:02:29.000Z</time>
      </trkpt>
      <trkpt lat="43.43617" lon="3.77946">
        <ele>0.58</ele>
        <time>2019-05-31T13:02:34.000Z</time>
      </trkpt>
      <trkpt lat="43.43603" lon="3.77916">
        <ele>0.78</ele>
        <time>2019-05-31T13:02:39.000Z</time>
      </trkpt>
      <trkpt lat="43.43591" lon="3.77888">
        <ele>0.84</ele>
        <time>2019-05-31T13:02:44.000Z</time>
      </trkpt>
      <trkpt lat="43.43577" lon="3.77861">
        <ele>0.03</ele>
        <time>2019-05-31T13:02:49.000Z</time>
      </trkpt>
      <trkpt lat="43.43562" lon="3.77837">
        <ele>0.72</ele>
        <time>2019-05-31T13:02:54.000Z</time>
      </trkpt>
      <trkpt lat="43.43545" lon="3.77826">
        <ele>1.53</ele>
        <time>2019-05-31T13:02:59.000Z</time>
      </trkpt>
      <trkpt lat="43.43537" lon="3.77808">
        <ele>2.03</ele>
        <time>2019-05-31T13:03:04.000Z</time>
      </trkpt>
      <trkpt lat="43.43537" lon="3.77785">
        <ele>2.78</ele>
        <time>2019-05-31T13:03:09.000Z</time>
      </trkpt>
      <trkpt lat="43.43546" lon="3.77765">
        <ele>3.78</ele>
        <time>2019-05-31T13:03:14.000Z</time>
      </trkpt>
      <trkpt lat="43.43545" lon="3.7774">
        <ele>4.78</ele>
        <time>2019-05-31T13:03:19.000Z</time>
      </trkpt>
      <trkpt lat="43.43541" lon="3.77717">
        <ele>3.78</ele>
        <time>2019-05-31T13:03:24.000Z</time>
      </trkpt>
      <trkpt lat="43.4354" lon="3.77693">
        <ele>4.78</ele>
        <time>2019-05-31T13:03:29.000Z</time>
      </trkpt>
      <trkpt lat="43.43537" lon="3.7767">
        <ele>5.78</ele>
        <time>2019-05-31T13:03:34.000Z</time>
      </trkpt>
      <trkpt lat="43.43535" lon="3.77648">
        <ele>5.79</ele>
        <time>2019-05-31T13:03:39.000Z</time>
      </trkpt>
      <trkpt lat="43.43532" lon="3.77626">
        <ele>7.53</ele>
        <time>2019-05-31T13:03:44.000Z</time>
      </trkpt>
      <trkpt lat="43.4353" lon="3.776">
        <ele>6.98</ele>
        <time>2019-05-31T13:03:49.000Z</time>
      </trkpt>
      <trkpt lat="43.43526" lon="3.77572">
        <ele>7.03</ele>
        <time>2019-05-31T13:03:54.000Z</time>
      </trkpt>
      <trkpt lat="43.43524" lon="3.77537">
        <ele>4.3</ele>
        <time>2019-05-31T13:03:59.000Z</time>
      </trkpt>
      <trkpt lat="43.43521" lon="3.77497">
        <ele>3.03</ele>
        <time>2019-05-31T13:04:04.000Z</time>
      </trkpt>
      <trkpt lat="43.4352" lon="3.7746">
        <ele>2.03</ele>
        <time>2019-05-31T13:04:09.000Z</time>
      </trkpt>
      <trkpt lat="43.43514" lon="3.77429">
        <ele>1.78</ele>
        <time>2019-05-31T13:04:14.000Z</time>
      </trkpt>
      <trkpt lat="43.43518" lon="3.77402">
        <ele>1.78</ele>
        <time>2019-05-31T13:04:19.000Z</time>
      </trkpt>
      <trkpt lat="43.43522" lon="3.77374">
        <ele>2.78</ele>
        <time>2019-05-31T13:04:24.000Z</time>
      </trkpt>
      <trkpt lat="43.43525" lon="3.77341">
        <ele>3.53</ele>
        <time>2019-05-31T13:04:29.000Z</time>
      </trkpt>
      <trkpt lat="43.43528" lon="3.77306">
        <ele>3.78</ele>
        <time>2019-05-31T13:04:34.000Z</time>
      </trkpt>
      <trkpt lat="43.4353" lon="3.77272">
        <ele>3.72</ele>
        <time>2019-05-31T13:04:39.000Z</time>
      </trkpt>
      <trkpt lat="43.43532" lon="3.77238">
        <ele>4.78</ele>
        <time>2019-05-31T13:04:44.000Z</time>
      </trkpt>
      <trkpt lat="43.43533" lon="3.77202">
        <ele>5.53</ele>
        <time>2019-05-31T13:04:49.000Z</time>
      </trkpt>
      <trkpt lat="43.43533" lon="3.77167">
        <ele>5.78</ele>
        <time>2019-05-31T13:04:54.000Z</time>
      </trkpt>
      <trkpt lat="43.43518" lon="3.77146">
        <ele>4.79</ele>
        <time>2019-05-31T13:04:59.000Z</time>
      </trkpt>
      <trkpt lat="43.43513" lon="3.77126">
        <ele>3.55</ele>
        <time>2019-05-31T13:05:04.000Z</time>
      </trkpt>
      <trkpt lat="43.43518" lon="3.77105">
        <ele>2.79</ele>
        <time>2019-05-31T13:05:09.000Z</time>
      </trkpt>
      <trkpt lat="43.43535" lon="3.77082">
        <ele>2.78</ele>
        <time>2019-05-31T13:05:14.000Z</time>
      </trkpt>
      <trkpt lat="43.43542" lon="3.77051">
        <ele>2.78</ele>
        <time>2019-05-31T13:05:19.000Z</time>
      </trkpt>
      <trkpt lat="43.43545" lon="3.77016">
        <ele>2.78</ele>
        <time>2019-05-31T13:05:24.000Z</time>
      </trkpt>
      <trkpt lat="43.43546" lon="3.76983">
        <ele>2.97</ele>
        <time>2019-05-31T13:05:29.000Z</time>
      </trkpt>
      <trkpt lat="43.43547" lon="3.76949">
        <ele>2.79</ele>
        <time>2019-05-31T13:05:34.000Z</time>
      </trkpt>
      <trkpt lat="43.43549" lon="3.76916">
        <ele>3.72</ele>
        <time>2019-05-31T13:05:39.000Z</time>
      </trkpt>
      <trkpt lat="43.43552" lon="3.76883">
        <ele>2.79</ele>
        <time>2019-05-31T13:05:44.000Z</time>
      </trkpt>
      <trkpt lat="43.43554" lon="3.76848">
        <ele>2.54</ele>
        <time>2019-05-31T13:05:49.000Z</time>
      </trkpt>
      <trkpt lat="43.43557" lon="3.76814">
        <ele>1.78</ele>
        <time>2019-05-31T13:05:54.000Z</time>
      </trkpt>
      <trkpt lat="43.43559" lon="3.76778">
        <ele>1.79</ele>
        <time>2019-05-31T13:05:59.000Z</time>
      </trkpt>
      <trkpt lat="43.43561" lon="3.7674">
        <ele>1.77</ele>
        <time>2019-05-31T13:06:04.000Z</time>
      </trkpt>
      <trkpt lat="43.43563" lon="3.76703">
        <ele>1.78</ele>
        <time>2019-05-31T13:06:09.000Z</time>
      </trkpt>
      <trkpt lat="43.43565" lon="3.76667">
        <ele>1.78</ele>
        <time>2019-05-31T13:06:14.000Z</time>
      </trkpt>
      <trkpt lat="43.43567" lon="3.7663">
        <ele>1.73</ele>
        <time>2019-05-31T13:06:19.000Z</time>
      </trkpt>
      <trkpt lat="43.43569" lon="3.76596">
        <ele>1.78</ele>
        <time>2019-05-31T13:06:24.000Z</time>
      </trkpt>
      <trkpt lat="43.43571" lon="3.7656">
        <ele>1.78</ele>
        <time>2019-05-31T13:06:29.000Z</time>
      </trkpt>
      <trkpt lat="43.43573" lon="3.76524">
        <ele>1.78</ele>
        <time>2019-05-31T13:06:34.000Z</time>
      </trkpt>
      <trkpt lat="43.4357" lon="3.76488">
        <ele>0.79</ele>
        <time>2019-05-31T13:06:39.000Z</time>
      </trkpt>
      <trkpt lat="43.43571" lon="3.76452">
        <ele>1.53</ele>
        <time>2019-05-31T13:06:44.000Z</time>
      </trkpt>
      <trkpt lat="43.43573" lon="3.76417">
        <ele>0.78</ele>
        <time>2019-05-31T13:06:49.000Z</time>
      </trkpt>
      <trkpt lat="43.43575" lon="3.7638">
        <ele>1.7</ele>
        <time>2019-05-31T13:06:54.000Z</time>
      </trkpt>
      <trkpt lat="43.43576" lon="3.76345">
        <ele>0.54</ele>
        <time>2019-05-31T13:06:59.000Z</time>
      </trkpt>
      <trkpt lat="43.43578" lon="3.76312">
        <ele>0.78</ele>
        <time>2019-05-31T13:07:04.000Z</time>
      </trkpt>
      <trkpt lat="43.43578" lon="3.76281">
        <ele>1.53</ele>
        <time>2019-05-31T13:07:09.000Z</time>
      </trkpt>
      <trkpt lat="43.43587" lon="3.76278">
        <ele>1.73</ele>
        <time>2019-05-31T13:07:14.000Z</time>
      </trkpt>
      <trkpt lat="43.43593" lon="3.76266">
        <ele>2.77</ele>
        <time>2019-05-31T13:07:25.000Z</time>
      </trkpt>
      <trkpt lat="43.43598" lon="3.76243">
        <ele>2.78</ele>
        <time>2019-05-31T13:07:30.000Z</time>
      </trkpt>
      <trkpt lat="43.43606" lon="3.76218">
        <ele>2.78</ele>
        <time>2019-05-31T13:07:35.000Z</time>
      </trkpt>
      <trkpt lat="43.43613" lon="3.76209">
        <ele>2.78</ele>
        <time>2019-05-31T13:07:40.000Z</time>
      </trkpt>
      <trkpt lat="43.43627" lon="3.76225">
        <ele>2.77</ele>
        <time>2019-05-31T13:07:45.000Z</time>
      </trkpt>
      <trkpt lat="43.43645" lon="3.76244">
        <ele>2.77</ele>
        <time>2019-05-31T13:07:50.000Z</time>
      </trkpt>
      <trkpt lat="43.43662" lon="3.76266">
        <ele>2.77</ele>
        <time>2019-05-31T13:07:55.000Z</time>
      </trkpt>
      <trkpt lat="43.43667" lon="3.76298">
        <ele>2.02</ele>
        <time>2019-05-31T13:08:00.000Z</time>
      </trkpt>
      <trkpt lat="43.43661" lon="3.76332">
        <ele>2.53</ele>
        <time>2019-05-31T13:08:05.000Z</time>
      </trkpt>
      <trkpt lat="43.43651" lon="3.76367">
        <ele>3.76</ele>
        <time>2019-05-31T13:08:10.000Z</time>
      </trkpt>
      <trkpt lat="43.43635" lon="3.76391">
        <ele>3.03</ele>
        <time>2019-05-31T13:08:15.000Z</time>
      </trkpt>
      <trkpt lat="43.43622" lon="3.76375">
        <ele>2.79</ele>
        <time>2019-05-31T13:08:20.000Z</time>
      </trkpt>
      <trkpt lat="43.43627" lon="3.76355">
        <ele>4.71</ele>
        <time>2019-05-31T13:08:25.000Z</time>
      </trkpt>
      <trkpt lat="43.43634" lon="3.76337">
        <ele>5.71</ele>
        <time>2019-05-31T13:08:30.000Z</time>
      </trkpt>
      <trkpt lat="43.43644" lon="3.7632">
        <ele>6.52</ele>
        <time>2019-05-31T13:08:35.000Z</time>
      </trkpt>
      <trkpt lat="43.43652" lon="3.76304">
        <ele>7.52</ele>
        <time>2019-05-31T13:08:40.000Z</time>
      </trkpt>
      <trkpt lat="43.4366" lon="3.76286">
        <ele>8.77</ele>
        <time>2019-05-31T13:08:45.000Z</time>
      </trkpt>
      <trkpt lat="43.43668" lon="3.76269">
        <ele>9.77</ele>
        <time>2019-05-31T13:08:50.000Z</time>
      </trkpt>
      <trkpt lat="43.43677" lon="3.76253">
        <ele>9.77</ele>
        <time>2019-05-31T13:08:55.000Z</time>
      </trkpt>
      <trkpt lat="43.43686" lon="3.76236">
        <ele>9.77</ele>
        <time>2019-05-31T13:09:00.000Z</time>
      </trkpt>
      <trkpt lat="43.43695" lon="3.76219">
        <ele>10.01</ele>
        <time>2019-05-31T13:09:05.000Z</time>
      </trkpt>
      <trkpt lat="43.43705" lon="3.762">
        <ele>8.78</ele>
        <time>2019-05-31T13:09:10.000Z</time>
      </trkpt>
      <trkpt lat="43.43715" lon="3.76182">
        <ele>9.71</ele>
        <time>2019-05-31T13:09:15.000Z</time>
      </trkpt>
      <trkpt lat="43.43728" lon="3.76163">
        <ele>9.02</ele>
        <time>2019-05-31T13:09:20.000Z</time>
      </trkpt>
      <trkpt lat="43.43745" lon="3.76155">
        <ele>9.71</ele>
        <time>2019-05-31T13:09:25.000Z</time>
      </trkpt>
      <trkpt lat="43.43761" lon="3.76157">
        <ele>8.77</ele>
        <time>2019-05-31T13:09:30.000Z</time>
      </trkpt>
      <trkpt lat="43.43772" lon="3.7616">
        <ele>8.77</ele>
        <time>2019-05-31T13:09:35.000Z</time>
      </trkpt>
      <trkpt lat="43.43783" lon="3.76139">
        <ele>8.77</ele>
        <time>2019-05-31T13:09:40.000Z</time>
      </trkpt>
      <trkpt lat="43.43793" lon="3.76115">
        <ele>8.73</ele>
        <time>2019-05-31T13:09:45.000Z</time>
      </trkpt>
      <trkpt lat="43.43803" lon="3.76099">
        <ele>7.83</ele>
        <time>2019-05-31T13:09:50.000Z</time>
      </trkpt>
      <trkpt lat="43.43799" lon="3.76063">
        <ele>5.79</ele>
        <time>2019-05-31T13:09:55.000Z</time>
      </trkpt>
      <trkpt lat="43.43831" lon="3.76037">
        <ele>2.84</ele>
        <time>2019-05-31T13:10:00.000Z</time>
      </trkpt>
      <trkpt lat="43.43865" lon="3.7602">
        <ele>3.77</ele>
        <time>2019-05-31T13:10:05.000Z</time>
      </trkpt>
      <trkpt lat="43.43897" lon="3.76004">
        <ele>2.77</ele>
        <time>2019-05-31T13:10:10.000Z</time>
      </trkpt>
      <trkpt lat="43.43926" lon="3.7599">
        <ele>3.77</ele>
        <time>2019-05-31T13:10:15.000Z</time>
      </trkpt>
      <trkpt lat="43.43953" lon="3.75978">
        <ele>3.71</ele>
        <time>2019-05-31T13:10:20.000Z</time>
      </trkpt>
      <trkpt lat="43.43981" lon="3.75965">
        <ele>3.77</ele>
        <time>2019-05-31T13:10:25.000Z</time>
      </trkpt>
      <trkpt lat="43.4401" lon="3.75951">
        <ele>4.77</ele>
        <time>2019-05-31T13:10:30.000Z</time>
      </trkpt>
      <trkpt lat="43.44038" lon="3.75944">
        <ele>4.76</ele>
        <time>2019-05-31T13:10:35.000Z</time>
      </trkpt>
      <trkpt lat="43.44065" lon="3.75931">
        <ele>4.58</ele>
        <time>2019-05-31T13:10:40.000Z</time>
      </trkpt>
      <trkpt lat="43.44093" lon="3.7592">
        <ele>4.78</ele>
        <time>2019-05-31T13:10:45.000Z</time>
      </trkpt>
      <trkpt lat="43.44121" lon="3.7591">
        <ele>5.76</ele>
        <time>2019-05-31T13:10:50.000Z</time>
      </trkpt>
      <trkpt lat="43.44147" lon="3.75903">
        <ele>5.02</ele>
        <time>2019-05-31T13:10:55.000Z</time>
      </trkpt>
      <trkpt lat="43.44173" lon="3.75897">
        <ele>4.72</ele>
        <time>2019-05-31T13:11:00.000Z</time>
      </trkpt>
      <trkpt lat="43.44201" lon="3.75888">
        <ele>5.7</ele>
        <time>2019-05-31T13:11:05.000Z</time>
      </trkpt>
      <trkpt lat="43.4423" lon="3.75889">
        <ele>4.02</ele>
        <time>2019-05-31T13:11:10.000Z</time>
      </trkpt>
      <trkpt lat="43.4426" lon="3.75894">
        <ele>3.72</ele>
        <time>2019-05-31T13:11:15.000Z</time>
      </trkpt>
      <trkpt lat="43.44289" lon="3.75901">
        <ele>3.77</ele>
        <time>2019-05-31T13:11:20.000Z</time>
      </trkpt>
      <trkpt lat="43.44299" lon="3.75903">
        <ele>4.52</ele>
        <time>2019-05-31T13:11:59.000Z</time>
      </trkpt>
      <trkpt lat="43.44312" lon="3.75908">
        <ele>5.52</ele>
        <time>2019-05-31T13:12:04.000Z</time>
      </trkpt>
      <trkpt lat="43.44333" lon="3.75913">
        <ele>5.76</ele>
        <time>2019-05-31T13:12:09.000Z</time>
      </trkpt>
      <trkpt lat="43.44356" lon="3.75915">
        <ele>6.7</ele>
        <time>2019-05-31T13:12:14.000Z</time>
      </trkpt>
      <trkpt lat="43.44379" lon="3.75919">
        <ele>6.01</ele>
        <time>2019-05-31T13:12:19.000Z</time>
      </trkpt>
      <trkpt lat="43.44402" lon="3.75925">
        <ele>4.83</ele>
        <time>2019-05-31T13:12:24.000Z</time>
      </trkpt>
      <trkpt lat="43.44413" lon="3.75921">
        <ele>4.75</ele>
        <time>2019-05-31T13:12:29.000Z</time>
      </trkpt>
      <trkpt lat="43.44416" lon="3.75906">
        <ele>5.7</ele>
        <time>2019-05-31T13:12:34.000Z</time>
      </trkpt>
      <trkpt lat="43.44412" lon="3.75881">
        <ele>5.76</ele>
        <time>2019-05-31T13:12:39.000Z</time>
      </trkpt>
      <trkpt lat="43.44404" lon="3.7586">
        <ele>4.97</ele>
        <time>2019-05-31T13:12:44.000Z</time>
      </trkpt>
      <trkpt lat="43.44397" lon="3.75845">
        <ele>4.95</ele>
        <time>2019-05-31T13:12:49.000Z</time>
      </trkpt>
      <trkpt lat="43.44404" lon="3.75836">
        <ele>7.76</ele>
        <time>2019-05-31T13:13:02.000Z</time>
      </trkpt>
      <trkpt lat="43.44415" lon="3.75838">
        <ele>5.83</ele>
        <time>2019-05-31T13:13:09.000Z</time>
      </trkpt>
      <trkpt lat="43.44424" lon="3.75843">
        <ele>4.76</ele>
        <time>2019-05-31T13:13:19.000Z</time>
      </trkpt>
      <trkpt lat="43.4443" lon="3.75833">
        <ele>2.7</ele>
        <time>2019-05-31T13:13:45.000Z</time>
      </trkpt>
      <trkpt lat="43.44427" lon="3.75808">
        <ele>1.76</ele>
        <time>2019-05-31T13:13:50.000Z</time>
      </trkpt>
      <trkpt lat="43.44421" lon="3.75776">
        <ele>1.82</ele>
        <time>2019-05-31T13:13:55.000Z</time>
      </trkpt>
      <trkpt lat="43.44415" lon="3.75747">
        <ele>3.51</ele>
        <time>2019-05-31T13:14:00.000Z</time>
      </trkpt>
      <trkpt lat="43.44408" lon="3.75719">
        <ele>4.72</ele>
        <time>2019-05-31T13:14:05.000Z</time>
      </trkpt>
      <trkpt lat="43.44406" lon="3.75706">
        <ele>2.78</ele>
        <time>2019-05-31T13:14:10.000Z</time>
      </trkpt>
      <trkpt lat="43.44405" lon="3.75692">
        <ele>2.03</ele>
        <time>2019-05-31T13:14:20.000Z</time>
      </trkpt>
      <trkpt lat="43.44401" lon="3.75676">
        <ele>3.56</ele>
        <time>2019-05-31T13:14:25.000Z</time>
      </trkpt>
      <trkpt lat="43.44392" lon="3.75652">
        <ele>2.76</ele>
        <time>2019-05-31T13:14:30.000Z</time>
      </trkpt>
      <trkpt lat="43.44383" lon="3.75628">
        <ele>5.68</ele>
        <time>2019-05-31T13:14:35.000Z</time>
      </trkpt>
      <trkpt lat="43.44373" lon="3.75605">
        <ele>6.58</ele>
        <time>2019-05-31T13:14:40.000Z</time>
      </trkpt>
      <trkpt lat="43.44368" lon="3.75587">
        <ele>5.76</ele>
        <time>2019-05-31T13:14:45.000Z</time>
      </trkpt>
      <trkpt lat="43.44377" lon="3.75583">
        <ele>5.01</ele>
        <time>2019-05-31T13:14:50.000Z</time>
      </trkpt>
      <trkpt lat="43.44386" lon="3.75571">
        <ele>4.01</ele>
        <time>2019-05-31T13:14:55.000Z</time>
      </trkpt>
      <trkpt lat="43.44381" lon="3.75545">
        <ele>5.01</ele>
        <time>2019-05-31T13:15:00.000Z</time>
      </trkpt>
      <trkpt lat="43.44369" lon="3.75513">
        <ele>4.01</ele>
        <time>2019-05-31T13:15:05.000Z</time>
      </trkpt>
      <trkpt lat="43.44359" lon="3.75483">
        <ele>1.78</ele>
        <time>2019-05-31T13:15:10.000Z</time>
      </trkpt>
      <trkpt lat="43.44351" lon="3.75456">
        <ele>2.51</ele>
        <time>2019-05-31T13:15:15.000Z</time>
      </trkpt>
      <trkpt lat="43.44341" lon="3.75444">
        <ele>3.5</ele>
        <time>2019-05-31T13:15:20.000Z</time>
      </trkpt>
      <trkpt lat="43.44326" lon="3.7543">
        <ele>2.77</ele>
        <time>2019-05-31T13:15:25.000Z</time>
      </trkpt>
      <trkpt lat="43.44308" lon="3.75409">
        <ele>2.78</ele>
        <time>2019-05-31T13:15:30.000Z</time>
      </trkpt>
      <trkpt lat="43.44291" lon="3.75389">
        <ele>2.81</ele>
        <time>2019-05-31T13:15:35.000Z</time>
      </trkpt>
      <trkpt lat="43.44273" lon="3.75365">
        <ele>1.78</ele>
        <time>2019-05-31T13:15:40.000Z</time>
      </trkpt>
      <trkpt lat="43.44255" lon="3.75343">
        <ele>1.75</ele>
        <time>2019-05-31T13:15:45.000Z</time>
      </trkpt>
      <trkpt lat="43.44236" lon="3.75323">
        <ele>3.51</ele>
        <time>2019-05-31T13:15:50.000Z</time>
      </trkpt>
      <trkpt lat="43.44218" lon="3.75305">
        <ele>3.75</ele>
        <time>2019-05-31T13:15:55.000Z</time>
      </trkpt>
      <trkpt lat="43.44207" lon="3.75287">
        <ele>3.01</ele>
        <time>2019-05-31T13:16:00.000Z</time>
      </trkpt>
      <trkpt lat="43.44194" lon="3.75264">
        <ele>3.53</ele>
        <time>2019-05-31T13:16:05.000Z</time>
      </trkpt>
      <trkpt lat="43.4418" lon="3.75239">
        <ele>2.78</ele>
        <time>2019-05-31T13:16:10.000Z</time>
      </trkpt>
      <trkpt lat="43.44164" lon="3.75213">
        <ele>2.77</ele>
        <time>2019-05-31T13:16:15.000Z</time>
      </trkpt>
      <trkpt lat="43.4415" lon="3.75187">
        <ele>2.77</ele>
        <time>2019-05-31T13:16:20.000Z</time>
      </trkpt>
      <trkpt lat="43.44135" lon="3.75162">
        <ele>1.78</ele>
        <time>2019-05-31T13:16:25.000Z</time>
      </trkpt>
      <trkpt lat="43.44118" lon="3.75136">
        <ele>2.57</ele>
        <time>2019-05-31T13:16:30.000Z</time>
      </trkpt>
      <trkpt lat="43.44098" lon="3.75112">
        <ele>3.95</ele>
        <time>2019-05-31T13:16:35.000Z</time>
      </trkpt>
      <trkpt lat="43.44077" lon="3.7509">
        <ele>3.81</ele>
        <time>2019-05-31T13:16:40.000Z</time>
      </trkpt>
      <trkpt lat="43.44055" lon="3.75067">
        <ele>3.02</ele>
        <time>2019-05-31T13:16:45.000Z</time>
      </trkpt>
      <trkpt lat="43.44035" lon="3.75044">
        <ele>3.01</ele>
        <time>2019-05-31T13:16:50.000Z</time>
      </trkpt>
      <trkpt lat="43.44016" lon="3.7502">
        <ele>3.77</ele>
        <time>2019-05-31T13:16:55.000Z</time>
      </trkpt>
      <trkpt lat="43.44013" lon="3.74987">
        <ele>3.77</ele>
        <time>2019-05-31T13:17:00.000Z</time>
      </trkpt>
      <trkpt lat="43.44032" lon="3.74964">
        <ele>5.52</ele>
        <time>2019-05-31T13:17:05.000Z</time>
      </trkpt>
      <trkpt lat="43.44052" lon="3.74942">
        <ele>5.02</ele>
        <time>2019-05-31T13:17:10.000Z</time>
      </trkpt>
      <trkpt lat="43.44074" lon="3.74922">
        <ele>5.7</ele>
        <time>2019-05-31T13:17:15.000Z</time>
      </trkpt>
      <trkpt lat="43.44098" lon="3.74903">
        <ele>5.76</ele>
        <time>2019-05-31T13:17:20.000Z</time>
      </trkpt>
      <trkpt lat="43.44121" lon="3.74886">
        <ele>5.58</ele>
        <time>2019-05-31T13:17:25.000Z</time>
      </trkpt>
      <trkpt lat="43.44118" lon="3.7486">
        <ele>5.76</ele>
        <time>2019-05-31T13:17:30.000Z</time>
      </trkpt>
      <trkpt lat="43.44101" lon="3.74838">
        <ele>4.75</ele>
        <time>2019-05-31T13:17:35.000Z</time>
      </trkpt>
      <trkpt lat="43.44083" lon="3.74815">
        <ele>3.83</ele>
        <time>2019-05-31T13:17:40.000Z</time>
      </trkpt>
      <trkpt lat="43.44066" lon="3.7479">
        <ele>3.95</ele>
        <time>2019-05-31T13:17:45.000Z</time>
      </trkpt>
      <trkpt lat="43.44048" lon="3.74765">
        <ele>2.97</ele>
        <time>2019-05-31T13:17:50.000Z</time>
      </trkpt>
      <trkpt lat="43.44031" lon="3.74738">
        <ele>2.52</ele>
        <time>2019-05-31T13:17:55.000Z</time>
      </trkpt>
      <trkpt lat="43.44016" lon="3.7471">
        <ele>2.01</ele>
        <time>2019-05-31T13:18:00.000Z</time>
      </trkpt>
      <trkpt lat="43.44001" lon="3.74679">
        <ele>2.76</ele>
        <time>2019-05-31T13:18:05.000Z</time>
      </trkpt>
      <trkpt lat="43.43985" lon="3.74652">
        <ele>2.95</ele>
        <time>2019-05-31T13:18:10.000Z</time>
      </trkpt>
      <trkpt lat="43.43967" lon="3.74627">
        <ele>3.76</ele>
        <time>2019-05-31T13:18:15.000Z</time>
      </trkpt>
      <trkpt lat="43.43949" lon="3.74605">
        <ele>2.77</ele>
        <time>2019-05-31T13:18:20.000Z</time>
      </trkpt>
      <trkpt lat="43.43931" lon="3.74583">
        <ele>3.52</ele>
        <time>2019-05-31T13:18:25.000Z</time>
      </trkpt>
      <trkpt lat="43.4391" lon="3.74566">
        <ele>3.7</ele>
        <time>2019-05-31T13:18:30.000Z</time>
      </trkpt>
      <trkpt lat="43.43887" lon="3.74552">
        <ele>2.77</ele>
        <time>2019-05-31T13:18:35.000Z</time>
      </trkpt>
      <trkpt lat="43.43865" lon="3.74543">
        <ele>2.77</ele>
        <time>2019-05-31T13:18:40.000Z</time>
      </trkpt>
      <trkpt lat="43.43846" lon="3.74531">
        <ele>2.97</ele>
        <time>2019-05-31T13:18:45.000Z</time>
      </trkpt>
      <trkpt lat="43.4385" lon="3.74545">
        <ele>3.75</ele>
        <time>2019-05-31T13:18:54.000Z</time>
      </trkpt>
      <trkpt lat="43.43871" lon="3.74552">
        <ele>2.78</ele>
        <time>2019-05-31T13:18:59.000Z</time>
      </trkpt>
      <trkpt lat="43.43894" lon="3.74563">
        <ele>2.77</ele>
        <time>2019-05-31T13:19:04.000Z</time>
      </trkpt>
      <trkpt lat="43.43917" lon="3.74576">
        <ele>2.77</ele>
        <time>2019-05-31T13:19:09.000Z</time>
      </trkpt>
      <trkpt lat="43.43938" lon="3.74599">
        <ele>3.7</ele>
        <time>2019-05-31T13:19:14.000Z</time>
      </trkpt>
      <trkpt lat="43.43957" lon="3.74623">
        <ele>3.77</ele>
        <time>2019-05-31T13:19:19.000Z</time>
      </trkpt>
      <trkpt lat="43.43977" lon="3.7465">
        <ele>4.58</ele>
        <time>2019-05-31T13:19:24.000Z</time>
      </trkpt>
      <trkpt lat="43.43997" lon="3.74678">
        <ele>4.53</ele>
        <time>2019-05-31T13:19:29.000Z</time>
      </trkpt>
      <trkpt lat="43.44014" lon="3.7471">
        <ele>6.7</ele>
        <time>2019-05-31T13:19:34.000Z</time>
      </trkpt>
      <trkpt lat="43.4403" lon="3.74741">
        <ele>6</ele>
        <time>2019-05-31T13:19:39.000Z</time>
      </trkpt>
      <trkpt lat="43.44048" lon="3.74769">
        <ele>5.77</ele>
        <time>2019-05-31T13:19:44.000Z</time>
      </trkpt>
      <trkpt lat="43.44068" lon="3.74797">
        <ele>4.96</ele>
        <time>2019-05-31T13:19:49.000Z</time>
      </trkpt>
      <trkpt lat="43.44087" lon="3.74825">
        <ele>4.76</ele>
        <time>2019-05-31T13:19:54.000Z</time>
      </trkpt>
      <trkpt lat="43.44106" lon="3.74851">
        <ele>2.78</ele>
        <time>2019-05-31T13:19:59.000Z</time>
      </trkpt>
      <trkpt lat="43.44113" lon="3.74881">
        <ele>4.69</ele>
        <time>2019-05-31T13:20:04.000Z</time>
      </trkpt>
      <trkpt lat="43.44095" lon="3.74905">
        <ele>4.78</ele>
        <time>2019-05-31T13:20:09.000Z</time>
      </trkpt>
      <trkpt lat="43.44073" lon="3.7492">
        <ele>5.82</ele>
        <time>2019-05-31T13:20:14.000Z</time>
      </trkpt>
      <trkpt lat="43.44051" lon="3.74936">
        <ele>6.52</ele>
        <time>2019-05-31T13:20:19.000Z</time>
      </trkpt>
      <trkpt lat="43.44034" lon="3.74955">
        <ele>5.02</ele>
        <time>2019-05-31T13:20:24.000Z</time>
      </trkpt>
      <trkpt lat="43.44013" lon="3.74977">
        <ele>4.52</ele>
        <time>2019-05-31T13:20:29.000Z</time>
      </trkpt>
      <trkpt lat="43.44005" lon="3.75009">
        <ele>4.77</ele>
        <time>2019-05-31T13:20:34.000Z</time>
      </trkpt>
      <trkpt lat="43.44021" lon="3.75036">
        <ele>3.08</ele>
        <time>2019-05-31T13:20:39.000Z</time>
      </trkpt>
      <trkpt lat="43.44042" lon="3.7506">
        <ele>2.77</ele>
        <time>2019-05-31T13:20:44.000Z</time>
      </trkpt>
      <trkpt lat="43.44064" lon="3.75085">
        <ele>2.02</ele>
        <time>2019-05-31T13:20:49.000Z</time>
      </trkpt>
      <trkpt lat="43.44087" lon="3.75109">
        <ele>1.77</ele>
        <time>2019-05-31T13:20:54.000Z</time>
      </trkpt>
      <trkpt lat="43.44108" lon="3.75133">
        <ele>1.77</ele>
        <time>2019-05-31T13:20:59.000Z</time>
      </trkpt>
      <trkpt lat="43.44127" lon="3.7516">
        <ele>1.95</ele>
        <time>2019-05-31T13:21:04.000Z</time>
      </trkpt>
      <trkpt lat="43.44145" lon="3.75188">
        <ele>2.76</ele>
        <time>2019-05-31T13:21:09.000Z</time>
      </trkpt>
      <trkpt lat="43.44162" lon="3.75217">
        <ele>2.95</ele>
        <time>2019-05-31T13:21:14.000Z</time>
      </trkpt>
      <trkpt lat="43.44178" lon="3.75246">
        <ele>4.51</ele>
        <time>2019-05-31T13:21:19.000Z</time>
      </trkpt>
      <trkpt lat="43.44196" lon="3.75275">
        <ele>6.45</ele>
        <time>2019-05-31T13:21:24.000Z</time>
      </trkpt>
      <trkpt lat="43.44211" lon="3.75302">
        <ele>4.78</ele>
        <time>2019-05-31T13:21:29.000Z</time>
      </trkpt>
      <trkpt lat="43.44204" lon="3.75316">
        <ele>5.45</ele>
        <time>2019-05-31T13:21:34.000Z</time>
      </trkpt>
      <trkpt lat="43.44195" lon="3.75324">
        <ele>5.75</ele>
        <time>2019-05-31T13:21:58.000Z</time>
      </trkpt>
      <trkpt lat="43.44185" lon="3.75336">
        <ele>3.83</ele>
        <time>2019-05-31T13:22:03.000Z</time>
      </trkpt>
      <trkpt lat="43.44169" lon="3.75354">
        <ele>5.51</ele>
        <time>2019-05-31T13:22:08.000Z</time>
      </trkpt>
      <trkpt lat="43.44157" lon="3.75382">
        <ele>4.95</ele>
        <time>2019-05-31T13:22:13.000Z</time>
      </trkpt>
      <trkpt lat="43.44147" lon="3.75411">
        <ele>6.5</ele>
        <time>2019-05-31T13:22:18.000Z</time>
      </trkpt>
      <trkpt lat="43.44137" lon="3.75429">
        <ele>7.75</ele>
        <time>2019-05-31T13:22:23.000Z</time>
      </trkpt>
      <trkpt lat="43.44122" lon="3.75423">
        <ele>6.02</ele>
        <time>2019-05-31T13:22:28.000Z</time>
      </trkpt>
      <trkpt lat="43.44104" lon="3.7541">
        <ele>5.02</ele>
        <time>2019-05-31T13:22:33.000Z</time>
      </trkpt>
      <trkpt lat="43.44086" lon="3.75397">
        <ele>4.77</ele>
        <time>2019-05-31T13:22:38.000Z</time>
      </trkpt>
      <trkpt lat="43.44068" lon="3.75384">
        <ele>4.77</ele>
        <time>2019-05-31T13:22:43.000Z</time>
      </trkpt>
      <trkpt lat="43.44049" lon="3.75373">
        <ele>5.75</ele>
        <time>2019-05-31T13:22:48.000Z</time>
      </trkpt>
      <trkpt lat="43.44029" lon="3.75361">
        <ele>4.79</ele>
        <time>2019-05-31T13:22:53.000Z</time>
      </trkpt>
      <trkpt lat="43.44009" lon="3.7535">
        <ele>4.77</ele>
        <time>2019-05-31T13:22:58.000Z</time>
      </trkpt>
      <trkpt lat="43.43988" lon="3.75344">
        <ele>3.77</ele>
        <time>2019-05-31T13:23:03.000Z</time>
      </trkpt>
      <trkpt lat="43.43968" lon="3.75334">
        <ele>2.78</ele>
        <time>2019-05-31T13:23:08.000Z</time>
      </trkpt>
      <trkpt lat="43.43949" lon="3.75323">
        <ele>2.96</ele>
        <time>2019-05-31T13:23:13.000Z</time>
      </trkpt>
      <trkpt lat="43.43929" lon="3.75312">
        <ele>3.76</ele>
        <time>2019-05-31T13:23:18.000Z</time>
      </trkpt>
      <trkpt lat="43.43909" lon="3.75299">
        <ele>2.78</ele>
        <time>2019-05-31T13:23:23.000Z</time>
      </trkpt>
      <trkpt lat="43.4389" lon="3.75288">
        <ele>3.77</ele>
        <time>2019-05-31T13:23:28.000Z</time>
      </trkpt>
      <trkpt lat="43.43872" lon="3.75277">
        <ele>2.83</ele>
        <time>2019-05-31T13:23:33.000Z</time>
      </trkpt>
      <trkpt lat="43.43853" lon="3.75265">
        <ele>1.83</ele>
        <time>2019-05-31T13:23:38.000Z</time>
      </trkpt>
      <trkpt lat="43.43834" lon="3.75253">
        <ele>2.58</ele>
        <time>2019-05-31T13:23:43.000Z</time>
      </trkpt>
      <trkpt lat="43.43815" lon="3.75242">
        <ele>1.82</ele>
        <time>2019-05-31T13:23:48.000Z</time>
      </trkpt>
      <trkpt lat="43.43797" lon="3.75231">
        <ele>1.77</ele>
        <time>2019-05-31T13:23:53.000Z</time>
      </trkpt>
      <trkpt lat="43.43779" lon="3.7522">
        <ele>2.77</ele>
        <time>2019-05-31T13:23:58.000Z</time>
      </trkpt>
      <trkpt lat="43.43762" lon="3.7521">
        <ele>3.52</ele>
        <time>2019-05-31T13:24:03.000Z</time>
      </trkpt>
      <trkpt lat="43.43743" lon="3.75199">
        <ele>2.77</ele>
        <time>2019-05-31T13:24:08.000Z</time>
      </trkpt>
      <trkpt lat="43.43723" lon="3.75188">
        <ele>3.77</ele>
        <time>2019-05-31T13:24:13.000Z</time>
      </trkpt>
      <trkpt lat="43.43705" lon="3.75178">
        <ele>2.77</ele>
        <time>2019-05-31T13:24:18.000Z</time>
      </trkpt>
      <trkpt lat="43.43686" lon="3.75166">
        <ele>2.52</ele>
        <time>2019-05-31T13:24:23.000Z</time>
      </trkpt>
      <trkpt lat="43.43668" lon="3.75155">
        <ele>2.77</ele>
        <time>2019-05-31T13:24:28.000Z</time>
      </trkpt>
      <trkpt lat="43.43649" lon="3.75143">
        <ele>3.52</ele>
        <time>2019-05-31T13:24:33.000Z</time>
      </trkpt>
      <trkpt lat="43.4363" lon="3.75132">
        <ele>3.52</ele>
        <time>2019-05-31T13:24:38.000Z</time>
      </trkpt>
      <trkpt lat="43.4361" lon="3.75122">
        <ele>3.77</ele>
        <time>2019-05-31T13:24:43.000Z</time>
      </trkpt>
      <trkpt lat="43.43592" lon="3.75111">
        <ele>3.77</ele>
        <time>2019-05-31T13:24:48.000Z</time>
      </trkpt>
      <trkpt lat="43.43577" lon="3.75095">
        <ele>2.77</ele>
        <time>2019-05-31T13:24:53.000Z</time>
      </trkpt>
      <trkpt lat="43.43561" lon="3.75093">
        <ele>2.77</ele>
        <time>2019-05-31T13:24:58.000Z</time>
      </trkpt>
      <trkpt lat="43.43544" lon="3.7508">
        <ele>1.78</ele>
        <time>2019-05-31T13:25:03.000Z</time>
      </trkpt>
      <trkpt lat="43.43525" lon="3.7507">
        <ele>1.02</ele>
        <time>2019-05-31T13:25:08.000Z</time>
      </trkpt>
      <trkpt lat="43.43506" lon="3.75058">
        <ele>1.77</ele>
        <time>2019-05-31T13:25:13.000Z</time>
      </trkpt>
      <trkpt lat="43.43487" lon="3.75046">
        <ele>1.02</ele>
        <time>2019-05-31T13:25:18.000Z</time>
      </trkpt>
      <trkpt lat="43.43467" lon="3.75033">
        <ele>2.52</ele>
        <time>2019-05-31T13:25:23.000Z</time>
      </trkpt>
      <trkpt lat="43.43447" lon="3.75023">
        <ele>2.71</ele>
        <time>2019-05-31T13:25:28.000Z</time>
      </trkpt>
      <trkpt lat="43.43429" lon="3.7501">
        <ele>2.77</ele>
        <time>2019-05-31T13:25:33.000Z</time>
      </trkpt>
      <trkpt lat="43.43412" lon="3.74993">
        <ele>3.76</ele>
        <time>2019-05-31T13:25:38.000Z</time>
      </trkpt>
      <trkpt lat="43.43394" lon="3.74977">
        <ele>3.73</ele>
        <time>2019-05-31T13:25:43.000Z</time>
      </trkpt>
      <trkpt lat="43.43377" lon="3.7496">
        <ele>2.78</ele>
        <time>2019-05-31T13:25:48.000Z</time>
      </trkpt>
      <trkpt lat="43.43361" lon="3.7494">
        <ele>2.78</ele>
        <time>2019-05-31T13:25:53.000Z</time>
      </trkpt>
      <trkpt lat="43.43346" lon="3.7492">
        <ele>1.78</ele>
        <time>2019-05-31T13:25:58.000Z</time>
      </trkpt>
      <trkpt lat="43.43332" lon="3.74899">
        <ele>0.79</ele>
        <time>2019-05-31T13:26:03.000Z</time>
      </trkpt>
      <trkpt lat="43.43319" lon="3.74878">
        <ele>0.72</ele>
        <time>2019-05-31T13:26:08.000Z</time>
      </trkpt>
      <trkpt lat="43.43304" lon="3.74857">
        <ele>3</ele>
        <time>2019-05-31T13:26:13.000Z</time>
      </trkpt>
      <trkpt lat="43.43289" lon="3.74835">
        <ele>3</ele>
        <time>2019-05-31T13:26:18.000Z</time>
      </trkpt>
      <trkpt lat="43.43275" lon="3.74815">
        <ele>1</ele>
        <time>2019-05-31T13:26:23.000Z</time>
      </trkpt>
      <trkpt lat="43.4326" lon="3.74792">
        <ele>1</ele>
        <time>2019-05-31T13:26:28.000Z</time>
      </trkpt>
      <trkpt lat="43.43244" lon="3.7477">
        <ele>4</ele>
        <time>2019-05-31T13:26:33.000Z</time>
      </trkpt>
      <trkpt lat="43.43228" lon="3.74747">
        <time>2019-05-31T13:26:38.000Z</time>
      </trkpt>
      <trkpt lat="43.43211" lon="3.74724">
        <ele>0.76</ele>
        <time>2019-05-31T13:26:43.000Z</time>
      </trkpt>
      <trkpt lat="43.43195" lon="3.74702">
        <ele>0.97</ele>
        <time>2019-05-31T13:26:48.000Z</time>
      </trkpt>
      <trkpt lat="43.43177" lon="3.74676">
        <ele>2.51</ele>
        <time>2019-05-31T13:26:53.000Z</time>
      </trkpt>
      <trkpt lat="43.43161" lon="3.74651">
        <ele>2.78</ele>
        <time>2019-05-31T13:26:58.000Z</time>
      </trkpt>
      <trkpt lat="43.43144" lon="3.74627">
        <ele>3.71</ele>
        <time>2019-05-31T13:27:03.000Z</time>
      </trkpt>
      <trkpt lat="43.43128" lon="3.74605">
        <ele>2.78</ele>
        <time>2019-05-31T13:27:08.000Z</time>
      </trkpt>
      <trkpt lat="43.43112" lon="3.7458">
        <ele>1.84</ele>
        <time>2019-05-31T13:27:13.000Z</time>
      </trkpt>
      <trkpt lat="43.43096" lon="3.74556">
        <ele>1.84</ele>
        <time>2019-05-31T13:27:18.000Z</time>
      </trkpt>
      <trkpt lat="43.43079" lon="3.74533">
        <ele>2.77</ele>
        <time>2019-05-31T13:27:23.000Z</time>
      </trkpt>
      <trkpt lat="43.43062" lon="3.74509">
        <ele>2.78</ele>
        <time>2019-05-31T13:27:28.000Z</time>
      </trkpt>
      <trkpt lat="43.43045" lon="3.74485">
        <ele>2.78</ele>
        <time>2019-05-31T13:27:33.000Z</time>
      </trkpt>
      <trkpt lat="43.43029" lon="3.74461">
        <ele>1.78</ele>
        <time>2019-05-31T13:27:38.000Z</time>
      </trkpt>
      <trkpt lat="43.43012" lon="3.74437">
        <ele>1.76</ele>
        <time>2019-05-31T13:27:43.000Z</time>
      </trkpt>
      <trkpt lat="43.42997" lon="3.74414">
        <ele>2.78</ele>
        <time>2019-05-31T13:27:48.000Z</time>
      </trkpt>
      <trkpt lat="43.42981" lon="3.74392">
        <ele>2.78</ele>
        <time>2019-05-31T13:27:53.000Z</time>
      </trkpt>
      <trkpt lat="43.42965" lon="3.74371">
        <ele>2.79</ele>
        <time>2019-05-31T13:27:58.000Z</time>
      </trkpt>
      <trkpt lat="43.4295" lon="3.74349">
        <ele>2.02</ele>
        <time>2019-05-31T13:28:03.000Z</time>
      </trkpt>
      <trkpt lat="43.42935" lon="3.74326">
        <ele>1.78</ele>
        <time>2019-05-31T13:28:08.000Z</time>
      </trkpt>
      <trkpt lat="43.42918" lon="3.74303">
        <ele>1.78</ele>
        <time>2019-05-31T13:28:13.000Z</time>
      </trkpt>
      <trkpt lat="43.42903" lon="3.74279">
        <ele>1.78</ele>
        <time>2019-05-31T13:28:18.000Z</time>
      </trkpt>
      <trkpt lat="43.42888" lon="3.74256">
        <ele>0.78</ele>
        <time>2019-05-31T13:28:23.000Z</time>
      </trkpt>
      <trkpt lat="43.42871" lon="3.74235">
        <ele>1.76</ele>
        <time>2019-05-31T13:28:28.000Z</time>
      </trkpt>
      <trkpt lat="43.42856" lon="3.74212">
        <ele>3.52</ele>
        <time>2019-05-31T13:28:33.000Z</time>
      </trkpt>
      <trkpt lat="43.4284" lon="3.74189">
        <ele>3.01</ele>
        <time>2019-05-31T13:28:38.000Z</time>
      </trkpt>
      <trkpt lat="43.42826" lon="3.74166">
        <ele>2.03</ele>
        <time>2019-05-31T13:28:43.000Z</time>
      </trkpt>
      <trkpt lat="43.42811" lon="3.74145">
        <ele>2.76</ele>
        <time>2019-05-31T13:28:48.000Z</time>
      </trkpt>
      <trkpt lat="43.42795" lon="3.74123">
        <ele>2.78</ele>
        <time>2019-05-31T13:28:53.000Z</time>
      </trkpt>
      <trkpt lat="43.42777" lon="3.74099">
        <ele>2.78</ele>
        <time>2019-05-31T13:28:58.000Z</time>
      </trkpt>
      <trkpt lat="43.42761" lon="3.74076">
        <ele>1.04</ele>
        <time>2019-05-31T13:29:03.000Z</time>
      </trkpt>
      <trkpt lat="43.42745" lon="3.74052">
        <ele>1.73</ele>
        <time>2019-05-31T13:29:08.000Z</time>
      </trkpt>
      <trkpt lat="43.4273" lon="3.74029">
        <ele>2.52</ele>
        <time>2019-05-31T13:29:13.000Z</time>
      </trkpt>
      <trkpt lat="43.42715" lon="3.74009">
        <ele>1.04</ele>
        <time>2019-05-31T13:29:18.000Z</time>
      </trkpt>
      <trkpt lat="43.42701" lon="3.73987">
        <ele>0.84</ele>
        <time>2019-05-31T13:29:23.000Z</time>
      </trkpt>
      <trkpt lat="43.42685" lon="3.73967">
        <ele>0.78</ele>
        <time>2019-05-31T13:29:28.000Z</time>
      </trkpt>
      <trkpt lat="43.42671" lon="3.73944">
        <ele>0.78</ele>
        <time>2019-05-31T13:29:33.000Z</time>
      </trkpt>
      <trkpt lat="43.42656" lon="3.73921">
        <ele>1.72</ele>
        <time>2019-05-31T13:29:38.000Z</time>
      </trkpt>
      <trkpt lat="43.42641" lon="3.73896">
        <ele>0.79</ele>
        <time>2019-05-31T13:29:43.000Z</time>
      </trkpt>
      <trkpt lat="43.42632" lon="3.73869">
        <ele>0.78</ele>
        <time>2019-05-31T13:29:48.000Z</time>
      </trkpt>
      <trkpt lat="43.42622" lon="3.73841">
        <time>2019-05-31T13:29:53.000Z</time>
      </trkpt>
      <trkpt lat="43.42611" lon="3.73812">
        <ele>1</ele>
        <time>2019-05-31T13:29:58.000Z</time>
      </trkpt>
      <trkpt lat="43.426" lon="3.73783">
        <ele>1</ele>
        <time>2019-05-31T13:30:03.000Z</time>
      </trkpt>
      <trkpt lat="43.42589" lon="3.73756">
        <time>2019-05-31T13:30:08.000Z</time>
      </trkpt>
      <trkpt lat="43.42578" lon="3.73729">
        <ele>1</ele>
        <time>2019-05-31T13:30:13.000Z</time>
      </trkpt>
      <trkpt lat="43.42565" lon="3.73704">
        <ele>0.76</ele>
        <time>2019-05-31T13:30:18.000Z</time>
      </trkpt>
      <trkpt lat="43.42554" lon="3.73676">
        <ele>1</ele>
        <time>2019-05-31T13:30:23.000Z</time>
      </trkpt>
      <trkpt lat="43.42544" lon="3.73648">
        <ele>1</ele>
        <time>2019-05-31T13:30:28.000Z</time>
      </trkpt>
      <trkpt lat="43.42534" lon="3.7362">
        <ele>1</ele>
        <time>2019-05-31T13:30:33.000Z</time>
      </trkpt>
      <trkpt lat="43.42523" lon="3.73592">
        <ele>1</ele>
        <time>2019-05-31T13:30:38.000Z</time>
      </trkpt>
      <trkpt lat="43.42512" lon="3.73565">
        <time>2019-05-31T13:30:43.000Z</time>
      </trkpt>
      <trkpt lat="43.42501" lon="3.73538">
        <ele>0.01</ele>
        <time>2019-05-31T13:30:48.000Z</time>
      </trkpt>
      <trkpt lat="43.42492" lon="3.73508">
        <ele>1</ele>
        <time>2019-05-31T13:30:53.000Z</time>
      </trkpt>
      <trkpt lat="43.42486" lon="3.73477">
        <time>2019-05-31T13:30:58.000Z</time>
      </trkpt>
      <trkpt lat="43.42481" lon="3.73447">
        <time>2019-05-31T13:31:03.000Z</time>
      </trkpt>
      <trkpt lat="43.42475" lon="3.73416">
        <ele>1</ele>
        <time>2019-05-31T13:31:08.000Z</time>
      </trkpt>
      <trkpt lat="43.42469" lon="3.73385">
        <ele>1</ele>
        <time>2019-05-31T13:31:13.000Z</time>
      </trkpt>
      <trkpt lat="43.42463" lon="3.73353">
        <time>2019-05-31T13:31:18.000Z</time>
      </trkpt>
      <trkpt lat="43.42456" lon="3.73323">
        <time>2019-05-31T13:31:23.000Z</time>
      </trkpt>
      <trkpt lat="43.42451" lon="3.73292">
        <ele>1</ele>
        <time>2019-05-31T13:31:28.000Z</time>
      </trkpt>
      <trkpt lat="43.42445" lon="3.73265">
        <ele>0.53</ele>
        <time>2019-05-31T13:31:33.000Z</time>
      </trkpt>
      <trkpt lat="43.42446" lon="3.73244">
        <ele>0.03</ele>
        <time>2019-05-31T13:31:38.000Z</time>
      </trkpt>
      <trkpt lat="43.42438" lon="3.73225">
        <ele>0.53</ele>
        <time>2019-05-31T13:31:43.000Z</time>
      </trkpt>
      <trkpt lat="43.42434" lon="3.73208">
        <ele>1.71</ele>
        <time>2019-05-31T13:31:48.000Z</time>
      </trkpt>
      <trkpt lat="43.42433" lon="3.73189">
        <ele>0.78</ele>
        <time>2019-05-31T13:31:53.000Z</time>
      </trkpt>
      <trkpt lat="43.42443" lon="3.73171">
        <ele>1.71</ele>
        <time>2019-05-31T13:31:58.000Z</time>
      </trkpt>
      <trkpt lat="43.42436" lon="3.73147">
        <ele>0.78</ele>
        <time>2019-05-31T13:32:03.000Z</time>
      </trkpt>
      <trkpt lat="43.42428" lon="3.73119">
        <ele>0.78</ele>
        <time>2019-05-31T13:32:08.000Z</time>
      </trkpt>
      <trkpt lat="43.42422" lon="3.73092">
        <ele>0.78</ele>
        <time>2019-05-31T13:32:13.000Z</time>
      </trkpt>
      <trkpt lat="43.42416" lon="3.73079">
        <ele>1.53</ele>
        <time>2019-05-31T13:32:18.000Z</time>
      </trkpt>
      <trkpt lat="43.42407" lon="3.7307">
        <ele>1.78</ele>
        <time>2019-05-31T13:32:24.000Z</time>
      </trkpt>
      <trkpt lat="43.42405" lon="3.73048">
        <ele>1.76</ele>
        <time>2019-05-31T13:32:29.000Z</time>
      </trkpt>
      <trkpt lat="43.42404" lon="3.73028">
        <ele>1.78</ele>
        <time>2019-05-31T13:32:34.000Z</time>
      </trkpt>
      <trkpt lat="43.42399" lon="3.73009">
        <ele>1.78</ele>
        <time>2019-05-31T13:32:39.000Z</time>
      </trkpt>
      <trkpt lat="43.42394" lon="3.72992">
        <ele>1.78</ele>
        <time>2019-05-31T13:32:44.000Z</time>
      </trkpt>
      <trkpt lat="43.4239" lon="3.72969">
        <ele>2.53</ele>
        <time>2019-05-31T13:32:49.000Z</time>
      </trkpt>
      <trkpt lat="43.42384" lon="3.72945">
        <ele>2.78</ele>
        <time>2019-05-31T13:32:54.000Z</time>
      </trkpt>
      <trkpt lat="43.42379" lon="3.72922">
        <ele>2.59</ele>
        <time>2019-05-31T13:32:59.000Z</time>
      </trkpt>
      <trkpt lat="43.42374" lon="3.72901">
        <ele>1.79</ele>
        <time>2019-05-31T13:33:04.000Z</time>
      </trkpt>
      <trkpt lat="43.42371" lon="3.72877">
        <ele>1.78</ele>
        <time>2019-05-31T13:33:09.000Z</time>
      </trkpt>
      <trkpt lat="43.42367" lon="3.72852">
        <ele>1.78</ele>
        <time>2019-05-31T13:33:14.000Z</time>
      </trkpt>
      <trkpt lat="43.42361" lon="3.72826">
        <ele>0.79</ele>
        <time>2019-05-31T13:33:19.000Z</time>
      </trkpt>
      <trkpt lat="43.42356" lon="3.728">
        <ele>1.59</ele>
        <time>2019-05-31T13:33:24.000Z</time>
      </trkpt>
      <trkpt lat="43.42351" lon="3.72772">
        <ele>0.79</ele>
        <time>2019-05-31T13:33:29.000Z</time>
      </trkpt>
      <trkpt lat="43.42346" lon="3.72745">
        <ele>0.78</ele>
        <time>2019-05-31T13:33:34.000Z</time>
      </trkpt>
      <trkpt lat="43.4234" lon="3.7272">
        <ele>0.73</ele>
        <time>2019-05-31T13:33:39.000Z</time>
      </trkpt>
      <trkpt lat="43.42335" lon="3.72694">
        <ele>0.77</ele>
        <time>2019-05-31T13:33:44.000Z</time>
      </trkpt>
      <trkpt lat="43.4233" lon="3.72669">
        <ele>1</ele>
        <time>2019-05-31T13:33:49.000Z</time>
      </trkpt>
      <trkpt lat="43.42324" lon="3.72643">
        <ele>1</ele>
        <time>2019-05-31T13:33:54.000Z</time>
      </trkpt>
      <trkpt lat="43.42319" lon="3.72615">
        <ele>1</ele>
        <time>2019-05-31T13:33:59.000Z</time>
      </trkpt>
      <trkpt lat="43.42313" lon="3.72588">
        <ele>1</ele>
        <time>2019-05-31T13:34:04.000Z</time>
      </trkpt>
      <trkpt lat="43.42308" lon="3.7256">
        <ele>0.71</ele>
        <time>2019-05-31T13:34:09.000Z</time>
      </trkpt>
      <trkpt lat="43.42303" lon="3.72533">
        <ele>0.77</ele>
        <time>2019-05-31T13:34:14.000Z</time>
      </trkpt>
      <trkpt lat="43.423" lon="3.72504">
        <ele>0.77</ele>
        <time>2019-05-31T13:34:19.000Z</time>
      </trkpt>
      <trkpt lat="43.42298" lon="3.72478">
        <ele>0.77</ele>
        <time>2019-05-31T13:34:24.000Z</time>
      </trkpt>
      <trkpt lat="43.42291" lon="3.72448">
        <ele>1.01</ele>
        <time>2019-05-31T13:34:29.000Z</time>
      </trkpt>
      <trkpt lat="43.42284" lon="3.72419">
        <ele>2.48</ele>
        <time>2019-05-31T13:34:34.000Z</time>
      </trkpt>
      <trkpt lat="43.42279" lon="3.72392">
        <ele>2.77</ele>
        <time>2019-05-31T13:34:39.000Z</time>
      </trkpt>
      <trkpt lat="43.42272" lon="3.72367">
        <ele>2.02</ele>
        <time>2019-05-31T13:34:44.000Z</time>
      </trkpt>
      <trkpt lat="43.42265" lon="3.72345">
        <ele>1.78</ele>
        <time>2019-05-31T13:34:49.000Z</time>
      </trkpt>
      <trkpt lat="43.42262" lon="3.72325">
        <ele>2.71</ele>
        <time>2019-05-31T13:34:54.000Z</time>
      </trkpt>
      <trkpt lat="43.42265" lon="3.72302">
        <ele>4.94</ele>
        <time>2019-05-31T13:34:59.000Z</time>
      </trkpt>
      <trkpt lat="43.42264" lon="3.72279">
        <ele>5.77</ele>
        <time>2019-05-31T13:35:04.000Z</time>
      </trkpt>
      <trkpt lat="43.42261" lon="3.7226">
        <ele>6.71</ele>
        <time>2019-05-31T13:35:09.000Z</time>
      </trkpt>
      <trkpt lat="43.42262" lon="3.72243">
        <ele>7.71</ele>
        <time>2019-05-31T13:35:14.000Z</time>
      </trkpt>
      <trkpt lat="43.42258" lon="3.72225">
        <ele>6.82</ele>
        <time>2019-05-31T13:35:19.000Z</time>
      </trkpt>
      <trkpt lat="43.42242" lon="3.72227">
        <ele>6.78</ele>
        <time>2019-05-31T13:35:24.000Z</time>
      </trkpt>
      <trkpt lat="43.42227" lon="3.72232">
        <ele>7.77</ele>
        <time>2019-05-31T13:35:29.000Z</time>
      </trkpt>
      <trkpt lat="43.42209" lon="3.72238">
        <ele>6.78</ele>
        <time>2019-05-31T13:35:34.000Z</time>
      </trkpt>
      <trkpt lat="43.42189" lon="3.72243">
        <ele>5.79</ele>
        <time>2019-05-31T13:35:39.000Z</time>
      </trkpt>
      <trkpt lat="43.42167" lon="3.7225">
        <ele>4.79</ele>
        <time>2019-05-31T13:35:44.000Z</time>
      </trkpt>
      <trkpt lat="43.42146" lon="3.72258">
        <ele>4.77</ele>
        <time>2019-05-31T13:35:49.000Z</time>
      </trkpt>
      <trkpt lat="43.42125" lon="3.72267">
        <ele>3.78</ele>
        <time>2019-05-31T13:35:54.000Z</time>
      </trkpt>
      <trkpt lat="43.42107" lon="3.72273">
        <ele>4.77</ele>
        <time>2019-05-31T13:35:59.000Z</time>
      </trkpt>
      <trkpt lat="43.42097" lon="3.72273">
        <ele>4.78</ele>
        <time>2019-05-31T13:36:04.000Z</time>
      </trkpt>
      <trkpt lat="43.42085" lon="3.72268">
        <ele>5.71</ele>
        <time>2019-05-31T13:36:09.000Z</time>
      </trkpt>
      <trkpt lat="43.42086" lon="3.72244">
        <ele>4.79</ele>
        <time>2019-05-31T13:36:14.000Z</time>
      </trkpt>
      <trkpt lat="43.42084" lon="3.72226">
        <ele>3.04</ele>
        <time>2019-05-31T13:36:19.000Z</time>
      </trkpt>
      <trkpt lat="43.42081" lon="3.72209">
        <ele>2.78</ele>
        <time>2019-05-31T13:36:24.000Z</time>
      </trkpt>
      <trkpt lat="43.42075" lon="3.72198">
        <ele>2.78</ele>
        <time>2019-05-31T13:36:29.000Z</time>
      </trkpt>
      <trkpt lat="43.42081" lon="3.72182">
        <ele>1.79</ele>
        <time>2019-05-31T13:36:34.000Z</time>
      </trkpt>
      <trkpt lat="43.42087" lon="3.72163">
        <ele>2.01</ele>
        <time>2019-05-31T13:36:39.000Z</time>
      </trkpt>
      <trkpt lat="43.42092" lon="3.72152">
        <ele>1.78</ele>
        <time>2019-05-31T13:36:44.000Z</time>
      </trkpt>
      <trkpt lat="43.42092" lon="3.72174">
        <ele>3.71</ele>
        <time>2019-05-31T13:36:49.000Z</time>
      </trkpt>
      <trkpt lat="43.42089" lon="3.72199">
        <ele>4.71</ele>
        <time>2019-05-31T13:36:54.000Z</time>
      </trkpt>
      <trkpt lat="43.42091" lon="3.7222">
        <ele>4.78</ele>
        <time>2019-05-31T13:36:59.000Z</time>
      </trkpt>
      <trkpt lat="43.42095" lon="3.72236">
        <ele>4.82</ele>
        <time>2019-05-31T13:37:04.000Z</time>
      </trkpt>
      <trkpt lat="43.42094" lon="3.7222">
        <ele>1.03</ele>
        <time>2019-05-31T13:40:37.000Z</time>
      </trkpt>
      <trkpt lat="43.42091" lon="3.72189">
        <ele>2</ele>
        <time>2019-05-31T13:40:42.000Z</time>
      </trkpt>
      <trkpt lat="43.42094" lon="3.72162">
        <ele>2</ele>
        <time>2019-05-31T13:40:47.000Z</time>
      </trkpt>
      <trkpt lat="43.42093" lon="3.72138">
        <ele>0.77</ele>
        <time>2019-05-31T13:40:52.000Z</time>
      </trkpt>
      <trkpt lat="43.42095" lon="3.72107">
        <ele>1.71</ele>
        <time>2019-05-31T13:40:57.000Z</time>
      </trkpt>
      <trkpt lat="43.42094" lon="3.72075">
        <ele>2.51</ele>
        <time>2019-05-31T13:41:02.000Z</time>
      </trkpt>
      <trkpt lat="43.42088" lon="3.72042">
        <ele>4.75</ele>
        <time>2019-05-31T13:41:07.000Z</time>
      </trkpt>
      <trkpt lat="43.42081" lon="3.7201">
        <ele>3.78</ele>
        <time>2019-05-31T13:41:12.000Z</time>
      </trkpt>
      <trkpt lat="43.42074" lon="3.71978">
        <ele>3.76</ele>
        <time>2019-05-31T13:41:17.000Z</time>
      </trkpt>
      <trkpt lat="43.42068" lon="3.71944">
        <ele>5.51</ele>
        <time>2019-05-31T13:41:22.000Z</time>
      </trkpt>
      <trkpt lat="43.4206" lon="3.71909">
        <ele>5.77</ele>
        <time>2019-05-31T13:41:27.000Z</time>
      </trkpt>
      <trkpt lat="43.42053" lon="3.71876">
        <ele>5.02</ele>
        <time>2019-05-31T13:41:32.000Z</time>
      </trkpt>
      <trkpt lat="43.42047" lon="3.71845">
        <ele>3.98</ele>
        <time>2019-05-31T13:41:37.000Z</time>
      </trkpt>
      <trkpt lat="43.42041" lon="3.71811">
        <ele>2.77</ele>
        <time>2019-05-31T13:41:42.000Z</time>
      </trkpt>
      <trkpt lat="43.42035" lon="3.71778">
        <ele>3.77</ele>
        <time>2019-05-31T13:41:47.000Z</time>
      </trkpt>
      <trkpt lat="43.42028" lon="3.71744">
        <ele>3.77</ele>
        <time>2019-05-31T13:41:52.000Z</time>
      </trkpt>
      <trkpt lat="43.42022" lon="3.71712">
        <ele>3.77</ele>
        <time>2019-05-31T13:41:57.000Z</time>
      </trkpt>
      <trkpt lat="43.42014" lon="3.71678">
        <ele>4.77</ele>
        <time>2019-05-31T13:42:02.000Z</time>
      </trkpt>
      <trkpt lat="43.42008" lon="3.71643">
        <ele>5.02</ele>
        <time>2019-05-31T13:42:07.000Z</time>
      </trkpt>
      <trkpt lat="43.42001" lon="3.71608">
        <ele>4.02</ele>
        <time>2019-05-31T13:42:12.000Z</time>
      </trkpt>
      <trkpt lat="43.41994" lon="3.71575">
        <ele>3.59</ele>
        <time>2019-05-31T13:42:17.000Z</time>
      </trkpt>
      <trkpt lat="43.41987" lon="3.7154">
        <ele>3.77</ele>
        <time>2019-05-31T13:42:22.000Z</time>
      </trkpt>
      <trkpt lat="43.41981" lon="3.71506">
        <ele>3.77</ele>
        <time>2019-05-31T13:42:27.000Z</time>
      </trkpt>
      <trkpt lat="43.41974" lon="3.71474">
        <ele>2.77</ele>
        <time>2019-05-31T13:42:32.000Z</time>
      </trkpt>
      <trkpt lat="43.41967" lon="3.71442">
        <ele>1.84</ele>
        <time>2019-05-31T13:42:37.000Z</time>
      </trkpt>
      <trkpt lat="43.41959" lon="3.71407">
        <ele>2.52</ele>
        <time>2019-05-31T13:42:42.000Z</time>
      </trkpt>
      <trkpt lat="43.41955" lon="3.71373">
        <ele>3.96</ele>
        <time>2019-05-31T13:42:47.000Z</time>
      </trkpt>
      <trkpt lat="43.41947" lon="3.7134">
        <ele>5.52</ele>
        <time>2019-05-31T13:42:52.000Z</time>
      </trkpt>
      <trkpt lat="43.4194" lon="3.71304">
        <ele>4.02</ele>
        <time>2019-05-31T13:42:57.000Z</time>
      </trkpt>
      <trkpt lat="43.41933" lon="3.7127">
        <ele>4.71</ele>
        <time>2019-05-31T13:43:02.000Z</time>
      </trkpt>
      <trkpt lat="43.41925" lon="3.71233">
        <ele>5.71</ele>
        <time>2019-05-31T13:43:07.000Z</time>
      </trkpt>
      <trkpt lat="43.41919" lon="3.712">
        <ele>5.77</ele>
        <time>2019-05-31T13:43:12.000Z</time>
      </trkpt>
      <trkpt lat="43.41911" lon="3.7117">
        <ele>4.59</ele>
        <time>2019-05-31T13:43:17.000Z</time>
      </trkpt>
      <trkpt lat="43.41905" lon="3.71137">
        <ele>3.78</ele>
        <time>2019-05-31T13:43:22.000Z</time>
      </trkpt>
      <trkpt lat="43.419" lon="3.71104">
        <ele>3.77</ele>
        <time>2019-05-31T13:43:27.000Z</time>
      </trkpt>
      <trkpt lat="43.41894" lon="3.71072">
        <ele>3.02</ele>
        <time>2019-05-31T13:43:32.000Z</time>
      </trkpt>
      <trkpt lat="43.41888" lon="3.71039">
        <ele>3.76</ele>
        <time>2019-05-31T13:43:37.000Z</time>
      </trkpt>
      <trkpt lat="43.41879" lon="3.71013">
        <ele>3.58</ele>
        <time>2019-05-31T13:43:42.000Z</time>
      </trkpt>
      <trkpt lat="43.41872" lon="3.71001">
        <ele>3.72</ele>
        <time>2019-05-31T13:43:49.000Z</time>
      </trkpt>
      <trkpt lat="43.41861" lon="3.70981">
        <ele>3.77</ele>
        <time>2019-05-31T13:43:54.000Z</time>
      </trkpt>
      <trkpt lat="43.41842" lon="3.70961">
        <ele>1.84</ele>
        <time>2019-05-31T13:43:59.000Z</time>
      </trkpt>
      <trkpt lat="43.41818" lon="3.70947">
        <ele>2.77</ele>
        <time>2019-05-31T13:44:04.000Z</time>
      </trkpt>
      <trkpt lat="43.41793" lon="3.70934">
        <ele>2.77</ele>
        <time>2019-05-31T13:44:09.000Z</time>
      </trkpt>
      <trkpt lat="43.41772" lon="3.70919">
        <ele>2.73</ele>
        <time>2019-05-31T13:44:14.000Z</time>
      </trkpt>
      <trkpt lat="43.41751" lon="3.70902">
        <ele>3.52</ele>
        <time>2019-05-31T13:44:19.000Z</time>
      </trkpt>
      <trkpt lat="43.4173" lon="3.70884">
        <ele>2.77</ele>
        <time>2019-05-31T13:44:24.000Z</time>
      </trkpt>
      <trkpt lat="43.41712" lon="3.70865">
        <ele>1.78</ele>
        <time>2019-05-31T13:44:29.000Z</time>
      </trkpt>
      <trkpt lat="43.41692" lon="3.70844">
        <ele>1.57</ele>
        <time>2019-05-31T13:44:34.000Z</time>
      </trkpt>
      <trkpt lat="43.41682" lon="3.70813">
        <ele>1.76</ele>
        <time>2019-05-31T13:44:39.000Z</time>
      </trkpt>
      <trkpt lat="43.41673" lon="3.7078">
        <ele>1.77</ele>
        <time>2019-05-31T13:44:44.000Z</time>
      </trkpt>
      <trkpt lat="43.41658" lon="3.70752">
        <ele>1.83</ele>
        <time>2019-05-31T13:44:49.000Z</time>
      </trkpt>
      <trkpt lat="43.41643" lon="3.70729">
        <ele>3.52</ele>
        <time>2019-05-31T13:44:54.000Z</time>
      </trkpt>
      <trkpt lat="43.4163" lon="3.70709">
        <ele>2.77</ele>
        <time>2019-05-31T13:44:59.000Z</time>
      </trkpt>
      <trkpt lat="43.4162" lon="3.70695">
        <ele>2.77</ele>
        <time>2019-05-31T13:45:04.000Z</time>
      </trkpt>
      <trkpt lat="43.41616" lon="3.70683">
        <ele>1.76</ele>
        <time>2019-05-31T13:45:22.000Z</time>
      </trkpt>
      <trkpt lat="43.41612" lon="3.70661">
        <ele>1.82</ele>
        <time>2019-05-31T13:45:27.000Z</time>
      </trkpt>
      <trkpt lat="43.41624" lon="3.70641">
        <ele>2.77</ele>
        <time>2019-05-31T13:45:32.000Z</time>
      </trkpt>
      <trkpt lat="43.4164" lon="3.70624">
        <ele>2.02</ele>
        <time>2019-05-31T13:45:37.000Z</time>
      </trkpt>
      <trkpt lat="43.41631" lon="3.70601">
        <ele>1.77</ele>
        <time>2019-05-31T13:45:42.000Z</time>
      </trkpt>
      <trkpt lat="43.41615" lon="3.70574">
        <ele>0.78</ele>
        <time>2019-05-31T13:45:47.000Z</time>
      </trkpt>
      <trkpt lat="43.41602" lon="3.70543">
        <ele>0.77</ele>
        <time>2019-05-31T13:45:52.000Z</time>
      </trkpt>
      <trkpt lat="43.41589" lon="3.70509">
        <ele>0.77</ele>
        <time>2019-05-31T13:45:57.000Z</time>
      </trkpt>
      <trkpt lat="43.41576" lon="3.70473">
        <ele>0.77</ele>
        <time>2019-05-31T13:46:02.000Z</time>
      </trkpt>
      <trkpt lat="43.41566" lon="3.70435">
        <ele>0.77</ele>
        <time>2019-05-31T13:46:07.000Z</time>
      </trkpt>
      <trkpt lat="43.41557" lon="3.70397">
        <ele>0.77</ele>
        <time>2019-05-31T13:46:12.000Z</time>
      </trkpt>
      <trkpt lat="43.41549" lon="3.70358">
        <ele>0.77</ele>
        <time>2019-05-31T13:46:17.000Z</time>
      </trkpt>
      <trkpt lat="43.4154" lon="3.70318">
        <ele>0.77</ele>
        <time>2019-05-31T13:46:22.000Z</time>
      </trkpt>
      <trkpt lat="43.41531" lon="3.70278">
        <ele>1</ele>
        <time>2019-05-31T13:46:27.000Z</time>
      </trkpt>
      <trkpt lat="43.41522" lon="3.70239">
        <ele>1</ele>
        <time>2019-05-31T13:46:32.000Z</time>
      </trkpt>
      <trkpt lat="43.41513" lon="3.70201">
        <ele>2</ele>
        <time>2019-05-31T13:46:37.000Z</time>
      </trkpt>
      <trkpt lat="43.41504" lon="3.70162">
        <ele>0.71</ele>
        <time>2019-05-31T13:46:42.000Z</time>
      </trkpt>
      <trkpt lat="43.41497" lon="3.70125">
        <ele>3</ele>
        <time>2019-05-31T13:46:47.000Z</time>
      </trkpt>
      <trkpt lat="43.41491" lon="3.70088">
        <ele>3</ele>
        <time>2019-05-31T13:46:52.000Z</time>
      </trkpt>
      <trkpt lat="43.41483" lon="3.70051">
        <ele>0.52</ele>
        <time>2019-05-31T13:46:57.000Z</time>
      </trkpt>
      <trkpt lat="43.41475" lon="3.70013">
        <ele>0.77</ele>
        <time>2019-05-31T13:47:02.000Z</time>
      </trkpt>
      <trkpt lat="43.41468" lon="3.69973">
        <ele>0.83</ele>
        <time>2019-05-31T13:47:07.000Z</time>
      </trkpt>
      <trkpt lat="43.41461" lon="3.69934">
        <ele>1.52</ele>
        <time>2019-05-31T13:47:12.000Z</time>
      </trkpt>
      <trkpt lat="43.41454" lon="3.69894">
        <ele>1.77</ele>
        <time>2019-05-31T13:47:17.000Z</time>
      </trkpt>
      <trkpt lat="43.41444" lon="3.69851">
        <ele>0.83</ele>
        <time>2019-05-31T13:47:22.000Z</time>
      </trkpt>
      <trkpt lat="43.41434" lon="3.69811">
        <ele>0.77</ele>
        <time>2019-05-31T13:47:27.000Z</time>
      </trkpt>
      <trkpt lat="43.41428" lon="3.6977">
        <ele>0.76</ele>
        <time>2019-05-31T13:47:32.000Z</time>
      </trkpt>
      <trkpt lat="43.41421" lon="3.69731">
        <ele>2</ele>
        <time>2019-05-31T13:47:37.000Z</time>
      </trkpt>
      <trkpt lat="43.41412" lon="3.69689">
        <ele>0.77</ele>
        <time>2019-05-31T13:47:42.000Z</time>
      </trkpt>
      <trkpt lat="43.41405" lon="3.69652">
        <ele>0.78</ele>
        <time>2019-05-31T13:47:47.000Z</time>
      </trkpt>
      <trkpt lat="43.41396" lon="3.69615">
        <ele>1.71</ele>
        <time>2019-05-31T13:47:52.000Z</time>
      </trkpt>
      <trkpt lat="43.41389" lon="3.69579">
        <ele>1.77</ele>
        <time>2019-05-31T13:47:57.000Z</time>
      </trkpt>
      <trkpt lat="43.41381" lon="3.6954">
        <ele>2.77</ele>
        <time>2019-05-31T13:48:02.000Z</time>
      </trkpt>
      <trkpt lat="43.41373" lon="3.69501">
        <ele>2.77</ele>
        <time>2019-05-31T13:48:07.000Z</time>
      </trkpt>
      <trkpt lat="43.41365" lon="3.69463">
        <ele>2.77</ele>
        <time>2019-05-31T13:48:12.000Z</time>
      </trkpt>
      <trkpt lat="43.4136" lon="3.69432">
        <ele>1.83</ele>
        <time>2019-05-31T13:48:17.000Z</time>
      </trkpt>
      <trkpt lat="43.41368" lon="3.69413">
        <ele>1.77</ele>
        <time>2019-05-31T13:48:22.000Z</time>
      </trkpt>
      <trkpt lat="43.41358" lon="3.69408">
        <ele>2.58</ele>
        <time>2019-05-31T13:48:28.000Z</time>
      </trkpt>
      <trkpt lat="43.4135" lon="3.69398">
        <ele>1.52</ele>
        <time>2019-05-31T13:49:07.000Z</time>
      </trkpt>
      <trkpt lat="43.41345" lon="3.69381">
        <ele>3.5</ele>
        <time>2019-05-31T13:49:12.000Z</time>
      </trkpt>
      <trkpt lat="43.4134" lon="3.69356">
        <ele>4.52</ele>
        <time>2019-05-31T13:49:17.000Z</time>
      </trkpt>
      <trkpt lat="43.41334" lon="3.69333">
        <ele>5.75</ele>
        <time>2019-05-31T13:49:22.000Z</time>
      </trkpt>
      <trkpt lat="43.41326" lon="3.69314">
        <ele>7.75</ele>
        <time>2019-05-31T13:49:27.000Z</time>
      </trkpt>
      <trkpt lat="43.41315" lon="3.69298">
        <ele>8.71</ele>
        <time>2019-05-31T13:49:32.000Z</time>
      </trkpt>
      <trkpt lat="43.41301" lon="3.69286">
        <ele>8.77</ele>
        <time>2019-05-31T13:49:37.000Z</time>
      </trkpt>
      <trkpt lat="43.41284" lon="3.6928">
        <ele>9.71</ele>
        <time>2019-05-31T13:49:42.000Z</time>
      </trkpt>
      <trkpt lat="43.41265" lon="3.69281">
        <ele>9.77</ele>
        <time>2019-05-31T13:49:47.000Z</time>
      </trkpt>
      <trkpt lat="43.41245" lon="3.69287">
        <ele>9.57</ele>
        <time>2019-05-31T13:49:52.000Z</time>
      </trkpt>
      <trkpt lat="43.41225" lon="3.69295">
        <ele>9.77</ele>
        <time>2019-05-31T13:49:57.000Z</time>
      </trkpt>
      <trkpt lat="43.41206" lon="3.69306">
        <ele>9.77</ele>
        <time>2019-05-31T13:50:02.000Z</time>
      </trkpt>
      <trkpt lat="43.41188" lon="3.69326">
        <ele>9.77</ele>
        <time>2019-05-31T13:50:07.000Z</time>
      </trkpt>
      <trkpt lat="43.41175" lon="3.6936">
        <ele>9.77</ele>
        <time>2019-05-31T13:50:12.000Z</time>
      </trkpt>
      <trkpt lat="43.41172" lon="3.69401">
        <ele>9.02</ele>
        <time>2019-05-31T13:50:17.000Z</time>
      </trkpt>
      <trkpt lat="43.41174" lon="3.69448">
        <ele>7.04</ele>
        <time>2019-05-31T13:50:22.000Z</time>
      </trkpt>
      <trkpt lat="43.41176" lon="3.695">
        <ele>5.84</ele>
        <time>2019-05-31T13:50:27.000Z</time>
      </trkpt>
      <trkpt lat="43.41183" lon="3.69541">
        <ele>3.79</ele>
        <time>2019-05-31T13:50:32.000Z</time>
      </trkpt>
      <trkpt lat="43.41186" lon="3.69555">
        <ele>3.77</ele>
        <time>2019-05-31T13:50:37.000Z</time>
      </trkpt>
      <trkpt lat="43.41189" lon="3.69571">
        <ele>5.51</ele>
        <time>2019-05-31T13:50:42.000Z</time>
      </trkpt>
      <trkpt lat="43.41194" lon="3.69597">
        <ele>5.59</ele>
        <time>2019-05-31T13:50:47.000Z</time>
      </trkpt>
      <trkpt lat="43.41201" lon="3.69628">
        <ele>5.76</ele>
        <time>2019-05-31T13:50:52.000Z</time>
      </trkpt>
      <trkpt lat="43.41204" lon="3.6964">
        <ele>3.84</ele>
        <time>2019-05-31T13:51:00.000Z</time>
      </trkpt>
      <trkpt lat="43.41207" lon="3.69657">
        <ele>3.77</ele>
        <time>2019-05-31T13:51:05.000Z</time>
      </trkpt>
      <trkpt lat="43.41205" lon="3.69669">
        <ele>5.77</ele>
        <time>2019-05-31T13:51:16.000Z</time>
      </trkpt>
      <trkpt lat="43.41198" lon="3.69679">
        <ele>4.78</ele>
        <time>2019-05-31T13:51:21.000Z</time>
      </trkpt>
      <trkpt lat="43.41188" lon="3.69684">
        <ele>3.76</ele>
        <time>2019-05-31T13:51:46.000Z</time>
      </trkpt>
      <trkpt lat="43.4117" lon="3.69691">
        <ele>3.77</ele>
        <time>2019-05-31T13:51:51.000Z</time>
      </trkpt>
      <trkpt lat="43.41146" lon="3.69699">
        <ele>2.84</ele>
        <time>2019-05-31T13:51:56.000Z</time>
      </trkpt>
      <trkpt lat="43.41131" lon="3.69704">
        <ele>2.02</ele>
        <time>2019-05-31T13:52:01.000Z</time>
      </trkpt>
      <trkpt lat="43.41117" lon="3.69709">
        <ele>2.77</ele>
        <time>2019-05-31T13:52:06.000Z</time>
      </trkpt>
      <trkpt lat="43.41104" lon="3.69714">
        <ele>2.77</ele>
        <time>2019-05-31T13:52:11.000Z</time>
      </trkpt>
      <trkpt lat="43.41089" lon="3.69716">
        <ele>2.78</ele>
        <time>2019-05-31T13:52:16.000Z</time>
      </trkpt>
      <trkpt lat="43.41068" lon="3.69725">
        <ele>1.03</ele>
        <time>2019-05-31T13:52:21.000Z</time>
      </trkpt>
      <trkpt lat="43.41055" lon="3.6973">
        <ele>0.71</ele>
        <time>2019-05-31T13:52:26.000Z</time>
      </trkpt>
      <trkpt lat="43.41045" lon="3.69733">
        <ele>0.01</ele>
        <time>2019-05-31T13:52:38.000Z</time>
      </trkpt>
      <trkpt lat="43.41024" lon="3.6974">
        <ele>0.96</ele>
        <time>2019-05-31T13:52:43.000Z</time>
      </trkpt>
      <trkpt lat="43.41" lon="3.69747">
        <ele>0.79</ele>
        <time>2019-05-31T13:52:48.000Z</time>
      </trkpt>
      <trkpt lat="43.40975" lon="3.69761">
        <ele>3.45</ele>
        <time>2019-05-31T13:52:53.000Z</time>
      </trkpt>
      <trkpt lat="43.40954" lon="3.69772">
        <ele>2.1</ele>
        <time>2019-05-31T13:52:58.000Z</time>
      </trkpt>
      <trkpt lat="43.4093" lon="3.69781">
        <ele>2.78</ele>
        <time>2019-05-31T13:53:03.000Z</time>
      </trkpt>
      <trkpt lat="43.40907" lon="3.69786">
        <ele>3.54</ele>
        <time>2019-05-31T13:53:08.000Z</time>
      </trkpt>
      <trkpt lat="43.40887" lon="3.69793">
        <ele>3.03</ele>
        <time>2019-05-31T13:53:13.000Z</time>
      </trkpt>
      <trkpt lat="43.40865" lon="3.69798">
        <ele>3.03</ele>
        <time>2019-05-31T13:53:18.000Z</time>
      </trkpt>
      <trkpt lat="43.40841" lon="3.69805">
        <ele>2.95</ele>
        <time>2019-05-31T13:53:23.000Z</time>
      </trkpt>
      <trkpt lat="43.40818" lon="3.69815">
        <ele>2.84</ele>
        <time>2019-05-31T13:53:28.000Z</time>
      </trkpt>
      <trkpt lat="43.40792" lon="3.69822">
        <ele>2.54</ele>
        <time>2019-05-31T13:53:33.000Z</time>
      </trkpt>
      <trkpt lat="43.40769" lon="3.69833">
        <ele>2.84</ele>
        <time>2019-05-31T13:53:38.000Z</time>
      </trkpt>
      <trkpt lat="43.40748" lon="3.69843">
        <ele>1.78</ele>
        <time>2019-05-31T13:53:43.000Z</time>
      </trkpt>
      <trkpt lat="43.40739" lon="3.69848">
        <ele>1.56</ele>
        <time>2019-05-31T13:53:48.000Z</time>
      </trkpt>
      <trkpt lat="43.40727" lon="3.69851">
        <ele>1.86</ele>
        <time>2019-05-31T13:54:21.000Z</time>
      </trkpt>
      <trkpt lat="43.40707" lon="3.69859">
        <ele>4.71</ele>
        <time>2019-05-31T13:54:26.000Z</time>
      </trkpt>
      <trkpt lat="43.4069" lon="3.69863">
        <ele>5.77</ele>
        <time>2019-05-31T13:54:31.000Z</time>
      </trkpt>
      <trkpt lat="43.40675" lon="3.69852">
        <ele>6.95</ele>
        <time>2019-05-31T13:54:36.000Z</time>
      </trkpt>
      <trkpt lat="43.40665" lon="3.69821">
        <ele>6.79</ele>
        <time>2019-05-31T13:54:41.000Z</time>
      </trkpt>
      <trkpt lat="43.40651" lon="3.69791">
        <ele>5.78</ele>
        <time>2019-05-31T13:54:46.000Z</time>
      </trkpt>
      <trkpt lat="43.40638" lon="3.69761">
        <ele>6.84</ele>
        <time>2019-05-31T13:54:51.000Z</time>
      </trkpt>
      <trkpt lat="43.40628" lon="3.69726">
        <ele>6.03</ele>
        <time>2019-05-31T13:54:56.000Z</time>
      </trkpt>
      <trkpt lat="43.40637" lon="3.69696">
        <ele>1.91</ele>
        <time>2019-05-31T13:55:01.000Z</time>
      </trkpt>
      <trkpt lat="43.40645" lon="3.69691">
        <ele>4.51</ele>
        <time>2019-05-31T13:55:15.000Z</time>
      </trkpt>
      <trkpt lat="43.40656" lon="3.69687">
        <ele>4.77</ele>
        <time>2019-05-31T13:55:20.000Z</time>
      </trkpt>
      <trkpt lat="43.40671" lon="3.6968">
        <ele>6.95</ele>
        <time>2019-05-31T13:55:25.000Z</time>
      </trkpt>
      <trkpt lat="43.40683" lon="3.69671">
        <ele>5.78</ele>
        <time>2019-05-31T13:55:30.000Z</time>
      </trkpt>
      <trkpt lat="43.40684" lon="3.69646">
        <ele>5.78</ele>
        <time>2019-05-31T13:55:35.000Z</time>
      </trkpt>
      <trkpt lat="43.40681" lon="3.69631">
        <ele>5.55</ele>
        <time>2019-05-31T13:55:40.000Z</time>
      </trkpt>
      <trkpt lat="43.40675" lon="3.6962">
        <ele>5.83</ele>
        <time>2019-05-31T13:55:48.000Z</time>
      </trkpt>
      <trkpt lat="43.40651" lon="3.69619">
        <ele>3.8</ele>
        <time>2019-05-31T13:55:53.000Z</time>
      </trkpt>
      <trkpt lat="43.40629" lon="3.69625">
        <ele>3.78</ele>
        <time>2019-05-31T13:55:58.000Z</time>
      </trkpt>
      <trkpt lat="43.40608" lon="3.69632">
        <ele>3.02</ele>
        <time>2019-05-31T13:56:03.000Z</time>
      </trkpt>
      <trkpt lat="43.40585" lon="3.69639">
        <ele>1.8</ele>
        <time>2019-05-31T13:56:08.000Z</time>
      </trkpt>
      <trkpt lat="43.40563" lon="3.69646">
        <ele>1.78</ele>
        <time>2019-05-31T13:56:13.000Z</time>
      </trkpt>
      <trkpt lat="43.40542" lon="3.69653">
        <ele>6</ele>
        <time>2019-05-31T13:56:18.000Z</time>
      </trkpt>
      <trkpt lat="43.40521" lon="3.6965">
        <ele>6</ele>
        <time>2019-05-31T13:56:23.000Z</time>
      </trkpt>
      <trkpt lat="43.40496" lon="3.69651">
        <ele>6</ele>
        <time>2019-05-31T13:56:28.000Z</time>
      </trkpt>
      <trkpt lat="43.4047" lon="3.69658">
        <ele>7</ele>
        <time>2019-05-31T13:56:33.000Z</time>
      </trkpt>
      <trkpt lat="43.40445" lon="3.69662">
        <ele>7</ele>
        <time>2019-05-31T13:56:38.000Z</time>
      </trkpt>
      <trkpt lat="43.40426" lon="3.69666">
        <ele>7</ele>
        <time>2019-05-31T13:56:43.000Z</time>
      </trkpt>
      <trkpt lat="43.4041" lon="3.6967">
        <ele>0.71</ele>
        <time>2019-05-31T13:56:48.000Z</time>
      </trkpt>
      <trkpt lat="43.40401" lon="3.69673">
        <ele>3.53</ele>
        <time>2019-05-31T13:57:01.000Z</time>
      </trkpt>
      <trkpt lat="43.40392" lon="3.6967">
        <ele>2.8</ele>
        <time>2019-05-31T13:57:35.000Z</time>
      </trkpt>
      <trkpt lat="43.40383" lon="3.69671">
        <ele>4.78</ele>
        <time>2019-05-31T13:57:45.000Z</time>
      </trkpt>
      <trkpt lat="43.40375" lon="3.6968">
        <ele>7.8</ele>
        <time>2019-05-31T13:57:59.000Z</time>
      </trkpt>
      <trkpt lat="43.4036" lon="3.69686">
        <ele>6.85</ele>
        <time>2019-05-31T13:58:04.000Z</time>
      </trkpt>
      <trkpt lat="43.40341" lon="3.6969">
        <ele>6.52</ele>
        <time>2019-05-31T13:58:09.000Z</time>
      </trkpt>
      <trkpt lat="43.40324" lon="3.69693">
        <ele>9.7</ele>
        <time>2019-05-31T13:58:14.000Z</time>
      </trkpt>
      <trkpt lat="43.40309" lon="3.69696">
        <ele>12.71</ele>
        <time>2019-05-31T13:58:19.000Z</time>
      </trkpt>
      <trkpt lat="43.40292" lon="3.69697">
        <ele>11.79</ele>
        <time>2019-05-31T13:58:24.000Z</time>
      </trkpt>
      <trkpt lat="43.40271" lon="3.69704">
        <ele>11.03</ele>
        <time>2019-05-31T13:58:29.000Z</time>
      </trkpt>
      <trkpt lat="43.40248" lon="3.69711">
        <ele>11.55</ele>
        <time>2019-05-31T13:58:34.000Z</time>
      </trkpt>
      <trkpt lat="43.40229" lon="3.69716">
        <ele>11.04</ele>
        <time>2019-05-31T13:58:39.000Z</time>
      </trkpt>
      <trkpt lat="43.40208" lon="3.69713">
        <ele>10.04</ele>
        <time>2019-05-31T13:58:44.000Z</time>
      </trkpt>
      <trkpt lat="43.40191" lon="3.69709">
        <ele>8.85</ele>
        <time>2019-05-31T13:58:49.000Z</time>
      </trkpt>
      <trkpt lat="43.40178" lon="3.6971">
        <ele>6.99</ele>
        <time>2019-05-31T13:58:54.000Z</time>
      </trkpt>
      <trkpt lat="43.40164" lon="3.69716">
        <ele>9.33</ele>
        <time>2019-05-31T13:58:59.000Z</time>
      </trkpt>
      <trkpt lat="43.40164" lon="3.69735">
        <ele>9.05</ele>
        <time>2019-05-31T13:59:04.000Z</time>
      </trkpt>
      <trkpt lat="43.40172" lon="3.69739">
        <ele>4.77</ele>
        <time>2019-05-31T13:59:40.000Z</time>
      </trkpt>
      <trkpt lat="43.40169" lon="3.69727">
        <ele>1.79</ele>
        <time>2019-05-31T14:01:32.000Z</time>
      </trkpt>
      <trkpt lat="43.40165" lon="3.69714">
        <ele>2.79</ele>
        <time>2019-05-31T14:01:40.000Z</time>
      </trkpt>
      <trkpt lat="43.40157" lon="3.69703">
        <ele>4.6</ele>
        <time>2019-05-31T14:01:45.000Z</time>
      </trkpt>
      <trkpt lat="43.4014" lon="3.69699">
        <ele>4.04</ele>
        <time>2019-05-31T14:01:50.000Z</time>
      </trkpt>
      <trkpt lat="43.40125" lon="3.69694">
        <ele>4.54</ele>
        <time>2019-05-31T14:01:55.000Z</time>
      </trkpt>
      <trkpt lat="43.40108" lon="3.69689">
        <ele>2.8</ele>
        <time>2019-05-31T14:02:00.000Z</time>
      </trkpt>
      <trkpt lat="43.40099" lon="3.69687">
        <ele>1.79</ele>
        <time>2019-05-31T14:02:07.000Z</time>
      </trkpt>
      <trkpt lat="43.40079" lon="3.69682">
        <ele>2.78</ele>
        <time>2019-05-31T14:02:12.000Z</time>
      </trkpt>
      <trkpt lat="43.40059" lon="3.69675">
        <ele>2.78</ele>
        <time>2019-05-31T14:02:17.000Z</time>
      </trkpt>
      <trkpt lat="43.40038" lon="3.6967">
        <ele>0.3</ele>
        <time>2019-05-31T14:02:22.000Z</time>
      </trkpt>
      <trkpt lat="43.40018" lon="3.69665">
        <ele>1.54</ele>
        <time>2019-05-31T14:02:27.000Z</time>
      </trkpt>
      <trkpt lat="43.39998" lon="3.6966">
        <ele>0.04</ele>
        <time>2019-05-31T14:02:32.000Z</time>
      </trkpt>
      <trkpt lat="43.39978" lon="3.69655">
        <ele>0.55</ele>
        <time>2019-05-31T14:02:37.000Z</time>
      </trkpt>
      <trkpt lat="43.39958" lon="3.69652">
        <ele>0.79</ele>
        <time>2019-05-31T14:02:42.000Z</time>
      </trkpt>
      <trkpt lat="43.39938" lon="3.69656">
        <ele>1.79</ele>
        <time>2019-05-31T14:02:47.000Z</time>
      </trkpt>
      <trkpt lat="43.39919" lon="3.69661">
        <ele>1.79</ele>
        <time>2019-05-31T14:02:52.000Z</time>
      </trkpt>
      <trkpt lat="43.39901" lon="3.69667">
        <ele>0.05</ele>
        <time>2019-05-31T14:02:57.000Z</time>
      </trkpt>
      <trkpt lat="43.39883" lon="3.69675">
        <ele>0.73</ele>
        <time>2019-05-31T14:03:02.000Z</time>
      </trkpt>
      <trkpt lat="43.39865" lon="3.69681">
        <ele>0.79</ele>
        <time>2019-05-31T14:03:07.000Z</time>
      </trkpt>
      <trkpt lat="43.39848" lon="3.69679">
        <ele>4</ele>
        <time>2019-05-31T14:03:12.000Z</time>
      </trkpt>
      <trkpt lat="43.39839" lon="3.69676">
        <ele>4</ele>
        <time>2019-05-31T14:03:17.000Z</time>
      </trkpt>
      <trkpt lat="43.39829" lon="3.69679">
        <ele>1.79</ele>
        <time>2019-05-31T14:03:23.000Z</time>
      </trkpt>
      <trkpt lat="43.39816" lon="3.69676">
        <ele>1.79</ele>
        <time>2019-05-31T14:03:28.000Z</time>
      </trkpt>
      <trkpt lat="43.39803" lon="3.6967">
        <ele>2.78</ele>
        <time>2019-05-31T14:03:33.000Z</time>
      </trkpt>
      <trkpt lat="43.3979" lon="3.69669">
        <ele>3.54</ele>
        <time>2019-05-31T14:03:38.000Z</time>
      </trkpt>
      <trkpt lat="43.39799" lon="3.69672">
        <ele>6.61</ele>
        <time>2019-05-31T14:04:00.000Z</time>
      </trkpt>
      <trkpt lat="43.39809" lon="3.69675">
        <ele>6.8</ele>
        <time>2019-05-31T14:04:06.000Z</time>
      </trkpt>
      <trkpt lat="43.39818" lon="3.69678">
        <ele>5.85</ele>
        <time>2019-05-31T14:04:13.000Z</time>
      </trkpt>
      <trkpt lat="43.3981" lon="3.69674">
        <ele>7.48</ele>
        <time>2019-05-31T14:05:02.000Z</time>
      </trkpt>
      <trkpt lat="43.39813" lon="3.69685">
        <ele>5.6</ele>
        <time>2019-05-31T14:05:51.000Z</time>
      </trkpt>
      <trkpt lat="43.39818" lon="3.69678">
        <ele>4</ele>
        <time>2019-05-31T14:10:15.000Z</time>
      </trkpt>
    </trkseg>
  </trk>
</gpx>